<?xml version='1.0' encoding='UTF-8'?><gpx version="1.1" creator="JPX - https://github.com/jenetics/jpx" xmlns="http://www.topografix.com/GPX/1/1"><trk><trkseg><trkpt lat="44.5010477" lon="8.8983485"><ele>111.00000000000001</ele><time>2026-04-09T11:38:09Z</time></trkpt><trkpt lat="44.5011098" lon="8.8985047"><ele>110.0</ele><time>2026-04-09T11:38:10.999Z</time></trkpt><trkpt lat="44.5011468" lon="8.8986033"><ele>109.0</ele><time>2026-04-09T11:38:13.999Z</time></trkpt><trkpt lat="44.5011657" lon="8.8987243"><ele>108.0</ele><time>2026-04-09T11:38:15Z</time></trkpt><trkpt lat="44.5011611" lon="8.8988135"><ele>107.00000000000001</ele><time>2026-04-09T11:38:25Z</time></trkpt><trkpt lat="44.5011993" lon="8.898889"><ele>106.0</ele><time>2026-04-09T11:38:33Z</time></trkpt><trkpt lat="44.5012306" lon="8.898966"><ele>106.00000000000001</ele><time>2026-04-09T11:39:22.999Z</time></trkpt><trkpt lat="44.5011747" lon="8.8990167"><ele>106.0</ele><time>2026-04-09T11:40:40.019Z</time></trkpt><trkpt lat="44.5011139" lon="8.8991463"><ele>106.0</ele><time>2026-04-09T11:41:02.598Z</time></trkpt><trkpt lat="44.5011501" lon="8.8990455"><ele>106.0</ele><time>2026-04-09T11:41:06.042Z</time></trkpt><trkpt lat="44.5011917" lon="8.8989754"><ele>106.00000000000001</ele><time>2026-04-09T11:41:34.047Z</time></trkpt><trkpt lat="44.5011122" lon="8.8989873"><ele>106.0</ele><time>2026-04-09T11:41:50Z</time></trkpt><trkpt lat="44.5010466" lon="8.899014"><ele>106.0</ele><time>2026-04-09T11:41:51.999Z</time></trkpt><trkpt lat="44.5010229" lon="8.8991644"><ele>106.0</ele><time>2026-04-09T11:41:55Z</time></trkpt><trkpt lat="44.5010776" lon="8.8992478"><ele>106.0</ele><time>2026-04-09T11:41:57.999Z</time></trkpt><trkpt lat="44.5011117" lon="8.8993479"><ele>106.0</ele><time>2026-04-09T11:42:01Z</time></trkpt><trkpt lat="44.5010409" lon="8.8994484"><ele>106.0</ele><time>2026-04-09T11:42:04Z</time></trkpt><trkpt lat="44.5009631" lon="8.8995313"><ele>104.33333333333334</ele><time>2026-04-09T11:42:04.999Z</time></trkpt><trkpt lat="44.5008978" lon="8.8995987"><ele>102.66666666666667</ele><time>2026-04-09T11:42:06Z</time></trkpt><trkpt lat="44.5008389" lon="8.8996749"><ele>101.0</ele><time>2026-04-09T11:42:06.999Z</time></trkpt><trkpt lat="44.5007781" lon="8.8997644"><ele>99.33333333333334</ele><time>2026-04-09T11:42:08Z</time></trkpt><trkpt lat="44.5007129" lon="8.8998618"><ele>97.66666666666667</ele><time>2026-04-09T11:42:08.999Z</time></trkpt><trkpt lat="44.5006452" lon="8.8999512"><ele>96.0</ele><time>2026-04-09T11:42:09.999Z</time></trkpt><trkpt lat="44.5005796" lon="8.9000304"><ele>95.5</ele><time>2026-04-09T11:42:10.999Z</time></trkpt><trkpt lat="44.5005085" lon="8.9001272"><ele>95.0</ele><time>2026-04-09T11:42:11.999Z</time></trkpt><trkpt lat="44.5004362" lon="8.9001917"><ele>94.5</ele><time>2026-04-09T11:42:13Z</time></trkpt><trkpt lat="44.5003662" lon="8.9002328"><ele>94.0</ele><time>2026-04-09T11:42:13.999Z</time></trkpt><trkpt lat="44.500291" lon="8.9002447"><ele>93.5</ele><time>2026-04-09T11:42:14.999Z</time></trkpt><trkpt lat="44.5002195" lon="8.9002438"><ele>93.0</ele><time>2026-04-09T11:42:16Z</time></trkpt><trkpt lat="44.5001452" lon="8.9002541"><ele>93.0</ele><time>2026-04-09T11:42:16.999Z</time></trkpt><trkpt lat="44.5000732" lon="8.9002578"><ele>93.0</ele><time>2026-04-09T11:42:17.999Z</time></trkpt><trkpt lat="44.4999983" lon="8.9002644"><ele>93.0</ele><time>2026-04-09T11:42:18.999Z</time></trkpt><trkpt lat="44.4999312" lon="8.9002825"><ele>93.0</ele><time>2026-04-09T11:42:20Z</time></trkpt><trkpt lat="44.4998555" lon="8.9003163"><ele>93.0</ele><time>2026-04-09T11:42:21Z</time></trkpt><trkpt lat="44.4997912" lon="8.9003711"><ele>93.0</ele><time>2026-04-09T11:42:22Z</time></trkpt><trkpt lat="44.4997439" lon="8.9004998"><ele>93.0</ele><time>2026-04-09T11:42:23.999Z</time></trkpt><trkpt lat="44.4996901" lon="8.9005781"><ele>93.0</ele><time>2026-04-09T11:42:25Z</time></trkpt><trkpt lat="44.4996046" lon="8.9007147"><ele>93.0</ele><time>2026-04-09T11:42:26.999Z</time></trkpt><trkpt lat="44.4995534" lon="8.900796"><ele>93.0</ele><time>2026-04-09T11:42:28Z</time></trkpt><trkpt lat="44.4994945" lon="8.9008771"><ele>93.0</ele><time>2026-04-09T11:42:28.999Z</time></trkpt><trkpt lat="44.4994354" lon="8.900944"><ele>93.0</ele><time>2026-04-09T11:42:29.999Z</time></trkpt><trkpt lat="44.4993703" lon="8.9009912"><ele>92.85714285714286</ele><time>2026-04-09T11:42:31Z</time></trkpt><trkpt lat="44.4992987" lon="8.9010428"><ele>92.71428571428572</ele><time>2026-04-09T11:42:32Z</time></trkpt><trkpt lat="44.4992385" lon="8.9010759"><ele>92.57142857142858</ele><time>2026-04-09T11:42:33Z</time></trkpt><trkpt lat="44.4991754" lon="8.9011113"><ele>92.42857142857143</ele><time>2026-04-09T11:42:33.999Z</time></trkpt><trkpt lat="44.4991195" lon="8.9011521"><ele>92.28571428571428</ele><time>2026-04-09T11:42:34.999Z</time></trkpt><trkpt lat="44.4990613" lon="8.9011874"><ele>92.14285714285715</ele><time>2026-04-09T11:42:36Z</time></trkpt><trkpt lat="44.498983" lon="8.9012824"><ele>92.0</ele><time>2026-04-09T11:42:38.141Z</time></trkpt><trkpt lat="44.498968" lon="8.901401"><ele>92.0</ele><time>2026-04-09T11:42:39.999Z</time></trkpt><trkpt lat="44.4989767" lon="8.9014924"><ele>92.0</ele><time>2026-04-09T11:42:41.141Z</time></trkpt><trkpt lat="44.4990062" lon="8.9015861"><ele>92.0</ele><time>2026-04-09T11:42:42.118Z</time></trkpt><trkpt lat="44.4990632" lon="8.9017987"><ele>92.0</ele><time>2026-04-09T11:42:44Z</time></trkpt><trkpt lat="44.4990912" lon="8.9019101"><ele>92.0</ele><time>2026-04-09T11:42:44.999Z</time></trkpt><trkpt lat="44.4991237" lon="8.9020137"><ele>92.8</ele><time>2026-04-09T11:42:46Z</time></trkpt><trkpt lat="44.4991564" lon="8.9021266"><ele>93.6</ele><time>2026-04-09T11:42:47Z</time></trkpt><trkpt lat="44.4991855" lon="8.9022454"><ele>94.39999999999999</ele><time>2026-04-09T11:42:48.146Z</time></trkpt><trkpt lat="44.4992392" lon="8.9024333"><ele>95.19999999999999</ele><time>2026-04-09T11:42:49.999Z</time></trkpt><trkpt lat="44.4992711" lon="8.9025116"><ele>96.0</ele><time>2026-04-09T11:42:50.999Z</time></trkpt><trkpt lat="44.4993402" lon="8.9026348"><ele>96.0</ele><time>2026-04-09T11:42:53Z</time></trkpt><trkpt lat="44.4994057" lon="8.9026476"><ele>96.0</ele><time>2026-04-09T11:42:54Z</time></trkpt><trkpt lat="44.4994717" lon="8.902645"><ele>96.0</ele><time>2026-04-09T11:42:55Z</time></trkpt><trkpt lat="44.4995934" lon="8.9026375"><ele>96.0</ele><time>2026-04-09T11:42:56.999Z</time></trkpt><trkpt lat="44.4998002" lon="8.9026914"><ele>96.6</ele><time>2026-04-09T11:43:00Z</time></trkpt><trkpt lat="44.4999313" lon="8.902724"><ele>97.19999999999999</ele><time>2026-04-09T11:43:02.123Z</time></trkpt><trkpt lat="44.500077" lon="8.9027651"><ele>97.80000000000001</ele><time>2026-04-09T11:43:04Z</time></trkpt><trkpt lat="44.5001516" lon="8.9027844"><ele>98.4</ele><time>2026-04-09T11:43:04.999Z</time></trkpt><trkpt lat="44.5002206" lon="8.9028026"><ele>99.0</ele><time>2026-04-09T11:43:06Z</time></trkpt><trkpt lat="44.5002896" lon="8.9028153"><ele>101.75</ele><time>2026-04-09T11:43:07.129Z</time></trkpt><trkpt lat="44.5004769" lon="8.9028638"><ele>104.5</ele><time>2026-04-09T11:43:10Z</time></trkpt><trkpt lat="44.5006029" lon="8.9029008"><ele>107.25</ele><time>2026-04-09T11:43:12.167Z</time></trkpt><trkpt lat="44.5007221" lon="8.9029417"><ele>110.0</ele><time>2026-04-09T11:43:15Z</time></trkpt><trkpt lat="44.5007852" lon="8.9029944"><ele>109.99999999999999</ele><time>2026-04-09T11:43:16.999Z</time></trkpt><trkpt lat="44.5008243" lon="8.9030767"><ele>110.0</ele><time>2026-04-09T11:43:19.102Z</time></trkpt><trkpt lat="44.5008581" lon="8.9031772"><ele>110.0</ele><time>2026-04-09T11:43:22.112Z</time></trkpt><trkpt lat="44.5009095" lon="8.9032385"><ele>110.0</ele><time>2026-04-09T11:43:24.999Z</time></trkpt><trkpt lat="44.501" lon="8.9033016"><ele>109.99999999999999</ele><time>2026-04-09T11:43:27Z</time></trkpt><trkpt lat="44.5010557" lon="8.9034365"><ele>110.0</ele><time>2026-04-09T11:43:28.999Z</time></trkpt><trkpt lat="44.5011105" lon="8.9035823"><ele>110.0</ele><time>2026-04-09T11:43:31Z</time></trkpt><trkpt lat="44.501224" lon="8.9038353"><ele>110.0</ele><time>2026-04-09T11:43:35Z</time></trkpt><trkpt lat="44.5012636" lon="8.9039127"><ele>110.0</ele><time>2026-04-09T11:43:36Z</time></trkpt><trkpt lat="44.5012991" lon="8.9040033"><ele>110.0</ele><time>2026-04-09T11:43:37.159Z</time></trkpt><trkpt lat="44.5013455" lon="8.9041135"><ele>110.0</ele><time>2026-04-09T11:43:38.129Z</time></trkpt><trkpt lat="44.5014393" lon="8.904292"><ele>110.0</ele><time>2026-04-09T11:43:40Z</time></trkpt><trkpt lat="44.5014899" lon="8.9043587"><ele>110.0</ele><time>2026-04-09T11:43:41Z</time></trkpt><trkpt lat="44.5015356" lon="8.9044533"><ele>110.0</ele><time>2026-04-09T11:43:42.144Z</time></trkpt><trkpt lat="44.5015866" lon="8.9045408"><ele>110.0</ele><time>2026-04-09T11:43:43.149Z</time></trkpt><trkpt lat="44.5017017" lon="8.9047003"><ele>110.0</ele><time>2026-04-09T11:43:45Z</time></trkpt><trkpt lat="44.5017642" lon="8.9047685"><ele>110.0</ele><time>2026-04-09T11:43:46.162Z</time></trkpt><trkpt lat="44.5018298" lon="8.9048423"><ele>110.0</ele><time>2026-04-09T11:43:47.102Z</time></trkpt><trkpt lat="44.5018837" lon="8.9049121"><ele>110.0</ele><time>2026-04-09T11:43:48.135Z</time></trkpt><trkpt lat="44.5020061" lon="8.9050364"><ele>110.0</ele><time>2026-04-09T11:43:50Z</time></trkpt><trkpt lat="44.5020691" lon="8.9050889"><ele>110.0</ele><time>2026-04-09T11:43:51Z</time></trkpt><trkpt lat="44.5021633" lon="8.905099"><ele>110.25</ele><time>2026-04-09T11:43:52.155Z</time></trkpt><trkpt lat="44.502243" lon="8.9050949"><ele>110.5</ele><time>2026-04-09T11:43:53.118Z</time></trkpt><trkpt lat="44.5024119" lon="8.905136"><ele>110.75</ele><time>2026-04-09T11:43:54.999Z</time></trkpt><trkpt lat="44.5024913" lon="8.9051558"><ele>111.0</ele><time>2026-04-09T11:43:56.11Z</time></trkpt><trkpt lat="44.5026525" lon="8.9051793"><ele>111.0</ele><time>2026-04-09T11:43:58.14Z</time></trkpt><trkpt lat="44.5028294" lon="8.9051721"><ele>111.0</ele><time>2026-04-09T11:44:00Z</time></trkpt><trkpt lat="44.5029213" lon="8.9051698"><ele>111.0</ele><time>2026-04-09T11:44:01.149Z</time></trkpt><trkpt lat="44.5030185" lon="8.9051745"><ele>111.0</ele><time>2026-04-09T11:44:02.17Z</time></trkpt><trkpt lat="44.5031134" lon="8.9051708"><ele>111.6</ele><time>2026-04-09T11:44:03.123Z</time></trkpt><trkpt lat="44.5032854" lon="8.9051417"><ele>112.19999999999999</ele><time>2026-04-09T11:44:04.999Z</time></trkpt><trkpt lat="44.5033795" lon="8.9051342"><ele>112.80000000000001</ele><time>2026-04-09T11:44:05.999Z</time></trkpt><trkpt lat="44.5034603" lon="8.9051597"><ele>113.4</ele><time>2026-04-09T11:44:07.139Z</time></trkpt><trkpt lat="44.5035326" lon="8.9051891"><ele>114.0</ele><time>2026-04-09T11:44:08.144Z</time></trkpt><trkpt lat="44.5036823" lon="8.9053597"><ele>117.5</ele><time>2026-04-09T11:44:09.999Z</time></trkpt><trkpt lat="44.5037628" lon="8.9054513"><ele>121.0</ele><time>2026-04-09T11:44:11.135Z</time></trkpt><trkpt lat="44.5038338" lon="8.9055444"><ele>124.5</ele><time>2026-04-09T11:44:12.165Z</time></trkpt><trkpt lat="44.5039017" lon="8.9056265"><ele>128.0</ele><time>2026-04-09T11:44:13.119Z</time></trkpt><trkpt lat="44.5040723" lon="8.9057476"><ele>128.0</ele><time>2026-04-09T11:44:15Z</time></trkpt><trkpt lat="44.5041668" lon="8.9057641"><ele>128.0</ele><time>2026-04-09T11:44:16.153Z</time></trkpt><trkpt lat="44.5042685" lon="8.9057692"><ele>128.0</ele><time>2026-04-09T11:44:17.144Z</time></trkpt><trkpt lat="44.5043704" lon="8.9057668"><ele>128.0</ele><time>2026-04-09T11:44:18.114Z</time></trkpt><trkpt lat="44.5045761" lon="8.9057604"><ele>129.5</ele><time>2026-04-09T11:44:20.127Z</time></trkpt><trkpt lat="44.5046755" lon="8.9057534"><ele>131.0</ele><time>2026-04-09T11:44:21.125Z</time></trkpt><trkpt lat="44.5047679" lon="8.905747"><ele>132.5</ele><time>2026-04-09T11:44:22.134Z</time></trkpt><trkpt lat="44.5048617" lon="8.9057229"><ele>134.0</ele><time>2026-04-09T11:44:23.134Z</time></trkpt><trkpt lat="44.5050392" lon="8.9056783"><ele>134.0</ele><time>2026-04-09T11:44:24.999Z</time></trkpt><trkpt lat="44.5051475" lon="8.9057147"><ele>134.0</ele><time>2026-04-09T11:44:26.143Z</time></trkpt><trkpt lat="44.5052441" lon="8.9057685"><ele>134.0</ele><time>2026-04-09T11:44:27.148Z</time></trkpt><trkpt lat="44.5053319" lon="8.9058454"><ele>134.0</ele><time>2026-04-09T11:44:28.112Z</time></trkpt><trkpt lat="44.505513" lon="8.9060167"><ele>133.6</ele><time>2026-04-09T11:44:30Z</time></trkpt><trkpt lat="44.5055981" lon="8.9060901"><ele>133.2</ele><time>2026-04-09T11:44:31.152Z</time></trkpt><trkpt lat="44.5056781" lon="8.906164"><ele>132.79999999999998</ele><time>2026-04-09T11:44:32.117Z</time></trkpt><trkpt lat="44.5058379" lon="8.9061991"><ele>132.4</ele><time>2026-04-09T11:44:34Z</time></trkpt><trkpt lat="44.5059119" lon="8.9061654"><ele>132.0</ele><time>2026-04-09T11:44:35Z</time></trkpt><trkpt lat="44.5059759" lon="8.9061115"><ele>134.6</ele><time>2026-04-09T11:44:36.152Z</time></trkpt><trkpt lat="44.5060097" lon="8.9058896"><ele>137.2</ele><time>2026-04-09T11:44:38.999Z</time></trkpt><trkpt lat="44.5059143" lon="8.9058177"><ele>139.8</ele><time>2026-04-09T11:44:40.149Z</time></trkpt><trkpt lat="44.5058463" lon="8.9057655"><ele>142.4</ele><time>2026-04-09T11:44:41.117Z</time></trkpt><trkpt lat="44.5057766" lon="8.9057015"><ele>145.0</ele><time>2026-04-09T11:44:42.158Z</time></trkpt><trkpt lat="44.5057089" lon="8.9056309"><ele>145.0</ele><time>2026-04-09T11:44:43.104Z</time></trkpt><trkpt lat="44.5055631" lon="8.9054547"><ele>145.0</ele><time>2026-04-09T11:44:44.999Z</time></trkpt><trkpt lat="44.5054958" lon="8.905367"><ele>145.0</ele><time>2026-04-09T11:44:46.152Z</time></trkpt><trkpt lat="44.5054225" lon="8.9052904"><ele>145.0</ele><time>2026-04-09T11:44:47.151Z</time></trkpt><trkpt lat="44.505336" lon="8.9052364"><ele>142.25</ele><time>2026-04-09T11:44:48.15Z</time></trkpt><trkpt lat="44.5051625" lon="8.9052008"><ele>139.5</ele><time>2026-04-09T11:44:49.999Z</time></trkpt><trkpt lat="44.5050957" lon="8.9052147"><ele>136.75</ele><time>2026-04-09T11:44:51.153Z</time></trkpt><trkpt lat="44.5049833" lon="8.9051674"><ele>134.0</ele><time>2026-04-09T11:44:53.166Z</time></trkpt><trkpt lat="44.5049504" lon="8.9050429"><ele>138.6</ele><time>2026-04-09T11:44:54.999Z</time></trkpt><trkpt lat="44.5050251" lon="8.9049646"><ele>143.2</ele><time>2026-04-09T11:44:57.139Z</time></trkpt><trkpt lat="44.5051007" lon="8.9049743"><ele>147.79999999999998</ele><time>2026-04-09T11:44:58.162Z</time></trkpt><trkpt lat="44.5052474" lon="8.9050008"><ele>152.4</ele><time>2026-04-09T11:45:00Z</time></trkpt><trkpt lat="44.5053529" lon="8.9050016"><ele>157.0</ele><time>2026-04-09T11:45:01.159Z</time></trkpt><trkpt lat="44.5054484" lon="8.9049923"><ele>157.0</ele><time>2026-04-09T11:45:02.169Z</time></trkpt><trkpt lat="44.5055472" lon="8.9049754"><ele>157.0</ele><time>2026-04-09T11:45:03.132Z</time></trkpt><trkpt lat="44.5057511" lon="8.9049438"><ele>157.0</ele><time>2026-04-09T11:45:05Z</time></trkpt><trkpt lat="44.5058548" lon="8.9049445"><ele>157.0</ele><time>2026-04-09T11:45:06.152Z</time></trkpt><trkpt lat="44.5059552" lon="8.9049596"><ele>157.0</ele><time>2026-04-09T11:45:07.152Z</time></trkpt><trkpt lat="44.5060535" lon="8.9049876"><ele>157.0</ele><time>2026-04-09T11:45:08.156Z</time></trkpt><trkpt lat="44.5062242" lon="8.9051486"><ele>157.0</ele><time>2026-04-09T11:45:09.999Z</time></trkpt><trkpt lat="44.5063026" lon="8.905234"><ele>157.0</ele><time>2026-04-09T11:45:11.151Z</time></trkpt><trkpt lat="44.50647" lon="8.9054021"><ele>157.16666666666669</ele><time>2026-04-09T11:45:13Z</time></trkpt><trkpt lat="44.5065414" lon="8.9054807"><ele>157.33333333333334</ele><time>2026-04-09T11:45:14Z</time></trkpt><trkpt lat="44.5066065" lon="8.9055587"><ele>157.5</ele><time>2026-04-09T11:45:15Z</time></trkpt><trkpt lat="44.5066718" lon="8.9056303"><ele>157.66666666666666</ele><time>2026-04-09T11:45:16Z</time></trkpt><trkpt lat="44.5067524" lon="8.9056349"><ele>157.83333333333331</ele><time>2026-04-09T11:45:17Z</time></trkpt><trkpt lat="44.5068204" lon="8.9056231"><ele>158.0</ele><time>2026-04-09T11:45:17.999Z</time></trkpt><trkpt lat="44.506885" lon="8.905586"><ele>158.0</ele><time>2026-04-09T11:45:18.999Z</time></trkpt><trkpt lat="44.5068934" lon="8.9054906"><ele>158.0</ele><time>2026-04-09T11:45:20Z</time></trkpt><trkpt lat="44.5068942" lon="8.9053958"><ele>158.0</ele><time>2026-04-09T11:45:21Z</time></trkpt><trkpt lat="44.5068649" lon="8.9053032"><ele>158.0</ele><time>2026-04-09T11:45:22Z</time></trkpt><trkpt lat="44.5068097" lon="8.905234"><ele>158.0</ele><time>2026-04-09T11:45:23.128Z</time></trkpt><trkpt lat="44.5066941" lon="8.9050814"><ele>158.0</ele><time>2026-04-09T11:45:25Z</time></trkpt><trkpt lat="44.5066468" lon="8.9049838"><ele>160.5</ele><time>2026-04-09T11:45:26.106Z</time></trkpt><trkpt lat="44.5066173" lon="8.9048628"><ele>163.0</ele><time>2026-04-09T11:45:27.107Z</time></trkpt><trkpt lat="44.5066041" lon="8.9047272"><ele>165.5</ele><time>2026-04-09T11:45:28.108Z</time></trkpt><trkpt lat="44.5065442" lon="8.9044798"><ele>168.0</ele><time>2026-04-09T11:45:29.999Z</time></trkpt><trkpt lat="44.5064899" lon="8.9043873"><ele>168.0</ele><time>2026-04-09T11:45:31.151Z</time></trkpt><trkpt lat="44.5064129" lon="8.9043249"><ele>168.0</ele><time>2026-04-09T11:45:32.117Z</time></trkpt><trkpt lat="44.5063192" lon="8.9042691"><ele>168.0</ele><time>2026-04-09T11:45:33.115Z</time></trkpt><trkpt lat="44.5061198" lon="8.904183"><ele>168.0</ele><time>2026-04-09T11:45:35Z</time></trkpt><trkpt lat="44.5060289" lon="8.9041608"><ele>170.75</ele><time>2026-04-09T11:45:36.145Z</time></trkpt><trkpt lat="44.505921" lon="8.9041521"><ele>173.5</ele><time>2026-04-09T11:45:37.136Z</time></trkpt><trkpt lat="44.5058073" lon="8.9041434"><ele>176.25</ele><time>2026-04-09T11:45:38.14Z</time></trkpt><trkpt lat="44.5055833" lon="8.9041173"><ele>179.0</ele><time>2026-04-09T11:45:39.999Z</time></trkpt><trkpt lat="44.5054703" lon="8.9040805"><ele>178.66666666666666</ele><time>2026-04-09T11:45:41.112Z</time></trkpt><trkpt lat="44.5052405" lon="8.9040173"><ele>178.33333333333334</ele><time>2026-04-09T11:45:43Z</time></trkpt><trkpt lat="44.5051208" lon="8.9040008"><ele>178.0</ele><time>2026-04-09T11:45:43.999Z</time></trkpt><trkpt lat="44.5050156" lon="8.9039992"><ele>178.0</ele><time>2026-04-09T11:45:45Z</time></trkpt><trkpt lat="44.5049086" lon="8.903995"><ele>178.0</ele><time>2026-04-09T11:45:45.999Z</time></trkpt><trkpt lat="44.5048153" lon="8.9039769"><ele>178.0</ele><time>2026-04-09T11:45:47Z</time></trkpt><trkpt lat="44.5047042" lon="8.9039279"><ele>178.0</ele><time>2026-04-09T11:45:47.999Z</time></trkpt><trkpt lat="44.504613" lon="8.9038579"><ele>178.0</ele><time>2026-04-09T11:45:48.999Z</time></trkpt><trkpt lat="44.5045176" lon="8.9037829"><ele>175.33333333333334</ele><time>2026-04-09T11:45:50Z</time></trkpt><trkpt lat="44.5044466" lon="8.9036723"><ele>172.66666666666666</ele><time>2026-04-09T11:45:51.129Z</time></trkpt><trkpt lat="44.504297" lon="8.9034244"><ele>170.0</ele><time>2026-04-09T11:45:53.152Z</time></trkpt><trkpt lat="44.504179" lon="8.9032337"><ele>172.0</ele><time>2026-04-09T11:45:55Z</time></trkpt><trkpt lat="44.5041079" lon="8.9031679"><ele>174.0</ele><time>2026-04-09T11:45:56.129Z</time></trkpt><trkpt lat="44.5040315" lon="8.9031331"><ele>176.0</ele><time>2026-04-09T11:45:57.121Z</time></trkpt><trkpt lat="44.5039457" lon="8.9031463"><ele>178.0</ele><time>2026-04-09T11:45:58.15Z</time></trkpt><trkpt lat="44.503788" lon="8.903231"><ele>180.0</ele><time>2026-04-09T11:45:59.999Z</time></trkpt><trkpt lat="44.5037111" lon="8.9032474"><ele>180.0</ele><time>2026-04-09T11:46:01.144Z</time></trkpt><trkpt lat="44.5036251" lon="8.9032064"><ele>180.0</ele><time>2026-04-09T11:46:02.138Z</time></trkpt><trkpt lat="44.5035532" lon="8.9031198"><ele>180.0</ele><time>2026-04-09T11:46:03.163Z</time></trkpt><trkpt lat="44.5034164" lon="8.9029442"><ele>180.0</ele><time>2026-04-09T11:46:05Z</time></trkpt><trkpt lat="44.503344" lon="8.902855"><ele>180.0</ele><time>2026-04-09T11:46:06.147Z</time></trkpt><trkpt lat="44.5032667" lon="8.9027578"><ele>180.0</ele><time>2026-04-09T11:46:07.1Z</time></trkpt><trkpt lat="44.5032083" lon="8.9026617"><ele>180.0</ele><time>2026-04-09T11:46:08.138Z</time></trkpt><trkpt lat="44.5031152" lon="8.9024501"><ele>180.0</ele><time>2026-04-09T11:46:10Z</time></trkpt><trkpt lat="44.5030883" lon="8.9023605"><ele>180.0</ele><time>2026-04-09T11:46:11.108Z</time></trkpt><trkpt lat="44.503104" lon="8.9022177"><ele>181.5</ele><time>2026-04-09T11:46:13.114Z</time></trkpt><trkpt lat="44.5032201" lon="8.9021492"><ele>183.0</ele><time>2026-04-09T11:46:14.999Z</time></trkpt><trkpt lat="44.5032854" lon="8.9021615"><ele>184.5</ele><time>2026-04-09T11:46:15.999Z</time></trkpt><trkpt lat="44.5033427" lon="8.9022121"><ele>186.0</ele><time>2026-04-09T11:46:17.146Z</time></trkpt><trkpt lat="44.5032595" lon="8.9021929"><ele>187.5</ele><time>2026-04-09T11:47:12.041Z</time></trkpt><trkpt lat="44.5032013" lon="8.9022578"><ele>189.0</ele><time>2026-04-09T11:47:21.49Z</time></trkpt><trkpt lat="44.5031344" lon="8.9022705"><ele>189.0</ele><time>2026-04-09T11:47:27.021Z</time></trkpt><trkpt lat="44.5031804" lon="8.9023442"><ele>189.0</ele><time>2026-04-09T11:47:31.94Z</time></trkpt><trkpt lat="44.5032158" lon="8.902418"><ele>189.0</ele><time>2026-04-09T11:47:36Z</time></trkpt><trkpt lat="44.5032537" lon="8.9025071"><ele>189.0</ele><time>2026-04-09T11:47:43.034Z</time></trkpt><trkpt lat="44.5033151" lon="8.9025489"><ele>189.0</ele><time>2026-04-09T11:47:52.01Z</time></trkpt><trkpt lat="44.5033766" lon="8.9025707"><ele>189.0</ele><time>2026-04-09T11:47:58.02Z</time></trkpt><trkpt lat="44.5033092" lon="8.9025234"><ele>189.0</ele><time>2026-04-09T11:50:25.079Z</time></trkpt><trkpt lat="44.5032461" lon="8.9025133"><ele>189.0</ele><time>2026-04-09T11:50:29Z</time></trkpt><trkpt lat="44.5033161" lon="8.9025325"><ele>189.0</ele><time>2026-04-09T11:50:37.911Z</time></trkpt><trkpt lat="44.503388" lon="8.9025498"><ele>189.0</ele><time>2026-04-09T11:50:42.071Z</time></trkpt><trkpt lat="44.5033289" lon="8.9025005"><ele>189.0</ele><time>2026-04-09T11:51:43.999Z</time></trkpt><trkpt lat="44.5032652" lon="8.9024919"><ele>189.0</ele><time>2026-04-09T11:51:45.999Z</time></trkpt><trkpt lat="44.503196" lon="8.9024748"><ele>189.0</ele><time>2026-04-09T11:51:53Z</time></trkpt><trkpt lat="44.5032599" lon="8.9025351"><ele>189.0</ele><time>2026-04-09T11:52:01.999Z</time></trkpt><trkpt lat="44.5033315" lon="8.9025326"><ele>189.0</ele><time>2026-04-09T11:52:05.999Z</time></trkpt><trkpt lat="44.5034006" lon="8.9025642"><ele>189.0</ele><time>2026-04-09T11:52:11.999Z</time></trkpt><trkpt lat="44.5035451" lon="8.9057365"><ele>189.0</ele><time>2026-04-09T11:52:28.031Z</time></trkpt><trkpt lat="44.5033499" lon="8.9025324"><ele>189.0</ele><time>2026-04-09T11:52:45.999Z</time></trkpt><trkpt lat="44.5033881" lon="8.9026783"><ele>189.0</ele><time>2026-04-09T11:53:22Z</time></trkpt><trkpt lat="44.5033772" lon="8.9025511"><ele>189.0</ele><time>2026-04-09T11:53:41.008Z</time></trkpt><trkpt lat="44.5033052" lon="8.9025398"><ele>189.0</ele><time>2026-04-09T11:54:14.999Z</time></trkpt><trkpt lat="44.5032419" lon="8.9025351"><ele>189.0</ele><time>2026-04-09T11:54:20.012Z</time></trkpt><trkpt lat="44.5031747" lon="8.9025045"><ele>189.0</ele><time>2026-04-09T11:54:24.927Z</time></trkpt><trkpt lat="44.5031434" lon="8.9024093"><ele>189.0</ele><time>2026-04-09T11:54:30.031Z</time></trkpt><trkpt lat="44.503192" lon="8.902508"><ele>189.0</ele><time>2026-04-09T11:54:47.962Z</time></trkpt><trkpt lat="44.5032593" lon="8.9025365"><ele>189.0</ele><time>2026-04-09T11:54:53.999Z</time></trkpt><trkpt lat="44.5033211" lon="8.9025556"><ele>189.0</ele><time>2026-04-09T11:55:00Z</time></trkpt><trkpt lat="44.5032737" lon="8.902637"><ele>189.0</ele><time>2026-04-09T11:56:06.995Z</time></trkpt><trkpt lat="44.5032404" lon="8.9027191"><ele>189.0</ele><time>2026-04-09T11:56:11.002Z</time></trkpt><trkpt lat="44.5033207" lon="8.9026311"><ele>189.0</ele><time>2026-04-09T11:56:42Z</time></trkpt><trkpt lat="44.5033588" lon="8.9025578"><ele>189.0</ele><time>2026-04-09T11:56:46Z</time></trkpt><trkpt lat="44.5032929" lon="8.9025448"><ele>189.0</ele><time>2026-04-09T11:57:37.894Z</time></trkpt><trkpt lat="44.5032394" lon="8.9024979"><ele>189.0</ele><time>2026-04-09T11:57:42.001Z</time></trkpt><trkpt lat="44.5031767" lon="8.9024386"><ele>189.0</ele><time>2026-04-09T11:57:47.029Z</time></trkpt><trkpt lat="44.5031553" lon="8.9023527"><ele>189.0</ele><time>2026-04-09T11:57:52Z</time></trkpt><trkpt lat="44.5031516" lon="8.9024532"><ele>189.0</ele><time>2026-04-09T11:58:04.019Z</time></trkpt><trkpt lat="44.5031976" lon="8.9025198"><ele>189.0</ele><time>2026-04-09T11:58:08.578Z</time></trkpt><trkpt lat="44.503266" lon="8.9025437"><ele>189.0</ele><time>2026-04-09T11:58:14.037Z</time></trkpt><trkpt lat="44.5033359" lon="8.9025538"><ele>189.0</ele><time>2026-04-09T11:58:20.999Z</time></trkpt><trkpt lat="44.5034219" lon="8.9025327"><ele>189.0</ele><time>2026-04-09T11:59:22Z</time></trkpt><trkpt lat="44.5033576" lon="8.9025768"><ele>189.0</ele><time>2026-04-09T11:59:31.013Z</time></trkpt><trkpt lat="44.5032931" lon="8.9025935"><ele>189.0</ele><time>2026-04-09T11:59:39.026Z</time></trkpt><trkpt lat="44.5032344" lon="8.9025222"><ele>189.0</ele><time>2026-04-09T11:59:44.218Z</time></trkpt><trkpt lat="44.5031776" lon="8.9024558"><ele>189.0</ele><time>2026-04-09T11:59:49.623Z</time></trkpt><trkpt lat="44.5031783" lon="8.9023587"><ele>189.0</ele><time>2026-04-09T11:59:55.034Z</time></trkpt><trkpt lat="44.5031786" lon="8.9022647"><ele>189.0</ele><time>2026-04-09T11:59:59.04Z</time></trkpt><trkpt lat="44.5032073" lon="8.9021812"><ele>189.0</ele><time>2026-04-09T12:00:18.014Z</time></trkpt><trkpt lat="44.5032832" lon="8.902165"><ele>189.0</ele><time>2026-04-09T12:00:22.02Z</time></trkpt><trkpt lat="44.5033485" lon="8.9021598"><ele>189.0</ele><time>2026-04-09T12:00:26.027Z</time></trkpt><trkpt lat="44.5034631" lon="8.9021793"><ele>189.0</ele><time>2026-04-09T12:01:45.999Z</time></trkpt><trkpt lat="44.5035772" lon="8.9021928"><ele>189.0</ele><time>2026-04-09T12:01:46.999Z</time></trkpt><trkpt lat="44.5036798" lon="8.9022032"><ele>189.0</ele><time>2026-04-09T12:01:47.999Z</time></trkpt><trkpt lat="44.5037941" lon="8.9022203"><ele>189.0</ele><time>2026-04-09T12:01:48.999Z</time></trkpt><trkpt lat="44.5039078" lon="8.9022394"><ele>189.0</ele><time>2026-04-09T12:01:50Z</time></trkpt><trkpt lat="44.504021" lon="8.9022603"><ele>190.39999999999998</ele><time>2026-04-09T12:01:51Z</time></trkpt><trkpt lat="44.504127" lon="8.9022746"><ele>191.8</ele><time>2026-04-09T12:01:52Z</time></trkpt><trkpt lat="44.504225" lon="8.9022867"><ele>193.2</ele><time>2026-04-09T12:01:52.999Z</time></trkpt><trkpt lat="44.5043196" lon="8.9023195"><ele>194.60000000000002</ele><time>2026-04-09T12:01:53.999Z</time></trkpt><trkpt lat="44.5044227" lon="8.9023683"><ele>196.0</ele><time>2026-04-09T12:01:55.116Z</time></trkpt><trkpt lat="44.5046016" lon="8.9024661"><ele>195.60000000000002</ele><time>2026-04-09T12:01:57Z</time></trkpt><trkpt lat="44.50468" lon="8.9025133"><ele>195.2</ele><time>2026-04-09T12:01:58Z</time></trkpt><trkpt lat="44.5047679" lon="8.9025555"><ele>194.8</ele><time>2026-04-09T12:01:59Z</time></trkpt><trkpt lat="44.5048533" lon="8.9025838"><ele>194.39999999999998</ele><time>2026-04-09T12:01:59.999Z</time></trkpt><trkpt lat="44.5049431" lon="8.9026021"><ele>194.0</ele><time>2026-04-09T12:02:00.999Z</time></trkpt><trkpt lat="44.5050399" lon="8.9026177"><ele>194.0</ele><time>2026-04-09T12:02:01.999Z</time></trkpt><trkpt lat="44.5051424" lon="8.9026306"><ele>194.0</ele><time>2026-04-09T12:02:02.999Z</time></trkpt><trkpt lat="44.5052426" lon="8.9026399"><ele>194.0</ele><time>2026-04-09T12:02:04Z</time></trkpt><trkpt lat="44.5053461" lon="8.9026549"><ele>194.0</ele><time>2026-04-09T12:02:04.999Z</time></trkpt><trkpt lat="44.5054405" lon="8.9026635"><ele>194.0</ele><time>2026-04-09T12:02:05.999Z</time></trkpt><trkpt lat="44.5055244" lon="8.9026733"><ele>194.57142857142856</ele><time>2026-04-09T12:02:06.999Z</time></trkpt><trkpt lat="44.5056005" lon="8.9026845"><ele>195.14285714285717</ele><time>2026-04-09T12:02:08Z</time></trkpt><trkpt lat="44.505673" lon="8.9027126"><ele>195.71428571428572</ele><time>2026-04-09T12:02:08.999Z</time></trkpt><trkpt lat="44.5057403" lon="8.9027581"><ele>196.28571428571428</ele><time>2026-04-09T12:02:10Z</time></trkpt><trkpt lat="44.5057995" lon="8.902807"><ele>196.85714285714283</ele><time>2026-04-09T12:02:10.999Z</time></trkpt><trkpt lat="44.505859" lon="8.9028537"><ele>197.42857142857144</ele><time>2026-04-09T12:02:11.999Z</time></trkpt><trkpt lat="44.5059207" lon="8.9028872"><ele>198.0</ele><time>2026-04-09T12:02:13Z</time></trkpt><trkpt lat="44.5060258" lon="8.9028769"><ele>198.0</ele><time>2026-04-09T12:02:15.112Z</time></trkpt><trkpt lat="44.5061943" lon="8.902814"><ele>198.0</ele><time>2026-04-09T12:02:18.102Z</time></trkpt><trkpt lat="44.5062971" lon="8.9027759"><ele>198.0</ele><time>2026-04-09T12:02:19.999Z</time></trkpt><trkpt lat="44.5064161" lon="8.9027371"><ele>198.0</ele><time>2026-04-09T12:02:21.999Z</time></trkpt><trkpt lat="44.5065462" lon="8.9027104"><ele>198.60000000000002</ele><time>2026-04-09T12:02:24Z</time></trkpt><trkpt lat="44.5066353" lon="8.9026857"><ele>199.20000000000002</ele><time>2026-04-09T12:02:25Z</time></trkpt><trkpt lat="44.5067264" lon="8.9026624"><ele>199.8</ele><time>2026-04-09T12:02:25.999Z</time></trkpt><trkpt lat="44.5068175" lon="8.9026335"><ele>200.4</ele><time>2026-04-09T12:02:26.999Z</time></trkpt><trkpt lat="44.5069038" lon="8.902596"><ele>201.0</ele><time>2026-04-09T12:02:27.999Z</time></trkpt><trkpt lat="44.5069967" lon="8.9025467"><ele>206.75</ele><time>2026-04-09T12:02:29.162Z</time></trkpt><trkpt lat="44.5070785" lon="8.9025009"><ele>212.5</ele><time>2026-04-09T12:02:30.127Z</time></trkpt><trkpt lat="44.5071776" lon="8.9024556"><ele>218.25</ele><time>2026-04-09T12:02:31.157Z</time></trkpt><trkpt lat="44.5073566" lon="8.9023865"><ele>224.0</ele><time>2026-04-09T12:02:32.999Z</time></trkpt><trkpt lat="44.5074422" lon="8.9023455"><ele>224.0</ele><time>2026-04-09T12:02:34.134Z</time></trkpt><trkpt lat="44.5075197" lon="8.902308"><ele>223.99999999999997</ele><time>2026-04-09T12:02:35.129Z</time></trkpt><trkpt lat="44.5075989" lon="8.9022906"><ele>223.99999999999997</ele><time>2026-04-09T12:02:36.124Z</time></trkpt><trkpt lat="44.5077703" lon="8.9022752"><ele>224.0</ele><time>2026-04-09T12:02:37.999Z</time></trkpt><trkpt lat="44.5078677" lon="8.9022657"><ele>224.0</ele><time>2026-04-09T12:02:39.146Z</time></trkpt><trkpt lat="44.5080056" lon="8.9022397"><ele>226.2</ele><time>2026-04-09T12:02:41Z</time></trkpt><trkpt lat="44.5081202" lon="8.9021844"><ele>228.39999999999998</ele><time>2026-04-09T12:02:43Z</time></trkpt><trkpt lat="44.5081867" lon="8.9021556"><ele>230.6</ele><time>2026-04-09T12:02:43.999Z</time></trkpt><trkpt lat="44.5082641" lon="8.9021255"><ele>232.8</ele><time>2026-04-09T12:02:45.123Z</time></trkpt><trkpt lat="44.5083358" lon="8.9021106"><ele>235.0</ele><time>2026-04-09T12:02:46.121Z</time></trkpt><trkpt lat="44.5084844" lon="8.9021186"><ele>235.0</ele><time>2026-04-09T12:02:47.999Z</time></trkpt><trkpt lat="44.5085651" lon="8.9021341"><ele>235.0</ele><time>2026-04-09T12:02:49.112Z</time></trkpt><trkpt lat="44.5087382" lon="8.9022189"><ele>235.0</ele><time>2026-04-09T12:02:51.11Z</time></trkpt><trkpt lat="44.5089046" lon="8.9022951"><ele>235.0</ele><time>2026-04-09T12:02:53Z</time></trkpt><trkpt lat="44.5089902" lon="8.9023051"><ele>236.99999999999997</ele><time>2026-04-09T12:02:53.999Z</time></trkpt><trkpt lat="44.5090783" lon="8.9022948"><ele>239.0</ele><time>2026-04-09T12:02:54.999Z</time></trkpt><trkpt lat="44.5091633" lon="8.902286"><ele>241.0</ele><time>2026-04-09T12:02:56Z</time></trkpt><trkpt lat="44.5092497" lon="8.9022795"><ele>243.0</ele><time>2026-04-09T12:02:57Z</time></trkpt><trkpt lat="44.5093352" lon="8.9022744"><ele>244.99999999999997</ele><time>2026-04-09T12:02:57.999Z</time></trkpt><trkpt lat="44.5094357" lon="8.9022644"><ele>247.0</ele><time>2026-04-09T12:02:59.102Z</time></trkpt><trkpt lat="44.5096158" lon="8.9022553"><ele>249.16666666666666</ele><time>2026-04-09T12:03:00.999Z</time></trkpt><trkpt lat="44.5097036" lon="8.9022677"><ele>251.33333333333331</ele><time>2026-04-09T12:03:01.999Z</time></trkpt><trkpt lat="44.5098029" lon="8.9022767"><ele>253.5</ele><time>2026-04-09T12:03:03.177Z</time></trkpt><trkpt lat="44.5098893" lon="8.9022761"><ele>255.66666666666669</ele><time>2026-04-09T12:03:04.159Z</time></trkpt><trkpt lat="44.5099746" lon="8.9022578"><ele>257.83333333333337</ele><time>2026-04-09T12:03:05.164Z</time></trkpt><trkpt lat="44.5100489" lon="8.9022336"><ele>260.0</ele><time>2026-04-09T12:03:06.126Z</time></trkpt><trkpt lat="44.5101726" lon="8.9021655"><ele>260.0</ele><time>2026-04-09T12:03:08Z</time></trkpt><trkpt lat="44.510231" lon="8.9021087"><ele>260.0</ele><time>2026-04-09T12:03:09.134Z</time></trkpt><trkpt lat="44.5102847" lon="8.9020464"><ele>260.0</ele><time>2026-04-09T12:03:10.109Z</time></trkpt><trkpt lat="44.5103403" lon="8.9019695"><ele>260.0</ele><time>2026-04-09T12:03:11.118Z</time></trkpt><trkpt lat="44.5104586" lon="8.9018075"><ele>260.0</ele><time>2026-04-09T12:03:13Z</time></trkpt><trkpt lat="44.5105245" lon="8.90172"><ele>262.8</ele><time>2026-04-09T12:03:14.14Z</time></trkpt><trkpt lat="44.5105853" lon="8.9016505"><ele>265.6</ele><time>2026-04-09T12:03:15.142Z</time></trkpt><trkpt lat="44.5106512" lon="8.9015924"><ele>268.4</ele><time>2026-04-09T12:03:16.121Z</time></trkpt><trkpt lat="44.5107869" lon="8.9014914"><ele>271.2</ele><time>2026-04-09T12:03:18Z</time></trkpt><trkpt lat="44.5108524" lon="8.9014378"><ele>274.0</ele><time>2026-04-09T12:03:19.118Z</time></trkpt><trkpt lat="44.5109109" lon="8.9013748"><ele>274.0</ele><time>2026-04-09T12:03:20.122Z</time></trkpt><trkpt lat="44.5109682" lon="8.9013061"><ele>274.0</ele><time>2026-04-09T12:03:21.153Z</time></trkpt><trkpt lat="44.5110637" lon="8.9011705"><ele>274.0</ele><time>2026-04-09T12:03:23Z</time></trkpt><trkpt lat="44.5111069" lon="8.9010917"><ele>274.0</ele><time>2026-04-09T12:03:24.172Z</time></trkpt><trkpt lat="44.5111532" lon="8.9010175"><ele>274.0</ele><time>2026-04-09T12:03:25.116Z</time></trkpt><trkpt lat="44.5112033" lon="8.9009372"><ele>274.0</ele><time>2026-04-09T12:03:26.144Z</time></trkpt><trkpt lat="44.5112668" lon="8.9008021"><ele>274.5</ele><time>2026-04-09T12:03:27.999Z</time></trkpt><trkpt lat="44.5113464" lon="8.900715"><ele>275.0</ele><time>2026-04-09T12:03:30.109Z</time></trkpt><trkpt lat="44.5115026" lon="8.9006431"><ele>275.5</ele><time>2026-04-09T12:03:32.999Z</time></trkpt><trkpt lat="44.5116202" lon="8.9006495"><ele>276.0</ele><time>2026-04-09T12:03:35.165Z</time></trkpt><trkpt lat="44.5116855" lon="8.9006818"><ele>276.0</ele><time>2026-04-09T12:03:36.12Z</time></trkpt><trkpt lat="44.5118148" lon="8.9007984"><ele>276.0</ele><time>2026-04-09T12:03:37.999Z</time></trkpt><trkpt lat="44.5118755" lon="8.9008582"><ele>276.0</ele><time>2026-04-09T12:03:38.999Z</time></trkpt><trkpt lat="44.5119411" lon="8.900898"><ele>276.0</ele><time>2026-04-09T12:03:40.124Z</time></trkpt><trkpt lat="44.5120633" lon="8.9009232"><ele>276.0</ele><time>2026-04-09T12:03:41.999Z</time></trkpt><trkpt lat="44.512133" lon="8.9009451"><ele>280.0</ele><time>2026-04-09T12:03:42.999Z</time></trkpt><trkpt lat="44.5122111" lon="8.9009824"><ele>284.0</ele><time>2026-04-09T12:03:44Z</time></trkpt><trkpt lat="44.5122976" lon="8.9010218"><ele>288.0</ele><time>2026-04-09T12:03:45.162Z</time></trkpt><trkpt lat="44.51237" lon="8.9010443"><ele>292.0</ele><time>2026-04-09T12:03:46.114Z</time></trkpt><trkpt lat="44.5124976" lon="8.9010856"><ele>296.0</ele><time>2026-04-09T12:03:47.999Z</time></trkpt><trkpt lat="44.5125644" lon="8.9011407"><ele>296.0</ele><time>2026-04-09T12:03:49.157Z</time></trkpt><trkpt lat="44.5126709" lon="8.9012478"><ele>296.0</ele><time>2026-04-09T12:03:51.154Z</time></trkpt><trkpt lat="44.5127736" lon="8.9012968"><ele>296.0</ele><time>2026-04-09T12:03:53Z</time></trkpt><trkpt lat="44.5128366" lon="8.9012942"><ele>296.0</ele><time>2026-04-09T12:03:54.167Z</time></trkpt><trkpt lat="44.5128988" lon="8.9012751"><ele>296.0</ele><time>2026-04-09T12:03:55.136Z</time></trkpt><trkpt lat="44.5129657" lon="8.9012561"><ele>296.0</ele><time>2026-04-09T12:03:56.15Z</time></trkpt><trkpt lat="44.5131004" lon="8.901241"><ele>298.0</ele><time>2026-04-09T12:03:57.999Z</time></trkpt><trkpt lat="44.513174" lon="8.9012469"><ele>300.0</ele><time>2026-04-09T12:03:58.999Z</time></trkpt><trkpt lat="44.5132553" lon="8.9012495"><ele>302.0</ele><time>2026-04-09T12:04:00.156Z</time></trkpt><trkpt lat="44.5133916" lon="8.9012221"><ele>304.0</ele><time>2026-04-09T12:04:02Z</time></trkpt><trkpt lat="44.513453" lon="8.9011953"><ele>306.0</ele><time>2026-04-09T12:04:02.999Z</time></trkpt><trkpt lat="44.5135636" lon="8.9011251"><ele>306.0</ele><time>2026-04-09T12:04:05.175Z</time></trkpt><trkpt lat="44.5137348" lon="8.9010153"><ele>306.0</ele><time>2026-04-09T12:04:07.999Z</time></trkpt><trkpt lat="44.5138547" lon="8.9009506"><ele>306.0</ele><time>2026-04-09T12:04:10.127Z</time></trkpt><trkpt lat="44.5140096" lon="8.900912"><ele>308.6</ele><time>2026-04-09T12:04:12.999Z</time></trkpt><trkpt lat="44.5140857" lon="8.9009752"><ele>311.20000000000005</ele><time>2026-04-09T12:04:15.133Z</time></trkpt><trkpt lat="44.5141973" lon="8.9010655"><ele>313.79999999999995</ele><time>2026-04-09T12:04:16.999Z</time></trkpt><trkpt lat="44.5142495" lon="8.9011455"><ele>316.4</ele><time>2026-04-09T12:04:19Z</time></trkpt><trkpt lat="44.5143431" lon="8.9011885"><ele>319.0</ele><time>2026-04-09T12:04:20.125Z</time></trkpt><trkpt lat="44.5144062" lon="8.9012422"><ele>319.0</ele><time>2026-04-09T12:04:21.137Z</time></trkpt><trkpt lat="44.5145433" lon="8.90131"><ele>319.0</ele><time>2026-04-09T12:04:22.999Z</time></trkpt><trkpt lat="44.5146146" lon="8.9013269"><ele>319.0</ele><time>2026-04-09T12:04:23.999Z</time></trkpt><trkpt lat="44.5146946" lon="8.9013334"><ele>319.0</ele><time>2026-04-09T12:04:25Z</time></trkpt><trkpt lat="44.5147613" lon="8.9013456"><ele>319.0</ele><time>2026-04-09T12:04:26Z</time></trkpt><trkpt lat="44.5148315" lon="8.9013519"><ele>319.0</ele><time>2026-04-09T12:04:26.999Z</time></trkpt><trkpt lat="44.5148988" lon="8.9013601"><ele>319.0</ele><time>2026-04-09T12:04:27.999Z</time></trkpt><trkpt lat="44.5149699" lon="8.9013642"><ele>319.0</ele><time>2026-04-09T12:04:28.999Z</time></trkpt><trkpt lat="44.5150354" lon="8.9013539"><ele>319.0</ele><time>2026-04-09T12:04:29.999Z</time></trkpt><trkpt lat="44.5151123" lon="8.9013463"><ele>319.0</ele><time>2026-04-09T12:04:31Z</time></trkpt><trkpt lat="44.5151867" lon="8.9013296"><ele>319.0</ele><time>2026-04-09T12:04:32Z</time></trkpt><trkpt lat="44.5152857" lon="8.901251"><ele>319.0</ele><time>2026-04-09T12:04:34Z</time></trkpt><trkpt lat="44.5153474" lon="8.9011699"><ele>317.5714285714286</ele><time>2026-04-09T12:04:35Z</time></trkpt><trkpt lat="44.5154069" lon="8.9011001"><ele>316.1428571428571</ele><time>2026-04-09T12:04:36Z</time></trkpt><trkpt lat="44.5154584" lon="8.9010128"><ele>314.7142857142857</ele><time>2026-04-09T12:04:37Z</time></trkpt><trkpt lat="44.5155043" lon="8.9009433"><ele>313.28571428571433</ele><time>2026-04-09T12:04:38Z</time></trkpt><trkpt lat="44.5155512" lon="8.9008816"><ele>311.8571428571429</ele><time>2026-04-09T12:04:39Z</time></trkpt><trkpt lat="44.5156009" lon="8.9008231"><ele>310.42857142857144</ele><time>2026-04-09T12:04:40Z</time></trkpt><trkpt lat="44.5156842" lon="8.9007727"><ele>309.0</ele><time>2026-04-09T12:04:40.999Z</time></trkpt><trkpt lat="44.5157614" lon="8.9007385"><ele>309.0</ele><time>2026-04-09T12:04:41.999Z</time></trkpt><trkpt lat="44.5158467" lon="8.9007048"><ele>309.0</ele><time>2026-04-09T12:04:42.999Z</time></trkpt><trkpt lat="44.5159272" lon="8.9006621"><ele>309.0</ele><time>2026-04-09T12:04:43.999Z</time></trkpt><trkpt lat="44.5160027" lon="8.9006398"><ele>309.0</ele><time>2026-04-09T12:04:44.999Z</time></trkpt><trkpt lat="44.5160687" lon="8.9006097"><ele>309.0</ele><time>2026-04-09T12:04:45.999Z</time></trkpt><trkpt lat="44.5161307" lon="8.9005526"><ele>309.0</ele><time>2026-04-09T12:04:47Z</time></trkpt><trkpt lat="44.5162184" lon="8.9004275"><ele>313.79999999999995</ele><time>2026-04-09T12:04:48.999Z</time></trkpt><trkpt lat="44.516303" lon="8.9003341"><ele>318.59999999999997</ele><time>2026-04-09T12:04:51.139Z</time></trkpt><trkpt lat="44.5164159" lon="8.9003198"><ele>323.4</ele><time>2026-04-09T12:04:53Z</time></trkpt><trkpt lat="44.5165285" lon="8.9003407"><ele>328.2</ele><time>2026-04-09T12:04:55.141Z</time></trkpt><trkpt lat="44.516599" lon="8.9003437"><ele>333.0</ele><time>2026-04-09T12:04:56.137Z</time></trkpt><trkpt lat="44.5167602" lon="8.9003921"><ele>333.0</ele><time>2026-04-09T12:04:57.999Z</time></trkpt><trkpt lat="44.5168267" lon="8.9004151"><ele>333.0</ele><time>2026-04-09T12:04:59.151Z</time></trkpt><trkpt lat="44.516913" lon="8.900453"><ele>333.0</ele><time>2026-04-09T12:05:00.135Z</time></trkpt><trkpt lat="44.5169883" lon="8.9004721"><ele>333.0</ele><time>2026-04-09T12:05:01.141Z</time></trkpt><trkpt lat="44.5170984" lon="8.9004844"><ele>333.0</ele><time>2026-04-09T12:05:03Z</time></trkpt><trkpt lat="44.5171801" lon="8.9004796"><ele>333.0</ele><time>2026-04-09T12:05:04.142Z</time></trkpt><trkpt lat="44.5172689" lon="8.90045"><ele>334.0</ele><time>2026-04-09T12:05:05.135Z</time></trkpt><trkpt lat="44.517351" lon="8.9004251"><ele>335.0</ele><time>2026-04-09T12:05:06.148Z</time></trkpt><trkpt lat="44.5174896" lon="8.9003668"><ele>336.0</ele><time>2026-04-09T12:05:07.999Z</time></trkpt><trkpt lat="44.5176058" lon="8.9003352"><ele>337.0</ele><time>2026-04-09T12:05:10.12Z</time></trkpt><trkpt lat="44.5177741" lon="8.9003236"><ele>337.0</ele><time>2026-04-09T12:05:13Z</time></trkpt><trkpt lat="44.5178779" lon="8.9003984"><ele>337.0</ele><time>2026-04-09T12:05:15.146Z</time></trkpt><trkpt lat="44.5179862" lon="8.9005037"><ele>337.0</ele><time>2026-04-09T12:05:16.999Z</time></trkpt><trkpt lat="44.5180976" lon="8.9005763"><ele>337.0</ele><time>2026-04-09T12:05:19.112Z</time></trkpt><trkpt lat="44.5182022" lon="8.9006694"><ele>334.8</ele><time>2026-04-09T12:05:21.157Z</time></trkpt><trkpt lat="44.5183183" lon="8.9007583"><ele>332.6</ele><time>2026-04-09T12:05:23Z</time></trkpt><trkpt lat="44.5183805" lon="8.9008067"><ele>330.40000000000003</ele><time>2026-04-09T12:05:23.999Z</time></trkpt><trkpt lat="44.5184601" lon="8.9008421"><ele>328.20000000000005</ele><time>2026-04-09T12:05:24.999Z</time></trkpt><trkpt lat="44.5185309" lon="8.9008548"><ele>326.0</ele><time>2026-04-09T12:05:26.159Z</time></trkpt><trkpt lat="44.5186614" lon="8.9008687"><ele>326.0</ele><time>2026-04-09T12:05:27.999Z</time></trkpt><trkpt lat="44.518727" lon="8.9008817"><ele>326.0</ele><time>2026-04-09T12:05:29.153Z</time></trkpt><trkpt lat="44.5188191" lon="8.9009503"><ele>326.0</ele><time>2026-04-09T12:05:31.158Z</time></trkpt><trkpt lat="44.5189438" lon="8.9010188"><ele>326.0</ele><time>2026-04-09T12:05:33Z</time></trkpt><trkpt lat="44.5190056" lon="8.9010504"><ele>326.0</ele><time>2026-04-09T12:05:34.163Z</time></trkpt><trkpt lat="44.5190781" lon="8.9010884"><ele>326.0</ele><time>2026-04-09T12:05:35.141Z</time></trkpt><trkpt lat="44.5191542" lon="8.901129"><ele>324.0</ele><time>2026-04-09T12:05:36.157Z</time></trkpt><trkpt lat="44.519316" lon="8.9012351"><ele>322.0</ele><time>2026-04-09T12:05:37.999Z</time></trkpt><trkpt lat="44.5193949" lon="8.9013255"><ele>320.0</ele><time>2026-04-09T12:05:39.132Z</time></trkpt><trkpt lat="44.5194843" lon="8.901422"><ele>318.0</ele><time>2026-04-09T12:05:40.172Z</time></trkpt><trkpt lat="44.5195902" lon="8.9015166"><ele>318.0</ele><time>2026-04-09T12:05:41.114Z</time></trkpt><trkpt lat="44.5197828" lon="8.9016919"><ele>318.0</ele><time>2026-04-09T12:05:43Z</time></trkpt><trkpt lat="44.5198717" lon="8.9017781"><ele>318.0</ele><time>2026-04-09T12:05:44.164Z</time></trkpt><trkpt lat="44.5200589" lon="8.9019293"><ele>316.75</ele><time>2026-04-09T12:05:46.137Z</time></trkpt><trkpt lat="44.520241" lon="8.9020697"><ele>315.5</ele><time>2026-04-09T12:05:48.162Z</time></trkpt><trkpt lat="44.5203322" lon="8.9021407"><ele>314.25</ele><time>2026-04-09T12:05:49.111Z</time></trkpt><trkpt lat="44.520426" lon="8.9022173"><ele>313.0</ele><time>2026-04-09T12:05:50.121Z</time></trkpt><trkpt lat="44.5205227" lon="8.9022956"><ele>313.0</ele><time>2026-04-09T12:05:51.164Z</time></trkpt><trkpt lat="44.5206866" lon="8.9024603"><ele>313.0</ele><time>2026-04-09T12:05:52.999Z</time></trkpt><trkpt lat="44.5207581" lon="8.9025559"><ele>313.0</ele><time>2026-04-09T12:05:54.146Z</time></trkpt><trkpt lat="44.5208245" lon="8.9026527"><ele>313.0</ele><time>2026-04-09T12:05:54.999Z</time></trkpt><trkpt lat="44.5208772" lon="8.902773"><ele>309.8</ele><time>2026-04-09T12:05:55.999Z</time></trkpt><trkpt lat="44.5209238" lon="8.9028868"><ele>306.6</ele><time>2026-04-09T12:05:56.999Z</time></trkpt><trkpt lat="44.5209774" lon="8.9029962"><ele>303.4</ele><time>2026-04-09T12:05:57.999Z</time></trkpt><trkpt lat="44.5210395" lon="8.9030974"><ele>300.2</ele><time>2026-04-09T12:05:59Z</time></trkpt><trkpt lat="44.5211179" lon="8.9031866"><ele>297.0</ele><time>2026-04-09T12:06:00.131Z</time></trkpt><trkpt lat="44.5211984" lon="8.90327"><ele>298.0</ele><time>2026-04-09T12:06:01.107Z</time></trkpt><trkpt lat="44.5213686" lon="8.9034209"><ele>299.0</ele><time>2026-04-09T12:06:03Z</time></trkpt><trkpt lat="44.5214519" lon="8.9034946"><ele>300.0</ele><time>2026-04-09T12:06:04.104Z</time></trkpt><trkpt lat="44.5215316" lon="8.9035783"><ele>301.0</ele><time>2026-04-09T12:06:05.116Z</time></trkpt><trkpt lat="44.5215961" lon="8.9036717"><ele>301.0</ele><time>2026-04-09T12:06:06.126Z</time></trkpt><trkpt lat="44.5217262" lon="8.9038456"><ele>301.0</ele><time>2026-04-09T12:06:08Z</time></trkpt><trkpt lat="44.5218034" lon="8.9039165"><ele>301.0</ele><time>2026-04-09T12:06:09.128Z</time></trkpt><trkpt lat="44.5218765" lon="8.9039875"><ele>301.0</ele><time>2026-04-09T12:06:10.159Z</time></trkpt><trkpt lat="44.5219454" lon="8.90405"><ele>301.0</ele><time>2026-04-09T12:06:11.129Z</time></trkpt><trkpt lat="44.5220183" lon="8.9041946"><ele>300.0</ele><time>2026-04-09T12:06:13Z</time></trkpt><trkpt lat="44.5220263" lon="8.9043636"><ele>299.0</ele><time>2026-04-09T12:06:15.156Z</time></trkpt><trkpt lat="44.5220062" lon="8.9044473"><ele>298.0</ele><time>2026-04-09T12:06:16.16Z</time></trkpt><trkpt lat="44.5219193" lon="8.9046032"><ele>297.0</ele><time>2026-04-09T12:06:18Z</time></trkpt><trkpt lat="44.5218709" lon="8.9046744"><ele>296.0</ele><time>2026-04-09T12:06:18.999Z</time></trkpt><trkpt lat="44.5218258" lon="8.9047494"><ele>296.0</ele><time>2026-04-09T12:06:20.127Z</time></trkpt><trkpt lat="44.5217904" lon="8.9048388"><ele>296.0</ele><time>2026-04-09T12:06:21.148Z</time></trkpt><trkpt lat="44.5217456" lon="8.9050497"><ele>296.0</ele><time>2026-04-09T12:06:22.999Z</time></trkpt><trkpt lat="44.5217492" lon="8.9051515"><ele>296.0</ele><time>2026-04-09T12:06:24.155Z</time></trkpt><trkpt lat="44.521764" lon="8.9052588"><ele>296.0</ele><time>2026-04-09T12:06:25.133Z</time></trkpt><trkpt lat="44.5218491" lon="8.9054456"><ele>296.33333333333337</ele><time>2026-04-09T12:06:26.999Z</time></trkpt><trkpt lat="44.521917" lon="8.9055191"><ele>296.6666666666667</ele><time>2026-04-09T12:06:27.999Z</time></trkpt><trkpt lat="44.5219859" lon="8.9055943"><ele>297.0</ele><time>2026-04-09T12:06:29Z</time></trkpt><trkpt lat="44.5220598" lon="8.9056592"><ele>297.3333333333333</ele><time>2026-04-09T12:06:29.999Z</time></trkpt><trkpt lat="44.5221212" lon="8.9057497"><ele>297.66666666666663</ele><time>2026-04-09T12:06:31Z</time></trkpt><trkpt lat="44.5221568" lon="8.9058442"><ele>298.0</ele><time>2026-04-09T12:06:32Z</time></trkpt><trkpt lat="44.5221849" lon="8.9059468"><ele>298.0</ele><time>2026-04-09T12:06:32.999Z</time></trkpt><trkpt lat="44.5222003" lon="8.9060374"><ele>298.0</ele><time>2026-04-09T12:06:33.999Z</time></trkpt><trkpt lat="44.5222262" lon="8.9062431"><ele>298.0</ele><time>2026-04-09T12:06:35.999Z</time></trkpt><trkpt lat="44.5222447" lon="8.9063515"><ele>298.0</ele><time>2026-04-09T12:06:36.999Z</time></trkpt><trkpt lat="44.5222598" lon="8.9064758"><ele>298.0</ele><time>2026-04-09T12:06:38Z</time></trkpt><trkpt lat="44.5222768" lon="8.9065964"><ele>298.0</ele><time>2026-04-09T12:06:38.999Z</time></trkpt><trkpt lat="44.5222963" lon="8.9067142"><ele>298.0</ele><time>2026-04-09T12:06:39.999Z</time></trkpt><trkpt lat="44.5223145" lon="8.9068298"><ele>298.0</ele><time>2026-04-09T12:06:41Z</time></trkpt><trkpt lat="44.5223339" lon="8.9069256"><ele>298.0</ele><time>2026-04-09T12:06:41.999Z</time></trkpt><trkpt lat="44.522365" lon="8.9070258"><ele>298.0</ele><time>2026-04-09T12:06:42.999Z</time></trkpt><trkpt lat="44.5224193" lon="8.9071078"><ele>298.0</ele><time>2026-04-09T12:06:43.999Z</time></trkpt><trkpt lat="44.5224981" lon="8.9071734"><ele>296.4</ele><time>2026-04-09T12:06:45Z</time></trkpt><trkpt lat="44.5225904" lon="8.9072369"><ele>294.8</ele><time>2026-04-09T12:06:46Z</time></trkpt><trkpt lat="44.5226869" lon="8.9073026"><ele>293.2</ele><time>2026-04-09T12:06:46.999Z</time></trkpt><trkpt lat="44.5227821" lon="8.9073675"><ele>291.6</ele><time>2026-04-09T12:06:48Z</time></trkpt><trkpt lat="44.5228756" lon="8.9074336"><ele>290.0</ele><time>2026-04-09T12:06:48.999Z</time></trkpt><trkpt lat="44.5229684" lon="8.9074985"><ele>290.0</ele><time>2026-04-09T12:06:50Z</time></trkpt><trkpt lat="44.5230588" lon="8.9075608"><ele>290.0</ele><time>2026-04-09T12:06:50.999Z</time></trkpt><trkpt lat="44.5231501" lon="8.9076216"><ele>290.0</ele><time>2026-04-09T12:06:51.999Z</time></trkpt><trkpt lat="44.5232375" lon="8.9076851"><ele>290.0</ele><time>2026-04-09T12:06:53Z</time></trkpt><trkpt lat="44.5233276" lon="8.9077481"><ele>290.0</ele><time>2026-04-09T12:06:53.999Z</time></trkpt><trkpt lat="44.5234265" lon="8.9078131"><ele>289.0</ele><time>2026-04-09T12:06:55Z</time></trkpt><trkpt lat="44.5235128" lon="8.9078867"><ele>288.0</ele><time>2026-04-09T12:06:55.999Z</time></trkpt><trkpt lat="44.5235856" lon="8.9079503"><ele>287.0</ele><time>2026-04-09T12:06:56.999Z</time></trkpt><trkpt lat="44.5236468" lon="8.9080038"><ele>286.0</ele><time>2026-04-09T12:06:58Z</time></trkpt><trkpt lat="44.5237327" lon="8.9080991"><ele>285.0</ele><time>2026-04-09T12:07:00Z</time></trkpt><trkpt lat="44.5237045" lon="8.9081781"><ele>284.0</ele><time>2026-04-09T12:07:02Z</time></trkpt><trkpt lat="44.523635" lon="8.9081887"><ele>282.0</ele><time>2026-04-09T12:07:03.999Z</time></trkpt><trkpt lat="44.5235778" lon="8.9081274"><ele>280.0</ele><time>2026-04-09T12:07:05Z</time></trkpt><trkpt lat="44.5234637" lon="8.908043"><ele>278.0</ele><time>2026-04-09T12:07:07Z</time></trkpt><trkpt lat="44.5233859" lon="8.9080162"><ele>276.0</ele><time>2026-04-09T12:07:07.999Z</time></trkpt><trkpt lat="44.523309" lon="8.9080091"><ele>274.0</ele><time>2026-04-09T12:07:09Z</time></trkpt><trkpt lat="44.5232292" lon="8.9080242"><ele>272.0</ele><time>2026-04-09T12:07:10Z</time></trkpt><trkpt lat="44.5231405" lon="8.9080413"><ele>272.0</ele><time>2026-04-09T12:07:11Z</time></trkpt><trkpt lat="44.5230629" lon="8.9080636"><ele>272.0</ele><time>2026-04-09T12:07:11.999Z</time></trkpt><trkpt lat="44.5229748" lon="8.9080832"><ele>272.0</ele><time>2026-04-09T12:07:13Z</time></trkpt><trkpt lat="44.5228825" lon="8.9081014"><ele>272.0</ele><time>2026-04-09T12:07:13.999Z</time></trkpt><trkpt lat="44.5228107" lon="8.9081257"><ele>272.0</ele><time>2026-04-09T12:07:14.999Z</time></trkpt><trkpt lat="44.5227327" lon="8.9081501"><ele>272.0</ele><time>2026-04-09T12:07:15.999Z</time></trkpt><trkpt lat="44.5226628" lon="8.9082004"><ele>270.25</ele><time>2026-04-09T12:07:17Z</time></trkpt><trkpt lat="44.5226065" lon="8.9082493"><ele>268.5</ele><time>2026-04-09T12:07:18Z</time></trkpt><trkpt lat="44.5224901" lon="8.9082999"><ele>266.75</ele><time>2026-04-09T12:07:20.167Z</time></trkpt><trkpt lat="44.5223406" lon="8.9081375"><ele>265.0</ele><time>2026-04-09T12:07:23Z</time></trkpt><trkpt lat="44.5222829" lon="8.9080506"><ele>265.0</ele><time>2026-04-09T12:07:24.172Z</time></trkpt><trkpt lat="44.5222275" lon="8.9079855"><ele>265.0</ele><time>2026-04-09T12:07:25.115Z</time></trkpt><trkpt lat="44.5221575" lon="8.9079472"><ele>265.0</ele><time>2026-04-09T12:07:26.111Z</time></trkpt><trkpt lat="44.5220165" lon="8.9079691"><ele>265.0</ele><time>2026-04-09T12:07:28Z</time></trkpt><trkpt lat="44.5219465" lon="8.9080118"><ele>265.0</ele><time>2026-04-09T12:07:29Z</time></trkpt><trkpt lat="44.5218798" lon="8.9080843"><ele>265.16666666666663</ele><time>2026-04-09T12:07:30Z</time></trkpt><trkpt lat="44.5218201" lon="8.9081584"><ele>265.3333333333333</ele><time>2026-04-09T12:07:31Z</time></trkpt><trkpt lat="44.5217617" lon="8.9082399"><ele>265.5</ele><time>2026-04-09T12:07:32Z</time></trkpt><trkpt lat="44.52172" lon="8.9083361"><ele>265.6666666666667</ele><time>2026-04-09T12:07:33Z</time></trkpt><trkpt lat="44.5217036" lon="8.908439"><ele>265.83333333333337</ele><time>2026-04-09T12:07:33.999Z</time></trkpt><trkpt lat="44.5216881" lon="8.9085442"><ele>266.0</ele><time>2026-04-09T12:07:35Z</time></trkpt><trkpt lat="44.5216736" lon="8.9086495"><ele>263.5</ele><time>2026-04-09T12:07:36Z</time></trkpt><trkpt lat="44.5216621" lon="8.9087838"><ele>261.0</ele><time>2026-04-09T12:07:37Z</time></trkpt><trkpt lat="44.5216469" lon="8.9089031"><ele>258.5</ele><time>2026-04-09T12:07:37.999Z</time></trkpt><trkpt lat="44.5216294" lon="8.9090211"><ele>256.0</ele><time>2026-04-09T12:07:39Z</time></trkpt><trkpt lat="44.5216082" lon="8.9091322"><ele>253.50000000000003</ele><time>2026-04-09T12:07:40.109Z</time></trkpt><trkpt lat="44.5215853" lon="8.9092351"><ele>251.0</ele><time>2026-04-09T12:07:41.137Z</time></trkpt><trkpt lat="44.5214953" lon="8.9094176"><ele>247.4</ele><time>2026-04-09T12:07:43Z</time></trkpt><trkpt lat="44.5214456" lon="8.9095512"><ele>243.8</ele><time>2026-04-09T12:07:43.999Z</time></trkpt><trkpt lat="44.5213893" lon="8.9096384"><ele>240.20000000000002</ele><time>2026-04-09T12:07:45.153Z</time></trkpt><trkpt lat="44.5213402" lon="8.9096986"><ele>236.60000000000002</ele><time>2026-04-09T12:07:46.132Z</time></trkpt><trkpt lat="44.5212498" lon="8.9097864"><ele>233.0</ele><time>2026-04-09T12:07:47.999Z</time></trkpt><trkpt lat="44.5211518" lon="8.9098427"><ele>232.5</ele><time>2026-04-09T12:07:50.156Z</time></trkpt><trkpt lat="44.5210628" lon="8.909701"><ele>232.0</ele><time>2026-04-09T12:07:52.999Z</time></trkpt><trkpt lat="44.5210309" lon="8.9095457"><ele>231.5</ele><time>2026-04-09T12:07:55Z</time></trkpt><trkpt lat="44.5210086" lon="8.9094542"><ele>231.0</ele><time>2026-04-09T12:07:56.178Z</time></trkpt><trkpt lat="44.520901" lon="8.9092882"><ele>232.60000000000002</ele><time>2026-04-09T12:07:57.999Z</time></trkpt><trkpt lat="44.5208453" lon="8.9092099"><ele>234.20000000000002</ele><time>2026-04-09T12:07:58.999Z</time></trkpt><trkpt lat="44.5207849" lon="8.9091368"><ele>235.79999999999998</ele><time>2026-04-09T12:08:00.165Z</time></trkpt><trkpt lat="44.5207277" lon="8.9090584"><ele>237.39999999999998</ele><time>2026-04-09T12:08:01.17Z</time></trkpt><trkpt lat="44.5206252" lon="8.9089102"><ele>239.0</ele><time>2026-04-09T12:08:02.999Z</time></trkpt><trkpt lat="44.5205736" lon="8.9088443"><ele>239.0</ele><time>2026-04-09T12:08:04.116Z</time></trkpt><trkpt lat="44.5205239" lon="8.9087871"><ele>239.0</ele><time>2026-04-09T12:08:05.117Z</time></trkpt><trkpt lat="44.5203927" lon="8.9088188"><ele>239.0</ele><time>2026-04-09T12:08:07.999Z</time></trkpt><trkpt lat="44.5204026" lon="8.9089735"><ele>239.0</ele><time>2026-04-09T12:08:10.164Z</time></trkpt><trkpt lat="44.5205179" lon="8.9091778"><ele>237.0</ele><time>2026-04-09T12:08:13Z</time></trkpt><trkpt lat="44.5205826" lon="8.909312"><ele>235.0</ele><time>2026-04-09T12:08:15.126Z</time></trkpt><trkpt lat="44.5206146" lon="8.9095173"><ele>233.0</ele><time>2026-04-09T12:08:18Z</time></trkpt><trkpt lat="44.5205369" lon="8.9095844"><ele>231.0</ele><time>2026-04-09T12:08:20.13Z</time></trkpt><trkpt lat="44.520406" lon="8.9095767"><ele>227.83333333333334</ele><time>2026-04-09T12:08:22Z</time></trkpt><trkpt lat="44.5203397" lon="8.909571"><ele>224.66666666666669</ele><time>2026-04-09T12:08:22.999Z</time></trkpt><trkpt lat="44.5202342" lon="8.9095793"><ele>221.5</ele><time>2026-04-09T12:08:24.999Z</time></trkpt><trkpt lat="44.5201813" lon="8.9096931"><ele>218.33333333333334</ele><time>2026-04-09T12:08:28Z</time></trkpt><trkpt lat="44.5202391" lon="8.9097869"><ele>215.16666666666669</ele><time>2026-04-09T12:08:30Z</time></trkpt><trkpt lat="44.5202751" lon="8.9098656"><ele>212.0</ele><time>2026-04-09T12:08:31.121Z</time></trkpt><trkpt lat="44.5202601" lon="8.9100062"><ele>210.2</ele><time>2026-04-09T12:08:32.999Z</time></trkpt><trkpt lat="44.5201933" lon="8.9101486"><ele>208.39999999999998</ele><time>2026-04-09T12:08:35Z</time></trkpt><trkpt lat="44.5201763" lon="8.9102443"><ele>206.60000000000002</ele><time>2026-04-09T12:08:36Z</time></trkpt><trkpt lat="44.5201824" lon="8.9103908"><ele>204.8</ele><time>2026-04-09T12:08:38Z</time></trkpt><trkpt lat="44.520133" lon="8.9105397"><ele>203.0</ele><time>2026-04-09T12:08:40.999Z</time></trkpt><trkpt lat="44.5200607" lon="8.9105253"><ele>203.0</ele><time>2026-04-09T12:08:42.999Z</time></trkpt><trkpt lat="44.5200239" lon="8.9104198"><ele>203.0</ele><time>2026-04-09T12:08:44.999Z</time></trkpt><trkpt lat="44.5200327" lon="8.9102555"><ele>203.0</ele><time>2026-04-09T12:08:47Z</time></trkpt><trkpt lat="44.520027" lon="8.9101638"><ele>203.0</ele><time>2026-04-09T12:08:48Z</time></trkpt><trkpt lat="44.5200071" lon="8.9100698"><ele>203.0</ele><time>2026-04-09T12:08:48.999Z</time></trkpt><trkpt lat="44.5199403" lon="8.9099292"><ele>204.28571428571428</ele><time>2026-04-09T12:08:50.999Z</time></trkpt><trkpt lat="44.5198954" lon="8.9098347"><ele>205.57142857142856</ele><time>2026-04-09T12:08:51.999Z</time></trkpt><trkpt lat="44.5198517" lon="8.9097603"><ele>206.85714285714286</ele><time>2026-04-09T12:08:52.999Z</time></trkpt><trkpt lat="44.5198044" lon="8.9096879"><ele>208.14285714285714</ele><time>2026-04-09T12:08:53.999Z</time></trkpt><trkpt lat="44.5197687" lon="8.9096104"><ele>209.42857142857142</ele><time>2026-04-09T12:08:55Z</time></trkpt><trkpt lat="44.5197434" lon="8.9095282"><ele>210.71428571428572</ele><time>2026-04-09T12:08:55.999Z</time></trkpt><trkpt lat="44.519734" lon="8.9094295"><ele>212.0</ele><time>2026-04-09T12:08:56.999Z</time></trkpt><trkpt lat="44.5197412" lon="8.9093187"><ele>212.14285714285714</ele><time>2026-04-09T12:08:57.999Z</time></trkpt><trkpt lat="44.5197631" lon="8.9092177"><ele>212.28571428571428</ele><time>2026-04-09T12:08:58.999Z</time></trkpt><trkpt lat="44.5197884" lon="8.9091249"><ele>212.42857142857142</ele><time>2026-04-09T12:08:59.999Z</time></trkpt><trkpt lat="44.5198168" lon="8.9090376"><ele>212.57142857142856</ele><time>2026-04-09T12:09:01Z</time></trkpt><trkpt lat="44.5198351" lon="8.9089519"><ele>212.71428571428572</ele><time>2026-04-09T12:09:01.999Z</time></trkpt><trkpt lat="44.5198196" lon="8.9088515"><ele>212.85714285714283</ele><time>2026-04-09T12:09:03.999Z</time></trkpt><trkpt lat="44.519743" lon="8.9088407"><ele>213.0</ele><time>2026-04-09T12:09:06Z</time></trkpt><trkpt lat="44.5196802" lon="8.9089318"><ele>207.5</ele><time>2026-04-09T12:09:07.999Z</time></trkpt><trkpt lat="44.519546" lon="8.9091978"><ele>202.0</ele><time>2026-04-09T12:09:11Z</time></trkpt><trkpt lat="44.519502" lon="8.9092871"><ele>196.5</ele><time>2026-04-09T12:09:11.999Z</time></trkpt><trkpt lat="44.519462" lon="8.909371"><ele>191.0</ele><time>2026-04-09T12:09:13Z</time></trkpt><trkpt lat="44.5194179" lon="8.9094571"><ele>191.0</ele><time>2026-04-09T12:09:13.999Z</time></trkpt><trkpt lat="44.5193749" lon="8.9095467"><ele>191.0</ele><time>2026-04-09T12:09:14.999Z</time></trkpt><trkpt lat="44.5192772" lon="8.9096584"><ele>191.0</ele><time>2026-04-09T12:09:17Z</time></trkpt><trkpt lat="44.5192225" lon="8.9097116"><ele>191.0</ele><time>2026-04-09T12:09:17.999Z</time></trkpt><trkpt lat="44.519153" lon="8.9098234"><ele>191.0</ele><time>2026-04-09T12:09:20Z</time></trkpt><trkpt lat="44.5191409" lon="8.9099104"><ele>191.0</ele><time>2026-04-09T12:09:20.999Z</time></trkpt><trkpt lat="44.5191549" lon="8.9100818"><ele>190.42857142857144</ele><time>2026-04-09T12:09:22.999Z</time></trkpt><trkpt lat="44.5191686" lon="8.910176"><ele>189.85714285714283</ele><time>2026-04-09T12:09:24Z</time></trkpt><trkpt lat="44.5191764" lon="8.9102748"><ele>189.28571428571428</ele><time>2026-04-09T12:09:24.999Z</time></trkpt><trkpt lat="44.5191868" lon="8.9103825"><ele>188.71428571428572</ele><time>2026-04-09T12:09:26Z</time></trkpt><trkpt lat="44.5191918" lon="8.9104929"><ele>188.14285714285717</ele><time>2026-04-09T12:09:26.999Z</time></trkpt><trkpt lat="44.5191997" lon="8.9106007"><ele>187.57142857142856</ele><time>2026-04-09T12:09:27.999Z</time></trkpt><trkpt lat="44.5192086" lon="8.9107049"><ele>187.0</ele><time>2026-04-09T12:09:29Z</time></trkpt><trkpt lat="44.5192315" lon="8.9107976"><ele>187.0</ele><time>2026-04-09T12:09:29.999Z</time></trkpt><trkpt lat="44.5192596" lon="8.9108908"><ele>187.0</ele><time>2026-04-09T12:09:30.999Z</time></trkpt><trkpt lat="44.519302" lon="8.9109874"><ele>187.0</ele><time>2026-04-09T12:09:31.999Z</time></trkpt><trkpt lat="44.5193506" lon="8.9110708"><ele>187.0</ele><time>2026-04-09T12:09:32.999Z</time></trkpt><trkpt lat="44.5194046" lon="8.9111381"><ele>187.0</ele><time>2026-04-09T12:09:34Z</time></trkpt><trkpt lat="44.5194575" lon="8.9112075"><ele>187.0</ele><time>2026-04-09T12:09:34.999Z</time></trkpt><trkpt lat="44.519519" lon="8.9112659"><ele>187.0</ele><time>2026-04-09T12:09:36.114Z</time></trkpt><trkpt lat="44.5196259" lon="8.9114043"><ele>187.5</ele><time>2026-04-09T12:09:37.999Z</time></trkpt><trkpt lat="44.5196616" lon="8.9114874"><ele>188.0</ele><time>2026-04-09T12:09:39.144Z</time></trkpt><trkpt lat="44.5196941" lon="8.9115728"><ele>188.5</ele><time>2026-04-09T12:09:40.106Z</time></trkpt><trkpt lat="44.5197143" lon="8.9116624"><ele>189.0</ele><time>2026-04-09T12:09:41.145Z</time></trkpt><trkpt lat="44.5197328" lon="8.9118654"><ele>189.5</ele><time>2026-04-09T12:09:42.999Z</time></trkpt><trkpt lat="44.5197564" lon="8.9119687"><ele>190.0</ele><time>2026-04-09T12:09:44.114Z</time></trkpt><trkpt lat="44.519788" lon="8.9120676"><ele>189.5</ele><time>2026-04-09T12:09:45.138Z</time></trkpt><trkpt lat="44.5198239" lon="8.9121574"><ele>189.0</ele><time>2026-04-09T12:09:46.155Z</time></trkpt><trkpt lat="44.5198963" lon="8.912331"><ele>188.5</ele><time>2026-04-09T12:09:47.999Z</time></trkpt><trkpt lat="44.5199364" lon="8.9124145"><ele>188.0</ele><time>2026-04-09T12:09:49.123Z</time></trkpt><trkpt lat="44.5199754" lon="8.9125001"><ele>187.5</ele><time>2026-04-09T12:09:50.12Z</time></trkpt><trkpt lat="44.5200079" lon="8.9125868"><ele>187.0</ele><time>2026-04-09T12:09:51.15Z</time></trkpt><trkpt lat="44.5200082" lon="8.912739"><ele>187.0</ele><time>2026-04-09T12:09:53.157Z</time></trkpt><trkpt lat="44.5199268" lon="8.9128244"><ele>187.0</ele><time>2026-04-09T12:09:55.148Z</time></trkpt><trkpt lat="44.5197921" lon="8.912698"><ele>187.0</ele><time>2026-04-09T12:09:58Z</time></trkpt><trkpt lat="44.5197017" lon="8.9125657"><ele>187.0</ele><time>2026-04-09T12:10:00.163Z</time></trkpt><trkpt lat="44.5195842" lon="8.9124965"><ele>182.39999999999998</ele><time>2026-04-09T12:10:01.999Z</time></trkpt><trkpt lat="44.5195077" lon="8.9125068"><ele>177.79999999999998</ele><time>2026-04-09T12:10:03Z</time></trkpt><trkpt lat="44.5194321" lon="8.9125335"><ele>173.2</ele><time>2026-04-09T12:10:04.158Z</time></trkpt><trkpt lat="44.5193553" lon="8.9125729"><ele>168.6</ele><time>2026-04-09T12:10:05.162Z</time></trkpt><trkpt lat="44.5192785" lon="8.912614"><ele>164.0</ele><time>2026-04-09T12:10:06.142Z</time></trkpt><trkpt lat="44.5191064" lon="8.9126705"><ele>163.39999999999998</ele><time>2026-04-09T12:10:07.999Z</time></trkpt><trkpt lat="44.5190171" lon="8.9126984"><ele>162.8</ele><time>2026-04-09T12:10:09.162Z</time></trkpt><trkpt lat="44.5188517" lon="8.9127744"><ele>162.2</ele><time>2026-04-09T12:10:10.999Z</time></trkpt><trkpt lat="44.5187678" lon="8.9128414"><ele>161.60000000000002</ele><time>2026-04-09T12:10:11.999Z</time></trkpt><trkpt lat="44.5186959" lon="8.9128959"><ele>161.0</ele><time>2026-04-09T12:10:13.132Z</time></trkpt><trkpt lat="44.5186354" lon="8.9129497"><ele>158.20000000000002</ele><time>2026-04-09T12:10:14.16Z</time></trkpt><trkpt lat="44.5185742" lon="8.9129836"><ele>155.4</ele><time>2026-04-09T12:10:15.154Z</time></trkpt><trkpt lat="44.51851" lon="8.9129976"><ele>152.6</ele><time>2026-04-09T12:10:16.178Z</time></trkpt><trkpt lat="44.5183888" lon="8.9129428"><ele>149.8</ele><time>2026-04-09T12:10:18.154Z</time></trkpt><trkpt lat="44.5182447" lon="8.9128177"><ele>147.0</ele><time>2026-04-09T12:10:20.164Z</time></trkpt><trkpt lat="44.5181557" lon="8.9126702"><ele>147.0</ele><time>2026-04-09T12:10:22Z</time></trkpt><trkpt lat="44.5181278" lon="8.9125813"><ele>147.0</ele><time>2026-04-09T12:10:22.999Z</time></trkpt><trkpt lat="44.5181445" lon="8.9124815"><ele>147.0</ele><time>2026-04-09T12:10:24.129Z</time></trkpt><trkpt lat="44.5181631" lon="8.912376"><ele>147.0</ele><time>2026-04-09T12:10:25.112Z</time></trkpt><trkpt lat="44.5181888" lon="8.9122747"><ele>147.0</ele><time>2026-04-09T12:10:26.126Z</time></trkpt><trkpt lat="44.5182439" lon="8.9121189"><ele>147.0</ele><time>2026-04-09T12:10:28Z</time></trkpt><trkpt lat="44.5182185" lon="8.9120018"><ele>147.42857142857142</ele><time>2026-04-09T12:10:29.999Z</time></trkpt><trkpt lat="44.5181282" lon="8.9119485"><ele>147.85714285714286</ele><time>2026-04-09T12:10:32Z</time></trkpt><trkpt lat="44.5180641" lon="8.9119626"><ele>148.28571428571428</ele><time>2026-04-09T12:10:33Z</time></trkpt><trkpt lat="44.5179958" lon="8.9119747"><ele>148.71428571428572</ele><time>2026-04-09T12:10:33.999Z</time></trkpt><trkpt lat="44.5179226" lon="8.9119783"><ele>149.14285714285714</ele><time>2026-04-09T12:10:35.12Z</time></trkpt><trkpt lat="44.5178528" lon="8.9119936"><ele>149.57142857142856</ele><time>2026-04-09T12:10:36.161Z</time></trkpt><trkpt lat="44.517779" lon="8.9119932"><ele>150.0</ele><time>2026-04-09T12:10:36.999Z</time></trkpt><trkpt lat="44.5176745" lon="8.9120572"><ele>147.6</ele><time>2026-04-09T12:10:38.999Z</time></trkpt><trkpt lat="44.5176336" lon="8.9121314"><ele>145.2</ele><time>2026-04-09T12:10:40Z</time></trkpt><trkpt lat="44.5176056" lon="8.9122993"><ele>142.8</ele><time>2026-04-09T12:10:41.999Z</time></trkpt><trkpt lat="44.5176042" lon="8.9124031"><ele>140.4</ele><time>2026-04-09T12:10:43.113Z</time></trkpt><trkpt lat="44.5175934" lon="8.912565"><ele>138.0</ele><time>2026-04-09T12:10:45.132Z</time></trkpt><trkpt lat="44.5175871" lon="8.9126685"><ele>137.5</ele><time>2026-04-09T12:10:48Z</time></trkpt><trkpt lat="44.5176314" lon="8.9127683"><ele>137.0</ele><time>2026-04-09T12:10:50.999Z</time></trkpt><trkpt lat="44.5176641" lon="8.9128453"><ele>136.5</ele><time>2026-04-09T12:10:52Z</time></trkpt><trkpt lat="44.5177265" lon="8.9129596"><ele>136.0</ele><time>2026-04-09T12:10:54Z</time></trkpt><trkpt lat="44.5177728" lon="8.9130292"><ele>135.5</ele><time>2026-04-09T12:10:54.999Z</time></trkpt><trkpt lat="44.5178183" lon="8.9131127"><ele>135.0</ele><time>2026-04-09T12:10:56Z</time></trkpt><trkpt lat="44.5178765" lon="8.9132315"><ele>135.6</ele><time>2026-04-09T12:10:57Z</time></trkpt><trkpt lat="44.5179303" lon="8.9133326"><ele>136.2</ele><time>2026-04-09T12:10:57.999Z</time></trkpt><trkpt lat="44.5179954" lon="8.913433"><ele>136.8</ele><time>2026-04-09T12:10:59Z</time></trkpt><trkpt lat="44.5180707" lon="8.9135226"><ele>137.4</ele><time>2026-04-09T12:10:59.999Z</time></trkpt><trkpt lat="44.5181574" lon="8.913622"><ele>138.0</ele><time>2026-04-09T12:11:00.999Z</time></trkpt><trkpt lat="44.5182509" lon="8.9137226"><ele>138.0</ele><time>2026-04-09T12:11:02Z</time></trkpt><trkpt lat="44.5183424" lon="8.9138203"><ele>138.0</ele><time>2026-04-09T12:11:03Z</time></trkpt><trkpt lat="44.5184328" lon="8.9139426"><ele>138.0</ele><time>2026-04-09T12:11:03.999Z</time></trkpt><trkpt lat="44.5184972" lon="8.9140762"><ele>138.0</ele><time>2026-04-09T12:11:05Z</time></trkpt><trkpt lat="44.5185449" lon="8.914215"><ele>139.5</ele><time>2026-04-09T12:11:06Z</time></trkpt><trkpt lat="44.5185774" lon="8.914362"><ele>141.0</ele><time>2026-04-09T12:11:06.999Z</time></trkpt><trkpt lat="44.5186234" lon="8.9145045"><ele>142.5</ele><time>2026-04-09T12:11:07.999Z</time></trkpt><trkpt lat="44.5186617" lon="8.914667"><ele>144.0</ele><time>2026-04-09T12:11:09Z</time></trkpt><trkpt lat="44.518698" lon="8.9148246"><ele>147.75</ele><time>2026-04-09T12:11:09.999Z</time></trkpt><trkpt lat="44.5187378" lon="8.914996"><ele>151.5</ele><time>2026-04-09T12:11:10.999Z</time></trkpt><trkpt lat="44.518786" lon="8.9151622"><ele>155.25</ele><time>2026-04-09T12:11:11.999Z</time></trkpt><trkpt lat="44.5188227" lon="8.9153309"><ele>159.0</ele><time>2026-04-09T12:11:13Z</time></trkpt><trkpt lat="44.5188483" lon="8.9155022"><ele>158.75</ele><time>2026-04-09T12:11:14Z</time></trkpt><trkpt lat="44.5188609" lon="8.9157138"><ele>158.5</ele><time>2026-04-09T12:11:14.999Z</time></trkpt><trkpt lat="44.5188503" lon="8.9158943"><ele>158.25</ele><time>2026-04-09T12:11:16Z</time></trkpt><trkpt lat="44.5188285" lon="8.9160738"><ele>158.0</ele><time>2026-04-09T12:11:16.999Z</time></trkpt><trkpt lat="44.5188061" lon="8.9162585"><ele>158.0</ele><time>2026-04-09T12:11:18Z</time></trkpt><trkpt lat="44.5188022" lon="8.9164585"><ele>158.0</ele><time>2026-04-09T12:11:19Z</time></trkpt><trkpt lat="44.5188192" lon="8.9166539"><ele>158.0</ele><time>2026-04-09T12:11:19.999Z</time></trkpt><trkpt lat="44.5188513" lon="8.9168346"><ele>158.0</ele><time>2026-04-09T12:11:21.122Z</time></trkpt><trkpt lat="44.51898" lon="8.9171386"><ele>154.75</ele><time>2026-04-09T12:11:23Z</time></trkpt><trkpt lat="44.519071" lon="8.9172579"><ele>151.5</ele><time>2026-04-09T12:11:24.105Z</time></trkpt><trkpt lat="44.5191635" lon="8.9173953"><ele>148.25</ele><time>2026-04-09T12:11:25.147Z</time></trkpt><trkpt lat="44.5192548" lon="8.9175273"><ele>145.0</ele><time>2026-04-09T12:11:26.11Z</time></trkpt><trkpt lat="44.519427" lon="8.9177513"><ele>145.25</ele><time>2026-04-09T12:11:28Z</time></trkpt><trkpt lat="44.5195289" lon="8.9178312"><ele>145.5</ele><time>2026-04-09T12:11:29.117Z</time></trkpt><trkpt lat="44.5197274" lon="8.9178176"><ele>145.75</ele><time>2026-04-09T12:11:31Z</time></trkpt><trkpt lat="44.519822" lon="8.9177785"><ele>146.0</ele><time>2026-04-09T12:11:31.999Z</time></trkpt><trkpt lat="44.519912" lon="8.9177218"><ele>146.0</ele><time>2026-04-09T12:11:32.999Z</time></trkpt><trkpt lat="44.5199928" lon="8.9176414"><ele>146.0</ele><time>2026-04-09T12:11:34Z</time></trkpt><trkpt lat="44.5200654" lon="8.9175444"><ele>146.0</ele><time>2026-04-09T12:11:35Z</time></trkpt><trkpt lat="44.520108" lon="8.9174087"><ele>146.0</ele><time>2026-04-09T12:11:35.999Z</time></trkpt><trkpt lat="44.5201536" lon="8.9172686"><ele>146.0</ele><time>2026-04-09T12:11:36.999Z</time></trkpt><trkpt lat="44.5202032" lon="8.917128"><ele>147.6</ele><time>2026-04-09T12:11:38Z</time></trkpt><trkpt lat="44.5202532" lon="8.9169949"><ele>149.2</ele><time>2026-04-09T12:11:38.999Z</time></trkpt><trkpt lat="44.5203034" lon="8.9168592"><ele>150.8</ele><time>2026-04-09T12:11:40Z</time></trkpt><trkpt lat="44.5203514" lon="8.9167276"><ele>152.4</ele><time>2026-04-09T12:11:40.999Z</time></trkpt><trkpt lat="44.5203929" lon="8.9165982"><ele>154.0</ele><time>2026-04-09T12:11:41.999Z</time></trkpt><trkpt lat="44.5204311" lon="8.9164636"><ele>154.0</ele><time>2026-04-09T12:11:42.999Z</time></trkpt><trkpt lat="44.5204825" lon="8.9163287"><ele>154.0</ele><time>2026-04-09T12:11:43.999Z</time></trkpt><trkpt lat="44.5205437" lon="8.9161969"><ele>154.0</ele><time>2026-04-09T12:11:44.999Z</time></trkpt><trkpt lat="44.5206335" lon="8.9160726"><ele>154.0</ele><time>2026-04-09T12:11:45.999Z</time></trkpt><trkpt lat="44.5207321" lon="8.9159564"><ele>155.33333333333334</ele><time>2026-04-09T12:11:46.999Z</time></trkpt><trkpt lat="44.5208435" lon="8.9158365"><ele>156.66666666666666</ele><time>2026-04-09T12:11:48Z</time></trkpt><trkpt lat="44.5209598" lon="8.9156961"><ele>158.0</ele><time>2026-04-09T12:11:48.999Z</time></trkpt><trkpt lat="44.5210891" lon="8.9155422"><ele>158.0</ele><time>2026-04-09T12:11:50Z</time></trkpt><trkpt lat="44.5212225" lon="8.9153916"><ele>158.0</ele><time>2026-04-09T12:11:51Z</time></trkpt><trkpt lat="44.5213656" lon="8.9152462"><ele>158.0</ele><time>2026-04-09T12:11:52Z</time></trkpt><trkpt lat="44.5215005" lon="8.9151173"><ele>157.5</ele><time>2026-04-09T12:11:53Z</time></trkpt><trkpt lat="44.5215982" lon="8.9150253"><ele>157.0</ele><time>2026-04-09T12:11:53.999Z</time></trkpt><trkpt lat="44.5216782" lon="8.9149448"><ele>156.5</ele><time>2026-04-09T12:11:54.999Z</time></trkpt><trkpt lat="44.5217373" lon="8.9148678"><ele>156.0</ele><time>2026-04-09T12:11:55.999Z</time></trkpt><trkpt lat="44.5217876" lon="8.9147951"><ele>155.5</ele><time>2026-04-09T12:11:56.999Z</time></trkpt><trkpt lat="44.5218315" lon="8.9147126"><ele>155.0</ele><time>2026-04-09T12:11:57.999Z</time></trkpt><trkpt lat="44.5218596" lon="8.9146128"><ele>155.0</ele><time>2026-04-09T12:11:58.999Z</time></trkpt><trkpt lat="44.5218886" lon="8.9145206"><ele>155.0</ele><time>2026-04-09T12:12:00.152Z</time></trkpt><trkpt lat="44.5219242" lon="8.9144206"><ele>155.0</ele><time>2026-04-09T12:12:01.121Z</time></trkpt><trkpt lat="44.5219906" lon="8.9141909"><ele>155.0</ele><time>2026-04-09T12:12:03Z</time></trkpt><trkpt lat="44.522026" lon="8.9140784"><ele>155.0</ele><time>2026-04-09T12:12:04.12Z</time></trkpt><trkpt lat="44.5221183" lon="8.9138479"><ele>155.16666666666666</ele><time>2026-04-09T12:12:05.999Z</time></trkpt><trkpt lat="44.5221673" lon="8.9137422"><ele>155.33333333333331</ele><time>2026-04-09T12:12:07Z</time></trkpt><trkpt lat="44.5222178" lon="8.9136502"><ele>155.5</ele><time>2026-04-09T12:12:07.999Z</time></trkpt><trkpt lat="44.5222789" lon="8.9135691"><ele>155.66666666666666</ele><time>2026-04-09T12:12:09.122Z</time></trkpt><trkpt lat="44.5223528" lon="8.9134845"><ele>155.83333333333334</ele><time>2026-04-09T12:12:10.133Z</time></trkpt><trkpt lat="44.5224286" lon="8.9134121"><ele>156.0</ele><time>2026-04-09T12:12:11.126Z</time></trkpt><trkpt lat="44.5225955" lon="8.9133366"><ele>156.0</ele><time>2026-04-09T12:12:12.999Z</time></trkpt><trkpt lat="44.5226944" lon="8.9133096"><ele>156.0</ele><time>2026-04-09T12:12:14.169Z</time></trkpt><trkpt lat="44.5228705" lon="8.9133164"><ele>156.0</ele><time>2026-04-09T12:12:15.999Z</time></trkpt><trkpt lat="44.5229623" lon="8.9133381"><ele>156.0</ele><time>2026-04-09T12:12:16.999Z</time></trkpt><trkpt lat="44.523065" lon="8.9133677"><ele>155.8</ele><time>2026-04-09T12:12:18Z</time></trkpt><trkpt lat="44.5231619" lon="8.9133938"><ele>155.6</ele><time>2026-04-09T12:12:18.999Z</time></trkpt><trkpt lat="44.5232588" lon="8.9134229"><ele>155.4</ele><time>2026-04-09T12:12:19.999Z</time></trkpt><trkpt lat="44.5233591" lon="8.9134494"><ele>155.2</ele><time>2026-04-09T12:12:21Z</time></trkpt><trkpt lat="44.5234485" lon="8.913477"><ele>155.0</ele><time>2026-04-09T12:12:22Z</time></trkpt><trkpt lat="44.5235539" lon="8.9135029"><ele>154.66666666666666</ele><time>2026-04-09T12:12:23Z</time></trkpt><trkpt lat="44.5236533" lon="8.9135298"><ele>154.33333333333334</ele><time>2026-04-09T12:12:24.141Z</time></trkpt><trkpt lat="44.5238466" lon="8.913595"><ele>154.0</ele><time>2026-04-09T12:12:26.115Z</time></trkpt><trkpt lat="44.5240504" lon="8.9136518"><ele>156.0</ele><time>2026-04-09T12:12:28Z</time></trkpt><trkpt lat="44.524155" lon="8.9136911"><ele>158.0</ele><time>2026-04-09T12:12:29.117Z</time></trkpt><trkpt lat="44.5242574" lon="8.913747"><ele>160.0</ele><time>2026-04-09T12:12:30.14Z</time></trkpt><trkpt lat="44.5243447" lon="8.9138076"><ele>162.0</ele><time>2026-04-09T12:12:31.108Z</time></trkpt><trkpt lat="44.5245049" lon="8.9139112"><ele>161.6</ele><time>2026-04-09T12:12:32.999Z</time></trkpt><trkpt lat="44.5245864" lon="8.9139442"><ele>161.2</ele><time>2026-04-09T12:12:33.999Z</time></trkpt><trkpt lat="44.5246721" lon="8.9139435"><ele>160.8</ele><time>2026-04-09T12:12:35Z</time></trkpt><trkpt lat="44.5247605" lon="8.9139209"><ele>160.4</ele><time>2026-04-09T12:12:36.138Z</time></trkpt><trkpt lat="44.5249334" lon="8.9138579"><ele>160.0</ele><time>2026-04-09T12:12:38Z</time></trkpt><trkpt lat="44.5250146" lon="8.9138184"><ele>160.0</ele><time>2026-04-09T12:12:38.999Z</time></trkpt><trkpt lat="44.5250986" lon="8.9137747"><ele>160.0</ele><time>2026-04-09T12:12:40Z</time></trkpt><trkpt lat="44.52518" lon="8.9137277"><ele>160.0</ele><time>2026-04-09T12:12:40.999Z</time></trkpt><trkpt lat="44.5252724" lon="8.9136872"><ele>160.0</ele><time>2026-04-09T12:12:42Z</time></trkpt><trkpt lat="44.5253519" lon="8.9136492"><ele>160.0</ele><time>2026-04-09T12:12:42.999Z</time></trkpt><trkpt lat="44.5254413" lon="8.9136174"><ele>160.5</ele><time>2026-04-09T12:12:43.999Z</time></trkpt><trkpt lat="44.5255376" lon="8.913593"><ele>161.0</ele><time>2026-04-09T12:12:44.999Z</time></trkpt><trkpt lat="44.5256265" lon="8.9136095"><ele>161.5</ele><time>2026-04-09T12:12:46.131Z</time></trkpt><trkpt lat="44.5258091" lon="8.9136802"><ele>162.0</ele><time>2026-04-09T12:12:48Z</time></trkpt><trkpt lat="44.5259007" lon="8.9137238"><ele>162.0</ele><time>2026-04-09T12:12:49Z</time></trkpt><trkpt lat="44.5260036" lon="8.9137617"><ele>162.0</ele><time>2026-04-09T12:12:49.999Z</time></trkpt><trkpt lat="44.5261041" lon="8.9137849"><ele>162.0</ele><time>2026-04-09T12:12:51Z</time></trkpt><trkpt lat="44.5262006" lon="8.9138072"><ele>162.0</ele><time>2026-04-09T12:12:52Z</time></trkpt><trkpt lat="44.5263088" lon="8.9138216"><ele>162.0</ele><time>2026-04-09T12:12:52.999Z</time></trkpt><trkpt lat="44.5264099" lon="8.9138343"><ele>162.66666666666666</ele><time>2026-04-09T12:12:54.148Z</time></trkpt><trkpt lat="44.5265956" lon="8.913928"><ele>163.33333333333331</ele><time>2026-04-09T12:12:56.12Z</time></trkpt><trkpt lat="44.526762" lon="8.9141147"><ele>164.0</ele><time>2026-04-09T12:12:58Z</time></trkpt><trkpt lat="44.5268402" lon="8.914217"><ele>164.5</ele><time>2026-04-09T12:12:59Z</time></trkpt><trkpt lat="44.5269149" lon="8.914319"><ele>165.0</ele><time>2026-04-09T12:12:59.999Z</time></trkpt><trkpt lat="44.5269916" lon="8.9144179"><ele>165.5</ele><time>2026-04-09T12:13:01.121Z</time></trkpt><trkpt lat="44.5271581" lon="8.9146321"><ele>166.0</ele><time>2026-04-09T12:13:02.999Z</time></trkpt><trkpt lat="44.5272462" lon="8.9147404"><ele>166.0</ele><time>2026-04-09T12:13:04.105Z</time></trkpt><trkpt lat="44.5274182" lon="8.9149546"><ele>166.0</ele><time>2026-04-09T12:13:06.109Z</time></trkpt><trkpt lat="44.5275826" lon="8.9151644"><ele>166.25</ele><time>2026-04-09T12:13:07.999Z</time></trkpt><trkpt lat="44.5276609" lon="8.9152648"><ele>166.5</ele><time>2026-04-09T12:13:09Z</time></trkpt><trkpt lat="44.5277418" lon="8.9153739"><ele>166.75</ele><time>2026-04-09T12:13:10Z</time></trkpt><trkpt lat="44.5278302" lon="8.9154706"><ele>167.0</ele><time>2026-04-09T12:13:10.999Z</time></trkpt><trkpt lat="44.5279297" lon="8.9155711"><ele>167.0</ele><time>2026-04-09T12:13:11.999Z</time></trkpt><trkpt lat="44.5280283" lon="8.9156393"><ele>167.0</ele><time>2026-04-09T12:13:12.999Z</time></trkpt><trkpt lat="44.5281282" lon="8.915686"><ele>167.0</ele><time>2026-04-09T12:13:13.999Z</time></trkpt><trkpt lat="44.5282358" lon="8.9157093"><ele>167.0</ele><time>2026-04-09T12:13:15Z</time></trkpt><trkpt lat="44.5283446" lon="8.9157157"><ele>167.0</ele><time>2026-04-09T12:13:16.158Z</time></trkpt><trkpt lat="44.5284463" lon="8.9157014"><ele>167.0</ele><time>2026-04-09T12:13:16.999Z</time></trkpt><trkpt lat="44.5285412" lon="8.9156629"><ele>167.0</ele><time>2026-04-09T12:13:18Z</time></trkpt><trkpt lat="44.5286215" lon="8.9156183"><ele>167.0</ele><time>2026-04-09T12:13:18.999Z</time></trkpt><trkpt lat="44.5286958" lon="8.9155764"><ele>167.0</ele><time>2026-04-09T12:13:20Z</time></trkpt><trkpt lat="44.5287739" lon="8.915535"><ele>167.0</ele><time>2026-04-09T12:13:20.999Z</time></trkpt><trkpt lat="44.5288548" lon="8.9154867"><ele>167.0</ele><time>2026-04-09T12:13:22Z</time></trkpt><trkpt lat="44.5289471" lon="8.9154581"><ele>167.39999999999998</ele><time>2026-04-09T12:13:23Z</time></trkpt><trkpt lat="44.5290468" lon="8.9154576"><ele>167.79999999999998</ele><time>2026-04-09T12:13:24Z</time></trkpt><trkpt lat="44.5291385" lon="8.9154823"><ele>168.2</ele><time>2026-04-09T12:13:25.122Z</time></trkpt><trkpt lat="44.5292223" lon="8.9155298"><ele>168.6</ele><time>2026-04-09T12:13:26.126Z</time></trkpt><trkpt lat="44.5293376" lon="8.915669"><ele>169.0</ele><time>2026-04-09T12:13:28Z</time></trkpt><trkpt lat="44.5293856" lon="8.9157536"><ele>169.0</ele><time>2026-04-09T12:13:29Z</time></trkpt><trkpt lat="44.5294364" lon="8.9158459"><ele>169.0</ele><time>2026-04-09T12:13:29.999Z</time></trkpt><trkpt lat="44.5294877" lon="8.9159466"><ele>169.0</ele><time>2026-04-09T12:13:30.999Z</time></trkpt><trkpt lat="44.5295412" lon="8.9160509"><ele>169.0</ele><time>2026-04-09T12:13:31.999Z</time></trkpt><trkpt lat="44.5296092" lon="8.9161827"><ele>169.0</ele><time>2026-04-09T12:13:32.999Z</time></trkpt><trkpt lat="44.5296775" lon="8.9163035"><ele>170.79999999999998</ele><time>2026-04-09T12:13:34Z</time></trkpt><trkpt lat="44.5297483" lon="8.9164063"><ele>172.6</ele><time>2026-04-09T12:13:35Z</time></trkpt><trkpt lat="44.529816" lon="8.9165102"><ele>174.4</ele><time>2026-04-09T12:13:35.999Z</time></trkpt><trkpt lat="44.5298886" lon="8.9166193"><ele>176.2</ele><time>2026-04-09T12:13:37Z</time></trkpt><trkpt lat="44.529962" lon="8.916719"><ele>178.0</ele><time>2026-04-09T12:13:37.999Z</time></trkpt><trkpt lat="44.5300349" lon="8.916839"><ele>178.0</ele><time>2026-04-09T12:13:39.106Z</time></trkpt><trkpt lat="44.530191" lon="8.9170033"><ele>178.0</ele><time>2026-04-09T12:13:41Z</time></trkpt><trkpt lat="44.5302713" lon="8.9170709"><ele>178.0</ele><time>2026-04-09T12:13:41.999Z</time></trkpt><trkpt lat="44.5303508" lon="8.9171357"><ele>178.0</ele><time>2026-04-09T12:13:42.999Z</time></trkpt><trkpt lat="44.5304215" lon="8.9172165"><ele>178.0</ele><time>2026-04-09T12:13:44Z</time></trkpt><trkpt lat="44.5304932" lon="8.9172931"><ele>178.0</ele><time>2026-04-09T12:13:44.999Z</time></trkpt><trkpt lat="44.5305581" lon="8.9173722"><ele>178.0</ele><time>2026-04-09T12:13:45.999Z</time></trkpt><trkpt lat="44.5306281" lon="8.9174396"><ele>178.0</ele><time>2026-04-09T12:13:47Z</time></trkpt><trkpt lat="44.5306995" lon="8.9175149"><ele>178.0</ele><time>2026-04-09T12:13:47.999Z</time></trkpt><trkpt lat="44.5307699" lon="8.9175864"><ele>178.0</ele><time>2026-04-09T12:13:49Z</time></trkpt><trkpt lat="44.5308408" lon="8.9176591"><ele>178.0</ele><time>2026-04-09T12:13:49.999Z</time></trkpt><trkpt lat="44.5309005" lon="8.9177327"><ele>178.0</ele><time>2026-04-09T12:13:51Z</time></trkpt><trkpt lat="44.5309641" lon="8.9178117"><ele>178.0</ele><time>2026-04-09T12:13:52Z</time></trkpt><trkpt lat="44.5310118" lon="8.9178901"><ele>178.0</ele><time>2026-04-09T12:13:52.999Z</time></trkpt><trkpt lat="44.5310603" lon="8.9179732"><ele>178.0</ele><time>2026-04-09T12:13:54Z</time></trkpt><trkpt lat="44.5310977" lon="8.9180549"><ele>178.0</ele><time>2026-04-09T12:13:55.116Z</time></trkpt><trkpt lat="44.5311579" lon="8.918257"><ele>178.0</ele><time>2026-04-09T12:13:57Z</time></trkpt><trkpt lat="44.5311759" lon="8.9183422"><ele>178.0</ele><time>2026-04-09T12:13:58Z</time></trkpt><trkpt lat="44.5312044" lon="8.9184948"><ele>178.0</ele><time>2026-04-09T12:13:59.999Z</time></trkpt><trkpt lat="44.5312216" lon="8.9185853"><ele>178.0</ele><time>2026-04-09T12:14:01Z</time></trkpt><trkpt lat="44.5312423" lon="8.9186833"><ele>178.0</ele><time>2026-04-09T12:14:02Z</time></trkpt><trkpt lat="44.5312787" lon="8.9187857"><ele>178.0</ele><time>2026-04-09T12:14:03Z</time></trkpt><trkpt lat="44.531323" lon="8.918882"><ele>179.60000000000002</ele><time>2026-04-09T12:14:03.999Z</time></trkpt><trkpt lat="44.5313825" lon="8.9189725"><ele>181.20000000000002</ele><time>2026-04-09T12:14:04.999Z</time></trkpt><trkpt lat="44.5314515" lon="8.9190547"><ele>182.8</ele><time>2026-04-09T12:14:06Z</time></trkpt><trkpt lat="44.5315252" lon="8.919132"><ele>184.4</ele><time>2026-04-09T12:14:07Z</time></trkpt><trkpt lat="44.5316019" lon="8.9192058"><ele>186.0</ele><time>2026-04-09T12:14:07.999Z</time></trkpt><trkpt lat="44.5316767" lon="8.9192828"><ele>186.0</ele><time>2026-04-09T12:14:09.125Z</time></trkpt><trkpt lat="44.5317838" lon="8.9194666"><ele>186.0</ele><time>2026-04-09T12:14:10.999Z</time></trkpt><trkpt lat="44.5318151" lon="8.9195595"><ele>186.0</ele><time>2026-04-09T12:14:11.999Z</time></trkpt><trkpt lat="44.5318212" lon="8.9196584"><ele>186.0</ele><time>2026-04-09T12:14:12.999Z</time></trkpt><trkpt lat="44.5318192" lon="8.9197595"><ele>186.0</ele><time>2026-04-09T12:14:14Z</time></trkpt><trkpt lat="44.5318164" lon="8.9198564"><ele>186.0</ele><time>2026-04-09T12:14:15Z</time></trkpt><trkpt lat="44.5318133" lon="8.919964"><ele>186.0</ele><time>2026-04-09T12:14:16Z</time></trkpt><trkpt lat="44.5318165" lon="8.9200746"><ele>186.0</ele><time>2026-04-09T12:14:16.999Z</time></trkpt><trkpt lat="44.5318339" lon="8.9201814"><ele>186.0</ele><time>2026-04-09T12:14:17.999Z</time></trkpt><trkpt lat="44.5318669" lon="8.9202906"><ele>186.0</ele><time>2026-04-09T12:14:19Z</time></trkpt><trkpt lat="44.5319182" lon="8.9203986"><ele>186.0</ele><time>2026-04-09T12:14:19.999Z</time></trkpt><trkpt lat="44.5320004" lon="8.9205004"><ele>188.25</ele><time>2026-04-09T12:14:21Z</time></trkpt><trkpt lat="44.5320971" lon="8.9205957"><ele>190.5</ele><time>2026-04-09T12:14:21.999Z</time></trkpt><trkpt lat="44.5322201" lon="8.9207183"><ele>192.75</ele><time>2026-04-09T12:14:23Z</time></trkpt><trkpt lat="44.5323415" lon="8.9208533"><ele>195.0</ele><time>2026-04-09T12:14:24Z</time></trkpt><trkpt lat="44.5324685" lon="8.9209908"><ele>195.0</ele><time>2026-04-09T12:14:24.999Z</time></trkpt><trkpt lat="44.532593" lon="8.9211335"><ele>195.0</ele><time>2026-04-09T12:14:26Z</time></trkpt><trkpt lat="44.5327184" lon="8.9212761"><ele>195.0</ele><time>2026-04-09T12:14:27Z</time></trkpt><trkpt lat="44.5328386" lon="8.9214365"><ele>197.0</ele><time>2026-04-09T12:14:27.999Z</time></trkpt><trkpt lat="44.5329624" lon="8.9215985"><ele>199.0</ele><time>2026-04-09T12:14:29Z</time></trkpt><trkpt lat="44.5330832" lon="8.9217793"><ele>201.0</ele><time>2026-04-09T12:14:29.999Z</time></trkpt><trkpt lat="44.5332016" lon="8.921942"><ele>201.0</ele><time>2026-04-09T12:14:31Z</time></trkpt><trkpt lat="44.5333193" lon="8.9221061"><ele>201.0</ele><time>2026-04-09T12:14:32Z</time></trkpt><trkpt lat="44.5334318" lon="8.9222726"><ele>201.0</ele><time>2026-04-09T12:14:33Z</time></trkpt><trkpt lat="44.5335455" lon="8.9224294"><ele>202.0</ele><time>2026-04-09T12:14:33.999Z</time></trkpt><trkpt lat="44.5336606" lon="8.9225774"><ele>203.0</ele><time>2026-04-09T12:14:35.157Z</time></trkpt><trkpt lat="44.5338909" lon="8.9228516"><ele>203.0</ele><time>2026-04-09T12:14:37Z</time></trkpt><trkpt lat="44.5340144" lon="8.922966"><ele>203.0</ele><time>2026-04-09T12:14:37.999Z</time></trkpt><trkpt lat="44.5341467" lon="8.9230597"><ele>203.0</ele><time>2026-04-09T12:14:39.141Z</time></trkpt><trkpt lat="44.5344275" lon="8.9232049"><ele>203.66666666666669</ele><time>2026-04-09T12:14:40.999Z</time></trkpt><trkpt lat="44.5345719" lon="8.9232859"><ele>204.33333333333331</ele><time>2026-04-09T12:14:41.999Z</time></trkpt><trkpt lat="44.5347179" lon="8.9233758"><ele>205.0</ele><time>2026-04-09T12:14:43Z</time></trkpt><trkpt lat="44.5348497" lon="8.9234736"><ele>205.0</ele><time>2026-04-09T12:14:43.999Z</time></trkpt><trkpt lat="44.5349705" lon="8.9235823"><ele>205.0</ele><time>2026-04-09T12:14:45Z</time></trkpt><trkpt lat="44.5350835" lon="8.9236777"><ele>205.0</ele><time>2026-04-09T12:14:45.999Z</time></trkpt><trkpt lat="44.5351889" lon="8.9237432"><ele>205.0</ele><time>2026-04-09T12:14:46.999Z</time></trkpt><trkpt lat="44.535301" lon="8.9237868"><ele>205.5</ele><time>2026-04-09T12:14:48Z</time></trkpt><trkpt lat="44.5354244" lon="8.9237867"><ele>206.0</ele><time>2026-04-09T12:14:48.999Z</time></trkpt><trkpt lat="44.5355457" lon="8.9237588"><ele>206.5</ele><time>2026-04-09T12:14:50Z</time></trkpt><trkpt lat="44.5356618" lon="8.9237413"><ele>207.0</ele><time>2026-04-09T12:14:51.107Z</time></trkpt><trkpt lat="44.5358694" lon="8.9238064"><ele>207.0</ele><time>2026-04-09T12:14:52.999Z</time></trkpt><trkpt lat="44.5359542" lon="8.9239079"><ele>207.0</ele><time>2026-04-09T12:14:54Z</time></trkpt><trkpt lat="44.5360271" lon="8.9240286"><ele>207.0</ele><time>2026-04-09T12:14:54.999Z</time></trkpt><trkpt lat="44.536103" lon="8.924149"><ele>207.0</ele><time>2026-04-09T12:14:55.999Z</time></trkpt><trkpt lat="44.5361801" lon="8.9242737"><ele>207.5</ele><time>2026-04-09T12:14:56.999Z</time></trkpt><trkpt lat="44.5362564" lon="8.9243986"><ele>208.0</ele><time>2026-04-09T12:14:57.999Z</time></trkpt><trkpt lat="44.536334" lon="8.9245098"><ele>208.5</ele><time>2026-04-09T12:14:59Z</time></trkpt><trkpt lat="44.5364186" lon="8.9246135"><ele>209.0</ele><time>2026-04-09T12:15:00Z</time></trkpt><trkpt lat="44.5365234" lon="8.924662"><ele>209.0</ele><time>2026-04-09T12:15:00.999Z</time></trkpt><trkpt lat="44.5366366" lon="8.9246613"><ele>209.0</ele><time>2026-04-09T12:15:01.999Z</time></trkpt><trkpt lat="44.5367557" lon="8.9246323"><ele>209.0</ele><time>2026-04-09T12:15:02.999Z</time></trkpt><trkpt lat="44.5368723" lon="8.9245831"><ele>209.0</ele><time>2026-04-09T12:15:04Z</time></trkpt><trkpt lat="44.5369893" lon="8.9245427"><ele>210.39999999999998</ele><time>2026-04-09T12:15:05Z</time></trkpt><trkpt lat="44.5371061" lon="8.9245373"><ele>211.8</ele><time>2026-04-09T12:15:06Z</time></trkpt><trkpt lat="44.5372216" lon="8.9245457"><ele>213.20000000000002</ele><time>2026-04-09T12:15:07Z</time></trkpt><trkpt lat="44.5373217" lon="8.9245644"><ele>214.60000000000002</ele><time>2026-04-09T12:15:07.999Z</time></trkpt><trkpt lat="44.5374184" lon="8.9246353"><ele>216.0</ele><time>2026-04-09T12:15:09.102Z</time></trkpt><trkpt lat="44.5375571" lon="8.9248704"><ele>216.0</ele><time>2026-04-09T12:15:10.999Z</time></trkpt><trkpt lat="44.5376324" lon="8.924998"><ele>216.00000000000003</ele><time>2026-04-09T12:15:11.999Z</time></trkpt><trkpt lat="44.5377011" lon="8.92512"><ele>216.00000000000003</ele><time>2026-04-09T12:15:12.999Z</time></trkpt><trkpt lat="44.5377599" lon="8.9252384"><ele>216.0</ele><time>2026-04-09T12:15:13.999Z</time></trkpt><trkpt lat="44.5377931" lon="8.9253613"><ele>216.0</ele><time>2026-04-09T12:15:14.999Z</time></trkpt><trkpt lat="44.5378113" lon="8.9254695"><ele>216.0</ele><time>2026-04-09T12:15:15.999Z</time></trkpt><trkpt lat="44.5378137" lon="8.9256013"><ele>216.00000000000003</ele><time>2026-04-09T12:15:16.999Z</time></trkpt><trkpt lat="44.5378043" lon="8.9257523"><ele>216.00000000000003</ele><time>2026-04-09T12:15:17.999Z</time></trkpt><trkpt lat="44.5378266" lon="8.925917"><ele>216.0</ele><time>2026-04-09T12:15:18.999Z</time></trkpt><trkpt lat="44.5378726" lon="8.9260805"><ele>216.0</ele><time>2026-04-09T12:15:20.115Z</time></trkpt><trkpt lat="44.5379378" lon="8.9262296"><ele>218.5</ele><time>2026-04-09T12:15:21.126Z</time></trkpt><trkpt lat="44.5380549" lon="8.9265"><ele>221.0</ele><time>2026-04-09T12:15:23Z</time></trkpt><trkpt lat="44.5380836" lon="8.926654"><ele>223.5</ele><time>2026-04-09T12:15:23.999Z</time></trkpt><trkpt lat="44.5380773" lon="8.9267841"><ele>226.0</ele><time>2026-04-09T12:15:25Z</time></trkpt><trkpt lat="44.5380407" lon="8.9269368"><ele>226.0</ele><time>2026-04-09T12:15:26Z</time></trkpt><trkpt lat="44.5380383" lon="8.9271047"><ele>226.0</ele><time>2026-04-09T12:15:26.999Z</time></trkpt><trkpt lat="44.5380618" lon="8.9272776"><ele>226.0</ele><time>2026-04-09T12:15:27.999Z</time></trkpt><trkpt lat="44.5381015" lon="8.9274427"><ele>226.0</ele><time>2026-04-09T12:15:28.999Z</time></trkpt><trkpt lat="44.5381436" lon="8.9276117"><ele>226.5</ele><time>2026-04-09T12:15:30Z</time></trkpt><trkpt lat="44.5381818" lon="8.9277916"><ele>227.0</ele><time>2026-04-09T12:15:30.999Z</time></trkpt><trkpt lat="44.5382234" lon="8.9279724"><ele>227.5</ele><time>2026-04-09T12:15:32Z</time></trkpt><trkpt lat="44.5382646" lon="8.928171"><ele>228.0</ele><time>2026-04-09T12:15:32.999Z</time></trkpt><trkpt lat="44.5383035" lon="8.9283636"><ele>229.33333333333331</ele><time>2026-04-09T12:15:34.131Z</time></trkpt><trkpt lat="44.5383862" lon="8.9287507"><ele>230.66666666666666</ele><time>2026-04-09T12:15:35.999Z</time></trkpt><trkpt lat="44.5384356" lon="8.9289517"><ele>232.0</ele><time>2026-04-09T12:15:37Z</time></trkpt><trkpt lat="44.5384817" lon="8.9291516"><ele>232.0</ele><time>2026-04-09T12:15:38Z</time></trkpt><trkpt lat="44.5385284" lon="8.9293598"><ele>232.0</ele><time>2026-04-09T12:15:39.1Z</time></trkpt><trkpt lat="44.5386458" lon="8.9297319"><ele>232.0</ele><time>2026-04-09T12:15:41.173Z</time></trkpt><trkpt lat="44.5387978" lon="8.9300946"><ele>232.0</ele><time>2026-04-09T12:15:42.999Z</time></trkpt><trkpt lat="44.5388842" lon="8.9302598"><ele>232.0</ele><time>2026-04-09T12:15:43.999Z</time></trkpt><trkpt lat="44.5389663" lon="8.9304391"><ele>232.0</ele><time>2026-04-09T12:15:45.147Z</time></trkpt><trkpt lat="44.5390481" lon="8.9306121"><ele>232.0</ele><time>2026-04-09T12:15:46.152Z</time></trkpt><trkpt lat="44.5392099" lon="8.9309586"><ele>234.33333333333331</ele><time>2026-04-09T12:15:48Z</time></trkpt><trkpt lat="44.5392842" lon="8.9311088"><ele>236.66666666666669</ele><time>2026-04-09T12:15:49.107Z</time></trkpt><trkpt lat="44.5394341" lon="8.9313918"><ele>239.0</ele><time>2026-04-09T12:15:51Z</time></trkpt><trkpt lat="44.5395225" lon="8.9314589"><ele>237.2</ele><time>2026-04-09T12:15:51.999Z</time></trkpt><trkpt lat="44.5396187" lon="8.9315341"><ele>235.39999999999998</ele><time>2026-04-09T12:15:52.999Z</time></trkpt><trkpt lat="44.539716" lon="8.9315261"><ele>233.6</ele><time>2026-04-09T12:15:54Z</time></trkpt><trkpt lat="44.5398221" lon="8.931471"><ele>231.8</ele><time>2026-04-09T12:15:55Z</time></trkpt><trkpt lat="44.5399324" lon="8.9314087"><ele>230.0</ele><time>2026-04-09T12:15:56Z</time></trkpt><trkpt lat="44.540049" lon="8.9313489"><ele>230.0</ele><time>2026-04-09T12:15:57Z</time></trkpt><trkpt lat="44.5401755" lon="8.9312934"><ele>230.0</ele><time>2026-04-09T12:15:57.999Z</time></trkpt><trkpt lat="44.5402971" lon="8.9312516"><ele>230.0</ele><time>2026-04-09T12:15:58.999Z</time></trkpt><trkpt lat="44.5404282" lon="8.9312047"><ele>230.0</ele><time>2026-04-09T12:15:59.999Z</time></trkpt><trkpt lat="44.5405537" lon="8.9311568"><ele>234.0</ele><time>2026-04-09T12:16:01Z</time></trkpt><trkpt lat="44.5406712" lon="8.931094"><ele>238.0</ele><time>2026-04-09T12:16:02Z</time></trkpt><trkpt lat="44.5408013" lon="8.9310309"><ele>242.0</ele><time>2026-04-09T12:16:02.999Z</time></trkpt><trkpt lat="44.5409235" lon="8.9309824"><ele>246.0</ele><time>2026-04-09T12:16:04Z</time></trkpt><trkpt lat="44.5410478" lon="8.9309167"><ele>246.75</ele><time>2026-04-09T12:16:04.999Z</time></trkpt><trkpt lat="44.5411565" lon="8.9308521"><ele>247.5</ele><time>2026-04-09T12:16:06Z</time></trkpt><trkpt lat="44.5412807" lon="8.9307881"><ele>248.25</ele><time>2026-04-09T12:16:07Z</time></trkpt><trkpt lat="44.5413946" lon="8.9307329"><ele>249.0</ele><time>2026-04-09T12:16:07.999Z</time></trkpt><trkpt lat="44.5414942" lon="8.9306779"><ele>249.0</ele><time>2026-04-09T12:16:09Z</time></trkpt><trkpt lat="44.5415847" lon="8.9306231"><ele>248.99999999999997</ele><time>2026-04-09T12:16:09.999Z</time></trkpt><trkpt lat="44.5416685" lon="8.9305434"><ele>248.99999999999997</ele><time>2026-04-09T12:16:11Z</time></trkpt><trkpt lat="44.5417438" lon="8.9304339"><ele>249.0</ele><time>2026-04-09T12:16:11.999Z</time></trkpt><trkpt lat="44.5417696" lon="8.9303021"><ele>249.0</ele><time>2026-04-09T12:16:12.999Z</time></trkpt><trkpt lat="44.5417759" lon="8.9301498"><ele>251.0</ele><time>2026-04-09T12:16:14Z</time></trkpt><trkpt lat="44.5417856" lon="8.9299927"><ele>252.99999999999997</ele><time>2026-04-09T12:16:15Z</time></trkpt><trkpt lat="44.5417974" lon="8.9298328"><ele>254.99999999999997</ele><time>2026-04-09T12:16:15.999Z</time></trkpt><trkpt lat="44.5418301" lon="8.9296915"><ele>257.0</ele><time>2026-04-09T12:16:17Z</time></trkpt><trkpt lat="44.5418899" lon="8.9295536"><ele>259.0</ele><time>2026-04-09T12:16:17.999Z</time></trkpt><trkpt lat="44.5419852" lon="8.9294435"><ele>257.25</ele><time>2026-04-09T12:16:19Z</time></trkpt><trkpt lat="44.5420773" lon="8.9293627"><ele>255.5</ele><time>2026-04-09T12:16:20Z</time></trkpt><trkpt lat="44.5421939" lon="8.9292956"><ele>253.75</ele><time>2026-04-09T12:16:20.999Z</time></trkpt><trkpt lat="44.5423125" lon="8.9292366"><ele>252.0</ele><time>2026-04-09T12:16:22Z</time></trkpt><trkpt lat="44.5424415" lon="8.9292018"><ele>252.0</ele><time>2026-04-09T12:16:23Z</time></trkpt><trkpt lat="44.5425647" lon="8.9291926"><ele>252.0</ele><time>2026-04-09T12:16:23.999Z</time></trkpt><trkpt lat="44.5426894" lon="8.9291968"><ele>252.0</ele><time>2026-04-09T12:16:24.999Z</time></trkpt><trkpt lat="44.5427968" lon="8.9292028"><ele>252.0</ele><time>2026-04-09T12:16:26Z</time></trkpt><trkpt lat="44.5428981" lon="8.9292106"><ele>253.39999999999998</ele><time>2026-04-09T12:16:27Z</time></trkpt><trkpt lat="44.5429946" lon="8.9291955"><ele>254.79999999999998</ele><time>2026-04-09T12:16:27.999Z</time></trkpt><trkpt lat="44.543085" lon="8.9291617"><ele>256.2</ele><time>2026-04-09T12:16:28.999Z</time></trkpt><trkpt lat="44.5431505" lon="8.9291088"><ele>257.59999999999997</ele><time>2026-04-09T12:16:30Z</time></trkpt><trkpt lat="44.5432123" lon="8.9289917"><ele>259.0</ele><time>2026-04-09T12:16:30.999Z</time></trkpt><trkpt lat="44.543224" lon="8.9288602"><ele>259.0</ele><time>2026-04-09T12:16:31.999Z</time></trkpt><trkpt lat="44.5432696" lon="8.9287296"><ele>259.0</ele><time>2026-04-09T12:16:32.999Z</time></trkpt><trkpt lat="44.5433472" lon="8.9286132"><ele>259.0</ele><time>2026-04-09T12:16:33.999Z</time></trkpt><trkpt lat="44.5434455" lon="8.9285042"><ele>259.0</ele><time>2026-04-09T12:16:35Z</time></trkpt><trkpt lat="44.5435498" lon="8.9284024"><ele>260.0</ele><time>2026-04-09T12:16:35.999Z</time></trkpt><trkpt lat="44.5436845" lon="8.9283076"><ele>261.0</ele><time>2026-04-09T12:16:37Z</time></trkpt><trkpt lat="44.5438072" lon="8.9282212"><ele>262.0</ele><time>2026-04-09T12:16:38Z</time></trkpt><trkpt lat="44.5439071" lon="8.9281135"><ele>263.0</ele><time>2026-04-09T12:16:39Z</time></trkpt><trkpt lat="44.5440075" lon="8.928075"><ele>263.2</ele><time>2026-04-09T12:16:39.999Z</time></trkpt><trkpt lat="44.5441172" lon="8.9280621"><ele>263.4</ele><time>2026-04-09T12:16:40.999Z</time></trkpt><trkpt lat="44.5442101" lon="8.9280902"><ele>263.59999999999997</ele><time>2026-04-09T12:16:41.999Z</time></trkpt><trkpt lat="44.5442429" lon="8.9281843"><ele>263.8</ele><time>2026-04-09T12:16:42.999Z</time></trkpt><trkpt lat="44.5443274" lon="8.9282882"><ele>264.0</ele><time>2026-04-09T12:16:43.999Z</time></trkpt><trkpt lat="44.5444066" lon="8.9284205"><ele>266.0</ele><time>2026-04-09T12:16:45Z</time></trkpt><trkpt lat="44.544495" lon="8.9285134"><ele>268.0</ele><time>2026-04-09T12:16:45.999Z</time></trkpt><trkpt lat="44.5445863" lon="8.9286105"><ele>270.0</ele><time>2026-04-09T12:16:46.999Z</time></trkpt><trkpt lat="44.5446786" lon="8.9286757"><ele>272.0</ele><time>2026-04-09T12:16:47.999Z</time></trkpt><trkpt lat="44.5447498" lon="8.9287507"><ele>274.0</ele><time>2026-04-09T12:16:49Z</time></trkpt><trkpt lat="44.5447979" lon="8.928836"><ele>274.0</ele><time>2026-04-09T12:16:50Z</time></trkpt><trkpt lat="44.5448297" lon="8.928928"><ele>274.0</ele><time>2026-04-09T12:16:50.999Z</time></trkpt><trkpt lat="44.5448337" lon="8.9290293"><ele>274.0</ele><time>2026-04-09T12:16:51.999Z</time></trkpt><trkpt lat="44.5447887" lon="8.9291104"><ele>274.0</ele><time>2026-04-09T12:16:52.999Z</time></trkpt><trkpt lat="44.544695" lon="8.9291802"><ele>274.0</ele><time>2026-04-09T12:16:54.999Z</time></trkpt><trkpt lat="44.5446061" lon="8.9291926"><ele>274.0</ele><time>2026-04-09T12:16:55.999Z</time></trkpt><trkpt lat="44.5444551" lon="8.9291799"><ele>274.0</ele><time>2026-04-09T12:16:57Z</time></trkpt><trkpt lat="44.5443389" lon="8.9291897"><ele>274.0</ele><time>2026-04-09T12:16:58Z</time></trkpt><trkpt lat="44.5442219" lon="8.9292635"><ele>274.0</ele><time>2026-04-09T12:16:59Z</time></trkpt><trkpt lat="44.5441148" lon="8.9293143"><ele>274.0</ele><time>2026-04-09T12:16:59.999Z</time></trkpt><trkpt lat="44.544026" lon="8.9293858"><ele>276.8</ele><time>2026-04-09T12:17:01Z</time></trkpt><trkpt lat="44.5439956" lon="8.9294824"><ele>279.59999999999997</ele><time>2026-04-09T12:17:02Z</time></trkpt><trkpt lat="44.5439828" lon="8.929585"><ele>282.4</ele><time>2026-04-09T12:17:03Z</time></trkpt><trkpt lat="44.5439692" lon="8.9297198"><ele>285.2</ele><time>2026-04-09T12:17:03.999Z</time></trkpt><trkpt lat="44.5439853" lon="8.9299488"><ele>288.0</ele><time>2026-04-09T12:17:05Z</time></trkpt><trkpt lat="44.5440046" lon="8.9301238"><ele>289.5</ele><time>2026-04-09T12:17:06Z</time></trkpt><trkpt lat="44.5440439" lon="8.9303113"><ele>291.0</ele><time>2026-04-09T12:17:07Z</time></trkpt><trkpt lat="44.5440873" lon="8.9304905"><ele>292.5</ele><time>2026-04-09T12:17:07.999Z</time></trkpt><trkpt lat="44.5441213" lon="8.9306718"><ele>294.0</ele><time>2026-04-09T12:17:09Z</time></trkpt><trkpt lat="44.5441582" lon="8.9308277"><ele>297.0</ele><time>2026-04-09T12:17:09.999Z</time></trkpt><trkpt lat="44.5441821" lon="8.9309795"><ele>300.0</ele><time>2026-04-09T12:17:11Z</time></trkpt><trkpt lat="44.5441967" lon="8.9311281"><ele>303.0</ele><time>2026-04-09T12:17:12Z</time></trkpt><trkpt lat="44.5441589" lon="8.9312394"><ele>306.0</ele><time>2026-04-09T12:17:12.999Z</time></trkpt><trkpt lat="44.5441013" lon="8.9313242"><ele>309.0</ele><time>2026-04-09T12:17:14Z</time></trkpt><trkpt lat="44.5440296" lon="8.9313792"><ele>309.0</ele><time>2026-04-09T12:17:15Z</time></trkpt><trkpt lat="44.5439515" lon="8.9313764"><ele>309.0</ele><time>2026-04-09T12:17:15.999Z</time></trkpt><trkpt lat="44.5438661" lon="8.9313681"><ele>309.0</ele><time>2026-04-09T12:17:17Z</time></trkpt><trkpt lat="44.5437709" lon="8.931419"><ele>309.0</ele><time>2026-04-09T12:17:17.999Z</time></trkpt><trkpt lat="44.5436906" lon="8.9314859"><ele>309.0</ele><time>2026-04-09T12:17:19Z</time></trkpt><trkpt lat="44.5436386" lon="8.9315852"><ele>309.0</ele><time>2026-04-09T12:17:20Z</time></trkpt><trkpt lat="44.5436148" lon="8.9316909"><ele>309.0</ele><time>2026-04-09T12:17:20.999Z</time></trkpt><trkpt lat="44.5436188" lon="8.9318252"><ele>309.0</ele><time>2026-04-09T12:17:22Z</time></trkpt><trkpt lat="44.5436242" lon="8.9319697"><ele>309.0</ele><time>2026-04-09T12:17:22.999Z</time></trkpt><trkpt lat="44.5436188" lon="8.9321152"><ele>309.0</ele><time>2026-04-09T12:17:24Z</time></trkpt><trkpt lat="44.5435897" lon="8.9322402"><ele>309.0</ele><time>2026-04-09T12:17:24.999Z</time></trkpt><trkpt lat="44.5435319" lon="8.9323362"><ele>309.0</ele><time>2026-04-09T12:17:26Z</time></trkpt><trkpt lat="44.5434539" lon="8.9323978"><ele>309.0</ele><time>2026-04-09T12:17:26.999Z</time></trkpt><trkpt lat="44.5433535" lon="8.9323937"><ele>309.0</ele><time>2026-04-09T12:17:27.999Z</time></trkpt><trkpt lat="44.5432523" lon="8.9323782"><ele>309.0</ele><time>2026-04-09T12:17:28.999Z</time></trkpt><trkpt lat="44.543145" lon="8.9323351"><ele>309.0</ele><time>2026-04-09T12:17:29.999Z</time></trkpt><trkpt lat="44.5430329" lon="8.9322887"><ele>309.0</ele><time>2026-04-09T12:17:31Z</time></trkpt><trkpt lat="44.5429147" lon="8.9322595"><ele>309.0</ele><time>2026-04-09T12:17:32Z</time></trkpt><trkpt lat="44.5427879" lon="8.9322596"><ele>309.0</ele><time>2026-04-09T12:17:32.999Z</time></trkpt><trkpt lat="44.5426657" lon="8.9323012"><ele>309.0</ele><time>2026-04-09T12:17:33.999Z</time></trkpt><trkpt lat="44.5425582" lon="8.9323942"><ele>308.25</ele><time>2026-04-09T12:17:34.999Z</time></trkpt><trkpt lat="44.5424583" lon="8.9324977"><ele>307.5</ele><time>2026-04-09T12:17:35.999Z</time></trkpt><trkpt lat="44.5423677" lon="8.9326159"><ele>306.75</ele><time>2026-04-09T12:17:37Z</time></trkpt><trkpt lat="44.5422742" lon="8.9327433"><ele>306.0</ele><time>2026-04-09T12:17:38Z</time></trkpt><trkpt lat="44.5421792" lon="8.9328694"><ele>305.25</ele><time>2026-04-09T12:17:39Z</time></trkpt><trkpt lat="44.5420994" lon="8.9329964"><ele>304.5</ele><time>2026-04-09T12:17:39.999Z</time></trkpt><trkpt lat="44.5420289" lon="8.9331533"><ele>303.75</ele><time>2026-04-09T12:17:41Z</time></trkpt><trkpt lat="44.5419792" lon="8.9333286"><ele>303.0</ele><time>2026-04-09T12:17:41.999Z</time></trkpt><trkpt lat="44.5419354" lon="8.9335049"><ele>305.25</ele><time>2026-04-09T12:17:42.999Z</time></trkpt><trkpt lat="44.5418965" lon="8.9336793"><ele>307.5</ele><time>2026-04-09T12:17:44Z</time></trkpt><trkpt lat="44.5418581" lon="8.933852"><ele>309.75</ele><time>2026-04-09T12:17:44.999Z</time></trkpt><trkpt lat="44.5418214" lon="8.9340289"><ele>312.0</ele><time>2026-04-09T12:17:46Z</time></trkpt><trkpt lat="44.5418095" lon="8.9342024"><ele>312.25</ele><time>2026-04-09T12:17:46.999Z</time></trkpt><trkpt lat="44.5418207" lon="8.9343656"><ele>312.5</ele><time>2026-04-09T12:17:47.999Z</time></trkpt><trkpt lat="44.541885" lon="8.9345089"><ele>312.75</ele><time>2026-04-09T12:17:49Z</time></trkpt><trkpt lat="44.5419615" lon="8.934637"><ele>313.0</ele><time>2026-04-09T12:17:50Z</time></trkpt><trkpt lat="44.5420563" lon="8.9347526"><ele>313.5</ele><time>2026-04-09T12:17:51Z</time></trkpt><trkpt lat="44.5421475" lon="8.9348612"><ele>314.0</ele><time>2026-04-09T12:17:52Z</time></trkpt><trkpt lat="44.5422454" lon="8.9349791"><ele>314.5</ele><time>2026-04-09T12:17:52.999Z</time></trkpt><trkpt lat="44.5423592" lon="8.9350757"><ele>315.0</ele><time>2026-04-09T12:17:53.999Z</time></trkpt><trkpt lat="44.5424817" lon="8.9351386"><ele>315.0</ele><time>2026-04-09T12:17:55Z</time></trkpt><trkpt lat="44.5426066" lon="8.9351764"><ele>315.0</ele><time>2026-04-09T12:17:56Z</time></trkpt><trkpt lat="44.5427412" lon="8.935223"><ele>315.0</ele><time>2026-04-09T12:17:57Z</time></trkpt><trkpt lat="44.5428597" lon="8.9353076"><ele>315.0</ele><time>2026-04-09T12:17:57.999Z</time></trkpt><trkpt lat="44.5429649" lon="8.9354198"><ele>317.5</ele><time>2026-04-09T12:17:58.999Z</time></trkpt><trkpt lat="44.5430655" lon="8.9355471"><ele>320.0</ele><time>2026-04-09T12:17:59.999Z</time></trkpt><trkpt lat="44.5431647" lon="8.9356799"><ele>322.5</ele><time>2026-04-09T12:18:00.999Z</time></trkpt><trkpt lat="44.5432596" lon="8.93581"><ele>325.0</ele><time>2026-04-09T12:18:02Z</time></trkpt><trkpt lat="44.5433646" lon="8.9359392"><ele>325.0</ele><time>2026-04-09T12:18:03Z</time></trkpt><trkpt lat="44.5434635" lon="8.9360663"><ele>325.0</ele><time>2026-04-09T12:18:03.999Z</time></trkpt><trkpt lat="44.5435622" lon="8.9361961"><ele>325.0</ele><time>2026-04-09T12:18:04.999Z</time></trkpt><trkpt lat="44.5436556" lon="8.9363289"><ele>325.0</ele><time>2026-04-09T12:18:06Z</time></trkpt><trkpt lat="44.543748" lon="8.93647"><ele>327.5</ele><time>2026-04-09T12:18:07Z</time></trkpt><trkpt lat="44.5438411" lon="8.9366155"><ele>330.0</ele><time>2026-04-09T12:18:08Z</time></trkpt><trkpt lat="44.5439249" lon="8.936758"><ele>332.5</ele><time>2026-04-09T12:18:08.999Z</time></trkpt><trkpt lat="44.5440007" lon="8.9368991"><ele>335.0</ele><time>2026-04-09T12:18:09.999Z</time></trkpt><trkpt lat="44.5440719" lon="8.9370247"><ele>335.0</ele><time>2026-04-09T12:18:10.999Z</time></trkpt><trkpt lat="44.5441477" lon="8.9371144"><ele>335.0</ele><time>2026-04-09T12:18:12Z</time></trkpt><trkpt lat="44.5442363" lon="8.9371659"><ele>335.0</ele><time>2026-04-09T12:18:12.999Z</time></trkpt><trkpt lat="44.5443367" lon="8.9371788"><ele>335.0</ele><time>2026-04-09T12:18:14Z</time></trkpt><trkpt lat="44.5444362" lon="8.9371371"><ele>335.0</ele><time>2026-04-09T12:18:14.999Z</time></trkpt><trkpt lat="44.5445328" lon="8.9370591"><ele>334.75</ele><time>2026-04-09T12:18:16Z</time></trkpt><trkpt lat="44.5446312" lon="8.9369443"><ele>334.5</ele><time>2026-04-09T12:18:17Z</time></trkpt><trkpt lat="44.544724" lon="8.9368162"><ele>334.25</ele><time>2026-04-09T12:18:17.999Z</time></trkpt><trkpt lat="44.5448169" lon="8.9366874"><ele>334.0</ele><time>2026-04-09T12:18:18.999Z</time></trkpt><trkpt lat="44.5449096" lon="8.9365334"><ele>337.5</ele><time>2026-04-09T12:18:20Z</time></trkpt><trkpt lat="44.5450095" lon="8.9363833"><ele>341.0</ele><time>2026-04-09T12:18:20.999Z</time></trkpt><trkpt lat="44.5451078" lon="8.9362402"><ele>344.5</ele><time>2026-04-09T12:18:22Z</time></trkpt><trkpt lat="44.5452135" lon="8.9360828"><ele>348.0</ele><time>2026-04-09T12:18:22.999Z</time></trkpt><trkpt lat="44.5453121" lon="8.9359415"><ele>349.3333333333333</ele><time>2026-04-09T12:18:24.11Z</time></trkpt><trkpt lat="44.5454209" lon="8.9358022"><ele>350.66666666666663</ele><time>2026-04-09T12:18:25.134Z</time></trkpt><trkpt lat="44.545532" lon="8.9356648"><ele>352.0</ele><time>2026-04-09T12:18:26.116Z</time></trkpt><trkpt lat="44.5457577" lon="8.9354252"><ele>352.0</ele><time>2026-04-09T12:18:27.999Z</time></trkpt><trkpt lat="44.5458679" lon="8.9353265"><ele>352.0</ele><time>2026-04-09T12:18:29.141Z</time></trkpt><trkpt lat="44.5460701" lon="8.9351322"><ele>352.0</ele><time>2026-04-09T12:18:31.119Z</time></trkpt><trkpt lat="44.5461868" lon="8.934866"><ele>354.0</ele><time>2026-04-09T12:18:32.999Z</time></trkpt><trkpt lat="44.5462109" lon="8.9347073"><ele>356.0</ele><time>2026-04-09T12:18:34.123Z</time></trkpt><trkpt lat="44.5462072" lon="8.9345382"><ele>358.0</ele><time>2026-04-09T12:18:35.146Z</time></trkpt><trkpt lat="44.5461688" lon="8.9343458"><ele>360.0</ele><time>2026-04-09T12:18:36.127Z</time></trkpt><trkpt lat="44.5460767" lon="8.9339911"><ele>360.0</ele><time>2026-04-09T12:18:38Z</time></trkpt><trkpt lat="44.5460202" lon="8.9338053"><ele>360.0</ele><time>2026-04-09T12:18:39.123Z</time></trkpt><trkpt lat="44.5459676" lon="8.9336255"><ele>360.0</ele><time>2026-04-09T12:18:40.12Z</time></trkpt><trkpt lat="44.5459089" lon="8.9334431"><ele>360.0</ele><time>2026-04-09T12:18:41.129Z</time></trkpt><trkpt lat="44.5458066" lon="8.9330908"><ele>361.0</ele><time>2026-04-09T12:18:43Z</time></trkpt><trkpt lat="44.5457943" lon="8.9329289"><ele>362.0</ele><time>2026-04-09T12:18:44.146Z</time></trkpt><trkpt lat="44.5458443" lon="8.932622"><ele>363.0</ele><time>2026-04-09T12:18:45.999Z</time></trkpt><trkpt lat="44.5459311" lon="8.9324937"><ele>363.0</ele><time>2026-04-09T12:18:47Z</time></trkpt><trkpt lat="44.5460189" lon="8.9323627"><ele>363.0</ele><time>2026-04-09T12:18:48Z</time></trkpt><trkpt lat="44.5461155" lon="8.9322299"><ele>363.0</ele><time>2026-04-09T12:18:49.146Z</time></trkpt><trkpt lat="44.5462151" lon="8.9320979"><ele>363.0</ele><time>2026-04-09T12:18:50.14Z</time></trkpt><trkpt lat="44.5463098" lon="8.9319702"><ele>370.66666666666663</ele><time>2026-04-09T12:18:51.138Z</time></trkpt><trkpt lat="44.5465414" lon="8.9317876"><ele>378.3333333333333</ele><time>2026-04-09T12:18:52.999Z</time></trkpt><trkpt lat="44.5466696" lon="8.9317597"><ele>386.0</ele><time>2026-04-09T12:18:54Z</time></trkpt><trkpt lat="44.5468009" lon="8.9317502"><ele>388.0</ele><time>2026-04-09T12:18:55.104Z</time></trkpt><trkpt lat="44.5469294" lon="8.9317197"><ele>390.0</ele><time>2026-04-09T12:18:56.155Z</time></trkpt><trkpt lat="44.5471577" lon="8.9315916"><ele>392.0</ele><time>2026-04-09T12:18:57.999Z</time></trkpt><trkpt lat="44.5472604" lon="8.9314822"><ele>392.0</ele><time>2026-04-09T12:18:58.999Z</time></trkpt><trkpt lat="44.5473451" lon="8.9313453"><ele>392.0</ele><time>2026-04-09T12:19:00Z</time></trkpt><trkpt lat="44.5474179" lon="8.9311894"><ele>392.0</ele><time>2026-04-09T12:19:01.146Z</time></trkpt><trkpt lat="44.5475404" lon="8.9308676"><ele>388.25</ele><time>2026-04-09T12:19:02.999Z</time></trkpt><trkpt lat="44.5476128" lon="8.9307149"><ele>384.5</ele><time>2026-04-09T12:19:04.167Z</time></trkpt><trkpt lat="44.5477091" lon="8.9305878"><ele>380.75</ele><time>2026-04-09T12:19:05.125Z</time></trkpt><trkpt lat="44.547836" lon="8.9304936"><ele>377.0</ele><time>2026-04-09T12:19:06.157Z</time></trkpt><trkpt lat="44.5480731" lon="8.9302978"><ele>378.5</ele><time>2026-04-09T12:19:08Z</time></trkpt><trkpt lat="44.5481952" lon="8.9301915"><ele>380.0</ele><time>2026-04-09T12:19:09.159Z</time></trkpt><trkpt lat="44.5483072" lon="8.9300798"><ele>381.5</ele><time>2026-04-09T12:19:10.17Z</time></trkpt><trkpt lat="44.5484195" lon="8.9299625"><ele>383.0</ele><time>2026-04-09T12:19:11.15Z</time></trkpt><trkpt lat="44.5485957" lon="8.9297019"><ele>383.0</ele><time>2026-04-09T12:19:13Z</time></trkpt><trkpt lat="44.5486738" lon="8.9295686"><ele>383.0</ele><time>2026-04-09T12:19:13.999Z</time></trkpt><trkpt lat="44.5487464" lon="8.9294445"><ele>383.0</ele><time>2026-04-09T12:19:15.171Z</time></trkpt><trkpt lat="44.5488026" lon="8.9293108"><ele>383.0</ele><time>2026-04-09T12:19:16.181Z</time></trkpt><trkpt lat="44.5488234" lon="8.928986"><ele>379.0</ele><time>2026-04-09T12:19:18Z</time></trkpt><trkpt lat="44.5487723" lon="8.9288493"><ele>375.0</ele><time>2026-04-09T12:19:19.109Z</time></trkpt><trkpt lat="44.5486664" lon="8.9285881"><ele>371.0</ele><time>2026-04-09T12:19:21.132Z</time></trkpt><trkpt lat="44.5486992" lon="8.9283253"><ele>378.75</ele><time>2026-04-09T12:19:22.999Z</time></trkpt><trkpt lat="44.5487456" lon="8.9281984"><ele>386.5</ele><time>2026-04-09T12:19:24.147Z</time></trkpt><trkpt lat="44.5487976" lon="8.9280632"><ele>394.25</ele><time>2026-04-09T12:19:25.133Z</time></trkpt><trkpt lat="44.5488439" lon="8.9279128"><ele>402.0</ele><time>2026-04-09T12:19:26.131Z</time></trkpt><trkpt lat="44.5488953" lon="8.927583"><ele>402.25</ele><time>2026-04-09T12:19:27.999Z</time></trkpt><trkpt lat="44.5489071" lon="8.9274109"><ele>402.5</ele><time>2026-04-09T12:19:29.142Z</time></trkpt><trkpt lat="44.5489053" lon="8.9272259"><ele>402.75</ele><time>2026-04-09T12:19:30.119Z</time></trkpt><trkpt lat="44.5488915" lon="8.927062"><ele>403.0</ele><time>2026-04-09T12:19:31.141Z</time></trkpt><trkpt lat="44.5488097" lon="8.9268068"><ele>404.25</ele><time>2026-04-09T12:19:33Z</time></trkpt><trkpt lat="44.5487293" lon="8.9266778"><ele>405.5</ele><time>2026-04-09T12:19:34.153Z</time></trkpt><trkpt lat="44.5486544" lon="8.9265774"><ele>406.75</ele><time>2026-04-09T12:19:35.166Z</time></trkpt><trkpt lat="44.5485839" lon="8.9264851"><ele>408.0</ele><time>2026-04-09T12:19:36.161Z</time></trkpt><trkpt lat="44.5485267" lon="8.926275"><ele>408.0</ele><time>2026-04-09T12:19:38Z</time></trkpt><trkpt lat="44.5485506" lon="8.9261844"><ele>408.0</ele><time>2026-04-09T12:19:39.133Z</time></trkpt><trkpt lat="44.5486072" lon="8.9261367"><ele>408.0</ele><time>2026-04-09T12:19:40.154Z</time></trkpt><trkpt lat="44.5486873" lon="8.9261194"><ele>408.0</ele><time>2026-04-09T12:19:41.145Z</time></trkpt><trkpt lat="44.5488456" lon="8.9261942"><ele>408.0</ele><time>2026-04-09T12:19:42.999Z</time></trkpt><trkpt lat="44.5489186" lon="8.9262648"><ele>408.0</ele><time>2026-04-09T12:19:44.134Z</time></trkpt><trkpt lat="44.5489944" lon="8.9263621"><ele>408.0</ele><time>2026-04-09T12:19:45.153Z</time></trkpt><trkpt lat="44.5491584" lon="8.9265904"><ele>408.0</ele><time>2026-04-09T12:19:46.999Z</time></trkpt><trkpt lat="44.5492498" lon="8.9267313"><ele>406.75</ele><time>2026-04-09T12:19:48Z</time></trkpt><trkpt lat="44.5493376" lon="8.9268692"><ele>405.5</ele><time>2026-04-09T12:19:49Z</time></trkpt><trkpt lat="44.5494219" lon="8.9270012"><ele>404.25</ele><time>2026-04-09T12:19:50.152Z</time></trkpt><trkpt lat="44.549513" lon="8.9271357"><ele>403.0</ele><time>2026-04-09T12:19:51.149Z</time></trkpt><trkpt lat="44.5496728" lon="8.9274263"><ele>409.5</ele><time>2026-04-09T12:19:53.172Z</time></trkpt><trkpt lat="44.5497129" lon="8.9276028"><ele>416.0</ele><time>2026-04-09T12:19:54.168Z</time></trkpt><trkpt lat="44.5497333" lon="8.9277833"><ele>422.5</ele><time>2026-04-09T12:19:55.129Z</time></trkpt><trkpt lat="44.5497493" lon="8.9279653"><ele>429.0</ele><time>2026-04-09T12:19:56.154Z</time></trkpt><trkpt lat="44.5497751" lon="8.9283276"><ele>432.33333333333337</ele><time>2026-04-09T12:19:58Z</time></trkpt><trkpt lat="44.5497884" lon="8.9285075"><ele>435.6666666666667</ele><time>2026-04-09T12:19:59.109Z</time></trkpt><trkpt lat="44.5498019" lon="8.9286841"><ele>439.0</ele><time>2026-04-09T12:20:00.128Z</time></trkpt><trkpt lat="44.5497528" lon="8.9290138"><ele>439.0</ele><time>2026-04-09T12:20:02Z</time></trkpt><trkpt lat="44.5496974" lon="8.9291421"><ele>439.0</ele><time>2026-04-09T12:20:03Z</time></trkpt><trkpt lat="44.5496194" lon="8.9292439"><ele>439.0</ele><time>2026-04-09T12:20:04.144Z</time></trkpt><trkpt lat="44.5495052" lon="8.9293706"><ele>439.0</ele><time>2026-04-09T12:20:05.176Z</time></trkpt><trkpt lat="44.5494149" lon="8.929498"><ele>438.6666666666667</ele><time>2026-04-09T12:20:06.172Z</time></trkpt><trkpt lat="44.5492914" lon="8.9298049"><ele>438.33333333333337</ele><time>2026-04-09T12:20:07.999Z</time></trkpt><trkpt lat="44.5492486" lon="8.9299642"><ele>438.0</ele><time>2026-04-09T12:20:09.178Z</time></trkpt><trkpt lat="44.5492228" lon="8.9301409"><ele>438.0</ele><time>2026-04-09T12:20:10.17Z</time></trkpt><trkpt lat="44.5492078" lon="8.9303209"><ele>438.0</ele><time>2026-04-09T12:20:11.127Z</time></trkpt><trkpt lat="44.5492224" lon="8.9305893"><ele>438.0</ele><time>2026-04-09T12:20:12.999Z</time></trkpt><trkpt lat="44.5491988" lon="8.9307122"><ele>438.0</ele><time>2026-04-09T12:20:14Z</time></trkpt><trkpt lat="44.5491393" lon="8.9308135"><ele>438.0</ele><time>2026-04-09T12:20:15.103Z</time></trkpt><trkpt lat="44.5490626" lon="8.9308839"><ele>438.0</ele><time>2026-04-09T12:20:16.122Z</time></trkpt><trkpt lat="44.5488741" lon="8.9309727"><ele>438.0</ele><time>2026-04-09T12:20:18Z</time></trkpt><trkpt lat="44.5487959" lon="8.9310332"><ele>438.0</ele><time>2026-04-09T12:20:18.999Z</time></trkpt><trkpt lat="44.5487323" lon="8.9311037"><ele>440.0</ele><time>2026-04-09T12:20:20.107Z</time></trkpt><trkpt lat="44.5487082" lon="8.9311878"><ele>442.0</ele><time>2026-04-09T12:20:21.119Z</time></trkpt><trkpt lat="44.5487927" lon="8.9314317"><ele>444.0</ele><time>2026-04-09T12:20:23Z</time></trkpt><trkpt lat="44.5488721" lon="8.931539"><ele>446.0</ele><time>2026-04-09T12:20:23.999Z</time></trkpt><trkpt lat="44.5489378" lon="8.9316533"><ele>448.0</ele><time>2026-04-09T12:20:24.999Z</time></trkpt><trkpt lat="44.5489925" lon="8.9317753"><ele>450.0</ele><time>2026-04-09T12:20:26.147Z</time></trkpt><trkpt lat="44.5490126" lon="8.9320633"><ele>452.0</ele><time>2026-04-09T12:20:28Z</time></trkpt><trkpt lat="44.5489762" lon="8.9322373"><ele>454.0</ele><time>2026-04-09T12:20:29.159Z</time></trkpt><trkpt lat="44.5489134" lon="8.9323629"><ele>454.0</ele><time>2026-04-09T12:20:30.108Z</time></trkpt><trkpt lat="44.5488307" lon="8.9324692"><ele>454.0</ele><time>2026-04-09T12:20:31.156Z</time></trkpt><trkpt lat="44.5486518" lon="8.9326935"><ele>454.0</ele><time>2026-04-09T12:20:32.999Z</time></trkpt><trkpt lat="44.5485461" lon="8.9328051"><ele>452.0</ele><time>2026-04-09T12:20:33.999Z</time></trkpt><trkpt lat="44.5484453" lon="8.9329141"><ele>450.0</ele><time>2026-04-09T12:20:34.999Z</time></trkpt><trkpt lat="44.5483506" lon="8.9330371"><ele>448.0</ele><time>2026-04-09T12:20:36Z</time></trkpt><trkpt lat="44.5482752" lon="8.9331704"><ele>446.0</ele><time>2026-04-09T12:20:37Z</time></trkpt><trkpt lat="44.5482103" lon="8.9333085"><ele>445.25</ele><time>2026-04-09T12:20:37.999Z</time></trkpt><trkpt lat="44.5481761" lon="8.9334558"><ele>444.5</ele><time>2026-04-09T12:20:39.159Z</time></trkpt><trkpt lat="44.54818" lon="8.933605"><ele>443.75</ele><time>2026-04-09T12:20:40.16Z</time></trkpt><trkpt lat="44.5482367" lon="8.9337686"><ele>443.0</ele><time>2026-04-09T12:20:41.156Z</time></trkpt><trkpt lat="44.54837" lon="8.9340487"><ele>443.0</ele><time>2026-04-09T12:20:43Z</time></trkpt><trkpt lat="44.5484788" lon="8.9341551"><ele>443.0</ele><time>2026-04-09T12:20:44.157Z</time></trkpt><trkpt lat="44.5485963" lon="8.9342344"><ele>443.0</ele><time>2026-04-09T12:20:45.165Z</time></trkpt><trkpt lat="44.5487307" lon="8.9342487"><ele>443.0</ele><time>2026-04-09T12:20:46.165Z</time></trkpt><trkpt lat="44.5489634" lon="8.9341937"><ele>444.75</ele><time>2026-04-09T12:20:47.999Z</time></trkpt><trkpt lat="44.5490765" lon="8.9341361"><ele>446.5</ele><time>2026-04-09T12:20:49.119Z</time></trkpt><trkpt lat="44.5491902" lon="8.9340762"><ele>448.25</ele><time>2026-04-09T12:20:50.155Z</time></trkpt><trkpt lat="44.5493061" lon="8.9340058"><ele>450.0</ele><time>2026-04-09T12:20:51.127Z</time></trkpt><trkpt lat="44.5495192" lon="8.9340299"><ele>451.25</ele><time>2026-04-09T12:20:53Z</time></trkpt><trkpt lat="44.5496145" lon="8.9341203"><ele>452.5</ele><time>2026-04-09T12:20:54.127Z</time></trkpt><trkpt lat="44.5496901" lon="8.9342275"><ele>453.75</ele><time>2026-04-09T12:20:55.13Z</time></trkpt><trkpt lat="44.5497503" lon="8.9343663"><ele>455.0</ele><time>2026-04-09T12:20:56.162Z</time></trkpt><trkpt lat="44.5498122" lon="8.9345361"><ele>455.0</ele><time>2026-04-09T12:20:57Z</time></trkpt><trkpt lat="44.5498796" lon="8.9346853"><ele>455.0</ele><time>2026-04-09T12:20:57.999Z</time></trkpt><trkpt lat="44.5499628" lon="8.9348202"><ele>455.0</ele><time>2026-04-09T12:20:59.141Z</time></trkpt><trkpt lat="44.5501648" lon="8.935034"><ele>458.0</ele><time>2026-04-09T12:21:01.147Z</time></trkpt><trkpt lat="44.5503848" lon="8.9351637"><ele>461.0</ele><time>2026-04-09T12:21:03Z</time></trkpt><trkpt lat="44.5505042" lon="8.9352236"><ele>464.0</ele><time>2026-04-09T12:21:04.158Z</time></trkpt><trkpt lat="44.5506262" lon="8.9353047"><ele>464.0</ele><time>2026-04-09T12:21:05.156Z</time></trkpt><trkpt lat="44.5507371" lon="8.9353976"><ele>464.0</ele><time>2026-04-09T12:21:06.148Z</time></trkpt><trkpt lat="44.5509404" lon="8.9356387"><ele>464.0</ele><time>2026-04-09T12:21:07.999Z</time></trkpt><trkpt lat="44.5510357" lon="8.9357695"><ele>465.5</ele><time>2026-04-09T12:21:09Z</time></trkpt><trkpt lat="44.5511325" lon="8.935902"><ele>467.0</ele><time>2026-04-09T12:21:09.999Z</time></trkpt><trkpt lat="44.5512306" lon="8.9360327"><ele>468.5</ele><time>2026-04-09T12:21:11Z</time></trkpt><trkpt lat="44.551326" lon="8.9361635"><ele>470.0</ele><time>2026-04-09T12:21:12Z</time></trkpt><trkpt lat="44.5514204" lon="8.9362984"><ele>470.0</ele><time>2026-04-09T12:21:13Z</time></trkpt><trkpt lat="44.5515123" lon="8.9364288"><ele>470.0</ele><time>2026-04-09T12:21:14.106Z</time></trkpt><trkpt lat="44.5517182" lon="8.9366372"><ele>470.0</ele><time>2026-04-09T12:21:15.999Z</time></trkpt><trkpt lat="44.5518325" lon="8.936715"><ele>468.75</ele><time>2026-04-09T12:21:17Z</time></trkpt><trkpt lat="44.5519476" lon="8.9367796"><ele>467.5</ele><time>2026-04-09T12:21:18.131Z</time></trkpt><trkpt lat="44.5520673" lon="8.9368417"><ele>466.25</ele><time>2026-04-09T12:21:19Z</time></trkpt><trkpt lat="44.552189" lon="8.936904"><ele>465.0</ele><time>2026-04-09T12:21:20.162Z</time></trkpt><trkpt lat="44.5523101" lon="8.9369588"><ele>469.66666666666663</ele><time>2026-04-09T12:21:21.124Z</time></trkpt><trkpt lat="44.5525743" lon="8.9370826"><ele>474.3333333333333</ele><time>2026-04-09T12:21:22.999Z</time></trkpt><trkpt lat="44.5527072" lon="8.9371478"><ele>479.0</ele><time>2026-04-09T12:21:23.999Z</time></trkpt><trkpt lat="44.5528364" lon="8.9372054"><ele>476.66666666666663</ele><time>2026-04-09T12:21:25.101Z</time></trkpt><trkpt lat="44.5529669" lon="8.9372779"><ele>474.33333333333337</ele><time>2026-04-09T12:21:26.104Z</time></trkpt><trkpt lat="44.5532369" lon="8.9374498"><ele>472.0</ele><time>2026-04-09T12:21:27.999Z</time></trkpt><trkpt lat="44.5533638" lon="8.9375472"><ele>469.5</ele><time>2026-04-09T12:21:29.147Z</time></trkpt><trkpt lat="44.5536067" lon="8.937782"><ele>467.0</ele><time>2026-04-09T12:21:31.144Z</time></trkpt><trkpt lat="44.553856" lon="8.9380288"><ele>467.0</ele><time>2026-04-09T12:21:32.999Z</time></trkpt><trkpt lat="44.5539916" lon="8.9381386"><ele>467.0</ele><time>2026-04-09T12:21:34.125Z</time></trkpt><trkpt lat="44.5542754" lon="8.9382826"><ele>461.5</ele><time>2026-04-09T12:21:36.151Z</time></trkpt><trkpt lat="44.5545721" lon="8.9383768"><ele>456.0</ele><time>2026-04-09T12:21:37.999Z</time></trkpt><trkpt lat="44.5547224" lon="8.9384327"><ele>467.0</ele><time>2026-04-09T12:21:39.15Z</time></trkpt><trkpt lat="44.5550346" lon="8.9385504"><ele>478.0</ele><time>2026-04-09T12:21:41.142Z</time></trkpt><trkpt lat="44.5553311" lon="8.9387666"><ele>469.33333333333337</ele><time>2026-04-09T12:21:43Z</time></trkpt><trkpt lat="44.5554783" lon="8.938883"><ele>460.66666666666663</ele><time>2026-04-09T12:21:44.139Z</time></trkpt><trkpt lat="44.5556212" lon="8.9390074"><ele>452.0</ele><time>2026-04-09T12:21:45.144Z</time></trkpt><trkpt lat="44.5557628" lon="8.939119"><ele>461.5</ele><time>2026-04-09T12:21:46.137Z</time></trkpt><trkpt lat="44.5560256" lon="8.9393823"><ele>471.0</ele><time>2026-04-09T12:21:48Z</time></trkpt><trkpt lat="44.5561352" lon="8.9395314"><ele>461.0</ele><time>2026-04-09T12:21:49.146Z</time></trkpt><trkpt lat="44.5562549" lon="8.9396679"><ele>451.0</ele><time>2026-04-09T12:21:50.109Z</time></trkpt><trkpt lat="44.5563738" lon="8.93978"><ele>441.0</ele><time>2026-04-09T12:21:51.145Z</time></trkpt><trkpt lat="44.5565892" lon="8.9400129"><ele>446.0</ele><time>2026-04-09T12:21:53Z</time></trkpt><trkpt lat="44.5566814" lon="8.9401336"><ele>451.0</ele><time>2026-04-09T12:21:54.125Z</time></trkpt><trkpt lat="44.556867" lon="8.9402568"><ele>456.0</ele><time>2026-04-09T12:21:56.142Z</time></trkpt><trkpt lat="44.5569762" lon="8.9402479"><ele>461.0</ele><time>2026-04-09T12:21:57Z</time></trkpt><trkpt lat="44.5570989" lon="8.9402223"><ele>461.0</ele><time>2026-04-09T12:21:57.999Z</time></trkpt><trkpt lat="44.5572339" lon="8.9401967"><ele>461.0</ele><time>2026-04-09T12:21:58.999Z</time></trkpt><trkpt lat="44.5573852" lon="8.9401564"><ele>461.0</ele><time>2026-04-09T12:21:59.999Z</time></trkpt><trkpt lat="44.5575413" lon="8.9401142"><ele>461.0</ele><time>2026-04-09T12:22:01.113Z</time></trkpt><trkpt lat="44.5578849" lon="8.9400156"><ele>459.3333333333333</ele><time>2026-04-09T12:22:03.176Z</time></trkpt><trkpt lat="44.5581654" lon="8.9399911"><ele>457.66666666666663</ele><time>2026-04-09T12:22:05.167Z</time></trkpt><trkpt lat="44.5582994" lon="8.9399989"><ele>456.0</ele><time>2026-04-09T12:22:06.157Z</time></trkpt><trkpt lat="44.5585439" lon="8.9400845"><ele>456.0</ele><time>2026-04-09T12:22:08Z</time></trkpt><trkpt lat="44.5586677" lon="8.9401362"><ele>456.0</ele><time>2026-04-09T12:22:08.999Z</time></trkpt><trkpt lat="44.5587958" lon="8.940195"><ele>456.0</ele><time>2026-04-09T12:22:09.999Z</time></trkpt><trkpt lat="44.5589232" lon="8.9402627"><ele>456.0</ele><time>2026-04-09T12:22:10.999Z</time></trkpt><trkpt lat="44.5590516" lon="8.9403194"><ele>453.5</ele><time>2026-04-09T12:22:11.999Z</time></trkpt><trkpt lat="44.5591872" lon="8.94036"><ele>451.0</ele><time>2026-04-09T12:22:12.999Z</time></trkpt><trkpt lat="44.5593156" lon="8.9403792"><ele>448.5</ele><time>2026-04-09T12:22:13.999Z</time></trkpt><trkpt lat="44.5594534" lon="8.9403882"><ele>446.0</ele><time>2026-04-09T12:22:14.999Z</time></trkpt><trkpt lat="44.5595875" lon="8.9403916"><ele>444.25</ele><time>2026-04-09T12:22:15.999Z</time></trkpt><trkpt lat="44.5597311" lon="8.9403834"><ele>442.5</ele><time>2026-04-09T12:22:16.999Z</time></trkpt><trkpt lat="44.5598695" lon="8.9403876"><ele>440.75</ele><time>2026-04-09T12:22:17.999Z</time></trkpt><trkpt lat="44.5599998" lon="8.9403943"><ele>439.0</ele><time>2026-04-09T12:22:18.999Z</time></trkpt><trkpt lat="44.5601323" lon="8.9404096"><ele>439.0</ele><time>2026-04-09T12:22:20Z</time></trkpt><trkpt lat="44.5602733" lon="8.9404247"><ele>439.0</ele><time>2026-04-09T12:22:20.999Z</time></trkpt><trkpt lat="44.5604103" lon="8.9404356"><ele>439.0</ele><time>2026-04-09T12:22:22Z</time></trkpt><trkpt lat="44.560549" lon="8.9404356"><ele>439.0</ele><time>2026-04-09T12:22:23Z</time></trkpt><trkpt lat="44.5606878" lon="8.9404423"><ele>436.5</ele><time>2026-04-09T12:22:23.999Z</time></trkpt><trkpt lat="44.560826" lon="8.9404457"><ele>434.0</ele><time>2026-04-09T12:22:25Z</time></trkpt><trkpt lat="44.5609573" lon="8.9404619"><ele>431.5</ele><time>2026-04-09T12:22:26Z</time></trkpt><trkpt lat="44.5610986" lon="8.9404682"><ele>429.0</ele><time>2026-04-09T12:22:27Z</time></trkpt><trkpt lat="44.5612516" lon="8.9404722"><ele>426.0</ele><time>2026-04-09T12:22:28Z</time></trkpt><trkpt lat="44.5614035" lon="8.9404791"><ele>423.0</ele><time>2026-04-09T12:22:28.999Z</time></trkpt><trkpt lat="44.5615575" lon="8.9404844"><ele>420.0</ele><time>2026-04-09T12:22:29.999Z</time></trkpt><trkpt lat="44.5616968" lon="8.9405141"><ele>417.0</ele><time>2026-04-09T12:22:31Z</time></trkpt><trkpt lat="44.5618418" lon="8.9405505"><ele>417.0</ele><time>2026-04-09T12:22:31.999Z</time></trkpt><trkpt lat="44.5619729" lon="8.9405995"><ele>417.0</ele><time>2026-04-09T12:22:33Z</time></trkpt><trkpt lat="44.562102" lon="8.9406599"><ele>417.0</ele><time>2026-04-09T12:22:33.999Z</time></trkpt><trkpt lat="44.5622223" lon="8.9407316"><ele>417.0</ele><time>2026-04-09T12:22:34.999Z</time></trkpt><trkpt lat="44.5623411" lon="8.9408283"><ele>417.5</ele><time>2026-04-09T12:22:35.999Z</time></trkpt><trkpt lat="44.5624466" lon="8.9409299"><ele>418.0</ele><time>2026-04-09T12:22:36.999Z</time></trkpt><trkpt lat="44.5625377" lon="8.9410365"><ele>418.5</ele><time>2026-04-09T12:22:38Z</time></trkpt><trkpt lat="44.5626339" lon="8.9411471"><ele>419.0</ele><time>2026-04-09T12:22:39Z</time></trkpt><trkpt lat="44.562727" lon="8.9412524"><ele>419.0</ele><time>2026-04-09T12:22:39.999Z</time></trkpt><trkpt lat="44.5628203" lon="8.9413627"><ele>419.0</ele><time>2026-04-09T12:22:40.999Z</time></trkpt><trkpt lat="44.5629141" lon="8.9414705"><ele>419.0</ele><time>2026-04-09T12:22:42.103Z</time></trkpt><trkpt lat="44.5630954" lon="8.9416764"><ele>415.0</ele><time>2026-04-09T12:22:44Z</time></trkpt><trkpt lat="44.5631869" lon="8.9417816"><ele>411.0</ele><time>2026-04-09T12:22:45Z</time></trkpt><trkpt lat="44.5632747" lon="8.9418842"><ele>407.0</ele><time>2026-04-09T12:22:45.999Z</time></trkpt><trkpt lat="44.5633608" lon="8.9419868"><ele>403.0</ele><time>2026-04-09T12:22:47Z</time></trkpt><trkpt lat="44.5634496" lon="8.9420905"><ele>403.0</ele><time>2026-04-09T12:22:48Z</time></trkpt><trkpt lat="44.5635355" lon="8.9421979"><ele>403.0</ele><time>2026-04-09T12:22:49.127Z</time></trkpt><trkpt lat="44.5637213" lon="8.942408"><ele>403.0</ele><time>2026-04-09T12:22:50.999Z</time></trkpt><trkpt lat="44.5638122" lon="8.9425144"><ele>397.33333333333337</ele><time>2026-04-09T12:22:51.999Z</time></trkpt><trkpt lat="44.5639014" lon="8.9426235"><ele>391.66666666666663</ele><time>2026-04-09T12:22:52.999Z</time></trkpt><trkpt lat="44.5639947" lon="8.9427328"><ele>386.0</ele><time>2026-04-09T12:22:54.106Z</time></trkpt><trkpt lat="44.5641794" lon="8.9429502"><ele>386.0</ele><time>2026-04-09T12:22:55.999Z</time></trkpt><trkpt lat="44.5642747" lon="8.9430667"><ele>386.0</ele><time>2026-04-09T12:22:56.999Z</time></trkpt><trkpt lat="44.5643706" lon="8.9431757"><ele>386.0</ele><time>2026-04-09T12:22:57.999Z</time></trkpt><trkpt lat="44.5644687" lon="8.943288"><ele>386.0</ele><time>2026-04-09T12:22:59Z</time></trkpt><trkpt lat="44.5645595" lon="8.9433888"><ele>385.0</ele><time>2026-04-09T12:22:59.999Z</time></trkpt><trkpt lat="44.5646581" lon="8.9434997"><ele>384.0</ele><time>2026-04-09T12:23:01Z</time></trkpt><trkpt lat="44.564765" lon="8.943612"><ele>383.0</ele><time>2026-04-09T12:23:02Z</time></trkpt><trkpt lat="44.5648746" lon="8.9437106"><ele>382.0</ele><time>2026-04-09T12:23:02.999Z</time></trkpt><trkpt lat="44.5649914" lon="8.9438028"><ele>382.0</ele><time>2026-04-09T12:23:04Z</time></trkpt><trkpt lat="44.5650942" lon="8.94386"><ele>382.0</ele><time>2026-04-09T12:23:04.999Z</time></trkpt><trkpt lat="44.5652089" lon="8.9439432"><ele>382.0</ele><time>2026-04-09T12:23:05.999Z</time></trkpt><trkpt lat="44.5653228" lon="8.9440224"><ele>382.0</ele><time>2026-04-09T12:23:07Z</time></trkpt><trkpt lat="44.5654342" lon="8.9441043"><ele>381.75</ele><time>2026-04-09T12:23:07.999Z</time></trkpt><trkpt lat="44.5655508" lon="8.9441725"><ele>381.5</ele><time>2026-04-09T12:23:08.999Z</time></trkpt><trkpt lat="44.5656674" lon="8.9442514"><ele>381.25</ele><time>2026-04-09T12:23:09.999Z</time></trkpt><trkpt lat="44.5657804" lon="8.9443324"><ele>381.0</ele><time>2026-04-09T12:23:11Z</time></trkpt><trkpt lat="44.5658905" lon="8.9444108"><ele>381.0</ele><time>2026-04-09T12:23:11.999Z</time></trkpt><trkpt lat="44.565997" lon="8.9444872"><ele>381.0</ele><time>2026-04-09T12:23:12.999Z</time></trkpt><trkpt lat="44.5660955" lon="8.9445579"><ele>381.0</ele><time>2026-04-09T12:23:13.999Z</time></trkpt><trkpt lat="44.566201" lon="8.9446344"><ele>381.0</ele><time>2026-04-09T12:23:15Z</time></trkpt><trkpt lat="44.5662994" lon="8.9447121"><ele>381.20000000000005</ele><time>2026-04-09T12:23:16Z</time></trkpt><trkpt lat="44.5664031" lon="8.944785"><ele>381.40000000000003</ele><time>2026-04-09T12:23:16.999Z</time></trkpt><trkpt lat="44.5664972" lon="8.9448561"><ele>381.6</ele><time>2026-04-09T12:23:18Z</time></trkpt><trkpt lat="44.566593" lon="8.9449371"><ele>381.8</ele><time>2026-04-09T12:23:18.999Z</time></trkpt><trkpt lat="44.5666864" lon="8.9450066"><ele>382.0</ele><time>2026-04-09T12:23:19.999Z</time></trkpt><trkpt lat="44.5667816" lon="8.9450632"><ele>381.0</ele><time>2026-04-09T12:23:21.142Z</time></trkpt><trkpt lat="44.5669672" lon="8.9451875"><ele>380.0</ele><time>2026-04-09T12:23:23Z</time></trkpt><trkpt lat="44.5670596" lon="8.9452534"><ele>379.0</ele><time>2026-04-09T12:23:23.999Z</time></trkpt><trkpt lat="44.567153" lon="8.9453227"><ele>378.0</ele><time>2026-04-09T12:23:25Z</time></trkpt><trkpt lat="44.5672523" lon="8.9453817"><ele>377.75</ele><time>2026-04-09T12:23:26Z</time></trkpt><trkpt lat="44.5673468" lon="8.9454536"><ele>377.5</ele><time>2026-04-09T12:23:26.999Z</time></trkpt><trkpt lat="44.5674431" lon="8.945521"><ele>377.25</ele><time>2026-04-09T12:23:27.999Z</time></trkpt><trkpt lat="44.5675375" lon="8.9455996"><ele>377.0</ele><time>2026-04-09T12:23:29.112Z</time></trkpt><trkpt lat="44.5677488" lon="8.9457483"><ele>377.0</ele><time>2026-04-09T12:23:31Z</time></trkpt><trkpt lat="44.5678526" lon="8.9458239"><ele>377.0</ele><time>2026-04-09T12:23:31.999Z</time></trkpt><trkpt lat="44.567941" lon="8.9458953"><ele>377.0</ele><time>2026-04-09T12:23:33.148Z</time></trkpt><trkpt lat="44.5680471" lon="8.9459631"><ele>377.0</ele><time>2026-04-09T12:23:34.147Z</time></trkpt><trkpt lat="44.5682606" lon="8.9460992"><ele>376.25</ele><time>2026-04-09T12:23:36Z</time></trkpt><trkpt lat="44.5683729" lon="8.9461333"><ele>375.5</ele><time>2026-04-09T12:23:37Z</time></trkpt><trkpt lat="44.5684804" lon="8.9461454"><ele>374.75</ele><time>2026-04-09T12:23:38.146Z</time></trkpt><trkpt lat="44.5686885" lon="8.9461673"><ele>374.0</ele><time>2026-04-09T12:23:40.115Z</time></trkpt><trkpt lat="44.5687991" lon="8.9461572"><ele>372.79999999999995</ele><time>2026-04-09T12:23:41.133Z</time></trkpt><trkpt lat="44.5689096" lon="8.946148"><ele>371.59999999999997</ele><time>2026-04-09T12:23:41.999Z</time></trkpt><trkpt lat="44.5689975" lon="8.9461413"><ele>370.4</ele><time>2026-04-09T12:23:43Z</time></trkpt><trkpt lat="44.569095" lon="8.9461354"><ele>369.2</ele><time>2026-04-09T12:23:44.123Z</time></trkpt><trkpt lat="44.5691886" lon="8.9461198"><ele>368.0</ele><time>2026-04-09T12:23:45.118Z</time></trkpt><trkpt lat="44.5692843" lon="8.9461147"><ele>368.0</ele><time>2026-04-09T12:23:46.123Z</time></trkpt><trkpt lat="44.569469" lon="8.9460929"><ele>368.0</ele><time>2026-04-09T12:23:48Z</time></trkpt><trkpt lat="44.5695744" lon="8.9460779"><ele>368.0</ele><time>2026-04-09T12:23:49Z</time></trkpt><trkpt lat="44.5696684" lon="8.9460706"><ele>368.0</ele><time>2026-04-09T12:23:50.105Z</time></trkpt><trkpt lat="44.5698457" lon="8.946031"><ele>368.25</ele><time>2026-04-09T12:23:52Z</time></trkpt><trkpt lat="44.5699258" lon="8.9460141"><ele>368.5</ele><time>2026-04-09T12:23:53Z</time></trkpt><trkpt lat="44.5700078" lon="8.9459847"><ele>368.75</ele><time>2026-04-09T12:23:54Z</time></trkpt><trkpt lat="44.570087" lon="8.9459515"><ele>369.0</ele><time>2026-04-09T12:23:54.999Z</time></trkpt><trkpt lat="44.5702949" lon="8.9458418"><ele>369.0</ele><time>2026-04-09T12:23:57.999Z</time></trkpt><trkpt lat="44.5703787" lon="8.9457893"><ele>369.0</ele><time>2026-04-09T12:23:59.999Z</time></trkpt><trkpt lat="44.5704472" lon="8.9457914"><ele>369.0</ele><time>2026-04-09T12:24:01.999Z</time></trkpt><trkpt lat="44.5705278" lon="8.9458557"><ele>369.0</ele><time>2026-04-09T12:24:03.999Z</time></trkpt><trkpt lat="44.570488" lon="8.9459262"><ele>369.0</ele><time>2026-04-09T12:24:06.999Z</time></trkpt><trkpt lat="44.5703513" lon="8.9460402"><ele>369.0</ele><time>2026-04-09T12:24:09Z</time></trkpt><trkpt lat="44.5702809" lon="8.946101"><ele>369.0</ele><time>2026-04-09T12:24:09.999Z</time></trkpt><trkpt lat="44.5702063" lon="8.9461548"><ele>369.0</ele><time>2026-04-09T12:24:10.999Z</time></trkpt><trkpt lat="44.5701342" lon="8.9462055"><ele>369.0</ele><time>2026-04-09T12:24:11.999Z</time></trkpt><trkpt lat="44.5700751" lon="8.9462764"><ele>369.0</ele><time>2026-04-09T12:24:13.128Z</time></trkpt><trkpt lat="44.5699211" lon="8.9464333"><ele>369.0</ele><time>2026-04-09T12:24:14.999Z</time></trkpt><trkpt lat="44.5698468" lon="8.9465054"><ele>369.0</ele><time>2026-04-09T12:24:16Z</time></trkpt><trkpt lat="44.5697807" lon="8.9465768"><ele>369.0</ele><time>2026-04-09T12:24:16.999Z</time></trkpt><trkpt lat="44.5697127" lon="8.9466491"><ele>369.0</ele><time>2026-04-09T12:24:17.999Z</time></trkpt><trkpt lat="44.5696438" lon="8.9467067"><ele>369.0</ele><time>2026-04-09T12:24:18.999Z</time></trkpt><trkpt lat="44.5695766" lon="8.9467792"><ele>369.0</ele><time>2026-04-09T12:24:20Z</time></trkpt><trkpt lat="44.5695145" lon="8.946852"><ele>368.0</ele><time>2026-04-09T12:24:20.999Z</time></trkpt><trkpt lat="44.5694518" lon="8.9469191"><ele>367.0</ele><time>2026-04-09T12:24:21.999Z</time></trkpt><trkpt lat="44.5693904" lon="8.9469895"><ele>366.0</ele><time>2026-04-09T12:24:22.999Z</time></trkpt><trkpt lat="44.5693217" lon="8.9470569"><ele>365.0</ele><time>2026-04-09T12:24:24Z</time></trkpt><trkpt lat="44.5692226" lon="8.947119"><ele>364.0</ele><time>2026-04-09T12:24:24.999Z</time></trkpt><trkpt lat="44.5691292" lon="8.9471881"><ele>364.0</ele><time>2026-04-09T12:24:26Z</time></trkpt><trkpt lat="44.569033" lon="8.9472533"><ele>364.0</ele><time>2026-04-09T12:24:26.999Z</time></trkpt><trkpt lat="44.5689385" lon="8.9473233"><ele>364.0</ele><time>2026-04-09T12:24:27.999Z</time></trkpt><trkpt lat="44.568838" lon="8.9473757"><ele>364.0</ele><time>2026-04-09T12:24:29Z</time></trkpt><trkpt lat="44.5687461" lon="8.9474528"><ele>364.0</ele><time>2026-04-09T12:24:29.999Z</time></trkpt><trkpt lat="44.5686517" lon="8.9475162"><ele>363.6</ele><time>2026-04-09T12:24:31Z</time></trkpt><trkpt lat="44.5685656" lon="8.9475952"><ele>363.2</ele><time>2026-04-09T12:24:31.999Z</time></trkpt><trkpt lat="44.568484" lon="8.9476608"><ele>362.8</ele><time>2026-04-09T12:24:32.999Z</time></trkpt><trkpt lat="44.5683973" lon="8.9477567"><ele>362.40000000000003</ele><time>2026-04-09T12:24:33.999Z</time></trkpt><trkpt lat="44.5683131" lon="8.9478683"><ele>362.0</ele><time>2026-04-09T12:24:34.999Z</time></trkpt><trkpt lat="44.5682387" lon="8.9479644"><ele>362.0</ele><time>2026-04-09T12:24:36.128Z</time></trkpt><trkpt lat="44.5681028" lon="8.9481615"><ele>362.0</ele><time>2026-04-09T12:24:37.999Z</time></trkpt><trkpt lat="44.5680364" lon="8.9482645"><ele>362.0</ele><time>2026-04-09T12:24:39.109Z</time></trkpt><trkpt lat="44.5679799" lon="8.9483609"><ele>362.0</ele><time>2026-04-09T12:24:40.133Z</time></trkpt><trkpt lat="44.567923" lon="8.9484635"><ele>364.25</ele><time>2026-04-09T12:24:41.141Z</time></trkpt><trkpt lat="44.5678271" lon="8.9487007"><ele>366.5</ele><time>2026-04-09T12:24:43Z</time></trkpt><trkpt lat="44.5677949" lon="8.9488206"><ele>368.75</ele><time>2026-04-09T12:24:44Z</time></trkpt><trkpt lat="44.5677669" lon="8.9489458"><ele>371.0</ele><time>2026-04-09T12:24:45.112Z</time></trkpt><trkpt lat="44.5677462" lon="8.9490723"><ele>370.5</ele><time>2026-04-09T12:24:46.111Z</time></trkpt><trkpt lat="44.5677113" lon="8.9493513"><ele>370.0</ele><time>2026-04-09T12:24:48Z</time></trkpt><trkpt lat="44.5676952" lon="8.9494968"><ele>369.5</ele><time>2026-04-09T12:24:48.999Z</time></trkpt><trkpt lat="44.5676793" lon="8.9496501"><ele>369.0</ele><time>2026-04-09T12:24:50.158Z</time></trkpt><trkpt lat="44.5676589" lon="8.9498025"><ele>370.0</ele><time>2026-04-09T12:24:51.116Z</time></trkpt><trkpt lat="44.5676053" lon="8.950158"><ele>371.0</ele><time>2026-04-09T12:24:52.999Z</time></trkpt><trkpt lat="44.56758" lon="8.9503012"><ele>372.0</ele><time>2026-04-09T12:24:54Z</time></trkpt><trkpt lat="44.5675601" lon="8.9504611"><ele>372.0</ele><time>2026-04-09T12:24:55Z</time></trkpt><trkpt lat="44.567538" lon="8.950673"><ele>372.0</ele><time>2026-04-09T12:24:56.122Z</time></trkpt><trkpt lat="44.5675091" lon="8.9510253"><ele>372.0</ele><time>2026-04-09T12:24:58Z</time></trkpt><trkpt lat="44.5674888" lon="8.9512063"><ele>371.3333333333333</ele><time>2026-04-09T12:24:59.119Z</time></trkpt><trkpt lat="44.5674642" lon="8.9513864"><ele>370.66666666666663</ele><time>2026-04-09T12:25:00.112Z</time></trkpt><trkpt lat="44.5674481" lon="8.9515567"><ele>370.0</ele><time>2026-04-09T12:25:01.152Z</time></trkpt><trkpt lat="44.567421" lon="8.9519025"><ele>369.75</ele><time>2026-04-09T12:25:03Z</time></trkpt><trkpt lat="44.5674137" lon="8.9520509"><ele>369.5</ele><time>2026-04-09T12:25:04.129Z</time></trkpt><trkpt lat="44.5674067" lon="8.9521866"><ele>369.25</ele><time>2026-04-09T12:25:05.153Z</time></trkpt><trkpt lat="44.5674029" lon="8.9523027"><ele>369.0</ele><time>2026-04-09T12:25:06.152Z</time></trkpt><trkpt lat="44.5673769" lon="8.9525741"><ele>368.4</ele><time>2026-04-09T12:25:08Z</time></trkpt><trkpt lat="44.567374" lon="8.9527122"><ele>367.79999999999995</ele><time>2026-04-09T12:25:08.999Z</time></trkpt><trkpt lat="44.5673713" lon="8.9528507"><ele>367.20000000000005</ele><time>2026-04-09T12:25:10Z</time></trkpt><trkpt lat="44.5673713" lon="8.9529862"><ele>366.6</ele><time>2026-04-09T12:25:10.999Z</time></trkpt><trkpt lat="44.567372" lon="8.9531055"><ele>366.0</ele><time>2026-04-09T12:25:11.999Z</time></trkpt><trkpt lat="44.5673752" lon="8.9532232"><ele>366.0</ele><time>2026-04-09T12:25:13.107Z</time></trkpt><trkpt lat="44.5673776" lon="8.9533523"><ele>366.0</ele><time>2026-04-09T12:25:14.154Z</time></trkpt><trkpt lat="44.5673913" lon="8.9534585"><ele>366.0</ele><time>2026-04-09T12:25:15.122Z</time></trkpt><trkpt lat="44.5674249" lon="8.9535616"><ele>366.0</ele><time>2026-04-09T12:25:16.106Z</time></trkpt><trkpt lat="44.5675291" lon="8.9536979"><ele>366.0</ele><time>2026-04-09T12:25:18.125Z</time></trkpt><trkpt lat="44.5676027" lon="8.9537249"><ele>366.0</ele><time>2026-04-09T12:25:19.148Z</time></trkpt><trkpt lat="44.5677539" lon="8.953563"><ele>366.0</ele><time>2026-04-09T12:25:22Z</time></trkpt><trkpt lat="44.5677818" lon="8.9534536"><ele>366.0</ele><time>2026-04-09T12:25:23Z</time></trkpt><trkpt lat="44.5678024" lon="8.953336"><ele>366.0</ele><time>2026-04-09T12:25:24.15Z</time></trkpt><trkpt lat="44.5678247" lon="8.9532187"><ele>366.0</ele><time>2026-04-09T12:25:25.142Z</time></trkpt><trkpt lat="44.5678793" lon="8.9529524"><ele>364.4</ele><time>2026-04-09T12:25:27Z</time></trkpt><trkpt lat="44.5679151" lon="8.9528304"><ele>362.8</ele><time>2026-04-09T12:25:27.999Z</time></trkpt><trkpt lat="44.5679499" lon="8.9526859"><ele>361.2</ele><time>2026-04-09T12:25:28.999Z</time></trkpt><trkpt lat="44.567989" lon="8.952544"><ele>359.59999999999997</ele><time>2026-04-09T12:25:30Z</time></trkpt><trkpt lat="44.5680323" lon="8.952393"><ele>358.0</ele><time>2026-04-09T12:25:30.999Z</time></trkpt><trkpt lat="44.5680798" lon="8.9522463"><ele>358.0</ele><time>2026-04-09T12:25:31.999Z</time></trkpt><trkpt lat="44.5681328" lon="8.9521006"><ele>358.0</ele><time>2026-04-09T12:25:33.159Z</time></trkpt><trkpt lat="44.5681957" lon="8.9519529"><ele>358.0</ele><time>2026-04-09T12:25:34.158Z</time></trkpt><trkpt lat="44.5682684" lon="8.9518067"><ele>358.0</ele><time>2026-04-09T12:25:35.143Z</time></trkpt><trkpt lat="44.568345" lon="8.9516581"><ele>358.0</ele><time>2026-04-09T12:25:36.114Z</time></trkpt><trkpt lat="44.5685258" lon="8.9513751"><ele>358.0</ele><time>2026-04-09T12:25:38Z</time></trkpt><trkpt lat="44.5686182" lon="8.9512405"><ele>358.0</ele><time>2026-04-09T12:25:39.101Z</time></trkpt><trkpt lat="44.5687106" lon="8.9511005"><ele>357.0</ele><time>2026-04-09T12:25:40.102Z</time></trkpt><trkpt lat="44.5688011" lon="8.950974"><ele>356.0</ele><time>2026-04-09T12:25:41.112Z</time></trkpt><trkpt lat="44.5689723" lon="8.950744"><ele>355.0</ele><time>2026-04-09T12:25:43Z</time></trkpt><trkpt lat="44.5690575" lon="8.9506231"><ele>354.66666666666663</ele><time>2026-04-09T12:25:44.116Z</time></trkpt><trkpt lat="44.5691478" lon="8.9505034"><ele>354.3333333333333</ele><time>2026-04-09T12:25:45.121Z</time></trkpt><trkpt lat="44.5692381" lon="8.9503902"><ele>354.0</ele><time>2026-04-09T12:25:46.112Z</time></trkpt><trkpt lat="44.5694099" lon="8.9501637"><ele>354.0</ele><time>2026-04-09T12:25:47.999Z</time></trkpt><trkpt lat="44.569497" lon="8.9500444"><ele>354.0</ele><time>2026-04-09T12:25:49.124Z</time></trkpt><trkpt lat="44.5695756" lon="8.9499277"><ele>354.0</ele><time>2026-04-09T12:25:50.112Z</time></trkpt><trkpt lat="44.569661" lon="8.9498167"><ele>354.0</ele><time>2026-04-09T12:25:51.132Z</time></trkpt><trkpt lat="44.5698149" lon="8.9495671"><ele>354.2</ele><time>2026-04-09T12:25:52.999Z</time></trkpt><trkpt lat="44.5698703" lon="8.9494531"><ele>354.4</ele><time>2026-04-09T12:25:54.148Z</time></trkpt><trkpt lat="44.5699031" lon="8.9493353"><ele>354.6</ele><time>2026-04-09T12:25:55.122Z</time></trkpt><trkpt lat="44.5699095" lon="8.949215"><ele>354.8</ele><time>2026-04-09T12:25:56.126Z</time></trkpt><trkpt lat="44.5698824" lon="8.9490023"><ele>355.0</ele><time>2026-04-09T12:25:57.999Z</time></trkpt><trkpt lat="44.569891" lon="8.9488449"><ele>355.5</ele><time>2026-04-09T12:26:00.115Z</time></trkpt><trkpt lat="44.5699366" lon="8.9487421"><ele>356.0</ele><time>2026-04-09T12:26:02.999Z</time></trkpt><trkpt lat="44.5699946" lon="8.948681"><ele>356.5</ele><time>2026-04-09T12:26:07Z</time></trkpt><trkpt lat="44.5700668" lon="8.9486404"><ele>357.0</ele><time>2026-04-09T12:26:07.999Z</time></trkpt><trkpt lat="44.5701815" lon="8.9486363"><ele>357.5</ele><time>2026-04-09T12:26:10Z</time></trkpt><trkpt lat="44.5702414" lon="8.9486917"><ele>358.0</ele><time>2026-04-09T12:26:11Z</time></trkpt><trkpt lat="44.5702966" lon="8.9487706"><ele>358.0</ele><time>2026-04-09T12:26:11.999Z</time></trkpt><trkpt lat="44.5703545" lon="8.9488581"><ele>358.0</ele><time>2026-04-09T12:26:12.999Z</time></trkpt><trkpt lat="44.5704147" lon="8.9489462"><ele>358.0</ele><time>2026-04-09T12:26:14Z</time></trkpt><trkpt lat="44.5704724" lon="8.9490295"><ele>358.0</ele><time>2026-04-09T12:26:14.999Z</time></trkpt><trkpt lat="44.5705344" lon="8.9491207"><ele>358.0</ele><time>2026-04-09T12:26:15.999Z</time></trkpt><trkpt lat="44.5705953" lon="8.9492142"><ele>358.0</ele><time>2026-04-09T12:26:16.999Z</time></trkpt><trkpt lat="44.5706607" lon="8.9493065"><ele>357.59999999999997</ele><time>2026-04-09T12:26:18Z</time></trkpt><trkpt lat="44.5707284" lon="8.9494005"><ele>357.2</ele><time>2026-04-09T12:26:19Z</time></trkpt><trkpt lat="44.5707926" lon="8.9494968"><ele>356.8</ele><time>2026-04-09T12:26:19.999Z</time></trkpt><trkpt lat="44.5708554" lon="8.9495916"><ele>356.4</ele><time>2026-04-09T12:26:20.999Z</time></trkpt><trkpt lat="44.5709177" lon="8.9496881"><ele>356.0</ele><time>2026-04-09T12:26:22Z</time></trkpt><trkpt lat="44.5709815" lon="8.9497782"><ele>356.0</ele><time>2026-04-09T12:26:22.999Z</time></trkpt><trkpt lat="44.5710438" lon="8.9498701"><ele>356.0</ele><time>2026-04-09T12:26:24Z</time></trkpt><trkpt lat="44.5711076" lon="8.9499561"><ele>356.0</ele><time>2026-04-09T12:26:25Z</time></trkpt><trkpt lat="44.571168" lon="8.9500457"><ele>356.0</ele><time>2026-04-09T12:26:26Z</time></trkpt><trkpt lat="44.5712309" lon="8.9501331"><ele>356.0</ele><time>2026-04-09T12:26:26.999Z</time></trkpt><trkpt lat="44.5712957" lon="8.9502288"><ele>356.0</ele><time>2026-04-09T12:26:27.999Z</time></trkpt><trkpt lat="44.5713507" lon="8.9503355"><ele>356.83333333333337</ele><time>2026-04-09T12:26:29Z</time></trkpt><trkpt lat="44.5713876" lon="8.9504407"><ele>357.6666666666667</ele><time>2026-04-09T12:26:29.999Z</time></trkpt><trkpt lat="44.5714076" lon="8.9505483"><ele>358.5</ele><time>2026-04-09T12:26:30.999Z</time></trkpt><trkpt lat="44.571415" lon="8.9506615"><ele>359.3333333333333</ele><time>2026-04-09T12:26:31.999Z</time></trkpt><trkpt lat="44.5714112" lon="8.9507812"><ele>360.16666666666663</ele><time>2026-04-09T12:26:33Z</time></trkpt><trkpt lat="44.5714031" lon="8.950899"><ele>361.0</ele><time>2026-04-09T12:26:34Z</time></trkpt><trkpt lat="44.5713781" lon="8.9510253"><ele>361.0</ele><time>2026-04-09T12:26:35Z</time></trkpt><trkpt lat="44.5713518" lon="8.9511556"><ele>361.0</ele><time>2026-04-09T12:26:36Z</time></trkpt><trkpt lat="44.5713216" lon="8.9512855"><ele>361.0</ele><time>2026-04-09T12:26:36.999Z</time></trkpt><trkpt lat="44.5712901" lon="8.9514258"><ele>361.0</ele><time>2026-04-09T12:26:38Z</time></trkpt><trkpt lat="44.5712507" lon="8.9515646"><ele>361.0</ele><time>2026-04-09T12:26:39.124Z</time></trkpt><trkpt lat="44.5711833" lon="8.9518382"><ele>361.3333333333333</ele><time>2026-04-09T12:26:41.121Z</time></trkpt><trkpt lat="44.5711118" lon="8.9521512"><ele>361.6666666666667</ele><time>2026-04-09T12:26:42.999Z</time></trkpt><trkpt lat="44.5710828" lon="8.9522949"><ele>362.0</ele><time>2026-04-09T12:26:44.162Z</time></trkpt><trkpt lat="44.5710078" lon="8.9525618"><ele>361.5</ele><time>2026-04-09T12:26:46.163Z</time></trkpt><trkpt lat="44.5709453" lon="8.9528138"><ele>361.0</ele><time>2026-04-09T12:26:47.999Z</time></trkpt><trkpt lat="44.5709112" lon="8.9529334"><ele>360.5</ele><time>2026-04-09T12:26:49Z</time></trkpt><trkpt lat="44.5708812" lon="8.9530532"><ele>360.0</ele><time>2026-04-09T12:26:50.151Z</time></trkpt><trkpt lat="44.5708196" lon="8.9533344"><ele>360.2</ele><time>2026-04-09T12:26:52Z</time></trkpt><trkpt lat="44.5707897" lon="8.9534778"><ele>360.4</ele><time>2026-04-09T12:26:53Z</time></trkpt><trkpt lat="44.5707515" lon="8.9536077"><ele>360.6</ele><time>2026-04-09T12:26:54.106Z</time></trkpt><trkpt lat="44.570724" lon="8.9537472"><ele>360.8</ele><time>2026-04-09T12:26:55.112Z</time></trkpt><trkpt lat="44.5706945" lon="8.9538848"><ele>361.0</ele><time>2026-04-09T12:26:56.126Z</time></trkpt><trkpt lat="44.5706422" lon="8.9541268"><ele>361.20000000000005</ele><time>2026-04-09T12:26:57.999Z</time></trkpt><trkpt lat="44.5706134" lon="8.9542492"><ele>361.40000000000003</ele><time>2026-04-09T12:26:58.999Z</time></trkpt><trkpt lat="44.5705797" lon="8.954387"><ele>361.6</ele><time>2026-04-09T12:26:59.999Z</time></trkpt><trkpt lat="44.5705472" lon="8.9545338"><ele>361.8</ele><time>2026-04-09T12:27:00.999Z</time></trkpt><trkpt lat="44.5705119" lon="8.9546735"><ele>362.0</ele><time>2026-04-09T12:27:01.999Z</time></trkpt><trkpt lat="44.5704883" lon="8.9548136"><ele>362.0</ele><time>2026-04-09T12:27:02.999Z</time></trkpt><trkpt lat="44.5704813" lon="8.9549388"><ele>362.0</ele><time>2026-04-09T12:27:04.111Z</time></trkpt><trkpt lat="44.5704834" lon="8.9550632"><ele>362.0</ele><time>2026-04-09T12:27:05.115Z</time></trkpt><trkpt lat="44.5705254" lon="8.9552996"><ele>362.0</ele><time>2026-04-09T12:27:06.999Z</time></trkpt><trkpt lat="44.570567" lon="8.9554024"><ele>362.0</ele><time>2026-04-09T12:27:08Z</time></trkpt><trkpt lat="44.570616" lon="8.9555089"><ele>362.25</ele><time>2026-04-09T12:27:09Z</time></trkpt><trkpt lat="44.5706675" lon="8.9556218"><ele>362.5</ele><time>2026-04-09T12:27:10.117Z</time></trkpt><trkpt lat="44.5707192" lon="8.9557313"><ele>362.75</ele><time>2026-04-09T12:27:11.149Z</time></trkpt><trkpt lat="44.5708274" lon="8.9559474"><ele>363.0</ele><time>2026-04-09T12:27:13Z</time></trkpt><trkpt lat="44.5708831" lon="8.9560642"><ele>363.4</ele><time>2026-04-09T12:27:14.145Z</time></trkpt><trkpt lat="44.5709413" lon="8.9561794"><ele>363.79999999999995</ele><time>2026-04-09T12:27:15.153Z</time></trkpt><trkpt lat="44.5710004" lon="8.9562985"><ele>364.2</ele><time>2026-04-09T12:27:16.118Z</time></trkpt><trkpt lat="44.5710546" lon="8.9564114"><ele>364.6</ele><time>2026-04-09T12:27:17Z</time></trkpt><trkpt lat="44.5711101" lon="8.9565237"><ele>365.0</ele><time>2026-04-09T12:27:17.999Z</time></trkpt><trkpt lat="44.5711691" lon="8.9566351"><ele>366.0</ele><time>2026-04-09T12:27:19.113Z</time></trkpt><trkpt lat="44.5712863" lon="8.9568659"><ele>367.0</ele><time>2026-04-09T12:27:21.158Z</time></trkpt><trkpt lat="44.5714076" lon="8.9571055"><ele>368.0</ele><time>2026-04-09T12:27:23Z</time></trkpt><trkpt lat="44.5714649" lon="8.9572161"><ele>368.0</ele><time>2026-04-09T12:27:24.133Z</time></trkpt><trkpt lat="44.5715226" lon="8.9573315"><ele>368.0</ele><time>2026-04-09T12:27:25.128Z</time></trkpt><trkpt lat="44.5715719" lon="8.9574347"><ele>368.0</ele><time>2026-04-09T12:27:26.153Z</time></trkpt><trkpt lat="44.5716732" lon="8.957638"><ele>368.0</ele><time>2026-04-09T12:27:28Z</time></trkpt><trkpt lat="44.5717239" lon="8.9577371"><ele>368.0</ele><time>2026-04-09T12:27:28.999Z</time></trkpt><trkpt lat="44.5717727" lon="8.9578294"><ele>368.0</ele><time>2026-04-09T12:27:30.152Z</time></trkpt><trkpt lat="44.5718209" lon="8.9579205"><ele>368.0</ele><time>2026-04-09T12:27:31.112Z</time></trkpt><trkpt lat="44.571919" lon="8.9581158"><ele>368.0</ele><time>2026-04-09T12:27:33Z</time></trkpt><trkpt lat="44.5719683" lon="8.9582158"><ele>368.0</ele><time>2026-04-09T12:27:34.119Z</time></trkpt><trkpt lat="44.5720201" lon="8.9583215"><ele>368.79999999999995</ele><time>2026-04-09T12:27:35.122Z</time></trkpt><trkpt lat="44.5721262" lon="8.9585317"><ele>369.6</ele><time>2026-04-09T12:27:36.999Z</time></trkpt><trkpt lat="44.5721709" lon="8.9586206"><ele>370.4</ele><time>2026-04-09T12:27:38.134Z</time></trkpt><trkpt lat="44.5722167" lon="8.9587126"><ele>371.20000000000005</ele><time>2026-04-09T12:27:39.148Z</time></trkpt><trkpt lat="44.5722608" lon="8.9588112"><ele>372.0</ele><time>2026-04-09T12:27:40.147Z</time></trkpt><trkpt lat="44.5723068" lon="8.9589112"><ele>372.0</ele><time>2026-04-09T12:27:41.118Z</time></trkpt><trkpt lat="44.572428" lon="8.9591118"><ele>372.0</ele><time>2026-04-09T12:27:42.999Z</time></trkpt><trkpt lat="44.5725018" lon="8.9592042"><ele>372.0</ele><time>2026-04-09T12:27:44.122Z</time></trkpt><trkpt lat="44.5725753" lon="8.9592875"><ele>372.0</ele><time>2026-04-09T12:27:45.133Z</time></trkpt><trkpt lat="44.5726635" lon="8.9593642"><ele>371.5</ele><time>2026-04-09T12:27:46.135Z</time></trkpt><trkpt lat="44.5728427" lon="8.9595013"><ele>371.0</ele><time>2026-04-09T12:27:48.108Z</time></trkpt><trkpt lat="44.5729303" lon="8.9595611"><ele>370.5</ele><time>2026-04-09T12:27:49.114Z</time></trkpt><trkpt lat="44.573008" lon="8.9596407"><ele>370.0</ele><time>2026-04-09T12:27:50.116Z</time></trkpt><trkpt lat="44.5730828" lon="8.9597142"><ele>370.0</ele><time>2026-04-09T12:27:51.145Z</time></trkpt><trkpt lat="44.5732428" lon="8.9598738"><ele>370.0</ele><time>2026-04-09T12:27:52.999Z</time></trkpt><trkpt lat="44.573321" lon="8.9599691"><ele>370.0</ele><time>2026-04-09T12:27:54.114Z</time></trkpt><trkpt lat="44.5734035" lon="8.9600626"><ele>370.0</ele><time>2026-04-09T12:27:55.146Z</time></trkpt><trkpt lat="44.573485" lon="8.9601594"><ele>370.0</ele><time>2026-04-09T12:27:56.144Z</time></trkpt><trkpt lat="44.573663" lon="8.9603566"><ele>370.0</ele><time>2026-04-09T12:27:57.999Z</time></trkpt><trkpt lat="44.5737479" lon="8.9604464"><ele>370.0</ele><time>2026-04-09T12:27:59.144Z</time></trkpt><trkpt lat="44.5738329" lon="8.9605329"><ele>370.0</ele><time>2026-04-09T12:28:00.153Z</time></trkpt><trkpt lat="44.5739172" lon="8.9606311"><ele>370.3333333333333</ele><time>2026-04-09T12:28:01.12Z</time></trkpt><trkpt lat="44.5741005" lon="8.9608433"><ele>370.6666666666667</ele><time>2026-04-09T12:28:02.999Z</time></trkpt><trkpt lat="44.5741985" lon="8.9609568"><ele>371.0</ele><time>2026-04-09T12:28:04.156Z</time></trkpt><trkpt lat="44.5743933" lon="8.9611767"><ele>371.0</ele><time>2026-04-09T12:28:05.999Z</time></trkpt><trkpt lat="44.5744922" lon="8.961295"><ele>371.0</ele><time>2026-04-09T12:28:06.999Z</time></trkpt><trkpt lat="44.5745959" lon="8.9614121"><ele>371.0</ele><time>2026-04-09T12:28:07.999Z</time></trkpt><trkpt lat="44.5747021" lon="8.9615324"><ele>371.0</ele><time>2026-04-09T12:28:09.112Z</time></trkpt><trkpt lat="44.5749173" lon="8.961782"><ele>371.5</ele><time>2026-04-09T12:28:10.999Z</time></trkpt><trkpt lat="44.5750199" lon="8.9619106"><ele>372.0</ele><time>2026-04-09T12:28:12Z</time></trkpt><trkpt lat="44.5751271" lon="8.9620554"><ele>372.5</ele><time>2026-04-09T12:28:13Z</time></trkpt><trkpt lat="44.5752219" lon="8.9621923"><ele>373.0</ele><time>2026-04-09T12:28:14.152Z</time></trkpt><trkpt lat="44.5754191" lon="8.9624972"><ele>374.5</ele><time>2026-04-09T12:28:15.999Z</time></trkpt><trkpt lat="44.5755107" lon="8.9626565"><ele>376.0</ele><time>2026-04-09T12:28:16.999Z</time></trkpt><trkpt lat="44.5755857" lon="8.9628103"><ele>377.5</ele><time>2026-04-09T12:28:17.999Z</time></trkpt><trkpt lat="44.5756721" lon="8.9629716"><ele>379.0</ele><time>2026-04-09T12:28:19Z</time></trkpt><trkpt lat="44.5757676" lon="8.9631323"><ele>379.0</ele><time>2026-04-09T12:28:19.999Z</time></trkpt><trkpt lat="44.5758657" lon="8.9632957"><ele>379.0</ele><time>2026-04-09T12:28:20.999Z</time></trkpt><trkpt lat="44.575963" lon="8.9634683"><ele>379.0</ele><time>2026-04-09T12:28:21.999Z</time></trkpt><trkpt lat="44.576056" lon="8.9636353"><ele>378.5</ele><time>2026-04-09T12:28:22.999Z</time></trkpt><trkpt lat="44.5761453" lon="8.9638031"><ele>378.0</ele><time>2026-04-09T12:28:23.999Z</time></trkpt><trkpt lat="44.5762296" lon="8.9639679"><ele>377.5</ele><time>2026-04-09T12:28:24.999Z</time></trkpt><trkpt lat="44.5763207" lon="8.9641417"><ele>377.0</ele><time>2026-04-09T12:28:25.999Z</time></trkpt><trkpt lat="44.5764018" lon="8.9643151"><ele>380.0</ele><time>2026-04-09T12:28:27Z</time></trkpt><trkpt lat="44.5764822" lon="8.9645023"><ele>383.0</ele><time>2026-04-09T12:28:27.999Z</time></trkpt><trkpt lat="44.5765613" lon="8.964692"><ele>386.0</ele><time>2026-04-09T12:28:28.999Z</time></trkpt><trkpt lat="44.5766381" lon="8.9648821"><ele>385.0</ele><time>2026-04-09T12:28:29.999Z</time></trkpt><trkpt lat="44.5767193" lon="8.9650778"><ele>384.0</ele><time>2026-04-09T12:28:30.999Z</time></trkpt><trkpt lat="44.5768005" lon="8.9652732"><ele>383.0</ele><time>2026-04-09T12:28:31.999Z</time></trkpt><trkpt lat="44.5768792" lon="8.9654674"><ele>383.0</ele><time>2026-04-09T12:28:32.999Z</time></trkpt><trkpt lat="44.576959" lon="8.9656556"><ele>383.0</ele><time>2026-04-09T12:28:34Z</time></trkpt><trkpt lat="44.5770455" lon="8.9658426"><ele>383.0</ele><time>2026-04-09T12:28:34.999Z</time></trkpt><trkpt lat="44.5771294" lon="8.9660281"><ele>383.6666666666667</ele><time>2026-04-09T12:28:36Z</time></trkpt><trkpt lat="44.577214" lon="8.9662132"><ele>384.33333333333337</ele><time>2026-04-09T12:28:36.999Z</time></trkpt><trkpt lat="44.577297" lon="8.9664008"><ele>385.0</ele><time>2026-04-09T12:28:38Z</time></trkpt><trkpt lat="44.5773835" lon="8.9665859"><ele>384.33333333333337</ele><time>2026-04-09T12:28:38.999Z</time></trkpt><trkpt lat="44.5774709" lon="8.966774"><ele>383.6666666666667</ele><time>2026-04-09T12:28:39.999Z</time></trkpt><trkpt lat="44.5775547" lon="8.9669552"><ele>383.0</ele><time>2026-04-09T12:28:40.999Z</time></trkpt><trkpt lat="44.5776352" lon="8.9671349"><ele>383.0</ele><time>2026-04-09T12:28:42Z</time></trkpt><trkpt lat="44.5777113" lon="8.9673045"><ele>383.0</ele><time>2026-04-09T12:28:42.999Z</time></trkpt><trkpt lat="44.5777887" lon="8.9674733"><ele>383.0</ele><time>2026-04-09T12:28:43.999Z</time></trkpt><trkpt lat="44.5778715" lon="8.9676457"><ele>383.0</ele><time>2026-04-09T12:28:45Z</time></trkpt><trkpt lat="44.577963" lon="8.9678113"><ele>383.6666666666667</ele><time>2026-04-09T12:28:46Z</time></trkpt><trkpt lat="44.5780561" lon="8.9679836"><ele>384.33333333333337</ele><time>2026-04-09T12:28:46.999Z</time></trkpt><trkpt lat="44.5781677" lon="8.9681324"><ele>385.0</ele><time>2026-04-09T12:28:48Z</time></trkpt><trkpt lat="44.5782853" lon="8.9682711"><ele>385.33333333333337</ele><time>2026-04-09T12:28:49Z</time></trkpt><trkpt lat="44.5784002" lon="8.9684042"><ele>385.66666666666663</ele><time>2026-04-09T12:28:49.999Z</time></trkpt><trkpt lat="44.5785159" lon="8.9685441"><ele>386.0</ele><time>2026-04-09T12:28:50.999Z</time></trkpt><trkpt lat="44.5786323" lon="8.9686821"><ele>388.0</ele><time>2026-04-09T12:28:52Z</time></trkpt><trkpt lat="44.5787531" lon="8.968815"><ele>390.0</ele><time>2026-04-09T12:28:52.999Z</time></trkpt><trkpt lat="44.5788761" lon="8.9689569"><ele>392.0</ele><time>2026-04-09T12:28:53.999Z</time></trkpt><trkpt lat="44.5789983" lon="8.9691024"><ele>392.0</ele><time>2026-04-09T12:28:55Z</time></trkpt><trkpt lat="44.5791146" lon="8.9692583"><ele>392.0</ele><time>2026-04-09T12:28:56Z</time></trkpt><trkpt lat="44.5792257" lon="8.9694297"><ele>392.0</ele><time>2026-04-09T12:28:56.999Z</time></trkpt><trkpt lat="44.5793275" lon="8.9696128"><ele>392.0</ele><time>2026-04-09T12:28:58Z</time></trkpt><trkpt lat="44.5794167" lon="8.9698088"><ele>392.0</ele><time>2026-04-09T12:28:59Z</time></trkpt><trkpt lat="44.5794998" lon="8.9700034"><ele>392.0</ele><time>2026-04-09T12:28:59.999Z</time></trkpt><trkpt lat="44.579577" lon="8.9702007"><ele>393.66666666666663</ele><time>2026-04-09T12:29:01Z</time></trkpt><trkpt lat="44.5796474" lon="8.9703978"><ele>395.33333333333337</ele><time>2026-04-09T12:29:01.999Z</time></trkpt><trkpt lat="44.5797123" lon="8.9705965"><ele>397.0</ele><time>2026-04-09T12:29:03Z</time></trkpt><trkpt lat="44.579762" lon="8.970797"><ele>397.25</ele><time>2026-04-09T12:29:03.999Z</time></trkpt><trkpt lat="44.5798128" lon="8.9709914"><ele>397.5</ele><time>2026-04-09T12:29:05Z</time></trkpt><trkpt lat="44.5798651" lon="8.9711756"><ele>397.75</ele><time>2026-04-09T12:29:05.999Z</time></trkpt><trkpt lat="44.5799271" lon="8.971365"><ele>398.0</ele><time>2026-04-09T12:29:06.999Z</time></trkpt><trkpt lat="44.579993" lon="8.9715525"><ele>399.66666666666663</ele><time>2026-04-09T12:29:07.999Z</time></trkpt><trkpt lat="44.580066" lon="8.9717334"><ele>401.33333333333337</ele><time>2026-04-09T12:29:08.999Z</time></trkpt><trkpt lat="44.5801457" lon="8.9719166"><ele>403.0</ele><time>2026-04-09T12:29:09.999Z</time></trkpt><trkpt lat="44.5802292" lon="8.9720901"><ele>403.0</ele><time>2026-04-09T12:29:11Z</time></trkpt><trkpt lat="44.5803229" lon="8.9722638"><ele>403.0</ele><time>2026-04-09T12:29:11.999Z</time></trkpt><trkpt lat="44.5804271" lon="8.9724275"><ele>403.0</ele><time>2026-04-09T12:29:12.999Z</time></trkpt><trkpt lat="44.5805376" lon="8.9725777"><ele>402.0</ele><time>2026-04-09T12:29:14Z</time></trkpt><trkpt lat="44.5806589" lon="8.9727164"><ele>401.0</ele><time>2026-04-09T12:29:14.999Z</time></trkpt><trkpt lat="44.5807825" lon="8.9728613"><ele>400.0</ele><time>2026-04-09T12:29:15.999Z</time></trkpt><trkpt lat="44.5808996" lon="8.9730381"><ele>400.0</ele><time>2026-04-09T12:29:16.999Z</time></trkpt><trkpt lat="44.5810144" lon="8.9732125"><ele>400.0</ele><time>2026-04-09T12:29:18Z</time></trkpt><trkpt lat="44.5811171" lon="8.9733929"><ele>400.0</ele><time>2026-04-09T12:29:19Z</time></trkpt><trkpt lat="44.5812163" lon="8.9735657"><ele>399.75</ele><time>2026-04-09T12:29:19.999Z</time></trkpt><trkpt lat="44.5813083" lon="8.9737244"><ele>399.5</ele><time>2026-04-09T12:29:21Z</time></trkpt><trkpt lat="44.5813966" lon="8.9738919"><ele>399.25</ele><time>2026-04-09T12:29:21.999Z</time></trkpt><trkpt lat="44.5814899" lon="8.9740543"><ele>399.0</ele><time>2026-04-09T12:29:22.999Z</time></trkpt><trkpt lat="44.5815733" lon="8.9742247"><ele>398.5</ele><time>2026-04-09T12:29:24Z</time></trkpt><trkpt lat="44.5816499" lon="8.9744018"><ele>398.0</ele><time>2026-04-09T12:29:25Z</time></trkpt><trkpt lat="44.5817177" lon="8.9745885"><ele>397.5</ele><time>2026-04-09T12:29:25.999Z</time></trkpt><trkpt lat="44.5817727" lon="8.9747809"><ele>397.0</ele><time>2026-04-09T12:29:27Z</time></trkpt><trkpt lat="44.5818144" lon="8.9749952"><ele>398.33333333333337</ele><time>2026-04-09T12:29:27.999Z</time></trkpt><trkpt lat="44.5818521" lon="8.9752101"><ele>399.66666666666663</ele><time>2026-04-09T12:29:28.999Z</time></trkpt><trkpt lat="44.5818894" lon="8.9754248"><ele>401.0</ele><time>2026-04-09T12:29:29.999Z</time></trkpt><trkpt lat="44.5819305" lon="8.9756418"><ele>401.66666666666663</ele><time>2026-04-09T12:29:30.999Z</time></trkpt><trkpt lat="44.5819723" lon="8.9758579"><ele>402.33333333333337</ele><time>2026-04-09T12:29:32Z</time></trkpt><trkpt lat="44.582018" lon="8.9760781"><ele>403.0</ele><time>2026-04-09T12:29:32.999Z</time></trkpt><trkpt lat="44.5820597" lon="8.9762957"><ele>403.6666666666667</ele><time>2026-04-09T12:29:34Z</time></trkpt><trkpt lat="44.5821086" lon="8.9765135"><ele>404.33333333333337</ele><time>2026-04-09T12:29:35Z</time></trkpt><trkpt lat="44.5821604" lon="8.9767286"><ele>405.0</ele><time>2026-04-09T12:29:35.999Z</time></trkpt><trkpt lat="44.5822078" lon="8.9769417"><ele>405.0</ele><time>2026-04-09T12:29:36.999Z</time></trkpt><trkpt lat="44.5822462" lon="8.9771567"><ele>405.0</ele><time>2026-04-09T12:29:38Z</time></trkpt><trkpt lat="44.5822725" lon="8.9773708"><ele>405.0</ele><time>2026-04-09T12:29:38.999Z</time></trkpt><trkpt lat="44.5822951" lon="8.9775923"><ele>405.0</ele><time>2026-04-09T12:29:39.999Z</time></trkpt><trkpt lat="44.5823142" lon="8.9778104"><ele>405.0</ele><time>2026-04-09T12:29:40.999Z</time></trkpt><trkpt lat="44.5823338" lon="8.9780377"><ele>405.0</ele><time>2026-04-09T12:29:41.999Z</time></trkpt><trkpt lat="44.5823585" lon="8.9782531"><ele>405.66666666666663</ele><time>2026-04-09T12:29:43Z</time></trkpt><trkpt lat="44.5823815" lon="8.9784691"><ele>406.3333333333333</ele><time>2026-04-09T12:29:44Z</time></trkpt><trkpt lat="44.5824089" lon="8.9786729"><ele>407.0</ele><time>2026-04-09T12:29:44.999Z</time></trkpt><trkpt lat="44.5824404" lon="8.9788875"><ele>407.0</ele><time>2026-04-09T12:29:45.999Z</time></trkpt><trkpt lat="44.5824734" lon="8.9790965"><ele>407.0</ele><time>2026-04-09T12:29:46.999Z</time></trkpt><trkpt lat="44.5825073" lon="8.9793062"><ele>407.0</ele><time>2026-04-09T12:29:48Z</time></trkpt><trkpt lat="44.5825417" lon="8.979509"><ele>407.66666666666663</ele><time>2026-04-09T12:29:48.999Z</time></trkpt><trkpt lat="44.5825804" lon="8.9797228"><ele>408.33333333333337</ele><time>2026-04-09T12:29:49.999Z</time></trkpt><trkpt lat="44.5826207" lon="8.9799212"><ele>409.0</ele><time>2026-04-09T12:29:51Z</time></trkpt><trkpt lat="44.5826701" lon="8.9801195"><ele>409.0</ele><time>2026-04-09T12:29:52Z</time></trkpt><trkpt lat="44.5827285" lon="8.9803169"><ele>409.0</ele><time>2026-04-09T12:29:52.999Z</time></trkpt><trkpt lat="44.5827965" lon="8.9805083"><ele>409.0</ele><time>2026-04-09T12:29:53.999Z</time></trkpt><trkpt lat="44.5828689" lon="8.9806989"><ele>407.33333333333337</ele><time>2026-04-09T12:29:54.999Z</time></trkpt><trkpt lat="44.5829483" lon="8.9808962"><ele>405.66666666666663</ele><time>2026-04-09T12:29:56Z</time></trkpt><trkpt lat="44.5830309" lon="8.981085"><ele>404.0</ele><time>2026-04-09T12:29:56.999Z</time></trkpt><trkpt lat="44.5831201" lon="8.9812707"><ele>404.0</ele><time>2026-04-09T12:29:58Z</time></trkpt><trkpt lat="44.5832139" lon="8.9814482"><ele>404.0</ele><time>2026-04-09T12:29:59.109Z</time></trkpt><trkpt lat="44.5834065" lon="8.9817976"><ele>406.3333333333333</ele><time>2026-04-09T12:30:00.999Z</time></trkpt><trkpt lat="44.583503" lon="8.9819823"><ele>408.66666666666663</ele><time>2026-04-09T12:30:01.999Z</time></trkpt><trkpt lat="44.583592" lon="8.9821747"><ele>411.0</ele><time>2026-04-09T12:30:02.999Z</time></trkpt><trkpt lat="44.5836768" lon="8.9823653"><ele>412.66666666666663</ele><time>2026-04-09T12:30:03.999Z</time></trkpt><trkpt lat="44.5837591" lon="8.9825511"><ele>414.3333333333333</ele><time>2026-04-09T12:30:05Z</time></trkpt><trkpt lat="44.58384" lon="8.9827313"><ele>416.0</ele><time>2026-04-09T12:30:05.999Z</time></trkpt><trkpt lat="44.5839213" lon="8.9829187"><ele>416.0</ele><time>2026-04-09T12:30:06.999Z</time></trkpt><trkpt lat="44.5840031" lon="8.9830956"><ele>416.0</ele><time>2026-04-09T12:30:07.999Z</time></trkpt><trkpt lat="44.5840872" lon="8.9832676"><ele>416.0</ele><time>2026-04-09T12:30:08.999Z</time></trkpt><trkpt lat="44.5841944" lon="8.9834142"><ele>416.0</ele><time>2026-04-09T12:30:09.999Z</time></trkpt><trkpt lat="44.5843095" lon="8.9835576"><ele>416.66666666666663</ele><time>2026-04-09T12:30:10.999Z</time></trkpt><trkpt lat="44.5844358" lon="8.9836734"><ele>417.33333333333337</ele><time>2026-04-09T12:30:12Z</time></trkpt><trkpt lat="44.5845627" lon="8.9837823"><ele>418.0</ele><time>2026-04-09T12:30:12.999Z</time></trkpt><trkpt lat="44.5846835" lon="8.9839237"><ele>418.33333333333337</ele><time>2026-04-09T12:30:13.999Z</time></trkpt><trkpt lat="44.5847983" lon="8.9840558"><ele>418.66666666666663</ele><time>2026-04-09T12:30:15Z</time></trkpt><trkpt lat="44.5849014" lon="8.9842223"><ele>419.0</ele><time>2026-04-09T12:30:15.999Z</time></trkpt><trkpt lat="44.5849983" lon="8.9843929"><ele>417.66666666666663</ele><time>2026-04-09T12:30:17Z</time></trkpt><trkpt lat="44.5850907" lon="8.9845669"><ele>416.33333333333337</ele><time>2026-04-09T12:30:18Z</time></trkpt><trkpt lat="44.5851825" lon="8.9847393"><ele>415.0</ele><time>2026-04-09T12:30:19Z</time></trkpt><trkpt lat="44.5852713" lon="8.9849315"><ele>415.6666666666667</ele><time>2026-04-09T12:30:20Z</time></trkpt><trkpt lat="44.5853449" lon="8.9851255"><ele>416.33333333333337</ele><time>2026-04-09T12:30:21Z</time></trkpt><trkpt lat="44.585411" lon="8.9853304"><ele>417.0</ele><time>2026-04-09T12:30:22Z</time></trkpt><trkpt lat="44.5854746" lon="8.9855343"><ele>416.75</ele><time>2026-04-09T12:30:23Z</time></trkpt><trkpt lat="44.5855393" lon="8.985729"><ele>416.5</ele><time>2026-04-09T12:30:23.999Z</time></trkpt><trkpt lat="44.5856076" lon="8.9859118"><ele>416.25</ele><time>2026-04-09T12:30:25Z</time></trkpt><trkpt lat="44.5856781" lon="8.9860955"><ele>416.0</ele><time>2026-04-09T12:30:25.999Z</time></trkpt><trkpt lat="44.5857629" lon="8.9862703"><ele>416.0</ele><time>2026-04-09T12:30:26.999Z</time></trkpt><trkpt lat="44.5858541" lon="8.9864456"><ele>416.0</ele><time>2026-04-09T12:30:28Z</time></trkpt><trkpt lat="44.5859542" lon="8.9866176"><ele>416.0</ele><time>2026-04-09T12:30:29Z</time></trkpt><trkpt lat="44.5860539" lon="8.9867907"><ele>416.3333333333333</ele><time>2026-04-09T12:30:29.999Z</time></trkpt><trkpt lat="44.5861458" lon="8.9869878"><ele>416.66666666666663</ele><time>2026-04-09T12:30:31Z</time></trkpt><trkpt lat="44.5862321" lon="8.9871885"><ele>417.0</ele><time>2026-04-09T12:30:31.999Z</time></trkpt><trkpt lat="44.5863171" lon="8.9873885"><ele>417.33333333333337</ele><time>2026-04-09T12:30:33Z</time></trkpt><trkpt lat="44.5863997" lon="8.9875841"><ele>417.6666666666667</ele><time>2026-04-09T12:30:33.999Z</time></trkpt><trkpt lat="44.5864745" lon="8.9877753"><ele>418.0</ele><time>2026-04-09T12:30:35Z</time></trkpt><trkpt lat="44.5865476" lon="8.9879551"><ele>418.0</ele><time>2026-04-09T12:30:35.999Z</time></trkpt><trkpt lat="44.5866218" lon="8.9881303"><ele>418.0</ele><time>2026-04-09T12:30:36.999Z</time></trkpt><trkpt lat="44.5866996" lon="8.9883073"><ele>418.0</ele><time>2026-04-09T12:30:37.999Z</time></trkpt><trkpt lat="44.5867841" lon="8.9884729"><ele>418.0</ele><time>2026-04-09T12:30:38.999Z</time></trkpt><trkpt lat="44.586883" lon="8.9886015"><ele>418.5</ele><time>2026-04-09T12:30:40Z</time></trkpt><trkpt lat="44.586983" lon="8.9887301"><ele>419.0</ele><time>2026-04-09T12:30:40.999Z</time></trkpt><trkpt lat="44.5870901" lon="8.9888272"><ele>419.5</ele><time>2026-04-09T12:30:42Z</time></trkpt><trkpt lat="44.5872003" lon="8.988909"><ele>420.0</ele><time>2026-04-09T12:30:42.999Z</time></trkpt><trkpt lat="44.5873501" lon="8.9889072"><ele>420.5</ele><time>2026-04-09T12:30:44Z</time></trkpt><trkpt lat="44.5874738" lon="8.9889586"><ele>421.0</ele><time>2026-04-09T12:30:45Z</time></trkpt><trkpt lat="44.5875777" lon="8.9890492"><ele>421.5</ele><time>2026-04-09T12:30:45.999Z</time></trkpt><trkpt lat="44.5876704" lon="8.9891531"><ele>422.0</ele><time>2026-04-09T12:30:47Z</time></trkpt><trkpt lat="44.5877441" lon="8.9892926"><ele>423.0</ele><time>2026-04-09T12:30:48Z</time></trkpt><trkpt lat="44.5878257" lon="8.9894285"><ele>424.0</ele><time>2026-04-09T12:30:48.999Z</time></trkpt><trkpt lat="44.5879218" lon="8.9895516"><ele>425.0</ele><time>2026-04-09T12:30:49.999Z</time></trkpt><trkpt lat="44.5880311" lon="8.9896475"><ele>426.0</ele><time>2026-04-09T12:30:50.999Z</time></trkpt><trkpt lat="44.5881439" lon="8.9897468"><ele>426.0</ele><time>2026-04-09T12:30:52Z</time></trkpt><trkpt lat="44.5882544" lon="8.9898404"><ele>426.0</ele><time>2026-04-09T12:30:52.999Z</time></trkpt><trkpt lat="44.5883675" lon="8.9899476"><ele>426.0</ele><time>2026-04-09T12:30:53.999Z</time></trkpt><trkpt lat="44.588486" lon="8.9900616"><ele>426.0</ele><time>2026-04-09T12:30:55Z</time></trkpt><trkpt lat="44.5885914" lon="8.9901581"><ele>429.4</ele><time>2026-04-09T12:30:55.999Z</time></trkpt><trkpt lat="44.5886952" lon="8.9902529"><ele>432.8</ele><time>2026-04-09T12:30:57Z</time></trkpt><trkpt lat="44.5887868" lon="8.9903389"><ele>436.19999999999993</ele><time>2026-04-09T12:30:57.999Z</time></trkpt><trkpt lat="44.5888733" lon="8.9904184"><ele>439.59999999999997</ele><time>2026-04-09T12:30:59Z</time></trkpt><trkpt lat="44.5889339" lon="8.9905095"><ele>443.0</ele><time>2026-04-09T12:31:00Z</time></trkpt><trkpt lat="44.5889693" lon="8.9906119"><ele>443.0</ele><time>2026-04-09T12:31:01Z</time></trkpt><trkpt lat="44.5889471" lon="8.9908042"><ele>442.99999999999994</ele><time>2026-04-09T12:31:03Z</time></trkpt><trkpt lat="44.5888996" lon="8.9908825"><ele>442.99999999999994</ele><time>2026-04-09T12:31:04Z</time></trkpt><trkpt lat="44.5888277" lon="8.9909272"><ele>443.0</ele><time>2026-04-09T12:31:05Z</time></trkpt><trkpt lat="44.5887436" lon="8.990918"><ele>443.0</ele><time>2026-04-09T12:31:06Z</time></trkpt><trkpt lat="44.5886595" lon="8.9908975"><ele>444.4</ele><time>2026-04-09T12:31:07Z</time></trkpt><trkpt lat="44.5885699" lon="8.9908609"><ele>445.79999999999995</ele><time>2026-04-09T12:31:07.999Z</time></trkpt><trkpt lat="44.5884751" lon="8.9908473"><ele>447.2</ele><time>2026-04-09T12:31:08.999Z</time></trkpt><trkpt lat="44.5883731" lon="8.9908523"><ele>448.6</ele><time>2026-04-09T12:31:10Z</time></trkpt><trkpt lat="44.5882679" lon="8.9908774"><ele>450.0</ele><time>2026-04-09T12:31:10.999Z</time></trkpt><trkpt lat="44.588166" lon="8.9909492"><ele>450.0</ele><time>2026-04-09T12:31:12Z</time></trkpt><trkpt lat="44.5880705" lon="8.9910012"><ele>450.0</ele><time>2026-04-09T12:31:12.999Z</time></trkpt><trkpt lat="44.5879738" lon="8.9910544"><ele>450.0</ele><time>2026-04-09T12:31:14Z</time></trkpt><trkpt lat="44.587875" lon="8.991103"><ele>450.0</ele><time>2026-04-09T12:31:15Z</time></trkpt><trkpt lat="44.5877812" lon="8.9911478"><ele>450.0</ele><time>2026-04-09T12:31:15.999Z</time></trkpt><trkpt lat="44.5876829" lon="8.9911934"><ele>449.6</ele><time>2026-04-09T12:31:16.999Z</time></trkpt><trkpt lat="44.5875866" lon="8.991254"><ele>449.2</ele><time>2026-04-09T12:31:17.999Z</time></trkpt><trkpt lat="44.5874914" lon="8.991331"><ele>448.79999999999995</ele><time>2026-04-09T12:31:19Z</time></trkpt><trkpt lat="44.5874033" lon="8.9914085"><ele>448.4</ele><time>2026-04-09T12:31:19.999Z</time></trkpt><trkpt lat="44.5873285" lon="8.9915064"><ele>448.0</ele><time>2026-04-09T12:31:20.999Z</time></trkpt><trkpt lat="44.5872466" lon="8.9915994"><ele>448.2</ele><time>2026-04-09T12:31:21.999Z</time></trkpt><trkpt lat="44.5871727" lon="8.9916966"><ele>448.4</ele><time>2026-04-09T12:31:22.999Z</time></trkpt><trkpt lat="44.5871" lon="8.9917949"><ele>448.59999999999997</ele><time>2026-04-09T12:31:24Z</time></trkpt><trkpt lat="44.5870224" lon="8.9918994"><ele>448.79999999999995</ele><time>2026-04-09T12:31:24.999Z</time></trkpt><trkpt lat="44.5869476" lon="8.9919929"><ele>449.0</ele><time>2026-04-09T12:31:25.999Z</time></trkpt><trkpt lat="44.5868701" lon="8.9920858"><ele>449.0</ele><time>2026-04-09T12:31:26.999Z</time></trkpt><trkpt lat="44.5867946" lon="8.9921749"><ele>449.0</ele><time>2026-04-09T12:31:28Z</time></trkpt><trkpt lat="44.5867223" lon="8.9922647"><ele>449.0</ele><time>2026-04-09T12:31:29Z</time></trkpt><trkpt lat="44.5866499" lon="8.9923552"><ele>449.0</ele><time>2026-04-09T12:31:30Z</time></trkpt><trkpt lat="44.5865901" lon="8.992443"><ele>449.0</ele><time>2026-04-09T12:31:31Z</time></trkpt><trkpt lat="44.586539" lon="8.9925341"><ele>449.8333333333333</ele><time>2026-04-09T12:31:32Z</time></trkpt><trkpt lat="44.5865034" lon="8.9926351"><ele>450.66666666666663</ele><time>2026-04-09T12:31:32.999Z</time></trkpt><trkpt lat="44.586491" lon="8.992749"><ele>451.5</ele><time>2026-04-09T12:31:33.999Z</time></trkpt><trkpt lat="44.5864897" lon="8.9928793"><ele>452.33333333333337</ele><time>2026-04-09T12:31:34.999Z</time></trkpt><trkpt lat="44.5865007" lon="8.9929983"><ele>453.1666666666667</ele><time>2026-04-09T12:31:36Z</time></trkpt><trkpt lat="44.5865033" lon="8.9931156"><ele>454.0</ele><time>2026-04-09T12:31:37Z</time></trkpt><trkpt lat="44.5865063" lon="8.9932337"><ele>454.6</ele><time>2026-04-09T12:31:38Z</time></trkpt><trkpt lat="44.5865172" lon="8.9933561"><ele>455.2</ele><time>2026-04-09T12:31:38.999Z</time></trkpt><trkpt lat="44.5865473" lon="8.993482"><ele>455.80000000000007</ele><time>2026-04-09T12:31:40Z</time></trkpt><trkpt lat="44.586576" lon="8.9936136"><ele>456.40000000000003</ele><time>2026-04-09T12:31:40.999Z</time></trkpt><trkpt lat="44.5866023" lon="8.9937381"><ele>457.0</ele><time>2026-04-09T12:31:41.999Z</time></trkpt><trkpt lat="44.5866145" lon="8.9938753"><ele>457.0</ele><time>2026-04-09T12:31:43Z</time></trkpt><trkpt lat="44.5866148" lon="8.9940122"><ele>457.00000000000006</ele><time>2026-04-09T12:31:44Z</time></trkpt><trkpt lat="44.5866039" lon="8.994148"><ele>457.00000000000006</ele><time>2026-04-09T12:31:45Z</time></trkpt><trkpt lat="44.586588" lon="8.9942929"><ele>457.0</ele><time>2026-04-09T12:31:45.999Z</time></trkpt><trkpt lat="44.5865679" lon="8.9944019"><ele>457.0</ele><time>2026-04-09T12:31:47Z</time></trkpt><trkpt lat="44.5865639" lon="8.9945367"><ele>456.83333333333337</ele><time>2026-04-09T12:31:47.999Z</time></trkpt><trkpt lat="44.586589" lon="8.9946518"><ele>456.6666666666667</ele><time>2026-04-09T12:31:48.999Z</time></trkpt><trkpt lat="44.5866235" lon="8.9947808"><ele>456.5</ele><time>2026-04-09T12:31:50Z</time></trkpt><trkpt lat="44.5866643" lon="8.9948911"><ele>456.33333333333337</ele><time>2026-04-09T12:31:50.999Z</time></trkpt><trkpt lat="44.586713" lon="8.9949905"><ele>456.1666666666667</ele><time>2026-04-09T12:31:51.999Z</time></trkpt><trkpt lat="44.5867606" lon="8.9950934"><ele>456.0</ele><time>2026-04-09T12:31:53Z</time></trkpt><trkpt lat="44.5867959" lon="8.9951923"><ele>455.6666666666667</ele><time>2026-04-09T12:31:53.999Z</time></trkpt><trkpt lat="44.5868164" lon="8.9952958"><ele>455.33333333333337</ele><time>2026-04-09T12:31:55Z</time></trkpt><trkpt lat="44.5868336" lon="8.9953996"><ele>455.0</ele><time>2026-04-09T12:31:55.999Z</time></trkpt><trkpt lat="44.5868404" lon="8.9955355"><ele>454.6666666666667</ele><time>2026-04-09T12:31:57Z</time></trkpt><trkpt lat="44.5868568" lon="8.99565"><ele>454.33333333333337</ele><time>2026-04-09T12:31:58Z</time></trkpt><trkpt lat="44.5868557" lon="8.9957517"><ele>454.0</ele><time>2026-04-09T12:31:59Z</time></trkpt><trkpt lat="44.5868392" lon="8.9958454"><ele>457.50000000000006</ele><time>2026-04-09T12:31:59.999Z</time></trkpt><trkpt lat="44.5868057" lon="8.9959624"><ele>461.0</ele><time>2026-04-09T12:32:00.999Z</time></trkpt><trkpt lat="44.5867613" lon="8.9960721"><ele>464.5</ele><time>2026-04-09T12:32:01.999Z</time></trkpt><trkpt lat="44.5867212" lon="8.9961839"><ele>468.0</ele><time>2026-04-09T12:32:02.999Z</time></trkpt><trkpt lat="44.586689" lon="8.9963021"><ele>471.50000000000006</ele><time>2026-04-09T12:32:03.999Z</time></trkpt><trkpt lat="44.5866659" lon="8.9964202"><ele>475.0</ele><time>2026-04-09T12:32:04.999Z</time></trkpt><trkpt lat="44.5866444" lon="8.9965444"><ele>475.00000000000006</ele><time>2026-04-09T12:32:05.999Z</time></trkpt><trkpt lat="44.5866239" lon="8.9966634"><ele>475.0</ele><time>2026-04-09T12:32:07Z</time></trkpt><trkpt lat="44.5866084" lon="8.996785"><ele>475.0</ele><time>2026-04-09T12:32:08Z</time></trkpt><trkpt lat="44.5865926" lon="8.9969053"><ele>475.0</ele><time>2026-04-09T12:32:09Z</time></trkpt><trkpt lat="44.5865686" lon="8.9970254"><ele>475.00000000000006</ele><time>2026-04-09T12:32:09.999Z</time></trkpt><trkpt lat="44.5865334" lon="8.9971358"><ele>475.0</ele><time>2026-04-09T12:32:11Z</time></trkpt><trkpt lat="44.5864879" lon="8.9972273"><ele>478.00000000000006</ele><time>2026-04-09T12:32:11.999Z</time></trkpt><trkpt lat="44.5864248" lon="8.9973052"><ele>481.0</ele><time>2026-04-09T12:32:13Z</time></trkpt><trkpt lat="44.5863722" lon="8.9973693"><ele>484.0</ele><time>2026-04-09T12:32:14Z</time></trkpt><trkpt lat="44.5863107" lon="8.9974345"><ele>487.0</ele><time>2026-04-09T12:32:15.125Z</time></trkpt><trkpt lat="44.5862612" lon="8.9975025"><ele>490.00000000000006</ele><time>2026-04-09T12:32:16.142Z</time></trkpt><trkpt lat="44.5861981" lon="8.9976698"><ele>493.0</ele><time>2026-04-09T12:32:18Z</time></trkpt><trkpt lat="44.5861886" lon="8.997764"><ele>493.4</ele><time>2026-04-09T12:32:19.101Z</time></trkpt><trkpt lat="44.5861834" lon="8.997882"><ele>493.79999999999995</ele><time>2026-04-09T12:32:20.107Z</time></trkpt><trkpt lat="44.5862083" lon="8.9979736"><ele>494.2</ele><time>2026-04-09T12:32:21.129Z</time></trkpt><trkpt lat="44.5862728" lon="8.9981673"><ele>494.6</ele><time>2026-04-09T12:32:22.999Z</time></trkpt><trkpt lat="44.586311" lon="8.9982572"><ele>495.0</ele><time>2026-04-09T12:32:24.113Z</time></trkpt><trkpt lat="44.5863475" lon="8.9983529"><ele>493.0</ele><time>2026-04-09T12:32:25.101Z</time></trkpt><trkpt lat="44.5863844" lon="8.9984435"><ele>491.0</ele><time>2026-04-09T12:32:26.131Z</time></trkpt><trkpt lat="44.5864156" lon="8.998583"><ele>489.0</ele><time>2026-04-09T12:32:28Z</time></trkpt><trkpt lat="44.5863741" lon="8.9986882"><ele>487.0</ele><time>2026-04-09T12:32:55Z</time></trkpt><trkpt lat="44.5863865" lon="8.9987778"><ele>485.0</ele><time>2026-04-09T12:36:31.999Z</time></trkpt><trkpt lat="44.5863439" lon="8.9989629"><ele>485.0</ele><time>2026-04-09T12:36:34Z</time></trkpt><trkpt lat="44.5862865" lon="8.9990444"><ele>485.0</ele><time>2026-04-09T12:36:35Z</time></trkpt><trkpt lat="44.5862173" lon="8.9991224"><ele>485.0</ele><time>2026-04-09T12:36:35.999Z</time></trkpt><trkpt lat="44.5861536" lon="8.9992044"><ele>485.0</ele><time>2026-04-09T12:36:37Z</time></trkpt><trkpt lat="44.5860804" lon="8.9992861"><ele>485.0</ele><time>2026-04-09T12:36:38Z</time></trkpt><trkpt lat="44.5860027" lon="8.9993782"><ele>482.2</ele><time>2026-04-09T12:36:38.999Z</time></trkpt><trkpt lat="44.5859315" lon="8.9994672"><ele>479.4</ele><time>2026-04-09T12:36:40Z</time></trkpt><trkpt lat="44.5858704" lon="8.9995657"><ele>476.6</ele><time>2026-04-09T12:36:40.999Z</time></trkpt><trkpt lat="44.5858283" lon="8.9996761"><ele>473.8</ele><time>2026-04-09T12:36:42Z</time></trkpt><trkpt lat="44.5858462" lon="8.9998026"><ele>471.0</ele><time>2026-04-09T12:36:42.999Z</time></trkpt><trkpt lat="44.5858712" lon="8.9999324"><ele>471.0</ele><time>2026-04-09T12:36:43.999Z</time></trkpt><trkpt lat="44.585909" lon="9.0000565"><ele>471.0</ele><time>2026-04-09T12:36:44.999Z</time></trkpt><trkpt lat="44.5859402" lon="9.0001955"><ele>471.0</ele><time>2026-04-09T12:36:45.999Z</time></trkpt><trkpt lat="44.5859673" lon="9.0003344"><ele>471.0</ele><time>2026-04-09T12:36:46.999Z</time></trkpt><trkpt lat="44.5859862" lon="9.0004777"><ele>471.0</ele><time>2026-04-09T12:36:47.999Z</time></trkpt><trkpt lat="44.5859976" lon="9.0006201"><ele>471.0</ele><time>2026-04-09T12:36:48.999Z</time></trkpt><trkpt lat="44.5860106" lon="9.000771"><ele>471.0</ele><time>2026-04-09T12:36:49.999Z</time></trkpt><trkpt lat="44.5860221" lon="9.0009237"><ele>471.0</ele><time>2026-04-09T12:36:50.999Z</time></trkpt><trkpt lat="44.586041" lon="9.0010695"><ele>471.0</ele><time>2026-04-09T12:36:51.999Z</time></trkpt><trkpt lat="44.5860534" lon="9.0012185"><ele>471.0</ele><time>2026-04-09T12:36:52.999Z</time></trkpt><trkpt lat="44.5860562" lon="9.0013813"><ele>471.75</ele><time>2026-04-09T12:36:54Z</time></trkpt><trkpt lat="44.5860502" lon="9.0015286"><ele>472.5</ele><time>2026-04-09T12:36:54.999Z</time></trkpt><trkpt lat="44.5860249" lon="9.001674"><ele>473.25</ele><time>2026-04-09T12:36:55.999Z</time></trkpt><trkpt lat="44.5859836" lon="9.0018209"><ele>474.0</ele><time>2026-04-09T12:36:56.999Z</time></trkpt><trkpt lat="44.5859244" lon="9.0019795"><ele>475.0</ele><time>2026-04-09T12:36:58Z</time></trkpt><trkpt lat="44.58587" lon="9.0021303"><ele>476.0</ele><time>2026-04-09T12:36:59Z</time></trkpt><trkpt lat="44.5858185" lon="9.0022564"><ele>477.0</ele><time>2026-04-09T12:37:00Z</time></trkpt><trkpt lat="44.585771" lon="9.0023694"><ele>478.0</ele><time>2026-04-09T12:37:01Z</time></trkpt><trkpt lat="44.585734" lon="9.0024976"><ele>479.0</ele><time>2026-04-09T12:37:02Z</time></trkpt><trkpt lat="44.5857297" lon="9.00261"><ele>480.8333333333333</ele><time>2026-04-09T12:37:02.999Z</time></trkpt><trkpt lat="44.5857576" lon="9.002732"><ele>482.66666666666663</ele><time>2026-04-09T12:37:04Z</time></trkpt><trkpt lat="44.5857898" lon="9.0028561"><ele>484.5</ele><time>2026-04-09T12:37:05Z</time></trkpt><trkpt lat="44.5858182" lon="9.0029563"><ele>486.33333333333337</ele><time>2026-04-09T12:37:05.999Z</time></trkpt><trkpt lat="44.5858359" lon="9.0030558"><ele>488.1666666666667</ele><time>2026-04-09T12:37:07Z</time></trkpt><trkpt lat="44.5857884" lon="9.0031888"><ele>490.0</ele><time>2026-04-09T12:37:08.999Z</time></trkpt><trkpt lat="44.5857107" lon="9.0031774"><ele>490.0</ele><time>2026-04-09T12:37:11Z</time></trkpt><trkpt lat="44.5856603" lon="9.0030089"><ele>490.0</ele><time>2026-04-09T12:37:13Z</time></trkpt><trkpt lat="44.5855922" lon="9.0028847"><ele>490.0</ele><time>2026-04-09T12:37:14Z</time></trkpt><trkpt lat="44.5855593" lon="9.0028048"><ele>490.0</ele><time>2026-04-09T12:37:15Z</time></trkpt><trkpt lat="44.5854959" lon="9.002848"><ele>490.0</ele><time>2026-04-09T12:37:16Z</time></trkpt><trkpt lat="44.5854331" lon="9.0028993"><ele>490.00000000000006</ele><time>2026-04-09T12:37:16.999Z</time></trkpt><trkpt lat="44.5853607" lon="9.0029615"><ele>490.0</ele><time>2026-04-09T12:37:18Z</time></trkpt><trkpt lat="44.5852671" lon="9.0030004"><ele>490.0</ele><time>2026-04-09T12:37:19Z</time></trkpt><trkpt lat="44.5851718" lon="9.0030149"><ele>490.0</ele><time>2026-04-09T12:37:20Z</time></trkpt><trkpt lat="44.5850871" lon="9.0030221"><ele>490.00000000000006</ele><time>2026-04-09T12:37:20.999Z</time></trkpt><trkpt lat="44.5850096" lon="9.0030545"><ele>490.0</ele><time>2026-04-09T12:37:21.999Z</time></trkpt><trkpt lat="44.5849496" lon="9.0031159"><ele>489.00000000000006</ele><time>2026-04-09T12:37:22.999Z</time></trkpt><trkpt lat="44.5849087" lon="9.0031924"><ele>488.0</ele><time>2026-04-09T12:37:23.999Z</time></trkpt><trkpt lat="44.5848966" lon="9.0032799"><ele>487.0</ele><time>2026-04-09T12:37:25Z</time></trkpt><trkpt lat="44.5849067" lon="9.0034023"><ele>486.0</ele><time>2026-04-09T12:37:26Z</time></trkpt><trkpt lat="44.5849176" lon="9.003539"><ele>485.00000000000006</ele><time>2026-04-09T12:37:27Z</time></trkpt><trkpt lat="44.5849147" lon="9.0036568"><ele>484.0</ele><time>2026-04-09T12:37:28Z</time></trkpt><trkpt lat="44.5848921" lon="9.0037669"><ele>487.83333333333337</ele><time>2026-04-09T12:37:28.999Z</time></trkpt><trkpt lat="44.5848334" lon="9.0038378"><ele>491.6666666666667</ele><time>2026-04-09T12:37:30Z</time></trkpt><trkpt lat="44.5847676" lon="9.0039056"><ele>495.5</ele><time>2026-04-09T12:37:31Z</time></trkpt><trkpt lat="44.5847038" lon="9.0039858"><ele>499.33333333333337</ele><time>2026-04-09T12:37:31.999Z</time></trkpt><trkpt lat="44.5846347" lon="9.0040864"><ele>503.1666666666667</ele><time>2026-04-09T12:37:32.999Z</time></trkpt><trkpt lat="44.5845676" lon="9.0041916"><ele>507.0</ele><time>2026-04-09T12:37:34Z</time></trkpt><trkpt lat="44.5845066" lon="9.0042808"><ele>507.20000000000005</ele><time>2026-04-09T12:37:35Z</time></trkpt><trkpt lat="44.584447" lon="9.0043836"><ele>507.40000000000003</ele><time>2026-04-09T12:37:35.999Z</time></trkpt><trkpt lat="44.5843867" lon="9.0044787"><ele>507.59999999999997</ele><time>2026-04-09T12:37:37Z</time></trkpt><trkpt lat="44.5843461" lon="9.0045915"><ele>507.79999999999995</ele><time>2026-04-09T12:37:38Z</time></trkpt><trkpt lat="44.5843222" lon="9.0047096"><ele>508.0</ele><time>2026-04-09T12:37:38.999Z</time></trkpt><trkpt lat="44.5843117" lon="9.0048361"><ele>508.0</ele><time>2026-04-09T12:37:40Z</time></trkpt><trkpt lat="44.5843092" lon="9.0049835"><ele>507.99999999999994</ele><time>2026-04-09T12:37:40.999Z</time></trkpt><trkpt lat="44.5843143" lon="9.0051236"><ele>507.99999999999994</ele><time>2026-04-09T12:37:42Z</time></trkpt><trkpt lat="44.5843186" lon="9.0052536"><ele>508.0</ele><time>2026-04-09T12:37:43Z</time></trkpt><trkpt lat="44.5843206" lon="9.005397"><ele>508.0</ele><time>2026-04-09T12:37:44Z</time></trkpt><trkpt lat="44.5843248" lon="9.00553"><ele>513.4</ele><time>2026-04-09T12:37:45Z</time></trkpt><trkpt lat="44.5843322" lon="9.0056506"><ele>518.8</ele><time>2026-04-09T12:37:45.999Z</time></trkpt><trkpt lat="44.5843379" lon="9.0057547"><ele>524.2</ele><time>2026-04-09T12:37:46.999Z</time></trkpt><trkpt lat="44.584357" lon="9.0058464"><ele>529.6</ele><time>2026-04-09T12:37:47.999Z</time></trkpt><trkpt lat="44.5844262" lon="9.0059532"><ele>535.0</ele><time>2026-04-09T12:37:49.999Z</time></trkpt><trkpt lat="44.584537" lon="9.0058637"><ele>535.8333333333334</ele><time>2026-04-09T12:37:52Z</time></trkpt><trkpt lat="44.5845544" lon="9.0057747"><ele>536.6666666666667</ele><time>2026-04-09T12:37:52.999Z</time></trkpt><trkpt lat="44.5845564" lon="9.0056823"><ele>537.5</ele><time>2026-04-09T12:37:54Z</time></trkpt><trkpt lat="44.5845612" lon="9.0055864"><ele>538.3333333333334</ele><time>2026-04-09T12:37:55Z</time></trkpt><trkpt lat="44.5845806" lon="9.0054595"><ele>539.1666666666666</ele><time>2026-04-09T12:37:56Z</time></trkpt><trkpt lat="44.5846025" lon="9.0053314"><ele>540.0</ele><time>2026-04-09T12:37:57Z</time></trkpt><trkpt lat="44.5846224" lon="9.0051947"><ele>540.0</ele><time>2026-04-09T12:37:57.999Z</time></trkpt><trkpt lat="44.5846418" lon="9.0050614"><ele>540.0</ele><time>2026-04-09T12:37:59Z</time></trkpt><trkpt lat="44.5846651" lon="9.0049205"><ele>540.0</ele><time>2026-04-09T12:38:00Z</time></trkpt><trkpt lat="44.5847196" lon="9.0047823"><ele>540.0</ele><time>2026-04-09T12:38:00.999Z</time></trkpt><trkpt lat="44.584788" lon="9.0046721"><ele>540.0</ele><time>2026-04-09T12:38:02Z</time></trkpt><trkpt lat="44.5848616" lon="9.0045645"><ele>538.0</ele><time>2026-04-09T12:38:02.999Z</time></trkpt><trkpt lat="44.5849296" lon="9.0044905"><ele>536.0</ele><time>2026-04-09T12:38:03.999Z</time></trkpt><trkpt lat="44.5849908" lon="9.0044491"><ele>534.0</ele><time>2026-04-09T12:38:04.999Z</time></trkpt><trkpt lat="44.5850532" lon="9.0044016"><ele>532.0</ele><time>2026-04-09T12:38:06Z</time></trkpt><trkpt lat="44.5851102" lon="9.0044763"><ele>530.0</ele><time>2026-04-09T12:38:07.999Z</time></trkpt><trkpt lat="44.5851423" lon="9.0045947"><ele>528.0</ele><time>2026-04-09T12:38:10Z</time></trkpt><trkpt lat="44.5851016" lon="9.0046952"><ele>528.0</ele><time>2026-04-09T12:38:11Z</time></trkpt><trkpt lat="44.5850549" lon="9.0048406"><ele>528.0</ele><time>2026-04-09T12:38:11.999Z</time></trkpt><trkpt lat="44.585006" lon="9.0049625"><ele>528.0</ele><time>2026-04-09T12:38:13Z</time></trkpt><trkpt lat="44.5849584" lon="9.0051221"><ele>528.0</ele><time>2026-04-09T12:38:13.999Z</time></trkpt><trkpt lat="44.5849253" lon="9.0052489"><ele>528.0</ele><time>2026-04-09T12:38:14.999Z</time></trkpt><trkpt lat="44.5849039" lon="9.0053735"><ele>530.4</ele><time>2026-04-09T12:38:15.999Z</time></trkpt><trkpt lat="44.5848998" lon="9.005498"><ele>532.8</ele><time>2026-04-09T12:38:17Z</time></trkpt><trkpt lat="44.5849046" lon="9.0056282"><ele>535.2</ele><time>2026-04-09T12:38:17.999Z</time></trkpt><trkpt lat="44.5849137" lon="9.0057565"><ele>537.6</ele><time>2026-04-09T12:38:19Z</time></trkpt><trkpt lat="44.5849244" lon="9.0058652"><ele>540.0</ele><time>2026-04-09T12:38:19.999Z</time></trkpt><trkpt lat="44.5849288" lon="9.0060137"><ele>541.4</ele><time>2026-04-09T12:38:20.999Z</time></trkpt><trkpt lat="44.584936" lon="9.0061673"><ele>542.8</ele><time>2026-04-09T12:38:22Z</time></trkpt><trkpt lat="44.584943" lon="9.006309"><ele>544.2</ele><time>2026-04-09T12:38:23Z</time></trkpt><trkpt lat="44.5849438" lon="9.0064627"><ele>545.6</ele><time>2026-04-09T12:38:24Z</time></trkpt><trkpt lat="44.5849445" lon="9.0066173"><ele>547.0</ele><time>2026-04-09T12:38:24.999Z</time></trkpt><trkpt lat="44.5849411" lon="9.0067596"><ele>548.8000000000001</ele><time>2026-04-09T12:38:25.999Z</time></trkpt><trkpt lat="44.5849297" lon="9.0069102"><ele>550.6</ele><time>2026-04-09T12:38:26.999Z</time></trkpt><trkpt lat="44.584916" lon="9.0070622"><ele>552.4000000000001</ele><time>2026-04-09T12:38:27.999Z</time></trkpt><trkpt lat="44.5849063" lon="9.0072033"><ele>554.2</ele><time>2026-04-09T12:38:28.999Z</time></trkpt><trkpt lat="44.584897" lon="9.007329"><ele>556.0</ele><time>2026-04-09T12:38:29.999Z</time></trkpt><trkpt lat="44.5848887" lon="9.00747"><ele>557.4</ele><time>2026-04-09T12:38:31Z</time></trkpt><trkpt lat="44.5848808" lon="9.0075994"><ele>558.8</ele><time>2026-04-09T12:38:31.999Z</time></trkpt><trkpt lat="44.5848766" lon="9.0077325"><ele>560.1999999999999</ele><time>2026-04-09T12:38:32.999Z</time></trkpt><trkpt lat="44.5848899" lon="9.0078634"><ele>561.6</ele><time>2026-04-09T12:38:34Z</time></trkpt><trkpt lat="44.584915" lon="9.0080276"><ele>563.0</ele><time>2026-04-09T12:38:34.999Z</time></trkpt><trkpt lat="44.5849604" lon="9.0081586"><ele>563.0</ele><time>2026-04-09T12:38:36Z</time></trkpt><trkpt lat="44.585023" lon="9.0082966"><ele>563.0</ele><time>2026-04-09T12:38:36.999Z</time></trkpt><trkpt lat="44.5850905" lon="9.0084327"><ele>563.0</ele><time>2026-04-09T12:38:38Z</time></trkpt><trkpt lat="44.5851669" lon="9.0085385"><ele>563.0</ele><time>2026-04-09T12:38:39Z</time></trkpt><trkpt lat="44.5852467" lon="9.0086454"><ele>564.8</ele><time>2026-04-09T12:38:40Z</time></trkpt><trkpt lat="44.585318" lon="9.0087348"><ele>566.5999999999999</ele><time>2026-04-09T12:38:40.999Z</time></trkpt><trkpt lat="44.5853716" lon="9.0088007"><ele>568.4000000000001</ele><time>2026-04-09T12:38:42Z</time></trkpt><trkpt lat="44.5854255" lon="9.0088686"><ele>570.2</ele><time>2026-04-09T12:38:43Z</time></trkpt><trkpt lat="44.5854311" lon="9.0090515"><ele>572.0</ele><time>2026-04-09T12:38:45Z</time></trkpt><trkpt lat="44.5853884" lon="9.0091484"><ele>572.0</ele><time>2026-04-09T12:38:45.999Z</time></trkpt><trkpt lat="44.5853179" lon="9.009193"><ele>572.0</ele><time>2026-04-09T12:38:47Z</time></trkpt><trkpt lat="44.5852411" lon="9.0091969"><ele>572.0</ele><time>2026-04-09T12:38:48Z</time></trkpt><trkpt lat="44.5851715" lon="9.0091697"><ele>572.0</ele><time>2026-04-09T12:38:49Z</time></trkpt><trkpt lat="44.5851219" lon="9.0090748"><ele>572.0</ele><time>2026-04-09T12:38:49.999Z</time></trkpt><trkpt lat="44.5850684" lon="9.0089987"><ele>572.0</ele><time>2026-04-09T12:38:51Z</time></trkpt><trkpt lat="44.5850122" lon="9.0089286"><ele>572.0</ele><time>2026-04-09T12:38:52Z</time></trkpt><trkpt lat="44.5849592" lon="9.0088795"><ele>572.0</ele><time>2026-04-09T12:38:53Z</time></trkpt><trkpt lat="44.584884" lon="9.0088551"><ele>572.0</ele><time>2026-04-09T12:38:54Z</time></trkpt><trkpt lat="44.5848163" lon="9.0089735"><ele>572.0</ele><time>2026-04-09T12:38:56Z</time></trkpt><trkpt lat="44.584826" lon="9.009066"><ele>572.0</ele><time>2026-04-09T12:38:56.999Z</time></trkpt><trkpt lat="44.5848551" lon="9.0091509"><ele>572.0</ele><time>2026-04-09T12:38:57.999Z</time></trkpt><trkpt lat="44.5849211" lon="9.0091898"><ele>573.8333333333333</ele><time>2026-04-09T12:38:59Z</time></trkpt><trkpt lat="44.5849763" lon="9.0092366"><ele>575.6666666666666</ele><time>2026-04-09T12:38:59.999Z</time></trkpt><trkpt lat="44.5850145" lon="9.0093228"><ele>577.5</ele><time>2026-04-09T12:39:00.999Z</time></trkpt><trkpt lat="44.5850427" lon="9.0094299"><ele>579.3333333333334</ele><time>2026-04-09T12:39:02Z</time></trkpt><trkpt lat="44.5850577" lon="9.0095418"><ele>581.1666666666667</ele><time>2026-04-09T12:39:03Z</time></trkpt><trkpt lat="44.5850717" lon="9.0096566"><ele>583.0</ele><time>2026-04-09T12:39:04Z</time></trkpt><trkpt lat="44.5850816" lon="9.0097673"><ele>583.0</ele><time>2026-04-09T12:39:04.999Z</time></trkpt><trkpt lat="44.5850746" lon="9.0098873"><ele>583.0</ele><time>2026-04-09T12:39:06Z</time></trkpt><trkpt lat="44.5850627" lon="9.010023"><ele>583.0</ele><time>2026-04-09T12:39:06.999Z</time></trkpt><trkpt lat="44.5850475" lon="9.0101398"><ele>583.0</ele><time>2026-04-09T12:39:07.999Z</time></trkpt><trkpt lat="44.5850324" lon="9.0102627"><ele>583.0</ele><time>2026-04-09T12:39:09Z</time></trkpt><trkpt lat="44.5850165" lon="9.0103949"><ele>585.1666666666667</ele><time>2026-04-09T12:39:10Z</time></trkpt><trkpt lat="44.5850064" lon="9.0105031"><ele>587.3333333333334</ele><time>2026-04-09T12:39:10.999Z</time></trkpt><trkpt lat="44.5849972" lon="9.0106665"><ele>589.5</ele><time>2026-04-09T12:39:11.999Z</time></trkpt><trkpt lat="44.5849852" lon="9.0107838"><ele>591.6666666666666</ele><time>2026-04-09T12:39:12.999Z</time></trkpt><trkpt lat="44.5849622" lon="9.010878"><ele>593.8333333333333</ele><time>2026-04-09T12:39:14Z</time></trkpt><trkpt lat="44.5848912" lon="9.0109289"><ele>596.0</ele><time>2026-04-09T12:39:15.999Z</time></trkpt><trkpt lat="44.5848228" lon="9.0109065"><ele>596.0</ele><time>2026-04-09T12:39:17.999Z</time></trkpt><trkpt lat="44.5848556" lon="9.0108163"><ele>596.0</ele><time>2026-04-09T12:39:19Z</time></trkpt><trkpt lat="44.5848769" lon="9.0106775"><ele>596.0</ele><time>2026-04-09T12:39:21Z</time></trkpt><trkpt lat="44.5849029" lon="9.0105526"><ele>596.0</ele><time>2026-04-09T12:39:21.999Z</time></trkpt><trkpt lat="44.5848833" lon="9.0103921"><ele>596.0</ele><time>2026-04-09T12:39:24Z</time></trkpt><trkpt lat="44.5848576" lon="9.0103052"><ele>596.0</ele><time>2026-04-09T12:39:25.999Z</time></trkpt><trkpt lat="44.5848554" lon="9.010467"><ele>596.0</ele><time>2026-04-09T12:39:51Z</time></trkpt><trkpt lat="44.5848336" lon="9.010561"><ele>596.0</ele><time>2026-04-09T12:39:51.999Z</time></trkpt><trkpt lat="44.5847925" lon="9.0106853"><ele>596.0</ele><time>2026-04-09T12:39:53.999Z</time></trkpt><trkpt lat="44.5847772" lon="9.0107956"><ele>596.0</ele><time>2026-04-09T12:39:55.109Z</time></trkpt><trkpt lat="44.5848242" lon="9.0109546"><ele>596.0</ele><time>2026-04-09T12:39:56.999Z</time></trkpt><trkpt lat="44.5849288" lon="9.0109731"><ele>596.0</ele><time>2026-04-09T12:39:58.999Z</time></trkpt><trkpt lat="44.5849834" lon="9.0107635"><ele>596.0</ele><time>2026-04-09T12:40:00.999Z</time></trkpt><trkpt lat="44.5849928" lon="9.0106428"><ele>596.0</ele><time>2026-04-09T12:40:02Z</time></trkpt><trkpt lat="44.5849979" lon="9.0104935"><ele>596.0</ele><time>2026-04-09T12:40:02.999Z</time></trkpt><trkpt lat="44.5850066" lon="9.0103259"><ele>596.0</ele><time>2026-04-09T12:40:03.999Z</time></trkpt><trkpt lat="44.5850225" lon="9.0101539"><ele>596.0</ele><time>2026-04-09T12:40:04.999Z</time></trkpt><trkpt lat="44.5850436" lon="9.0099783"><ele>596.0</ele><time>2026-04-09T12:40:06.124Z</time></trkpt><trkpt lat="44.5850554" lon="9.0096382"><ele>593.4</ele><time>2026-04-09T12:40:07.999Z</time></trkpt><trkpt lat="44.585037" lon="9.0094951"><ele>590.8</ele><time>2026-04-09T12:40:09.16Z</time></trkpt><trkpt lat="44.5850065" lon="9.0093716"><ele>588.1999999999999</ele><time>2026-04-09T12:40:10.119Z</time></trkpt><trkpt lat="44.5849643" lon="9.0092699"><ele>585.6</ele><time>2026-04-09T12:40:11.14Z</time></trkpt><trkpt lat="44.5848415" lon="9.0091407"><ele>583.0</ele><time>2026-04-09T12:40:12.999Z</time></trkpt><trkpt lat="44.5847964" lon="9.0090125"><ele>583.0</ele><time>2026-04-09T12:40:15.128Z</time></trkpt><trkpt lat="44.5849308" lon="9.0089694"><ele>583.0</ele><time>2026-04-09T12:40:17.999Z</time></trkpt><trkpt lat="44.5849878" lon="9.0090149"><ele>583.0</ele><time>2026-04-09T12:40:19.157Z</time></trkpt><trkpt lat="44.58504" lon="9.0090779"><ele>583.0</ele><time>2026-04-09T12:40:20.145Z</time></trkpt><trkpt lat="44.5851124" lon="9.0091828"><ele>583.0</ele><time>2026-04-09T12:40:21.14Z</time></trkpt><trkpt lat="44.5852414" lon="9.0092837"><ele>583.0</ele><time>2026-04-09T12:40:22.999Z</time></trkpt><trkpt lat="44.5853194" lon="9.0092798"><ele>583.0</ele><time>2026-04-09T12:40:24Z</time></trkpt><trkpt lat="44.5853878" lon="9.0092415"><ele>583.0</ele><time>2026-04-09T12:40:25.165Z</time></trkpt><trkpt lat="44.5854325" lon="9.0091628"><ele>583.0</ele><time>2026-04-09T12:40:26.118Z</time></trkpt><trkpt lat="44.5854385" lon="9.0089763"><ele>583.0</ele><time>2026-04-09T12:40:28Z</time></trkpt><trkpt lat="44.5854003" lon="9.0088853"><ele>583.0</ele><time>2026-04-09T12:40:29.139Z</time></trkpt><trkpt lat="44.5853381" lon="9.0087834"><ele>580.25</ele><time>2026-04-09T12:40:30.143Z</time></trkpt><trkpt lat="44.5851908" lon="9.008568"><ele>577.5</ele><time>2026-04-09T12:40:32Z</time></trkpt><trkpt lat="44.5851095" lon="9.0084572"><ele>574.75</ele><time>2026-04-09T12:40:32.999Z</time></trkpt><trkpt lat="44.5850289" lon="9.0083476"><ele>572.0</ele><time>2026-04-09T12:40:34.115Z</time></trkpt><trkpt lat="44.5849649" lon="9.0082354"><ele>569.75</ele><time>2026-04-09T12:40:35.128Z</time></trkpt><trkpt lat="44.5848905" lon="9.0079675"><ele>567.5</ele><time>2026-04-09T12:40:37Z</time></trkpt><trkpt lat="44.5848809" lon="9.0078167"><ele>565.25</ele><time>2026-04-09T12:40:38.111Z</time></trkpt><trkpt lat="44.584888" lon="9.0076628"><ele>563.0</ele><time>2026-04-09T12:40:39.137Z</time></trkpt><trkpt lat="44.5848967" lon="9.0075107"><ele>561.25</ele><time>2026-04-09T12:40:40.128Z</time></trkpt><trkpt lat="44.5849121" lon="9.0072309"><ele>559.5</ele><time>2026-04-09T12:40:42Z</time></trkpt><trkpt lat="44.584914" lon="9.0071016"><ele>557.75</ele><time>2026-04-09T12:40:42.999Z</time></trkpt><trkpt lat="44.5849124" lon="9.00695"><ele>556.0</ele><time>2026-04-09T12:40:44.121Z</time></trkpt><trkpt lat="44.5849121" lon="9.0067851"><ele>553.75</ele><time>2026-04-09T12:40:45.109Z</time></trkpt><trkpt lat="44.5849166" lon="9.0066109"><ele>551.5</ele><time>2026-04-09T12:40:46.121Z</time></trkpt><trkpt lat="44.5849158" lon="9.0064171"><ele>549.25</ele><time>2026-04-09T12:40:46.999Z</time></trkpt><trkpt lat="44.5849104" lon="9.0062288"><ele>547.0</ele><time>2026-04-09T12:40:48Z</time></trkpt><trkpt lat="44.5849019" lon="9.006029"><ele>544.6666666666667</ele><time>2026-04-09T12:40:49.106Z</time></trkpt><trkpt lat="44.5848902" lon="9.0058279"><ele>542.3333333333334</ele><time>2026-04-09T12:40:50.119Z</time></trkpt><trkpt lat="44.584878" lon="9.0056284"><ele>540.0</ele><time>2026-04-09T12:40:51.102Z</time></trkpt><trkpt lat="44.5848992" lon="9.0052933"><ele>540.0</ele><time>2026-04-09T12:40:52.999Z</time></trkpt><trkpt lat="44.5849444" lon="9.0051292"><ele>540.0</ele><time>2026-04-09T12:40:54.143Z</time></trkpt><trkpt lat="44.5849991" lon="9.0049674"><ele>540.0</ele><time>2026-04-09T12:40:55.132Z</time></trkpt><trkpt lat="44.5850589" lon="9.004812"><ele>540.0</ele><time>2026-04-09T12:40:56.121Z</time></trkpt><trkpt lat="44.5851552" lon="9.004557"><ele>537.0</ele><time>2026-04-09T12:40:58Z</time></trkpt><trkpt lat="44.5851184" lon="9.0043366"><ele>534.0</ele><time>2026-04-09T12:41:01.123Z</time></trkpt><trkpt lat="44.5849712" lon="9.0043597"><ele>531.0</ele><time>2026-04-09T12:41:03Z</time></trkpt><trkpt lat="44.5848942" lon="9.0044267"><ele>528.0</ele><time>2026-04-09T12:41:03.999Z</time></trkpt><trkpt lat="44.5848124" lon="9.0045227"><ele>528.0</ele><time>2026-04-09T12:41:05.113Z</time></trkpt><trkpt lat="44.5847471" lon="9.0046531"><ele>528.0</ele><time>2026-04-09T12:41:06.115Z</time></trkpt><trkpt lat="44.5846298" lon="9.0049156"><ele>528.0</ele><time>2026-04-09T12:41:07.999Z</time></trkpt><trkpt lat="44.5846123" lon="9.0051057"><ele>531.0</ele><time>2026-04-09T12:41:09.136Z</time></trkpt><trkpt lat="44.5845727" lon="9.0054299"><ele>534.0</ele><time>2026-04-09T12:41:11Z</time></trkpt><trkpt lat="44.5845673" lon="9.0055774"><ele>537.0</ele><time>2026-04-09T12:41:11.999Z</time></trkpt><trkpt lat="44.5845629" lon="9.0057132"><ele>540.0</ele><time>2026-04-09T12:41:13Z</time></trkpt><trkpt lat="44.5845494" lon="9.0058398"><ele>539.0</ele><time>2026-04-09T12:41:14Z</time></trkpt><trkpt lat="44.5844599" lon="9.0059016"><ele>538.0</ele><time>2026-04-09T12:41:16.132Z</time></trkpt><trkpt lat="44.5843729" lon="9.0057913"><ele>537.0</ele><time>2026-04-09T12:41:17.999Z</time></trkpt><trkpt lat="44.5843531" lon="9.0056493"><ele>536.0</ele><time>2026-04-09T12:41:19Z</time></trkpt><trkpt lat="44.5843365" lon="9.0055379"><ele>535.0</ele><time>2026-04-09T12:41:20.113Z</time></trkpt><trkpt lat="44.5843289" lon="9.0053594"><ele>526.0</ele><time>2026-04-09T12:41:21.164Z</time></trkpt><trkpt lat="44.5843092" lon="9.0049624"><ele>517.0</ele><time>2026-04-09T12:41:23Z</time></trkpt><trkpt lat="44.5843115" lon="9.0047681"><ele>508.0</ele><time>2026-04-09T12:41:24.165Z</time></trkpt><trkpt lat="44.5843519" lon="9.0045796"><ele>507.6666666666667</ele><time>2026-04-09T12:41:25.102Z</time></trkpt><trkpt lat="44.584529" lon="9.0042638"><ele>507.33333333333337</ele><time>2026-04-09T12:41:27Z</time></trkpt><trkpt lat="44.5846388" lon="9.0041119"><ele>507.0</ele><time>2026-04-09T12:41:27.999Z</time></trkpt><trkpt lat="44.5847494" lon="9.003972"><ele>507.0</ele><time>2026-04-09T12:41:29.131Z</time></trkpt><trkpt lat="44.5848486" lon="9.0038727"><ele>507.0</ele><time>2026-04-09T12:41:30.132Z</time></trkpt><trkpt lat="44.5849415" lon="9.0036917"><ele>507.0</ele><time>2026-04-09T12:41:31.999Z</time></trkpt><trkpt lat="44.5849551" lon="9.003579"><ele>507.0</ele><time>2026-04-09T12:41:32.999Z</time></trkpt><trkpt lat="44.5849337" lon="9.0034068"><ele>502.40000000000003</ele><time>2026-04-09T12:41:34.115Z</time></trkpt><trkpt lat="44.5849276" lon="9.0032891"><ele>497.80000000000007</ele><time>2026-04-09T12:41:35.129Z</time></trkpt><trkpt lat="44.5849353" lon="9.0031712"><ele>493.2</ele><time>2026-04-09T12:41:36.127Z</time></trkpt><trkpt lat="44.5850393" lon="9.0030207"><ele>488.6</ele><time>2026-04-09T12:41:38Z</time></trkpt><trkpt lat="44.5851081" lon="9.0029756"><ele>484.0</ele><time>2026-04-09T12:41:38.999Z</time></trkpt><trkpt lat="44.5852154" lon="9.0029487"><ele>484.0</ele><time>2026-04-09T12:41:40.133Z</time></trkpt><trkpt lat="44.585313" lon="9.0028976"><ele>484.0</ele><time>2026-04-09T12:41:41.12Z</time></trkpt><trkpt lat="44.5854905" lon="9.0027649"><ele>484.0</ele><time>2026-04-09T12:41:43.157Z</time></trkpt><trkpt lat="44.5855672" lon="9.0027354"><ele>484.0</ele><time>2026-04-09T12:41:44Z</time></trkpt><trkpt lat="44.5855939" lon="9.0028951"><ele>485.2</ele><time>2026-04-09T12:41:44.999Z</time></trkpt><trkpt lat="44.5856201" lon="9.00298"><ele>486.4</ele><time>2026-04-09T12:41:46.148Z</time></trkpt><trkpt lat="44.5856612" lon="9.0031644"><ele>487.6</ele><time>2026-04-09T12:41:47.999Z</time></trkpt><trkpt lat="44.5857448" lon="9.0032702"><ele>488.8</ele><time>2026-04-09T12:41:50.12Z</time></trkpt><trkpt lat="44.5858052" lon="9.0032061"><ele>490.0</ele><time>2026-04-09T12:41:51.127Z</time></trkpt><trkpt lat="44.5858271" lon="9.003035"><ele>490.0</ele><time>2026-04-09T12:41:53Z</time></trkpt><trkpt lat="44.5858065" lon="9.0029319"><ele>490.0</ele><time>2026-04-09T12:41:54.112Z</time></trkpt><trkpt lat="44.5857534" lon="9.0028045"><ele>490.0</ele><time>2026-04-09T12:41:55.144Z</time></trkpt><trkpt lat="44.5857216" lon="9.002669"><ele>490.0</ele><time>2026-04-09T12:41:56.132Z</time></trkpt><trkpt lat="44.5857805" lon="9.0023572"><ele>487.25</ele><time>2026-04-09T12:41:58Z</time></trkpt><trkpt lat="44.5858527" lon="9.0022047"><ele>484.5</ele><time>2026-04-09T12:41:58.999Z</time></trkpt><trkpt lat="44.5859271" lon="9.0020504"><ele>481.75</ele><time>2026-04-09T12:42:00.15Z</time></trkpt><trkpt lat="44.5859944" lon="9.001883"><ele>479.0</ele><time>2026-04-09T12:42:01.144Z</time></trkpt><trkpt lat="44.5860498" lon="9.0015027"><ele>477.3333333333333</ele><time>2026-04-09T12:42:03Z</time></trkpt><trkpt lat="44.5860372" lon="9.0012895"><ele>475.66666666666663</ele><time>2026-04-09T12:42:04.118Z</time></trkpt><trkpt lat="44.5860203" lon="9.0010489"><ele>474.0</ele><time>2026-04-09T12:42:05.12Z</time></trkpt><trkpt lat="44.5860047" lon="9.0008107"><ele>472.5</ele><time>2026-04-09T12:42:06.152Z</time></trkpt><trkpt lat="44.5859518" lon="9.0003589"><ele>471.0</ele><time>2026-04-09T12:42:08Z</time></trkpt><trkpt lat="44.585919" lon="9.0001471"><ele>471.0</ele><time>2026-04-09T12:42:09.14Z</time></trkpt><trkpt lat="44.5858749" lon="8.9999525"><ele>471.0</ele><time>2026-04-09T12:42:10.1Z</time></trkpt><trkpt lat="44.5858359" lon="8.9997817"><ele>471.0</ele><time>2026-04-09T12:42:10.999Z</time></trkpt><trkpt lat="44.5858251" lon="8.9996895"><ele>471.0</ele><time>2026-04-09T12:42:11.999Z</time></trkpt><trkpt lat="44.5858419" lon="8.9995715"><ele>471.0</ele><time>2026-04-09T12:42:12.999Z</time></trkpt><trkpt lat="44.5858994" lon="8.9994575"><ele>471.0</ele><time>2026-04-09T12:42:14.149Z</time></trkpt><trkpt lat="44.5859679" lon="8.9993703"><ele>471.0</ele><time>2026-04-09T12:42:15.154Z</time></trkpt><trkpt lat="44.5860807" lon="8.9992628"><ele>471.0</ele><time>2026-04-09T12:42:16.16Z</time></trkpt><trkpt lat="44.5862574" lon="8.9990621"><ele>473.8</ele><time>2026-04-09T12:42:17.999Z</time></trkpt><trkpt lat="44.5863318" lon="8.9989612"><ele>476.6</ele><time>2026-04-09T12:42:18.999Z</time></trkpt><trkpt lat="44.586389" lon="8.9988703"><ele>479.4</ele><time>2026-04-09T12:42:20Z</time></trkpt><trkpt lat="44.5864187" lon="8.9987655"><ele>482.2</ele><time>2026-04-09T12:42:20.999Z</time></trkpt><trkpt lat="44.5864195" lon="8.9986512"><ele>485.0</ele><time>2026-04-09T12:42:22Z</time></trkpt><trkpt lat="44.5863788" lon="8.9984949"><ele>485.0</ele><time>2026-04-09T12:42:23Z</time></trkpt><trkpt lat="44.5863212" lon="8.9983525"><ele>485.0</ele><time>2026-04-09T12:42:24Z</time></trkpt><trkpt lat="44.5862616" lon="8.998206"><ele>485.0</ele><time>2026-04-09T12:42:24.999Z</time></trkpt><trkpt lat="44.5862139" lon="8.9980751"><ele>485.0</ele><time>2026-04-09T12:42:26.166Z</time></trkpt><trkpt lat="44.5861899" lon="8.997792"><ele>487.66666666666663</ele><time>2026-04-09T12:42:27.999Z</time></trkpt><trkpt lat="44.5862077" lon="8.997649"><ele>490.33333333333337</ele><time>2026-04-09T12:42:29.107Z</time></trkpt><trkpt lat="44.5863545" lon="8.997421"><ele>493.0</ele><time>2026-04-09T12:42:31.119Z</time></trkpt><trkpt lat="44.5865186" lon="8.9971843"><ele>493.0</ele><time>2026-04-09T12:42:33Z</time></trkpt><trkpt lat="44.586561" lon="8.9970415"><ele>493.0</ele><time>2026-04-09T12:42:34.132Z</time></trkpt><trkpt lat="44.5865922" lon="8.9968584"><ele>493.0</ele><time>2026-04-09T12:42:35.121Z</time></trkpt><trkpt lat="44.5866325" lon="8.9965064"><ele>488.5</ele><time>2026-04-09T12:42:37Z</time></trkpt><trkpt lat="44.5866712" lon="8.9963212"><ele>484.0</ele><time>2026-04-09T12:42:37.999Z</time></trkpt><trkpt lat="44.586726" lon="8.9961497"><ele>479.5</ele><time>2026-04-09T12:42:39.128Z</time></trkpt><trkpt lat="44.5867842" lon="8.996006"><ele>475.0</ele><time>2026-04-09T12:42:40.123Z</time></trkpt><trkpt lat="44.586828" lon="8.9958525"><ele>468.0</ele><time>2026-04-09T12:42:41.124Z</time></trkpt><trkpt lat="44.5868377" lon="8.9955114"><ele>461.0</ele><time>2026-04-09T12:42:42.999Z</time></trkpt><trkpt lat="44.5868165" lon="8.99532"><ele>454.0</ele><time>2026-04-09T12:42:44.132Z</time></trkpt><trkpt lat="44.5867766" lon="8.9951394"><ele>454.5</ele><time>2026-04-09T12:42:45.13Z</time></trkpt><trkpt lat="44.5867286" lon="8.9949996"><ele>455.0</ele><time>2026-04-09T12:42:46.124Z</time></trkpt><trkpt lat="44.5866061" lon="8.9947539"><ele>455.5</ele><time>2026-04-09T12:42:47.999Z</time></trkpt><trkpt lat="44.5865702" lon="8.994616"><ele>456.0</ele><time>2026-04-09T12:42:49Z</time></trkpt><trkpt lat="44.5865563" lon="8.9944735"><ele>456.0</ele><time>2026-04-09T12:42:50.14Z</time></trkpt><trkpt lat="44.5865697" lon="8.9943225"><ele>456.0</ele><time>2026-04-09T12:42:51.11Z</time></trkpt><trkpt lat="44.5866021" lon="8.9940067"><ele>456.0</ele><time>2026-04-09T12:42:52.999Z</time></trkpt><trkpt lat="44.5865987" lon="8.9938494"><ele>456.0</ele><time>2026-04-09T12:42:54.111Z</time></trkpt><trkpt lat="44.5865847" lon="8.9936953"><ele>456.25</ele><time>2026-04-09T12:42:55.142Z</time></trkpt><trkpt lat="44.5865576" lon="8.9935539"><ele>456.5</ele><time>2026-04-09T12:42:56.129Z</time></trkpt><trkpt lat="44.586516" lon="8.9932659"><ele>456.75</ele><time>2026-04-09T12:42:58Z</time></trkpt><trkpt lat="44.586505" lon="8.9931168"><ele>457.0</ele><time>2026-04-09T12:42:59.1Z</time></trkpt><trkpt lat="44.5864994" lon="8.9929707"><ele>456.25</ele><time>2026-04-09T12:43:00.138Z</time></trkpt><trkpt lat="44.5864912" lon="8.992828"><ele>455.5</ele><time>2026-04-09T12:43:01.128Z</time></trkpt><trkpt lat="44.5865252" lon="8.9925747"><ele>454.75</ele><time>2026-04-09T12:43:02.999Z</time></trkpt><trkpt lat="44.5865797" lon="8.9924619"><ele>454.0</ele><time>2026-04-09T12:43:04.143Z</time></trkpt><trkpt lat="44.5866532" lon="8.9923575"><ele>452.33333333333337</ele><time>2026-04-09T12:43:05.113Z</time></trkpt><trkpt lat="44.5867356" lon="8.9922537"><ele>450.66666666666663</ele><time>2026-04-09T12:43:06.147Z</time></trkpt><trkpt lat="44.5869042" lon="8.9920347"><ele>449.0</ele><time>2026-04-09T12:43:07.999Z</time></trkpt><trkpt lat="44.5869927" lon="8.9919251"><ele>448.66666666666663</ele><time>2026-04-09T12:43:09.154Z</time></trkpt><trkpt lat="44.5870825" lon="8.9918086"><ele>448.33333333333337</ele><time>2026-04-09T12:43:10.118Z</time></trkpt><trkpt lat="44.5871758" lon="8.9916822"><ele>448.0</ele><time>2026-04-09T12:43:11.147Z</time></trkpt><trkpt lat="44.587358" lon="8.9914561"><ele>448.0</ele><time>2026-04-09T12:43:13Z</time></trkpt><trkpt lat="44.5874515" lon="8.9913517"><ele>448.0</ele><time>2026-04-09T12:43:14.123Z</time></trkpt><trkpt lat="44.5875558" lon="8.9912452"><ele>448.0</ele><time>2026-04-09T12:43:15.139Z</time></trkpt><trkpt lat="44.5876491" lon="8.9911967"><ele>448.0</ele><time>2026-04-09T12:43:16.149Z</time></trkpt><trkpt lat="44.5878578" lon="8.9910956"><ele>448.5</ele><time>2026-04-09T12:43:17.999Z</time></trkpt><trkpt lat="44.5879719" lon="8.9910415"><ele>449.0</ele><time>2026-04-09T12:43:19.104Z</time></trkpt><trkpt lat="44.5880837" lon="8.990979"><ele>449.5</ele><time>2026-04-09T12:43:20.177Z</time></trkpt><trkpt lat="44.5881987" lon="8.9909178"><ele>450.0</ele><time>2026-04-09T12:43:21.117Z</time></trkpt><trkpt lat="44.5884144" lon="8.9909128"><ele>450.0</ele><time>2026-04-09T12:43:22.999Z</time></trkpt><trkpt lat="44.5885282" lon="8.9909188"><ele>450.0</ele><time>2026-04-09T12:43:24.131Z</time></trkpt><trkpt lat="44.5886403" lon="8.9909647"><ele>450.0</ele><time>2026-04-09T12:43:25.127Z</time></trkpt><trkpt lat="44.5888193" lon="8.9910071"><ele>450.0</ele><time>2026-04-09T12:43:26.999Z</time></trkpt><trkpt lat="44.5889008" lon="8.9909637"><ele>448.6</ele><time>2026-04-09T12:43:28.113Z</time></trkpt><trkpt lat="44.5889705" lon="8.9909102"><ele>447.2</ele><time>2026-04-09T12:43:29.134Z</time></trkpt><trkpt lat="44.589005" lon="8.9908283"><ele>445.79999999999995</ele><time>2026-04-09T12:43:30.133Z</time></trkpt><trkpt lat="44.5889806" lon="8.9906914"><ele>444.4</ele><time>2026-04-09T12:43:31.115Z</time></trkpt><trkpt lat="44.58893" lon="8.9904935"><ele>443.0</ele><time>2026-04-09T12:43:33Z</time></trkpt><trkpt lat="44.5888145" lon="8.9903866"><ele>443.0</ele><time>2026-04-09T12:43:34Z</time></trkpt><trkpt lat="44.5887231" lon="8.990291"><ele>443.0</ele><time>2026-04-09T12:43:35.144Z</time></trkpt><trkpt lat="44.5886107" lon="8.9901804"><ele>443.0</ele><time>2026-04-09T12:43:36.153Z</time></trkpt><trkpt lat="44.5883695" lon="8.989964"><ele>434.5</ele><time>2026-04-09T12:43:37.999Z</time></trkpt><trkpt lat="44.5882391" lon="8.9898441"><ele>426.0</ele><time>2026-04-09T12:43:39.115Z</time></trkpt><trkpt lat="44.5879869" lon="8.9895995"><ele>427.0</ele><time>2026-04-09T12:43:41.126Z</time></trkpt><trkpt lat="44.587783" lon="8.9893197"><ele>428.0</ele><time>2026-04-09T12:43:42.999Z</time></trkpt><trkpt lat="44.5876897" lon="8.9891536"><ele>429.0</ele><time>2026-04-09T12:43:44.15Z</time></trkpt><trkpt lat="44.587589" lon="8.9890196"><ele>426.66666666666663</ele><time>2026-04-09T12:43:45.122Z</time></trkpt><trkpt lat="44.5874702" lon="8.988929"><ele>424.3333333333333</ele><time>2026-04-09T12:43:46.129Z</time></trkpt><trkpt lat="44.5872005" lon="8.9888167"><ele>422.0</ele><time>2026-04-09T12:43:47.999Z</time></trkpt><trkpt lat="44.5870686" lon="8.9887553"><ele>421.3333333333333</ele><time>2026-04-09T12:43:49.107Z</time></trkpt><trkpt lat="44.5869472" lon="8.9886739"><ele>420.66666666666663</ele><time>2026-04-09T12:43:50.12Z</time></trkpt><trkpt lat="44.586827" lon="8.9885395"><ele>420.0</ele><time>2026-04-09T12:43:51.15Z</time></trkpt><trkpt lat="44.5866418" lon="8.9881868"><ele>419.33333333333337</ele><time>2026-04-09T12:43:53Z</time></trkpt><trkpt lat="44.5865547" lon="8.9879988"><ele>418.6666666666667</ele><time>2026-04-09T12:43:54.128Z</time></trkpt><trkpt lat="44.586469" lon="8.9877982"><ele>418.0</ele><time>2026-04-09T12:43:55.156Z</time></trkpt><trkpt lat="44.5863854" lon="8.9876053"><ele>417.5</ele><time>2026-04-09T12:43:56.141Z</time></trkpt><trkpt lat="44.5862246" lon="8.9872228"><ele>417.0</ele><time>2026-04-09T12:43:58Z</time></trkpt><trkpt lat="44.5861447" lon="8.9870366"><ele>417.0</ele><time>2026-04-09T12:43:59.114Z</time></trkpt><trkpt lat="44.5859511" lon="8.9866806"><ele>417.0</ele><time>2026-04-09T12:44:01Z</time></trkpt><trkpt lat="44.5858499" lon="8.986507"><ele>416.66666666666663</ele><time>2026-04-09T12:44:01.999Z</time></trkpt><trkpt lat="44.5857523" lon="8.9863293"><ele>416.3333333333333</ele><time>2026-04-09T12:44:02.999Z</time></trkpt><trkpt lat="44.5856644" lon="8.9861383"><ele>416.0</ele><time>2026-04-09T12:44:04.136Z</time></trkpt><trkpt lat="44.5855826" lon="8.9859386"><ele>418.3333333333333</ele><time>2026-04-09T12:44:05.164Z</time></trkpt><trkpt lat="44.5855077" lon="8.985738"><ele>420.66666666666663</ele><time>2026-04-09T12:44:06.149Z</time></trkpt><trkpt lat="44.5854361" lon="8.985532"><ele>423.0</ele><time>2026-04-09T12:44:06.999Z</time></trkpt><trkpt lat="44.5853667" lon="8.9853215"><ele>421.0</ele><time>2026-04-09T12:44:07.999Z</time></trkpt><trkpt lat="44.5852932" lon="8.985114"><ele>419.0</ele><time>2026-04-09T12:44:08.999Z</time></trkpt><trkpt lat="44.5852147" lon="8.9849094"><ele>417.0</ele><time>2026-04-09T12:44:10.142Z</time></trkpt><trkpt lat="44.5851256" lon="8.9847198"><ele>416.0</ele><time>2026-04-09T12:44:11.117Z</time></trkpt><trkpt lat="44.5849334" lon="8.9843583"><ele>415.0</ele><time>2026-04-09T12:44:12.999Z</time></trkpt><trkpt lat="44.5848434" lon="8.9841838"><ele>416.0</ele><time>2026-04-09T12:44:14.127Z</time></trkpt><trkpt lat="44.5847407" lon="8.9840228"><ele>417.0</ele><time>2026-04-09T12:44:15.117Z</time></trkpt><trkpt lat="44.5846256" lon="8.9838783"><ele>418.0</ele><time>2026-04-09T12:44:16.159Z</time></trkpt><trkpt lat="44.5843785" lon="8.9836392"><ele>418.0</ele><time>2026-04-09T12:44:18Z</time></trkpt><trkpt lat="44.5842626" lon="8.9835155"><ele>418.0</ele><time>2026-04-09T12:44:19Z</time></trkpt><trkpt lat="44.5841606" lon="8.9833755"><ele>418.0</ele><time>2026-04-09T12:44:20Z</time></trkpt><trkpt lat="44.5840624" lon="8.983218"><ele>418.0</ele><time>2026-04-09T12:44:21.138Z</time></trkpt><trkpt lat="44.5838817" lon="8.9828821"><ele>417.6666666666667</ele><time>2026-04-09T12:44:22.999Z</time></trkpt><trkpt lat="44.5837929" lon="8.9826872"><ele>417.33333333333337</ele><time>2026-04-09T12:44:24.115Z</time></trkpt><trkpt lat="44.5837076" lon="8.982492"><ele>417.0</ele><time>2026-04-09T12:44:25.135Z</time></trkpt><trkpt lat="44.5836139" lon="8.9822909"><ele>414.0</ele><time>2026-04-09T12:44:26.111Z</time></trkpt><trkpt lat="44.5834178" lon="8.981887"><ele>411.0</ele><time>2026-04-09T12:44:27.999Z</time></trkpt><trkpt lat="44.5833203" lon="8.9816891"><ele>408.66666666666663</ele><time>2026-04-09T12:44:29.115Z</time></trkpt><trkpt lat="44.5832139" lon="8.9814996"><ele>406.3333333333333</ele><time>2026-04-09T12:44:30.123Z</time></trkpt><trkpt lat="44.5831121" lon="8.9813106"><ele>404.0</ele><time>2026-04-09T12:44:31.145Z</time></trkpt><trkpt lat="44.5829296" lon="8.9809346"><ele>405.66666666666663</ele><time>2026-04-09T12:44:32.999Z</time></trkpt><trkpt lat="44.5828483" lon="8.9807422"><ele>407.33333333333337</ele><time>2026-04-09T12:44:33.999Z</time></trkpt><trkpt lat="44.5827767" lon="8.980557"><ele>409.0</ele><time>2026-04-09T12:44:34.999Z</time></trkpt><trkpt lat="44.5827088" lon="8.980378"><ele>409.0</ele><time>2026-04-09T12:44:36.123Z</time></trkpt><trkpt lat="44.5825931" lon="8.9800017"><ele>409.0</ele><time>2026-04-09T12:44:38Z</time></trkpt><trkpt lat="44.5825483" lon="8.9797955"><ele>409.0</ele><time>2026-04-09T12:44:39.135Z</time></trkpt><trkpt lat="44.5825127" lon="8.9795919"><ele>409.0</ele><time>2026-04-09T12:44:40.16Z</time></trkpt><trkpt lat="44.5824779" lon="8.9793746"><ele>409.0</ele><time>2026-04-09T12:44:41.122Z</time></trkpt><trkpt lat="44.5824043" lon="8.9789073"><ele>408.33333333333337</ele><time>2026-04-09T12:44:42.999Z</time></trkpt><trkpt lat="44.5823739" lon="8.9786773"><ele>407.66666666666663</ele><time>2026-04-09T12:44:44.131Z</time></trkpt><trkpt lat="44.5823427" lon="8.9784395"><ele>407.0</ele><time>2026-04-09T12:44:45.135Z</time></trkpt><trkpt lat="44.5823156" lon="8.9782149"><ele>406.3333333333333</ele><time>2026-04-09T12:44:46.154Z</time></trkpt><trkpt lat="44.5822826" lon="8.9778009"><ele>405.66666666666663</ele><time>2026-04-09T12:44:47.999Z</time></trkpt><trkpt lat="44.5822648" lon="8.9776028"><ele>405.0</ele><time>2026-04-09T12:44:48.999Z</time></trkpt><trkpt lat="44.582246" lon="8.9774078"><ele>405.0</ele><time>2026-04-09T12:44:49.999Z</time></trkpt><trkpt lat="44.582222" lon="8.977208"><ele>405.0</ele><time>2026-04-09T12:44:51Z</time></trkpt><trkpt lat="44.5821872" lon="8.9770115"><ele>405.0</ele><time>2026-04-09T12:44:51.999Z</time></trkpt><trkpt lat="44.5821436" lon="8.9768112"><ele>405.0</ele><time>2026-04-09T12:44:53Z</time></trkpt><trkpt lat="44.5821008" lon="8.9766184"><ele>404.33333333333337</ele><time>2026-04-09T12:44:54Z</time></trkpt><trkpt lat="44.5820532" lon="8.9764088"><ele>403.6666666666667</ele><time>2026-04-09T12:44:54.999Z</time></trkpt><trkpt lat="44.5820087" lon="8.9762019"><ele>403.0</ele><time>2026-04-09T12:44:55.999Z</time></trkpt><trkpt lat="44.5819638" lon="8.9759925"><ele>402.33333333333337</ele><time>2026-04-09T12:44:57Z</time></trkpt><trkpt lat="44.5819263" lon="8.9757847"><ele>401.66666666666663</ele><time>2026-04-09T12:44:57.999Z</time></trkpt><trkpt lat="44.5818831" lon="8.9755682"><ele>401.0</ele><time>2026-04-09T12:44:59Z</time></trkpt><trkpt lat="44.5818384" lon="8.9753513"><ele>401.0</ele><time>2026-04-09T12:44:59.999Z</time></trkpt><trkpt lat="44.581795" lon="8.975135"><ele>401.0</ele><time>2026-04-09T12:45:01Z</time></trkpt><trkpt lat="44.5817481" lon="8.974925"><ele>401.0</ele><time>2026-04-09T12:45:01.999Z</time></trkpt><trkpt lat="44.5817153" lon="8.9747281"><ele>400.3333333333333</ele><time>2026-04-09T12:45:03Z</time></trkpt><trkpt lat="44.5816635" lon="8.9745384"><ele>399.66666666666663</ele><time>2026-04-09T12:45:04Z</time></trkpt><trkpt lat="44.5815971" lon="8.9743458"><ele>399.0</ele><time>2026-04-09T12:45:04.999Z</time></trkpt><trkpt lat="44.5815161" lon="8.9741555"><ele>399.0</ele><time>2026-04-09T12:45:05.999Z</time></trkpt><trkpt lat="44.5814203" lon="8.9739599"><ele>399.0</ele><time>2026-04-09T12:45:07Z</time></trkpt><trkpt lat="44.581308" lon="8.97376"><ele>399.0</ele><time>2026-04-09T12:45:08Z</time></trkpt><trkpt lat="44.5811924" lon="8.9735611"><ele>399.33333333333337</ele><time>2026-04-09T12:45:09Z</time></trkpt><trkpt lat="44.5810964" lon="8.9733846"><ele>399.6666666666667</ele><time>2026-04-09T12:45:09.999Z</time></trkpt><trkpt lat="44.5810002" lon="8.9732153"><ele>400.0</ele><time>2026-04-09T12:45:11Z</time></trkpt><trkpt lat="44.5808902" lon="8.9730456"><ele>400.0</ele><time>2026-04-09T12:45:11.999Z</time></trkpt><trkpt lat="44.5807716" lon="8.9728823"><ele>400.0</ele><time>2026-04-09T12:45:13Z</time></trkpt><trkpt lat="44.5806549" lon="8.9727345"><ele>400.0</ele><time>2026-04-09T12:45:13.999Z</time></trkpt><trkpt lat="44.5805319" lon="8.9725908"><ele>400.75</ele><time>2026-04-09T12:45:14.999Z</time></trkpt><trkpt lat="44.5804249" lon="8.9724545"><ele>401.5</ele><time>2026-04-09T12:45:16Z</time></trkpt><trkpt lat="44.5803234" lon="8.9722976"><ele>402.25</ele><time>2026-04-09T12:45:16.999Z</time></trkpt><trkpt lat="44.5802321" lon="8.9721299"><ele>403.0</ele><time>2026-04-09T12:45:18Z</time></trkpt><trkpt lat="44.580149" lon="8.9719549"><ele>403.0</ele><time>2026-04-09T12:45:18.999Z</time></trkpt><trkpt lat="44.5800644" lon="8.9717621"><ele>403.0</ele><time>2026-04-09T12:45:19.999Z</time></trkpt><trkpt lat="44.5799888" lon="8.9715661"><ele>403.0</ele><time>2026-04-09T12:45:20.999Z</time></trkpt><trkpt lat="44.5799177" lon="8.9713647"><ele>401.33333333333337</ele><time>2026-04-09T12:45:21.999Z</time></trkpt><trkpt lat="44.5798506" lon="8.971158"><ele>399.66666666666663</ele><time>2026-04-09T12:45:23Z</time></trkpt><trkpt lat="44.5797936" lon="8.9709455"><ele>398.0</ele><time>2026-04-09T12:45:24Z</time></trkpt><trkpt lat="44.5797371" lon="8.9707362"><ele>397.66666666666663</ele><time>2026-04-09T12:45:24.999Z</time></trkpt><trkpt lat="44.5796753" lon="8.9705295"><ele>397.33333333333337</ele><time>2026-04-09T12:45:25.999Z</time></trkpt><trkpt lat="44.5796076" lon="8.9703331"><ele>397.0</ele><time>2026-04-09T12:45:26.999Z</time></trkpt><trkpt lat="44.5795465" lon="8.9701461"><ele>395.75</ele><time>2026-04-09T12:45:28Z</time></trkpt><trkpt lat="44.5794785" lon="8.9699587"><ele>394.5</ele><time>2026-04-09T12:45:28.999Z</time></trkpt><trkpt lat="44.5794034" lon="8.9697752"><ele>393.25</ele><time>2026-04-09T12:45:30Z</time></trkpt><trkpt lat="44.5793294" lon="8.9696014"><ele>392.0</ele><time>2026-04-09T12:45:30.999Z</time></trkpt><trkpt lat="44.5792386" lon="8.9694309"><ele>392.0</ele><time>2026-04-09T12:45:31.999Z</time></trkpt><trkpt lat="44.579137" lon="8.9692717"><ele>392.0</ele><time>2026-04-09T12:45:33Z</time></trkpt><trkpt lat="44.579027" lon="8.9691232"><ele>392.0</ele><time>2026-04-09T12:45:34Z</time></trkpt><trkpt lat="44.5789114" lon="8.9689801"><ele>392.0</ele><time>2026-04-09T12:45:34.999Z</time></trkpt><trkpt lat="44.5787872" lon="8.9688496"><ele>392.0</ele><time>2026-04-09T12:45:35.999Z</time></trkpt><trkpt lat="44.5786701" lon="8.9687144"><ele>392.0</ele><time>2026-04-09T12:45:37Z</time></trkpt><trkpt lat="44.5785466" lon="8.9685775"><ele>390.5</ele><time>2026-04-09T12:45:38Z</time></trkpt><trkpt lat="44.5784289" lon="8.9684383"><ele>389.0</ele><time>2026-04-09T12:45:39Z</time></trkpt><trkpt lat="44.578321" lon="8.9683083"><ele>387.5</ele><time>2026-04-09T12:45:39.999Z</time></trkpt><trkpt lat="44.5782108" lon="8.9681852"><ele>386.0</ele><time>2026-04-09T12:45:40.999Z</time></trkpt><trkpt lat="44.5781024" lon="8.9680494"><ele>385.75</ele><time>2026-04-09T12:45:41.999Z</time></trkpt><trkpt lat="44.5780092" lon="8.9679067"><ele>385.5</ele><time>2026-04-09T12:45:43Z</time></trkpt><trkpt lat="44.5779189" lon="8.9677514"><ele>385.25</ele><time>2026-04-09T12:45:43.999Z</time></trkpt><trkpt lat="44.5778315" lon="8.9675846"><ele>385.0</ele><time>2026-04-09T12:45:45Z</time></trkpt><trkpt lat="44.5777506" lon="8.967406"><ele>384.33333333333337</ele><time>2026-04-09T12:45:46Z</time></trkpt><trkpt lat="44.5776642" lon="8.9672256"><ele>383.6666666666667</ele><time>2026-04-09T12:45:46.999Z</time></trkpt><trkpt lat="44.5775812" lon="8.967048"><ele>383.0</ele><time>2026-04-09T12:45:47.999Z</time></trkpt><trkpt lat="44.5774955" lon="8.966865"><ele>383.6666666666667</ele><time>2026-04-09T12:45:48.999Z</time></trkpt><trkpt lat="44.5774142" lon="8.966687"><ele>384.33333333333337</ele><time>2026-04-09T12:45:50Z</time></trkpt><trkpt lat="44.5773313" lon="8.9665073"><ele>385.0</ele><time>2026-04-09T12:45:50.999Z</time></trkpt><trkpt lat="44.5772489" lon="8.9663243"><ele>385.0</ele><time>2026-04-09T12:45:51.999Z</time></trkpt><trkpt lat="44.5771689" lon="8.966146"><ele>385.0</ele><time>2026-04-09T12:45:53Z</time></trkpt><trkpt lat="44.5770843" lon="8.9659632"><ele>385.0</ele><time>2026-04-09T12:45:54Z</time></trkpt><trkpt lat="44.5769956" lon="8.9657727"><ele>384.33333333333337</ele><time>2026-04-09T12:45:54.999Z</time></trkpt><trkpt lat="44.5769162" lon="8.9655767"><ele>383.6666666666667</ele><time>2026-04-09T12:45:56Z</time></trkpt><trkpt lat="44.5768302" lon="8.9653759"><ele>383.0</ele><time>2026-04-09T12:45:56.999Z</time></trkpt><trkpt lat="44.5767524" lon="8.9651796"><ele>384.0</ele><time>2026-04-09T12:45:57.999Z</time></trkpt><trkpt lat="44.576673" lon="8.9649795"><ele>385.0</ele><time>2026-04-09T12:45:59Z</time></trkpt><trkpt lat="44.5765919" lon="8.9647819"><ele>386.0</ele><time>2026-04-09T12:46:00Z</time></trkpt><trkpt lat="44.57651" lon="8.9645834"><ele>386.0</ele><time>2026-04-09T12:46:00.999Z</time></trkpt><trkpt lat="44.5764299" lon="8.964393"><ele>386.0</ele><time>2026-04-09T12:46:01.999Z</time></trkpt><trkpt lat="44.576347" lon="8.964209"><ele>386.0</ele><time>2026-04-09T12:46:03Z</time></trkpt><trkpt lat="44.576263" lon="8.9640306"><ele>383.75</ele><time>2026-04-09T12:46:04Z</time></trkpt><trkpt lat="44.5761808" lon="8.963868"><ele>381.5</ele><time>2026-04-09T12:46:05Z</time></trkpt><trkpt lat="44.5760985" lon="8.9637189"><ele>379.25</ele><time>2026-04-09T12:46:05.999Z</time></trkpt><trkpt lat="44.5760145" lon="8.9635698"><ele>377.0</ele><time>2026-04-09T12:46:06.999Z</time></trkpt><trkpt lat="44.5759322" lon="8.9634281"><ele>377.5</ele><time>2026-04-09T12:46:07.999Z</time></trkpt><trkpt lat="44.5758562" lon="8.9632862"><ele>378.0</ele><time>2026-04-09T12:46:09Z</time></trkpt><trkpt lat="44.5757828" lon="8.9631462"><ele>378.5</ele><time>2026-04-09T12:46:10Z</time></trkpt><trkpt lat="44.5757079" lon="8.963007"><ele>379.0</ele><time>2026-04-09T12:46:11Z</time></trkpt><trkpt lat="44.5756352" lon="8.9628682"><ele>379.0</ele><time>2026-04-09T12:46:12Z</time></trkpt><trkpt lat="44.5755574" lon="8.9627302"><ele>379.0</ele><time>2026-04-09T12:46:12.999Z</time></trkpt><trkpt lat="44.5754851" lon="8.9625998"><ele>379.0</ele><time>2026-04-09T12:46:14Z</time></trkpt><trkpt lat="44.5754095" lon="8.9624707"><ele>379.0</ele><time>2026-04-09T12:46:14.999Z</time></trkpt><trkpt lat="44.575326" lon="8.9623378"><ele>377.5</ele><time>2026-04-09T12:46:16Z</time></trkpt><trkpt lat="44.5752391" lon="8.9622068"><ele>376.0</ele><time>2026-04-09T12:46:17Z</time></trkpt><trkpt lat="44.5751486" lon="8.9620811"><ele>374.5</ele><time>2026-04-09T12:46:17.999Z</time></trkpt><trkpt lat="44.5750543" lon="8.9619559"><ele>373.0</ele><time>2026-04-09T12:46:19Z</time></trkpt><trkpt lat="44.5749623" lon="8.9618334"><ele>373.0</ele><time>2026-04-09T12:46:19.999Z</time></trkpt><trkpt lat="44.574869" lon="8.9617144"><ele>373.0</ele><time>2026-04-09T12:46:20.999Z</time></trkpt><trkpt lat="44.5747752" lon="8.9615976"><ele>373.0</ele><time>2026-04-09T12:46:21.999Z</time></trkpt><trkpt lat="44.5746851" lon="8.9614932"><ele>373.0</ele><time>2026-04-09T12:46:22.999Z</time></trkpt><trkpt lat="44.5745958" lon="8.9613918"><ele>372.59999999999997</ele><time>2026-04-09T12:46:23.999Z</time></trkpt><trkpt lat="44.5745083" lon="8.9612946"><ele>372.2</ele><time>2026-04-09T12:46:25Z</time></trkpt><trkpt lat="44.5744255" lon="8.9611999"><ele>371.8</ele><time>2026-04-09T12:46:25.999Z</time></trkpt><trkpt lat="44.5743471" lon="8.9611134"><ele>371.4</ele><time>2026-04-09T12:46:27Z</time></trkpt><trkpt lat="44.5742611" lon="8.9610203"><ele>371.0</ele><time>2026-04-09T12:46:28Z</time></trkpt><trkpt lat="44.5741791" lon="8.9609272"><ele>372.0</ele><time>2026-04-09T12:46:29Z</time></trkpt><trkpt lat="44.5740932" lon="8.9608346"><ele>373.0</ele><time>2026-04-09T12:46:30Z</time></trkpt><trkpt lat="44.5740038" lon="8.9607345"><ele>374.0</ele><time>2026-04-09T12:46:30.999Z</time></trkpt><trkpt lat="44.5739158" lon="8.9606346"><ele>375.0</ele><time>2026-04-09T12:46:31.999Z</time></trkpt><trkpt lat="44.5738264" lon="8.9605334"><ele>375.0</ele><time>2026-04-09T12:46:33Z</time></trkpt><trkpt lat="44.5737342" lon="8.9604358"><ele>375.0</ele><time>2026-04-09T12:46:33.999Z</time></trkpt><trkpt lat="44.5736481" lon="8.9603384"><ele>375.0</ele><time>2026-04-09T12:46:35Z</time></trkpt><trkpt lat="44.573557" lon="8.9602439"><ele>375.0</ele><time>2026-04-09T12:46:35.999Z</time></trkpt><trkpt lat="44.5734722" lon="8.9601446"><ele>374.8</ele><time>2026-04-09T12:46:36.999Z</time></trkpt><trkpt lat="44.5733834" lon="8.9600454"><ele>374.6</ele><time>2026-04-09T12:46:37.999Z</time></trkpt><trkpt lat="44.5732947" lon="8.9599476"><ele>374.4</ele><time>2026-04-09T12:46:39Z</time></trkpt><trkpt lat="44.5732041" lon="8.959849"><ele>374.2</ele><time>2026-04-09T12:46:40Z</time></trkpt><trkpt lat="44.5731189" lon="8.9597567"><ele>374.0</ele><time>2026-04-09T12:46:40.999Z</time></trkpt><trkpt lat="44.5730246" lon="8.9596638"><ele>374.0</ele><time>2026-04-09T12:46:42Z</time></trkpt><trkpt lat="44.5729254" lon="8.9595689"><ele>374.0</ele><time>2026-04-09T12:46:43Z</time></trkpt><trkpt lat="44.5728262" lon="8.9594952"><ele>374.0</ele><time>2026-04-09T12:46:44Z</time></trkpt><trkpt lat="44.5727188" lon="8.9594056"><ele>374.0</ele><time>2026-04-09T12:46:45Z</time></trkpt><trkpt lat="44.5726197" lon="8.9593168"><ele>373.5</ele><time>2026-04-09T12:46:46Z</time></trkpt><trkpt lat="44.5725209" lon="8.959217"><ele>373.0</ele><time>2026-04-09T12:46:47Z</time></trkpt><trkpt lat="44.5724401" lon="8.9591083"><ele>372.5</ele><time>2026-04-09T12:46:48Z</time></trkpt><trkpt lat="44.5723606" lon="8.9589876"><ele>372.0</ele><time>2026-04-09T12:46:49Z</time></trkpt><trkpt lat="44.5722879" lon="8.9588561"><ele>372.0</ele><time>2026-04-09T12:46:50Z</time></trkpt><trkpt lat="44.5722207" lon="8.9587312"><ele>372.0</ele><time>2026-04-09T12:46:51Z</time></trkpt><trkpt lat="44.5721486" lon="8.9586"><ele>372.0</ele><time>2026-04-09T12:46:51.999Z</time></trkpt><trkpt lat="44.5720847" lon="8.9584589"><ele>372.0</ele><time>2026-04-09T12:46:52.999Z</time></trkpt><trkpt lat="44.5720185" lon="8.9583242"><ele>371.0</ele><time>2026-04-09T12:46:53.999Z</time></trkpt><trkpt lat="44.5719526" lon="8.9581912"><ele>370.0</ele><time>2026-04-09T12:46:54.999Z</time></trkpt><trkpt lat="44.5718869" lon="8.9580609"><ele>369.0</ele><time>2026-04-09T12:46:56Z</time></trkpt><trkpt lat="44.5718224" lon="8.9579289"><ele>368.0</ele><time>2026-04-09T12:46:56.999Z</time></trkpt><trkpt lat="44.5717527" lon="8.957802"><ele>368.0</ele><time>2026-04-09T12:46:58Z</time></trkpt><trkpt lat="44.5716907" lon="8.9576807"><ele>368.0</ele><time>2026-04-09T12:46:59Z</time></trkpt><trkpt lat="44.571627" lon="8.9575563"><ele>368.0</ele><time>2026-04-09T12:46:59.999Z</time></trkpt><trkpt lat="44.571562" lon="8.9574273"><ele>368.0</ele><time>2026-04-09T12:47:01Z</time></trkpt><trkpt lat="44.571503" lon="8.9573015"><ele>368.0</ele><time>2026-04-09T12:47:01.999Z</time></trkpt><trkpt lat="44.5714407" lon="8.9571759"><ele>368.0</ele><time>2026-04-09T12:47:02.999Z</time></trkpt><trkpt lat="44.5713778" lon="8.9570475"><ele>368.0</ele><time>2026-04-09T12:47:04Z</time></trkpt><trkpt lat="44.5713139" lon="8.956916"><ele>368.0</ele><time>2026-04-09T12:47:05Z</time></trkpt><trkpt lat="44.5712498" lon="8.9567787"><ele>368.0</ele><time>2026-04-09T12:47:06Z</time></trkpt><trkpt lat="44.571183" lon="8.9566409"><ele>367.4</ele><time>2026-04-09T12:47:07Z</time></trkpt><trkpt lat="44.5711137" lon="8.9565126"><ele>366.79999999999995</ele><time>2026-04-09T12:47:08Z</time></trkpt><trkpt lat="44.5710509" lon="8.9563882"><ele>366.2</ele><time>2026-04-09T12:47:08.999Z</time></trkpt><trkpt lat="44.5709891" lon="8.956263"><ele>365.6</ele><time>2026-04-09T12:47:10Z</time></trkpt><trkpt lat="44.5709229" lon="8.9561374"><ele>365.0</ele><time>2026-04-09T12:47:11Z</time></trkpt><trkpt lat="44.5708588" lon="8.9560113"><ele>365.0</ele><time>2026-04-09T12:47:12Z</time></trkpt><trkpt lat="44.5707984" lon="8.9558955"><ele>365.0</ele><time>2026-04-09T12:47:13Z</time></trkpt><trkpt lat="44.5707391" lon="8.9557738"><ele>365.0</ele><time>2026-04-09T12:47:14Z</time></trkpt><trkpt lat="44.5706803" lon="8.9556534"><ele>365.0</ele><time>2026-04-09T12:47:14.999Z</time></trkpt><trkpt lat="44.570622" lon="8.9555249"><ele>365.0</ele><time>2026-04-09T12:47:15.999Z</time></trkpt><trkpt lat="44.5705656" lon="8.9553971"><ele>364.6</ele><time>2026-04-09T12:47:16.999Z</time></trkpt><trkpt lat="44.5705208" lon="8.9552666"><ele>364.2</ele><time>2026-04-09T12:47:17.999Z</time></trkpt><trkpt lat="44.5704898" lon="8.9551333"><ele>363.79999999999995</ele><time>2026-04-09T12:47:18.999Z</time></trkpt><trkpt lat="44.5704839" lon="8.9549768"><ele>363.4</ele><time>2026-04-09T12:47:19.999Z</time></trkpt><trkpt lat="44.570492" lon="8.9548247"><ele>363.0</ele><time>2026-04-09T12:47:20.999Z</time></trkpt><trkpt lat="44.5705163" lon="8.9546716"><ele>362.75</ele><time>2026-04-09T12:47:22Z</time></trkpt><trkpt lat="44.5705556" lon="8.9545226"><ele>362.5</ele><time>2026-04-09T12:47:22.999Z</time></trkpt><trkpt lat="44.5705941" lon="8.954372"><ele>362.25</ele><time>2026-04-09T12:47:23.999Z</time></trkpt><trkpt lat="44.5706294" lon="8.9542156"><ele>362.0</ele><time>2026-04-09T12:47:24.999Z</time></trkpt><trkpt lat="44.5706664" lon="8.9540543"><ele>361.75</ele><time>2026-04-09T12:47:25.999Z</time></trkpt><trkpt lat="44.5706985" lon="8.9538952"><ele>361.5</ele><time>2026-04-09T12:47:26.999Z</time></trkpt><trkpt lat="44.5707337" lon="8.9537379"><ele>361.25</ele><time>2026-04-09T12:47:27.999Z</time></trkpt><trkpt lat="44.570769" lon="8.9535804"><ele>361.0</ele><time>2026-04-09T12:47:28.999Z</time></trkpt><trkpt lat="44.570804" lon="8.9534278"><ele>360.75</ele><time>2026-04-09T12:47:29.999Z</time></trkpt><trkpt lat="44.5708398" lon="8.9532666"><ele>360.5</ele><time>2026-04-09T12:47:30.999Z</time></trkpt><trkpt lat="44.5708786" lon="8.9531096"><ele>360.25</ele><time>2026-04-09T12:47:31.999Z</time></trkpt><trkpt lat="44.5709168" lon="8.9529379"><ele>360.0</ele><time>2026-04-09T12:47:33Z</time></trkpt><trkpt lat="44.5709567" lon="8.9527701"><ele>360.0</ele><time>2026-04-09T12:47:34Z</time></trkpt><trkpt lat="44.570999" lon="8.9526061"><ele>360.0</ele><time>2026-04-09T12:47:34.999Z</time></trkpt><trkpt lat="44.5710385" lon="8.9524334"><ele>360.0</ele><time>2026-04-09T12:47:36Z</time></trkpt><trkpt lat="44.5710808" lon="8.9522673"><ele>360.0</ele><time>2026-04-09T12:47:36.999Z</time></trkpt><trkpt lat="44.5711169" lon="8.9521025"><ele>360.25</ele><time>2026-04-09T12:47:38Z</time></trkpt><trkpt lat="44.571156" lon="8.9519464"><ele>360.5</ele><time>2026-04-09T12:47:39Z</time></trkpt><trkpt lat="44.5711922" lon="8.9517775"><ele>360.75</ele><time>2026-04-09T12:47:39.999Z</time></trkpt><trkpt lat="44.5712286" lon="8.9516111"><ele>361.0</ele><time>2026-04-09T12:47:40.999Z</time></trkpt><trkpt lat="44.5712655" lon="8.9514624"><ele>361.0</ele><time>2026-04-09T12:47:42Z</time></trkpt><trkpt lat="44.5713046" lon="8.9512999"><ele>361.0</ele><time>2026-04-09T12:47:42.999Z</time></trkpt><trkpt lat="44.5713426" lon="8.9511401"><ele>361.0</ele><time>2026-04-09T12:47:43.999Z</time></trkpt><trkpt lat="44.5713882" lon="8.9509866"><ele>361.0</ele><time>2026-04-09T12:47:45Z</time></trkpt><trkpt lat="44.5714112" lon="8.9508468"><ele>361.20000000000005</ele><time>2026-04-09T12:47:46Z</time></trkpt><trkpt lat="44.5714217" lon="8.9507086"><ele>361.40000000000003</ele><time>2026-04-09T12:47:47Z</time></trkpt><trkpt lat="44.5714137" lon="8.9505733"><ele>361.6</ele><time>2026-04-09T12:47:47.999Z</time></trkpt><trkpt lat="44.5713893" lon="8.9504434"><ele>361.8</ele><time>2026-04-09T12:47:49Z</time></trkpt><trkpt lat="44.5713421" lon="8.950313"><ele>362.0</ele><time>2026-04-09T12:47:49.999Z</time></trkpt><trkpt lat="44.5712807" lon="8.9502006"><ele>362.0</ele><time>2026-04-09T12:47:51Z</time></trkpt><trkpt lat="44.5712115" lon="8.9500851"><ele>362.0</ele><time>2026-04-09T12:47:52Z</time></trkpt><trkpt lat="44.5711432" lon="8.9499742"><ele>362.0</ele><time>2026-04-09T12:47:53Z</time></trkpt><trkpt lat="44.5710741" lon="8.9498637"><ele>362.0</ele><time>2026-04-09T12:47:53.999Z</time></trkpt><trkpt lat="44.571004" lon="8.9497555"><ele>362.0</ele><time>2026-04-09T12:47:54.999Z</time></trkpt><trkpt lat="44.57093" lon="8.9496509"><ele>360.8</ele><time>2026-04-09T12:47:55.999Z</time></trkpt><trkpt lat="44.5708528" lon="8.9495348"><ele>359.6</ele><time>2026-04-09T12:47:57Z</time></trkpt><trkpt lat="44.5707754" lon="8.9494218"><ele>358.40000000000003</ele><time>2026-04-09T12:47:58Z</time></trkpt><trkpt lat="44.5707044" lon="8.9493109"><ele>357.20000000000005</ele><time>2026-04-09T12:47:58.999Z</time></trkpt><trkpt lat="44.5706368" lon="8.949213"><ele>356.0</ele><time>2026-04-09T12:47:59.999Z</time></trkpt><trkpt lat="44.5705693" lon="8.9491208"><ele>355.83333333333337</ele><time>2026-04-09T12:48:01Z</time></trkpt><trkpt lat="44.5705092" lon="8.9490356"><ele>355.6666666666667</ele><time>2026-04-09T12:48:02Z</time></trkpt><trkpt lat="44.5704549" lon="8.9489507"><ele>355.5</ele><time>2026-04-09T12:48:02.999Z</time></trkpt><trkpt lat="44.5704048" lon="8.9488707"><ele>355.3333333333333</ele><time>2026-04-09T12:48:03.999Z</time></trkpt><trkpt lat="44.5703345" lon="8.9487581"><ele>355.16666666666663</ele><time>2026-04-09T12:48:05.999Z</time></trkpt><trkpt lat="44.570281" lon="8.9486871"><ele>355.0</ele><time>2026-04-09T12:48:07.999Z</time></trkpt><trkpt lat="44.5702243" lon="8.9486082"><ele>355.6</ele><time>2026-04-09T12:48:11Z</time></trkpt><trkpt lat="44.5701771" lon="8.9485365"><ele>356.2</ele><time>2026-04-09T12:48:13.999Z</time></trkpt><trkpt lat="44.5701212" lon="8.9484408"><ele>356.79999999999995</ele><time>2026-04-09T12:48:16.999Z</time></trkpt><trkpt lat="44.570067" lon="8.948315"><ele>357.4</ele><time>2026-04-09T12:48:18.999Z</time></trkpt><trkpt lat="44.5699866" lon="8.9482073"><ele>358.0</ele><time>2026-04-09T12:48:20.999Z</time></trkpt><trkpt lat="44.5698664" lon="8.9481617"><ele>358.42857142857144</ele><time>2026-04-09T12:48:22.999Z</time></trkpt><trkpt lat="44.5698" lon="8.9481763"><ele>358.8571428571429</ele><time>2026-04-09T12:48:24Z</time></trkpt><trkpt lat="44.5697425" lon="8.9482199"><ele>359.28571428571433</ele><time>2026-04-09T12:48:24.999Z</time></trkpt><trkpt lat="44.5696764" lon="8.948258"><ele>359.7142857142857</ele><time>2026-04-09T12:48:25.999Z</time></trkpt><trkpt lat="44.5696095" lon="8.9482957"><ele>360.1428571428571</ele><time>2026-04-09T12:48:26.999Z</time></trkpt><trkpt lat="44.5695478" lon="8.9483322"><ele>360.5714285714286</ele><time>2026-04-09T12:48:27.999Z</time></trkpt><trkpt lat="44.5694825" lon="8.9483719"><ele>361.0</ele><time>2026-04-09T12:48:29Z</time></trkpt><trkpt lat="44.5694193" lon="8.9484062"><ele>361.14285714285717</ele><time>2026-04-09T12:48:29.999Z</time></trkpt><trkpt lat="44.5693545" lon="8.9484395"><ele>361.2857142857143</ele><time>2026-04-09T12:48:30.999Z</time></trkpt><trkpt lat="44.5692928" lon="8.9484734"><ele>361.42857142857144</ele><time>2026-04-09T12:48:31.999Z</time></trkpt><trkpt lat="44.5692324" lon="8.9485038"><ele>361.57142857142856</ele><time>2026-04-09T12:48:33Z</time></trkpt><trkpt lat="44.569119" lon="8.9485633"><ele>361.71428571428567</ele><time>2026-04-09T12:48:35Z</time></trkpt><trkpt lat="44.5690597" lon="8.9485956"><ele>361.85714285714283</ele><time>2026-04-09T12:48:35.999Z</time></trkpt><trkpt lat="44.5690013" lon="8.9486312"><ele>362.0</ele><time>2026-04-09T12:48:36.999Z</time></trkpt><trkpt lat="44.5689407" lon="8.9486629"><ele>362.0</ele><time>2026-04-09T12:48:38Z</time></trkpt><trkpt lat="44.5688764" lon="8.9486964"><ele>362.0</ele><time>2026-04-09T12:48:38.999Z</time></trkpt><trkpt lat="44.5688064" lon="8.9487233"><ele>362.0</ele><time>2026-04-09T12:48:40Z</time></trkpt><trkpt lat="44.5687344" lon="8.948753"><ele>362.0</ele><time>2026-04-09T12:48:41Z</time></trkpt><trkpt lat="44.56866" lon="8.9487734"><ele>362.0</ele><time>2026-04-09T12:48:41.999Z</time></trkpt><trkpt lat="44.5685801" lon="8.9487923"><ele>362.0</ele><time>2026-04-09T12:48:42.999Z</time></trkpt><trkpt lat="44.5684988" lon="8.9487998"><ele>362.6666666666667</ele><time>2026-04-09T12:48:44Z</time></trkpt><trkpt lat="44.5684193" lon="8.9487991"><ele>363.33333333333337</ele><time>2026-04-09T12:48:45Z</time></trkpt><trkpt lat="44.5683534" lon="8.9487892"><ele>364.0</ele><time>2026-04-09T12:48:45.999Z</time></trkpt><trkpt lat="44.5682896" lon="8.9487798"><ele>364.6666666666667</ele><time>2026-04-09T12:48:47Z</time></trkpt><trkpt lat="44.5682259" lon="8.9487685"><ele>365.3333333333333</ele><time>2026-04-09T12:48:48Z</time></trkpt><trkpt lat="44.5681116" lon="8.9487401"><ele>366.0</ele><time>2026-04-09T12:48:49.999Z</time></trkpt><trkpt lat="44.568002" lon="8.948706"><ele>366.0</ele><time>2026-04-09T12:48:51.999Z</time></trkpt><trkpt lat="44.5679229" lon="8.9486185"><ele>366.0</ele><time>2026-04-09T12:48:54Z</time></trkpt><trkpt lat="44.5679195" lon="8.9484919"><ele>366.0</ele><time>2026-04-09T12:48:55.999Z</time></trkpt><trkpt lat="44.5679876" lon="8.9483375"><ele>366.0</ele><time>2026-04-09T12:48:57.999Z</time></trkpt><trkpt lat="44.5680331" lon="8.9482559"><ele>366.0</ele><time>2026-04-09T12:48:58.999Z</time></trkpt><trkpt lat="44.5680804" lon="8.9481816"><ele>365.42857142857144</ele><time>2026-04-09T12:48:59.999Z</time></trkpt><trkpt lat="44.568128" lon="8.9481116"><ele>364.8571428571429</ele><time>2026-04-09T12:49:00.999Z</time></trkpt><trkpt lat="44.5681857" lon="8.9480412"><ele>364.2857142857143</ele><time>2026-04-09T12:49:01.999Z</time></trkpt><trkpt lat="44.5682404" lon="8.9479751"><ele>363.7142857142857</ele><time>2026-04-09T12:49:02.999Z</time></trkpt><trkpt lat="44.5682919" lon="8.9479154"><ele>363.1428571428571</ele><time>2026-04-09T12:49:03.999Z</time></trkpt><trkpt lat="44.5683455" lon="8.9478517"><ele>362.57142857142856</ele><time>2026-04-09T12:49:04.999Z</time></trkpt><trkpt lat="44.5683993" lon="8.9477888"><ele>362.0</ele><time>2026-04-09T12:49:05.999Z</time></trkpt><trkpt lat="44.5684606" lon="8.9477127"><ele>362.0</ele><time>2026-04-09T12:49:06.999Z</time></trkpt><trkpt lat="44.5685242" lon="8.9476436"><ele>362.0</ele><time>2026-04-09T12:49:07.999Z</time></trkpt><trkpt lat="44.568593" lon="8.9475831"><ele>362.0</ele><time>2026-04-09T12:49:08.999Z</time></trkpt><trkpt lat="44.5686622" lon="8.9475248"><ele>362.0</ele><time>2026-04-09T12:49:09.999Z</time></trkpt><trkpt lat="44.568727" lon="8.9474817"><ele>362.0</ele><time>2026-04-09T12:49:11Z</time></trkpt><trkpt lat="44.5687927" lon="8.9474414"><ele>362.0</ele><time>2026-04-09T12:49:12Z</time></trkpt><trkpt lat="44.5688676" lon="8.9473895"><ele>362.2857142857143</ele><time>2026-04-09T12:49:13Z</time></trkpt><trkpt lat="44.5689383" lon="8.947345"><ele>362.57142857142856</ele><time>2026-04-09T12:49:14Z</time></trkpt><trkpt lat="44.569008" lon="8.947286"><ele>362.8571428571429</ele><time>2026-04-09T12:49:14.999Z</time></trkpt><trkpt lat="44.569083" lon="8.9472415"><ele>363.1428571428571</ele><time>2026-04-09T12:49:16Z</time></trkpt><trkpt lat="44.5691502" lon="8.9472"><ele>363.42857142857144</ele><time>2026-04-09T12:49:16.999Z</time></trkpt><trkpt lat="44.5692136" lon="8.9471651"><ele>363.7142857142857</ele><time>2026-04-09T12:49:17.999Z</time></trkpt><trkpt lat="44.5692752" lon="8.9471281"><ele>364.0</ele><time>2026-04-09T12:49:18.999Z</time></trkpt><trkpt lat="44.569364" lon="8.9470704"><ele>364.0</ele><time>2026-04-09T12:49:20.999Z</time></trkpt><trkpt lat="44.569413" lon="8.9470122"><ele>364.0</ele><time>2026-04-09T12:49:24Z</time></trkpt><trkpt lat="44.569485" lon="8.9469198"><ele>364.0</ele><time>2026-04-09T12:49:27Z</time></trkpt><trkpt lat="44.5695543" lon="8.9468345"><ele>364.0</ele><time>2026-04-09T12:49:29Z</time></trkpt><trkpt lat="44.5696484" lon="8.9467376"><ele>364.0</ele><time>2026-04-09T12:49:30.999Z</time></trkpt><trkpt lat="44.5697408" lon="8.9466369"><ele>365.0</ele><time>2026-04-09T12:49:32.999Z</time></trkpt><trkpt lat="44.5697948" lon="8.9465789"><ele>366.0</ele><time>2026-04-09T12:49:33.999Z</time></trkpt><trkpt lat="44.5698861" lon="8.9464875"><ele>367.0</ele><time>2026-04-09T12:49:36Z</time></trkpt><trkpt lat="44.5699661" lon="8.9464152"><ele>368.0</ele><time>2026-04-09T12:49:38Z</time></trkpt><trkpt lat="44.5700577" lon="8.9463296"><ele>369.0</ele><time>2026-04-09T12:49:39.999Z</time></trkpt><trkpt lat="44.5701122" lon="8.9462745"><ele>369.0</ele><time>2026-04-09T12:49:40.999Z</time></trkpt><trkpt lat="44.5702087" lon="8.9461866"><ele>369.0</ele><time>2026-04-09T12:49:43Z</time></trkpt><trkpt lat="44.5703002" lon="8.946104"><ele>369.0</ele><time>2026-04-09T12:49:45Z</time></trkpt><trkpt lat="44.5703985" lon="8.9460155"><ele>369.0</ele><time>2026-04-09T12:49:47Z</time></trkpt><trkpt lat="44.57049" lon="8.9459315"><ele>369.79999999999995</ele><time>2026-04-09T12:49:49Z</time></trkpt><trkpt lat="44.5705819" lon="8.9458426"><ele>370.59999999999997</ele><time>2026-04-09T12:49:50.999Z</time></trkpt><trkpt lat="44.5706632" lon="8.9457749"><ele>371.4</ele><time>2026-04-09T12:49:53Z</time></trkpt><trkpt lat="44.5707259" lon="8.9457168"><ele>372.2</ele><time>2026-04-09T12:49:55.999Z</time></trkpt><trkpt lat="44.5707777" lon="8.9456632"><ele>373.0</ele><time>2026-04-09T12:49:58.999Z</time></trkpt><trkpt lat="44.5709125" lon="8.9455529"><ele>373.0</ele><time>2026-04-09T12:50:02.999Z</time></trkpt><trkpt lat="44.5710151" lon="8.9454731"><ele>373.0</ele><time>2026-04-09T12:50:04.999Z</time></trkpt><trkpt lat="44.5710726" lon="8.9454371"><ele>373.0</ele><time>2026-04-09T12:50:05.999Z</time></trkpt><trkpt lat="44.5711406" lon="8.9453923"><ele>373.0</ele><time>2026-04-09T12:50:07Z</time></trkpt><trkpt lat="44.5712116" lon="8.9453586"><ele>373.0</ele><time>2026-04-09T12:50:07.999Z</time></trkpt><trkpt lat="44.5712786" lon="8.9453244"><ele>373.0</ele><time>2026-04-09T12:50:09.117Z</time></trkpt><trkpt lat="44.5714224" lon="8.9452399"><ele>372.66666666666663</ele><time>2026-04-09T12:50:11Z</time></trkpt><trkpt lat="44.5714933" lon="8.9452007"><ele>372.3333333333333</ele><time>2026-04-09T12:50:12Z</time></trkpt><trkpt lat="44.571565" lon="8.9451553"><ele>372.0</ele><time>2026-04-09T12:50:12.999Z</time></trkpt><trkpt lat="44.5716381" lon="8.9451124"><ele>371.6666666666667</ele><time>2026-04-09T12:50:13.999Z</time></trkpt><trkpt lat="44.5717101" lon="8.9450664"><ele>371.33333333333337</ele><time>2026-04-09T12:50:15.129Z</time></trkpt><trkpt lat="44.5717838" lon="8.9450314"><ele>371.0</ele><time>2026-04-09T12:50:16.122Z</time></trkpt><trkpt lat="44.5719342" lon="8.9449521"><ele>370.0</ele><time>2026-04-09T12:50:17.999Z</time></trkpt><trkpt lat="44.5720041" lon="8.9449125"><ele>369.0</ele><time>2026-04-09T12:50:19.151Z</time></trkpt><trkpt lat="44.5720776" lon="8.9448785"><ele>368.0</ele><time>2026-04-09T12:50:20.157Z</time></trkpt><trkpt lat="44.5722152" lon="8.9448088"><ele>367.0</ele><time>2026-04-09T12:50:21.999Z</time></trkpt><trkpt lat="44.5723114" lon="8.9447599"><ele>366.0</ele><time>2026-04-09T12:50:24Z</time></trkpt><trkpt lat="44.5723766" lon="8.9447228"><ele>365.3333333333333</ele><time>2026-04-09T12:50:26.139Z</time></trkpt><trkpt lat="44.5724408" lon="8.9446758"><ele>364.6666666666667</ele><time>2026-04-09T12:50:31.999Z</time></trkpt><trkpt lat="44.5725104" lon="8.9446242"><ele>364.0</ele><time>2026-04-09T12:50:32.999Z</time></trkpt><trkpt lat="44.5725832" lon="8.9446079"><ele>363.33333333333337</ele><time>2026-04-09T12:50:33.999Z</time></trkpt><trkpt lat="44.5726732" lon="8.9445758"><ele>362.6666666666667</ele><time>2026-04-09T12:50:34.999Z</time></trkpt><trkpt lat="44.572746" lon="8.9445286"><ele>362.0</ele><time>2026-04-09T12:50:35.999Z</time></trkpt><trkpt lat="44.5728354" lon="8.9444808"><ele>361.25</ele><time>2026-04-09T12:50:36.999Z</time></trkpt><trkpt lat="44.5729309" lon="8.9444459"><ele>360.5</ele><time>2026-04-09T12:50:38.15Z</time></trkpt><trkpt lat="44.5730295" lon="8.9443986"><ele>359.75</ele><time>2026-04-09T12:50:39.161Z</time></trkpt><trkpt lat="44.5732394" lon="8.9443137"><ele>359.0</ele><time>2026-04-09T12:50:41Z</time></trkpt><trkpt lat="44.5733241" lon="8.944267"><ele>359.0</ele><time>2026-04-09T12:50:42Z</time></trkpt><trkpt lat="44.5734114" lon="8.9442352"><ele>359.0</ele><time>2026-04-09T12:50:43Z</time></trkpt><trkpt lat="44.5734997" lon="8.9441918"><ele>359.0</ele><time>2026-04-09T12:50:44Z</time></trkpt><trkpt lat="44.5735884" lon="8.9441599"><ele>359.0</ele><time>2026-04-09T12:50:45.164Z</time></trkpt><trkpt lat="44.5736777" lon="8.9441123"><ele>359.0</ele><time>2026-04-09T12:50:46.126Z</time></trkpt><trkpt lat="44.5738628" lon="8.9440135"><ele>360.4</ele><time>2026-04-09T12:50:48Z</time></trkpt><trkpt lat="44.5739602" lon="8.9439632"><ele>361.79999999999995</ele><time>2026-04-09T12:50:49Z</time></trkpt><trkpt lat="44.5740595" lon="8.9439129"><ele>363.20000000000005</ele><time>2026-04-09T12:50:49.999Z</time></trkpt><trkpt lat="44.5741602" lon="8.943867"><ele>364.6</ele><time>2026-04-09T12:50:50.999Z</time></trkpt><trkpt lat="44.5742475" lon="8.9438231"><ele>366.0</ele><time>2026-04-09T12:50:52Z</time></trkpt><trkpt lat="44.5743282" lon="8.943776"><ele>366.0</ele><time>2026-04-09T12:50:52.999Z</time></trkpt><trkpt lat="44.5743974" lon="8.9437377"><ele>366.0</ele><time>2026-04-09T12:50:54.106Z</time></trkpt><trkpt lat="44.5745" lon="8.9436779"><ele>366.0</ele><time>2026-04-09T12:50:55.999Z</time></trkpt><trkpt lat="44.5745647" lon="8.9436379"><ele>366.0</ele><time>2026-04-09T12:50:56.999Z</time></trkpt><trkpt lat="44.5746861" lon="8.9435897"><ele>366.0</ele><time>2026-04-09T12:50:59Z</time></trkpt><trkpt lat="44.5747507" lon="8.9435469"><ele>365.8333333333333</ele><time>2026-04-09T12:50:59.999Z</time></trkpt><trkpt lat="44.5748137" lon="8.9435112"><ele>365.6666666666667</ele><time>2026-04-09T12:51:01Z</time></trkpt><trkpt lat="44.5748839" lon="8.9434755"><ele>365.5</ele><time>2026-04-09T12:51:01.999Z</time></trkpt><trkpt lat="44.5749564" lon="8.943442"><ele>365.33333333333337</ele><time>2026-04-09T12:51:03Z</time></trkpt><trkpt lat="44.5750304" lon="8.9434016"><ele>365.1666666666667</ele><time>2026-04-09T12:51:04Z</time></trkpt><trkpt lat="44.5751099" lon="8.9433628"><ele>365.0</ele><time>2026-04-09T12:51:05Z</time></trkpt><trkpt lat="44.5751832" lon="8.9433214"><ele>365.0</ele><time>2026-04-09T12:51:06Z</time></trkpt><trkpt lat="44.5752614" lon="8.9432814"><ele>365.0</ele><time>2026-04-09T12:51:06.999Z</time></trkpt><trkpt lat="44.5753411" lon="8.9432315"><ele>365.0</ele><time>2026-04-09T12:51:08Z</time></trkpt><trkpt lat="44.5754354" lon="8.9431888"><ele>365.0</ele><time>2026-04-09T12:51:08.999Z</time></trkpt><trkpt lat="44.5755373" lon="8.9431313"><ele>365.0</ele><time>2026-04-09T12:51:10Z</time></trkpt><trkpt lat="44.5756452" lon="8.9430849"><ele>364.6</ele><time>2026-04-09T12:51:11Z</time></trkpt><trkpt lat="44.5757446" lon="8.9430332"><ele>364.2</ele><time>2026-04-09T12:51:11.999Z</time></trkpt><trkpt lat="44.5758379" lon="8.9429857"><ele>363.79999999999995</ele><time>2026-04-09T12:51:12.999Z</time></trkpt><trkpt lat="44.5759381" lon="8.9429331"><ele>363.4</ele><time>2026-04-09T12:51:14Z</time></trkpt><trkpt lat="44.5760336" lon="8.9428724"><ele>363.0</ele><time>2026-04-09T12:51:14.999Z</time></trkpt><trkpt lat="44.5761238" lon="8.9428097"><ele>362.4</ele><time>2026-04-09T12:51:16Z</time></trkpt><trkpt lat="44.5762171" lon="8.942737"><ele>361.79999999999995</ele><time>2026-04-09T12:51:16.999Z</time></trkpt><trkpt lat="44.5763054" lon="8.9426555"><ele>361.2</ele><time>2026-04-09T12:51:18Z</time></trkpt><trkpt lat="44.5763783" lon="8.9425682"><ele>360.6</ele><time>2026-04-09T12:51:18.999Z</time></trkpt><trkpt lat="44.5764454" lon="8.9424768"><ele>360.0</ele><time>2026-04-09T12:51:19.999Z</time></trkpt><trkpt lat="44.5765163" lon="8.9423773"><ele>360.0</ele><time>2026-04-09T12:51:21Z</time></trkpt><trkpt lat="44.5765782" lon="8.9422739"><ele>360.0</ele><time>2026-04-09T12:51:21.999Z</time></trkpt><trkpt lat="44.5766427" lon="8.9421667"><ele>360.0</ele><time>2026-04-09T12:51:23Z</time></trkpt><trkpt lat="44.5767135" lon="8.9420567"><ele>360.0</ele><time>2026-04-09T12:51:23.999Z</time></trkpt><trkpt lat="44.5767897" lon="8.9419477"><ele>360.0</ele><time>2026-04-09T12:51:25Z</time></trkpt><trkpt lat="44.5768646" lon="8.9418471"><ele>360.0</ele><time>2026-04-09T12:51:26Z</time></trkpt><trkpt lat="44.5769462" lon="8.9417418"><ele>360.0</ele><time>2026-04-09T12:51:27Z</time></trkpt><trkpt lat="44.5770429" lon="8.9416501"><ele>360.0</ele><time>2026-04-09T12:51:27.999Z</time></trkpt><trkpt lat="44.5771232" lon="8.9415603"><ele>360.0</ele><time>2026-04-09T12:51:29Z</time></trkpt><trkpt lat="44.5772341" lon="8.9414838"><ele>359.5</ele><time>2026-04-09T12:51:29.999Z</time></trkpt><trkpt lat="44.577331" lon="8.9414073"><ele>359.0</ele><time>2026-04-09T12:51:31Z</time></trkpt><trkpt lat="44.5774356" lon="8.9413337"><ele>358.5</ele><time>2026-04-09T12:51:31.999Z</time></trkpt><trkpt lat="44.5775397" lon="8.9412611"><ele>358.0</ele><time>2026-04-09T12:51:33Z</time></trkpt><trkpt lat="44.5776441" lon="8.9411896"><ele>358.0</ele><time>2026-04-09T12:51:34Z</time></trkpt><trkpt lat="44.577735" lon="8.941124"><ele>358.0</ele><time>2026-04-09T12:51:35Z</time></trkpt><trkpt lat="44.5778298" lon="8.9410625"><ele>358.0</ele><time>2026-04-09T12:51:35.999Z</time></trkpt><trkpt lat="44.5779203" lon="8.9409991"><ele>358.0</ele><time>2026-04-09T12:51:36.999Z</time></trkpt><trkpt lat="44.5780228" lon="8.9409306"><ele>358.0</ele><time>2026-04-09T12:51:38Z</time></trkpt><trkpt lat="44.5781137" lon="8.9408731"><ele>358.4</ele><time>2026-04-09T12:51:39Z</time></trkpt><trkpt lat="44.5782016" lon="8.9408126"><ele>358.79999999999995</ele><time>2026-04-09T12:51:39.999Z</time></trkpt><trkpt lat="44.5782858" lon="8.9407508"><ele>359.2</ele><time>2026-04-09T12:51:40.999Z</time></trkpt><trkpt lat="44.5783648" lon="8.9406943"><ele>359.6</ele><time>2026-04-09T12:51:42Z</time></trkpt><trkpt lat="44.5784418" lon="8.9406376"><ele>360.0</ele><time>2026-04-09T12:51:42.999Z</time></trkpt><trkpt lat="44.5785238" lon="8.9405747"><ele>360.0</ele><time>2026-04-09T12:51:44Z</time></trkpt><trkpt lat="44.5786103" lon="8.9405199"><ele>360.0</ele><time>2026-04-09T12:51:44.999Z</time></trkpt><trkpt lat="44.5786846" lon="8.9404662"><ele>360.0</ele><time>2026-04-09T12:51:46.105Z</time></trkpt><trkpt lat="44.5787581" lon="8.9404134"><ele>360.0</ele><time>2026-04-09T12:51:46.999Z</time></trkpt><trkpt lat="44.5788327" lon="8.940355"><ele>360.0</ele><time>2026-04-09T12:51:48Z</time></trkpt><trkpt lat="44.5789099" lon="8.9402967"><ele>360.0</ele><time>2026-04-09T12:51:49.114Z</time></trkpt><trkpt lat="44.5789861" lon="8.9402441"><ele>359.75</ele><time>2026-04-09T12:51:50.141Z</time></trkpt><trkpt lat="44.5790647" lon="8.9401846"><ele>359.5</ele><time>2026-04-09T12:51:51.107Z</time></trkpt><trkpt lat="44.5792552" lon="8.9400481"><ele>359.25</ele><time>2026-04-09T12:51:53Z</time></trkpt><trkpt lat="44.5793528" lon="8.9399835"><ele>359.0</ele><time>2026-04-09T12:51:54.147Z</time></trkpt><trkpt lat="44.5794512" lon="8.9399064"><ele>358.0</ele><time>2026-04-09T12:51:55.142Z</time></trkpt><trkpt lat="44.5796765" lon="8.9397548"><ele>357.0</ele><time>2026-04-09T12:51:56.999Z</time></trkpt><trkpt lat="44.5797896" lon="8.9396768"><ele>356.0</ele><time>2026-04-09T12:51:57.999Z</time></trkpt><trkpt lat="44.5799001" lon="8.9395974"><ele>356.0</ele><time>2026-04-09T12:51:59.145Z</time></trkpt><trkpt lat="44.5801271" lon="8.939433"><ele>356.0</ele><time>2026-04-09T12:52:01Z</time></trkpt><trkpt lat="44.5802399" lon="8.9393551"><ele>356.0</ele><time>2026-04-09T12:52:02Z</time></trkpt><trkpt lat="44.5803525" lon="8.9392803"><ele>357.25</ele><time>2026-04-09T12:52:03Z</time></trkpt><trkpt lat="44.5804639" lon="8.9392047"><ele>358.5</ele><time>2026-04-09T12:52:04.127Z</time></trkpt><trkpt lat="44.5805795" lon="8.9391332"><ele>359.75</ele><time>2026-04-09T12:52:04.999Z</time></trkpt><trkpt lat="44.5807082" lon="8.9390652"><ele>361.0</ele><time>2026-04-09T12:52:05.999Z</time></trkpt><trkpt lat="44.5808384" lon="8.9390209"><ele>361.0</ele><time>2026-04-09T12:52:06.999Z</time></trkpt><trkpt lat="44.5809732" lon="8.9389952"><ele>361.0</ele><time>2026-04-09T12:52:07.999Z</time></trkpt><trkpt lat="44.5811077" lon="8.938977"><ele>361.0</ele><time>2026-04-09T12:52:09Z</time></trkpt><trkpt lat="44.5812424" lon="8.9389702"><ele>361.0</ele><time>2026-04-09T12:52:10Z</time></trkpt><trkpt lat="44.5813765" lon="8.9389768"><ele>360.25</ele><time>2026-04-09T12:52:10.999Z</time></trkpt><trkpt lat="44.5815118" lon="8.9389946"><ele>359.5</ele><time>2026-04-09T12:52:12Z</time></trkpt><trkpt lat="44.5816488" lon="8.9390127"><ele>358.75</ele><time>2026-04-09T12:52:12.999Z</time></trkpt><trkpt lat="44.5817797" lon="8.9390206"><ele>358.0</ele><time>2026-04-09T12:52:14Z</time></trkpt><trkpt lat="44.581916" lon="8.9390107"><ele>358.0</ele><time>2026-04-09T12:52:15Z</time></trkpt><trkpt lat="44.5820436" lon="8.9389945"><ele>358.0</ele><time>2026-04-09T12:52:16Z</time></trkpt><trkpt lat="44.5821674" lon="8.9389785"><ele>358.0</ele><time>2026-04-09T12:52:17Z</time></trkpt><trkpt lat="44.5822811" lon="8.9389697"><ele>358.0</ele><time>2026-04-09T12:52:18Z</time></trkpt><trkpt lat="44.5823888" lon="8.9389577"><ele>358.0</ele><time>2026-04-09T12:52:19Z</time></trkpt><trkpt lat="44.5824953" lon="8.9389457"><ele>358.0</ele><time>2026-04-09T12:52:19.999Z</time></trkpt><trkpt lat="44.5825874" lon="8.9389292"><ele>358.0</ele><time>2026-04-09T12:52:21Z</time></trkpt><trkpt lat="44.5826854" lon="8.938919"><ele>358.0</ele><time>2026-04-09T12:52:21.999Z</time></trkpt><trkpt lat="44.5827735" lon="8.9389049"><ele>358.0</ele><time>2026-04-09T12:52:23Z</time></trkpt><trkpt lat="44.5828574" lon="8.9388868"><ele>357.59999999999997</ele><time>2026-04-09T12:52:23.999Z</time></trkpt><trkpt lat="44.5829419" lon="8.9388665"><ele>357.2</ele><time>2026-04-09T12:52:24.999Z</time></trkpt><trkpt lat="44.5830369" lon="8.9388447"><ele>356.8</ele><time>2026-04-09T12:52:25.999Z</time></trkpt><trkpt lat="44.5831318" lon="8.9388251"><ele>356.4</ele><time>2026-04-09T12:52:27Z</time></trkpt><trkpt lat="44.5832181" lon="8.938808"><ele>356.0</ele><time>2026-04-09T12:52:27.999Z</time></trkpt><trkpt lat="44.5833023" lon="8.938794"><ele>356.0</ele><time>2026-04-09T12:52:29Z</time></trkpt><trkpt lat="44.5833806" lon="8.9387773"><ele>356.0</ele><time>2026-04-09T12:52:30.152Z</time></trkpt><trkpt lat="44.5835152" lon="8.9387454"><ele>356.0</ele><time>2026-04-09T12:52:31.999Z</time></trkpt><trkpt lat="44.5836019" lon="8.9387258"><ele>356.0</ele><time>2026-04-09T12:52:34Z</time></trkpt><trkpt lat="44.5836879" lon="8.9386998"><ele>356.0</ele><time>2026-04-09T12:52:36Z</time></trkpt><trkpt lat="44.5838148" lon="8.9386669"><ele>355.75</ele><time>2026-04-09T12:52:38Z</time></trkpt><trkpt lat="44.5838854" lon="8.9386569"><ele>355.5</ele><time>2026-04-09T12:52:39Z</time></trkpt><trkpt lat="44.583987" lon="8.9386342"><ele>355.25</ele><time>2026-04-09T12:52:40.139Z</time></trkpt><trkpt lat="44.584083" lon="8.9386144"><ele>355.0</ele><time>2026-04-09T12:52:41.158Z</time></trkpt><trkpt lat="44.5842827" lon="8.9385705"><ele>355.0</ele><time>2026-04-09T12:52:42.999Z</time></trkpt><trkpt lat="44.5843876" lon="8.9385488"><ele>355.0</ele><time>2026-04-09T12:52:44.145Z</time></trkpt><trkpt lat="44.5844965" lon="8.938524"><ele>355.0</ele><time>2026-04-09T12:52:45.16Z</time></trkpt><trkpt lat="44.584598" lon="8.9385021"><ele>355.0</ele><time>2026-04-09T12:52:46.156Z</time></trkpt><trkpt lat="44.5848035" lon="8.9384623"><ele>355.0</ele><time>2026-04-09T12:52:48Z</time></trkpt><trkpt lat="44.584905" lon="8.9384346"><ele>355.0</ele><time>2026-04-09T12:52:49.146Z</time></trkpt><trkpt lat="44.5850034" lon="8.9384123"><ele>355.0</ele><time>2026-04-09T12:52:50.15Z</time></trkpt><trkpt lat="44.5851014" lon="8.9383898"><ele>355.0</ele><time>2026-04-09T12:52:51.153Z</time></trkpt><trkpt lat="44.5853011" lon="8.938358"><ele>355.75</ele><time>2026-04-09T12:52:53Z</time></trkpt><trkpt lat="44.5854059" lon="8.9383361"><ele>356.5</ele><time>2026-04-09T12:52:54.163Z</time></trkpt><trkpt lat="44.5855113" lon="8.9383101"><ele>357.25</ele><time>2026-04-09T12:52:55.131Z</time></trkpt><trkpt lat="44.5856204" lon="8.9382848"><ele>358.0</ele><time>2026-04-09T12:52:56.122Z</time></trkpt><trkpt lat="44.5858459" lon="8.9382252"><ele>358.0</ele><time>2026-04-09T12:52:58Z</time></trkpt><trkpt lat="44.5859666" lon="8.9381919"><ele>358.0</ele><time>2026-04-09T12:52:59.104Z</time></trkpt><trkpt lat="44.5860991" lon="8.9381598"><ele>358.0</ele><time>2026-04-09T12:53:00.15Z</time></trkpt><trkpt lat="44.5862351" lon="8.9381334"><ele>358.0</ele><time>2026-04-09T12:53:01.122Z</time></trkpt><trkpt lat="44.5864935" lon="8.9380851"><ele>357.25</ele><time>2026-04-09T12:53:02.999Z</time></trkpt><trkpt lat="44.5866229" lon="8.9380509"><ele>356.5</ele><time>2026-04-09T12:53:04Z</time></trkpt><trkpt lat="44.5867391" lon="8.9380153"><ele>355.75</ele><time>2026-04-09T12:53:05Z</time></trkpt><trkpt lat="44.5868632" lon="8.9379773"><ele>355.0</ele><time>2026-04-09T12:53:05.999Z</time></trkpt><trkpt lat="44.5869845" lon="8.9379475"><ele>354.75</ele><time>2026-04-09T12:53:07Z</time></trkpt><trkpt lat="44.5871055" lon="8.9379268"><ele>354.5</ele><time>2026-04-09T12:53:07.999Z</time></trkpt><trkpt lat="44.5872338" lon="8.9379055"><ele>354.25</ele><time>2026-04-09T12:53:08.999Z</time></trkpt><trkpt lat="44.5873605" lon="8.9378788"><ele>354.0</ele><time>2026-04-09T12:53:10Z</time></trkpt><trkpt lat="44.5874908" lon="8.9378473"><ele>354.0</ele><time>2026-04-09T12:53:10.999Z</time></trkpt><trkpt lat="44.5876292" lon="8.937817"><ele>354.0</ele><time>2026-04-09T12:53:12Z</time></trkpt><trkpt lat="44.5877491" lon="8.9377925"><ele>354.0</ele><time>2026-04-09T12:53:13Z</time></trkpt><trkpt lat="44.5878802" lon="8.9377638"><ele>354.0</ele><time>2026-04-09T12:53:14.12Z</time></trkpt><trkpt lat="44.5880018" lon="8.9377345"><ele>353.6666666666667</ele><time>2026-04-09T12:53:15.134Z</time></trkpt><trkpt lat="44.588133" lon="8.937708"><ele>353.33333333333337</ele><time>2026-04-09T12:53:16.108Z</time></trkpt><trkpt lat="44.5883892" lon="8.9376544"><ele>353.0</ele><time>2026-04-09T12:53:17.999Z</time></trkpt><trkpt lat="44.5885179" lon="8.937627"><ele>353.0</ele><time>2026-04-09T12:53:18.999Z</time></trkpt><trkpt lat="44.5886342" lon="8.9375987"><ele>353.0</ele><time>2026-04-09T12:53:20.139Z</time></trkpt><trkpt lat="44.5887584" lon="8.9375599"><ele>353.0</ele><time>2026-04-09T12:53:21.154Z</time></trkpt><trkpt lat="44.5890066" lon="8.9374939"><ele>353.25</ele><time>2026-04-09T12:53:22.999Z</time></trkpt><trkpt lat="44.5891315" lon="8.9374616"><ele>353.5</ele><time>2026-04-09T12:53:24.124Z</time></trkpt><trkpt lat="44.5892598" lon="8.9374381"><ele>353.75</ele><time>2026-04-09T12:53:25.115Z</time></trkpt><trkpt lat="44.5893832" lon="8.9374112"><ele>354.0</ele><time>2026-04-09T12:53:26.13Z</time></trkpt><trkpt lat="44.5896408" lon="8.9373568"><ele>354.25</ele><time>2026-04-09T12:53:27.999Z</time></trkpt><trkpt lat="44.5897651" lon="8.9373326"><ele>354.5</ele><time>2026-04-09T12:53:29.15Z</time></trkpt><trkpt lat="44.5898924" lon="8.9373243"><ele>354.75</ele><time>2026-04-09T12:53:30.163Z</time></trkpt><trkpt lat="44.5900214" lon="8.9373246"><ele>355.0</ele><time>2026-04-09T12:53:31.16Z</time></trkpt><trkpt lat="44.5902779" lon="8.9373886"><ele>356.0</ele><time>2026-04-09T12:53:32.999Z</time></trkpt><trkpt lat="44.5903953" lon="8.9374368"><ele>357.0</ele><time>2026-04-09T12:53:34.147Z</time></trkpt><trkpt lat="44.590591" lon="8.9375364"><ele>358.0</ele><time>2026-04-09T12:53:36.152Z</time></trkpt><trkpt lat="44.5907547" lon="8.9376334"><ele>357.16666666666663</ele><time>2026-04-09T12:53:38Z</time></trkpt><trkpt lat="44.5908269" lon="8.9376713"><ele>356.3333333333333</ele><time>2026-04-09T12:53:39.157Z</time></trkpt><trkpt lat="44.5908944" lon="8.9377134"><ele>355.5</ele><time>2026-04-09T12:53:40.124Z</time></trkpt><trkpt lat="44.590985" lon="8.9377796"><ele>354.6666666666667</ele><time>2026-04-09T12:53:42Z</time></trkpt><trkpt lat="44.5910725" lon="8.9378035"><ele>353.83333333333337</ele><time>2026-04-09T12:53:45Z</time></trkpt><trkpt lat="44.5911416" lon="8.9378271"><ele>353.0</ele><time>2026-04-09T12:53:46.999Z</time></trkpt><trkpt lat="44.5912435" lon="8.9378748"><ele>353.0</ele><time>2026-04-09T12:53:49.116Z</time></trkpt><trkpt lat="44.5913153" lon="8.9379153"><ele>353.0</ele><time>2026-04-09T12:53:50.125Z</time></trkpt><trkpt lat="44.5914395" lon="8.9380082"><ele>353.0</ele><time>2026-04-09T12:53:51.999Z</time></trkpt><trkpt lat="44.591552" lon="8.9380901"><ele>353.0</ele><time>2026-04-09T12:53:53.999Z</time></trkpt><trkpt lat="44.5916133" lon="8.9381193"><ele>353.0</ele><time>2026-04-09T12:53:55Z</time></trkpt><trkpt lat="44.5917664" lon="8.9382089"><ele>353.0</ele><time>2026-04-09T12:53:57Z</time></trkpt><trkpt lat="44.5918396" lon="8.9382582"><ele>353.0</ele><time>2026-04-09T12:53:58Z</time></trkpt><trkpt lat="44.5919098" lon="8.9383079"><ele>353.0</ele><time>2026-04-09T12:53:59.108Z</time></trkpt><trkpt lat="44.5920726" lon="8.9384008"><ele>353.0</ele><time>2026-04-09T12:54:01Z</time></trkpt><trkpt lat="44.5921598" lon="8.9384536"><ele>353.0</ele><time>2026-04-09T12:54:01.999Z</time></trkpt><trkpt lat="44.5922534" lon="8.9385028"><ele>351.25</ele><time>2026-04-09T12:54:02.999Z</time></trkpt><trkpt lat="44.5923472" lon="8.9385558"><ele>349.5</ele><time>2026-04-09T12:54:03.999Z</time></trkpt><trkpt lat="44.5924289" lon="8.9386025"><ele>347.75</ele><time>2026-04-09T12:54:04.999Z</time></trkpt><trkpt lat="44.5925216" lon="8.9386648"><ele>346.0</ele><time>2026-04-09T12:54:06.157Z</time></trkpt><trkpt lat="44.5927173" lon="8.9387842"><ele>346.0</ele><time>2026-04-09T12:54:07.999Z</time></trkpt><trkpt lat="44.5928207" lon="8.9388483"><ele>346.0</ele><time>2026-04-09T12:54:09.115Z</time></trkpt><trkpt lat="44.5929314" lon="8.9389104"><ele>346.0</ele><time>2026-04-09T12:54:10.142Z</time></trkpt><trkpt lat="44.5930458" lon="8.9389723"><ele>346.0</ele><time>2026-04-09T12:54:11.15Z</time></trkpt><trkpt lat="44.5932786" lon="8.9391015"><ele>345.75</ele><time>2026-04-09T12:54:12.999Z</time></trkpt><trkpt lat="44.5934021" lon="8.9391667"><ele>345.5</ele><time>2026-04-09T12:54:14.16Z</time></trkpt><trkpt lat="44.5935183" lon="8.9392344"><ele>345.25</ele><time>2026-04-09T12:54:15.137Z</time></trkpt><trkpt lat="44.5936389" lon="8.939298"><ele>345.0</ele><time>2026-04-09T12:54:16.136Z</time></trkpt><trkpt lat="44.5938745" lon="8.939432"><ele>345.6666666666667</ele><time>2026-04-09T12:54:17.999Z</time></trkpt><trkpt lat="44.5939944" lon="8.9395049"><ele>346.33333333333337</ele><time>2026-04-09T12:54:19.115Z</time></trkpt><trkpt lat="44.5941279" lon="8.9395798"><ele>347.0</ele><time>2026-04-09T12:54:20.146Z</time></trkpt><trkpt lat="44.5944353" lon="8.9397326"><ele>347.6666666666667</ele><time>2026-04-09T12:54:21.999Z</time></trkpt><trkpt lat="44.5945983" lon="8.9398303"><ele>348.3333333333333</ele><time>2026-04-09T12:54:23Z</time></trkpt><trkpt lat="44.5947686" lon="8.9399414"><ele>349.0</ele><time>2026-04-09T12:54:24.13Z</time></trkpt><trkpt lat="44.5949585" lon="8.9400419"><ele>348.5</ele><time>2026-04-09T12:54:25.15Z</time></trkpt><trkpt lat="44.5951422" lon="8.9401314"><ele>348.0</ele><time>2026-04-09T12:54:26.155Z</time></trkpt><trkpt lat="44.5954929" lon="8.9403071"><ele>348.0</ele><time>2026-04-09T12:54:27.999Z</time></trkpt><trkpt lat="44.5956543" lon="8.9404029"><ele>348.0</ele><time>2026-04-09T12:54:29.124Z</time></trkpt><trkpt lat="44.595813" lon="8.940498"><ele>348.0</ele><time>2026-04-09T12:54:30.154Z</time></trkpt><trkpt lat="44.5959513" lon="8.9405979"><ele>350.3333333333333</ele><time>2026-04-09T12:54:31.164Z</time></trkpt><trkpt lat="44.5962109" lon="8.9408152"><ele>352.66666666666663</ele><time>2026-04-09T12:54:32.999Z</time></trkpt><trkpt lat="44.5963306" lon="8.9409346"><ele>355.0</ele><time>2026-04-09T12:54:34.16Z</time></trkpt><trkpt lat="44.5964422" lon="8.9410762"><ele>355.0</ele><time>2026-04-09T12:54:35.168Z</time></trkpt><trkpt lat="44.5966132" lon="8.9413708"><ele>355.0</ele><time>2026-04-09T12:54:37Z</time></trkpt><trkpt lat="44.5966706" lon="8.941537"><ele>355.0</ele><time>2026-04-09T12:54:38Z</time></trkpt><trkpt lat="44.5967017" lon="8.9417122"><ele>354.3333333333333</ele><time>2026-04-09T12:54:39Z</time></trkpt><trkpt lat="44.596704" lon="8.9419093"><ele>353.6666666666667</ele><time>2026-04-09T12:54:40.119Z</time></trkpt><trkpt lat="44.596689" lon="8.9423217"><ele>353.0</ele><time>2026-04-09T12:54:42Z</time></trkpt><trkpt lat="44.5966849" lon="8.9425416"><ele>355.33333333333337</ele><time>2026-04-09T12:54:42.999Z</time></trkpt><trkpt lat="44.5966886" lon="8.942767"><ele>357.6666666666667</ele><time>2026-04-09T12:54:44.152Z</time></trkpt><trkpt lat="44.5967048" lon="8.9429805"><ele>360.0</ele><time>2026-04-09T12:54:45.12Z</time></trkpt><trkpt lat="44.596714" lon="8.9431938"><ele>365.5</ele><time>2026-04-09T12:54:46.16Z</time></trkpt><trkpt lat="44.5966935" lon="8.9436244"><ele>371.0</ele><time>2026-04-09T12:54:48Z</time></trkpt><trkpt lat="44.5966595" lon="8.9438472"><ele>371.0</ele><time>2026-04-09T12:54:49.14Z</time></trkpt><trkpt lat="44.5965447" lon="8.9442065"><ele>371.0</ele><time>2026-04-09T12:54:51Z</time></trkpt><trkpt lat="44.5964623" lon="8.9443589"><ele>371.0</ele><time>2026-04-09T12:54:51.999Z</time></trkpt><trkpt lat="44.5963507" lon="8.9445168"><ele>367.5</ele><time>2026-04-09T12:54:53Z</time></trkpt><trkpt lat="44.5962004" lon="8.9447091"><ele>364.0</ele><time>2026-04-09T12:54:54.176Z</time></trkpt><trkpt lat="44.5959588" lon="8.9450536"><ele>364.0</ele><time>2026-04-09T12:54:55.999Z</time></trkpt><trkpt lat="44.5958569" lon="8.9452344"><ele>364.0</ele><time>2026-04-09T12:54:57Z</time></trkpt><trkpt lat="44.5956174" lon="8.9458685"><ele>366.0</ele><time>2026-04-09T12:54:59.999Z</time></trkpt><trkpt lat="44.595547" lon="8.9460853"><ele>368.0</ele><time>2026-04-09T12:55:01.148Z</time></trkpt><trkpt lat="44.5954512" lon="8.9465605"><ele>366.0</ele><time>2026-04-09T12:55:02.999Z</time></trkpt><trkpt lat="44.5954058" lon="8.9467962"><ele>364.0</ele><time>2026-04-09T12:55:04.152Z</time></trkpt><trkpt lat="44.5954059" lon="8.9472892"><ele>361.0</ele><time>2026-04-09T12:55:06.148Z</time></trkpt><trkpt lat="44.5954771" lon="8.9477672"><ele>358.0</ele><time>2026-04-09T12:55:07.999Z</time></trkpt><trkpt lat="44.5955281" lon="8.9480061"><ele>358.0</ele><time>2026-04-09T12:55:08.999Z</time></trkpt><trkpt lat="44.5955632" lon="8.9482547"><ele>358.0</ele><time>2026-04-09T12:55:10.141Z</time></trkpt><trkpt lat="44.5955751" lon="8.948776"><ele>358.0</ele><time>2026-04-09T12:55:12Z</time></trkpt><trkpt lat="44.5955594" lon="8.9490515"><ele>358.0</ele><time>2026-04-09T12:55:13.151Z</time></trkpt><trkpt lat="44.5955426" lon="8.9493283"><ele>358.0</ele><time>2026-04-09T12:55:14.118Z</time></trkpt><trkpt lat="44.5955224" lon="8.9496162"><ele>361.0</ele><time>2026-04-09T12:55:15.151Z</time></trkpt><trkpt lat="44.5955083" lon="8.9498799"><ele>364.0</ele><time>2026-04-09T12:55:16.152Z</time></trkpt><trkpt lat="44.5954866" lon="8.9504495"><ele>365.5</ele><time>2026-04-09T12:55:17.999Z</time></trkpt><trkpt lat="44.5954732" lon="8.9507301"><ele>367.0</ele><time>2026-04-09T12:55:19.153Z</time></trkpt><trkpt lat="44.5954459" lon="8.9513125"><ele>363.0</ele><time>2026-04-09T12:55:21.119Z</time></trkpt><trkpt lat="44.5954258" lon="8.9518502"><ele>359.0</ele><time>2026-04-09T12:55:23Z</time></trkpt><trkpt lat="44.5954118" lon="8.9521016"><ele>359.0</ele><time>2026-04-09T12:55:24Z</time></trkpt><trkpt lat="44.5954023" lon="8.9523742"><ele>359.0</ele><time>2026-04-09T12:55:25.137Z</time></trkpt><trkpt lat="44.5953846" lon="8.9527685"><ele>353.6666666666667</ele><time>2026-04-09T12:55:26.999Z</time></trkpt><trkpt lat="44.5954102" lon="8.9529415"><ele>348.3333333333333</ele><time>2026-04-09T12:55:28Z</time></trkpt><trkpt lat="44.5954698" lon="8.9530961"><ele>343.0</ele><time>2026-04-09T12:55:29.122Z</time></trkpt><trkpt lat="44.5956661" lon="8.9532929"><ele>342.0</ele><time>2026-04-09T12:55:31.158Z</time></trkpt><trkpt lat="44.5959058" lon="8.9534123"><ele>341.0</ele><time>2026-04-09T12:55:32.999Z</time></trkpt><trkpt lat="44.5960478" lon="8.9534365"><ele>340.0</ele><time>2026-04-09T12:55:34Z</time></trkpt><trkpt lat="44.596197" lon="8.9534523"><ele>339.0</ele><time>2026-04-09T12:55:35.146Z</time></trkpt><trkpt lat="44.5963449" lon="8.9534669"><ele>338.0</ele><time>2026-04-09T12:55:36.149Z</time></trkpt><trkpt lat="44.5966349" lon="8.953503"><ele>337.0</ele><time>2026-04-09T12:55:38Z</time></trkpt><trkpt lat="44.5967827" lon="8.9535174"><ele>337.0</ele><time>2026-04-09T12:55:39.14Z</time></trkpt><trkpt lat="44.596928" lon="8.9535339"><ele>337.0</ele><time>2026-04-09T12:55:40.152Z</time></trkpt><trkpt lat="44.5970648" lon="8.9535434"><ele>337.0</ele><time>2026-04-09T12:55:41.15Z</time></trkpt><trkpt lat="44.5973402" lon="8.9535636"><ele>337.0</ele><time>2026-04-09T12:55:43Z</time></trkpt><trkpt lat="44.5974762" lon="8.9535607"><ele>337.0</ele><time>2026-04-09T12:55:44.17Z</time></trkpt><trkpt lat="44.5977583" lon="8.9535126"><ele>337.0</ele><time>2026-04-09T12:55:45.999Z</time></trkpt><trkpt lat="44.5978901" lon="8.9534691"><ele>337.75</ele><time>2026-04-09T12:55:47Z</time></trkpt><trkpt lat="44.5980236" lon="8.9534069"><ele>338.5</ele><time>2026-04-09T12:55:47.999Z</time></trkpt><trkpt lat="44.5981596" lon="8.9533316"><ele>339.25</ele><time>2026-04-09T12:55:49Z</time></trkpt><trkpt lat="44.5982942" lon="8.9532572"><ele>340.0</ele><time>2026-04-09T12:55:49.999Z</time></trkpt><trkpt lat="44.5984308" lon="8.9531774"><ele>340.0</ele><time>2026-04-09T12:55:50.999Z</time></trkpt><trkpt lat="44.5985619" lon="8.953099"><ele>340.0</ele><time>2026-04-09T12:55:51.999Z</time></trkpt><trkpt lat="44.5986932" lon="8.9530204"><ele>340.0</ele><time>2026-04-09T12:55:52.999Z</time></trkpt><trkpt lat="44.5988285" lon="8.952934"><ele>340.0</ele><time>2026-04-09T12:55:54Z</time></trkpt><trkpt lat="44.5989645" lon="8.9528474"><ele>340.0</ele><time>2026-04-09T12:55:55.118Z</time></trkpt><trkpt lat="44.5992382" lon="8.9526774"><ele>340.0</ele><time>2026-04-09T12:55:57Z</time></trkpt><trkpt lat="44.5993757" lon="8.9525852"><ele>340.0</ele><time>2026-04-09T12:55:57.999Z</time></trkpt><trkpt lat="44.5995081" lon="8.9524906"><ele>340.0</ele><time>2026-04-09T12:55:58.999Z</time></trkpt><trkpt lat="44.5996376" lon="8.9523943"><ele>340.0</ele><time>2026-04-09T12:55:59.999Z</time></trkpt><trkpt lat="44.5997601" lon="8.9522892"><ele>340.0</ele><time>2026-04-09T12:56:00.999Z</time></trkpt><trkpt lat="44.5998733" lon="8.9521823"><ele>340.0</ele><time>2026-04-09T12:56:01.999Z</time></trkpt><trkpt lat="44.5999787" lon="8.9520662"><ele>340.0</ele><time>2026-04-09T12:56:02.999Z</time></trkpt><trkpt lat="44.6000742" lon="8.951958"><ele>340.0</ele><time>2026-04-09T12:56:03.999Z</time></trkpt><trkpt lat="44.6001703" lon="8.9518427"><ele>340.0</ele><time>2026-04-09T12:56:05Z</time></trkpt><trkpt lat="44.6002683" lon="8.9517274"><ele>339.75</ele><time>2026-04-09T12:56:05.999Z</time></trkpt><trkpt lat="44.6003635" lon="8.9516042"><ele>339.5</ele><time>2026-04-09T12:56:06.999Z</time></trkpt><trkpt lat="44.6004574" lon="8.9514795"><ele>339.25</ele><time>2026-04-09T12:56:07.999Z</time></trkpt><trkpt lat="44.6005578" lon="8.9513543"><ele>339.0</ele><time>2026-04-09T12:56:08.999Z</time></trkpt><trkpt lat="44.6006575" lon="8.9512309"><ele>339.0</ele><time>2026-04-09T12:56:09.999Z</time></trkpt><trkpt lat="44.6007569" lon="8.9511184"><ele>339.0</ele><time>2026-04-09T12:56:11Z</time></trkpt><trkpt lat="44.6008553" lon="8.951009"><ele>339.0</ele><time>2026-04-09T12:56:11.999Z</time></trkpt><trkpt lat="44.600956" lon="8.950898"><ele>339.0</ele><time>2026-04-09T12:56:12.999Z</time></trkpt><trkpt lat="44.6010502" lon="8.950782"><ele>339.3333333333333</ele><time>2026-04-09T12:56:14Z</time></trkpt><trkpt lat="44.6011466" lon="8.9506633"><ele>339.66666666666663</ele><time>2026-04-09T12:56:15.162Z</time></trkpt><trkpt lat="44.6012484" lon="8.9505427"><ele>340.0</ele><time>2026-04-09T12:56:16.119Z</time></trkpt><trkpt lat="44.6014379" lon="8.950298"><ele>339.0</ele><time>2026-04-09T12:56:18Z</time></trkpt><trkpt lat="44.6015359" lon="8.9501824"><ele>338.0</ele><time>2026-04-09T12:56:18.999Z</time></trkpt><trkpt lat="44.6016338" lon="8.950063"><ele>337.0</ele><time>2026-04-09T12:56:20Z</time></trkpt><trkpt lat="44.6017342" lon="8.9499397"><ele>336.0</ele><time>2026-04-09T12:56:21.172Z</time></trkpt><trkpt lat="44.6019331" lon="8.9497119"><ele>334.25</ele><time>2026-04-09T12:56:23Z</time></trkpt><trkpt lat="44.6020303" lon="8.9495997"><ele>332.5</ele><time>2026-04-09T12:56:24.131Z</time></trkpt><trkpt lat="44.6021277" lon="8.9494832"><ele>330.75</ele><time>2026-04-09T12:56:25.171Z</time></trkpt><trkpt lat="44.6022284" lon="8.9493714"><ele>329.0</ele><time>2026-04-09T12:56:26.169Z</time></trkpt><trkpt lat="44.6023266" lon="8.9492622"><ele>330.75</ele><time>2026-04-09T12:56:26.999Z</time></trkpt><trkpt lat="44.6024333" lon="8.949149"><ele>332.5</ele><time>2026-04-09T12:56:27.999Z</time></trkpt><trkpt lat="44.602542" lon="8.9490443"><ele>334.25</ele><time>2026-04-09T12:56:29Z</time></trkpt><trkpt lat="44.6026619" lon="8.9489414"><ele>336.0</ele><time>2026-04-09T12:56:30.111Z</time></trkpt><trkpt lat="44.602791" lon="8.9488608"><ele>334.3333333333333</ele><time>2026-04-09T12:56:31.132Z</time></trkpt><trkpt lat="44.6030737" lon="8.9487524"><ele>332.66666666666663</ele><time>2026-04-09T12:56:33Z</time></trkpt><trkpt lat="44.6032182" lon="8.9487133"><ele>331.0</ele><time>2026-04-09T12:56:33.999Z</time></trkpt><trkpt lat="44.6033686" lon="8.9486916"><ele>331.0</ele><time>2026-04-09T12:56:35.146Z</time></trkpt><trkpt lat="44.603529" lon="8.9486896"><ele>331.0</ele><time>2026-04-09T12:56:36.127Z</time></trkpt><trkpt lat="44.6038401" lon="8.9487405"><ele>332.0</ele><time>2026-04-09T12:56:38Z</time></trkpt><trkpt lat="44.6039959" lon="8.9487961"><ele>333.0</ele><time>2026-04-09T12:56:39.151Z</time></trkpt><trkpt lat="44.6041475" lon="8.9488717"><ele>334.0</ele><time>2026-04-09T12:56:40.159Z</time></trkpt><trkpt lat="44.6042884" lon="8.948965"><ele>338.0</ele><time>2026-04-09T12:56:41.128Z</time></trkpt><trkpt lat="44.6045594" lon="8.9492208"><ele>342.0</ele><time>2026-04-09T12:56:42.999Z</time></trkpt><trkpt lat="44.6046887" lon="8.9493705"><ele>342.0</ele><time>2026-04-09T12:56:44.154Z</time></trkpt><trkpt lat="44.6048119" lon="8.9495429"><ele>342.0</ele><time>2026-04-09T12:56:45.117Z</time></trkpt><trkpt lat="44.6049363" lon="8.9497213"><ele>342.0</ele><time>2026-04-09T12:56:46.125Z</time></trkpt><trkpt lat="44.6050569" lon="8.9499049"><ele>343.6666666666667</ele><time>2026-04-09T12:56:47Z</time></trkpt><trkpt lat="44.6051844" lon="8.9500991"><ele>345.33333333333337</ele><time>2026-04-09T12:56:47.999Z</time></trkpt><trkpt lat="44.6053175" lon="8.9502929"><ele>347.0</ele><time>2026-04-09T12:56:49.101Z</time></trkpt><trkpt lat="44.6054507" lon="8.9504888"><ele>347.0</ele><time>2026-04-09T12:56:50.121Z</time></trkpt><trkpt lat="44.6055837" lon="8.9506952"><ele>347.0</ele><time>2026-04-09T12:56:51.14Z</time></trkpt><trkpt lat="44.6058358" lon="8.9511187"><ele>342.6666666666667</ele><time>2026-04-09T12:56:52.999Z</time></trkpt><trkpt lat="44.6059518" lon="8.9513428"><ele>338.3333333333333</ele><time>2026-04-09T12:56:54Z</time></trkpt><trkpt lat="44.6060559" lon="8.9515638"><ele>334.0</ele><time>2026-04-09T12:56:55Z</time></trkpt><trkpt lat="44.6061594" lon="8.9517914"><ele>342.0</ele><time>2026-04-09T12:56:55.999Z</time></trkpt><trkpt lat="44.6062648" lon="8.9520095"><ele>350.0</ele><time>2026-04-09T12:56:56.999Z</time></trkpt><trkpt lat="44.6063665" lon="8.9522306"><ele>358.0</ele><time>2026-04-09T12:56:57.999Z</time></trkpt><trkpt lat="44.6064702" lon="8.9524477"><ele>351.3333333333333</ele><time>2026-04-09T12:56:59Z</time></trkpt><trkpt lat="44.6065577" lon="8.9526702"><ele>344.6666666666667</ele><time>2026-04-09T12:57:00.111Z</time></trkpt><trkpt lat="44.6066389" lon="8.9529004"><ele>338.0</ele><time>2026-04-09T12:57:01.137Z</time></trkpt><trkpt lat="44.6067834" lon="8.9533674"><ele>342.5</ele><time>2026-04-09T12:57:03Z</time></trkpt><trkpt lat="44.606865" lon="8.9535748"><ele>347.0</ele><time>2026-04-09T12:57:03.999Z</time></trkpt><trkpt lat="44.6070124" lon="8.9539779"><ele>342.33333333333337</ele><time>2026-04-09T12:57:06.133Z</time></trkpt><trkpt lat="44.607157" lon="8.9543402"><ele>337.6666666666667</ele><time>2026-04-09T12:57:07.999Z</time></trkpt><trkpt lat="44.6072309" lon="8.9545092"><ele>333.0</ele><time>2026-04-09T12:57:09.103Z</time></trkpt><trkpt lat="44.6073088" lon="8.9546652"><ele>333.0</ele><time>2026-04-09T12:57:10.154Z</time></trkpt><trkpt lat="44.6073945" lon="8.9548063"><ele>333.0</ele><time>2026-04-09T12:57:11.157Z</time></trkpt><trkpt lat="44.6075804" lon="8.9550291"><ele>333.0</ele><time>2026-04-09T12:57:12.999Z</time></trkpt><trkpt lat="44.6076883" lon="8.9551018"><ele>333.3333333333333</ele><time>2026-04-09T12:57:14.144Z</time></trkpt><trkpt lat="44.6078022" lon="8.9551477"><ele>333.66666666666663</ele><time>2026-04-09T12:57:15.128Z</time></trkpt><trkpt lat="44.6079199" lon="8.9551725"><ele>334.0</ele><time>2026-04-09T12:57:16.147Z</time></trkpt><trkpt lat="44.6081437" lon="8.9551849"><ele>334.0</ele><time>2026-04-09T12:57:17.999Z</time></trkpt><trkpt lat="44.6082577" lon="8.9551959"><ele>334.0</ele><time>2026-04-09T12:57:19.133Z</time></trkpt><trkpt lat="44.6083687" lon="8.955203"><ele>334.0</ele><time>2026-04-09T12:57:20.115Z</time></trkpt><trkpt lat="44.608486" lon="8.9551927"><ele>334.0</ele><time>2026-04-09T12:57:21.143Z</time></trkpt><trkpt lat="44.608717" lon="8.9551215"><ele>333.66666666666663</ele><time>2026-04-09T12:57:23.16Z</time></trkpt><trkpt lat="44.6088385" lon="8.9550735"><ele>333.3333333333333</ele><time>2026-04-09T12:57:24.136Z</time></trkpt><trkpt lat="44.6089615" lon="8.9550257"><ele>333.0</ele><time>2026-04-09T12:57:25.171Z</time></trkpt><trkpt lat="44.6092111" lon="8.9549349"><ele>333.6666666666667</ele><time>2026-04-09T12:57:26.999Z</time></trkpt><trkpt lat="44.6093349" lon="8.9548886"><ele>334.33333333333337</ele><time>2026-04-09T12:57:27.999Z</time></trkpt><trkpt lat="44.60945" lon="8.9548439"><ele>335.0</ele><time>2026-04-09T12:57:29.108Z</time></trkpt><trkpt lat="44.6096906" lon="8.9547464"><ele>335.0</ele><time>2026-04-09T12:57:31.112Z</time></trkpt><trkpt lat="44.6099227" lon="8.9546764"><ele>335.0</ele><time>2026-04-09T12:57:33Z</time></trkpt><trkpt lat="44.610036" lon="8.95463"><ele>335.0</ele><time>2026-04-09T12:57:33.999Z</time></trkpt><trkpt lat="44.610162" lon="8.9545872"><ele>335.0</ele><time>2026-04-09T12:57:35.136Z</time></trkpt><trkpt lat="44.6102878" lon="8.954541"><ele>335.0</ele><time>2026-04-09T12:57:36.135Z</time></trkpt><trkpt lat="44.6104149" lon="8.9544921"><ele>335.0</ele><time>2026-04-09T12:57:37Z</time></trkpt><trkpt lat="44.6105328" lon="8.9544294"><ele>335.0</ele><time>2026-04-09T12:57:37.999Z</time></trkpt><trkpt lat="44.6106563" lon="8.9543811"><ele>334.0</ele><time>2026-04-09T12:57:39.125Z</time></trkpt><trkpt lat="44.6108955" lon="8.9542618"><ele>333.0</ele><time>2026-04-09T12:57:41.146Z</time></trkpt><trkpt lat="44.6111222" lon="8.9541374"><ele>332.5</ele><time>2026-04-09T12:57:43Z</time></trkpt><trkpt lat="44.6112204" lon="8.954073"><ele>332.0</ele><time>2026-04-09T12:57:44.117Z</time></trkpt><trkpt lat="44.6113053" lon="8.9540096"><ele>331.5</ele><time>2026-04-09T12:57:45.122Z</time></trkpt><trkpt lat="44.6113999" lon="8.9539433"><ele>331.0</ele><time>2026-04-09T12:57:46.132Z</time></trkpt><trkpt lat="44.6116052" lon="8.9538085"><ele>331.0</ele><time>2026-04-09T12:57:47.999Z</time></trkpt><trkpt lat="44.6117009" lon="8.9537593"><ele>331.0</ele><time>2026-04-09T12:57:49.12Z</time></trkpt><trkpt lat="44.6118025" lon="8.9536914"><ele>331.0</ele><time>2026-04-09T12:57:50.129Z</time></trkpt><trkpt lat="44.6119118" lon="8.9536093"><ele>331.0</ele><time>2026-04-09T12:57:51.128Z</time></trkpt><trkpt lat="44.6121137" lon="8.9534629"><ele>330.5</ele><time>2026-04-09T12:57:52.999Z</time></trkpt><trkpt lat="44.6122037" lon="8.9533824"><ele>330.0</ele><time>2026-04-09T12:57:54.159Z</time></trkpt><trkpt lat="44.6122961" lon="8.9532915"><ele>329.5</ele><time>2026-04-09T12:57:55.111Z</time></trkpt><trkpt lat="44.61238" lon="8.9531837"><ele>329.0</ele><time>2026-04-09T12:57:56.13Z</time></trkpt><trkpt lat="44.6124874" lon="8.9528897"><ele>329.0</ele><time>2026-04-09T12:57:58Z</time></trkpt><trkpt lat="44.6125008" lon="8.9527238"><ele>329.0</ele><time>2026-04-09T12:57:59.101Z</time></trkpt><trkpt lat="44.6124891" lon="8.9525539"><ele>329.0</ele><time>2026-04-09T12:58:00.159Z</time></trkpt><trkpt lat="44.6124378" lon="8.9522115"><ele>330.33333333333337</ele><time>2026-04-09T12:58:01.999Z</time></trkpt><trkpt lat="44.6124125" lon="8.9520355"><ele>331.6666666666667</ele><time>2026-04-09T12:58:03.123Z</time></trkpt><trkpt lat="44.6123794" lon="8.9518554"><ele>333.0</ele><time>2026-04-09T12:58:04.154Z</time></trkpt><trkpt lat="44.6123229" lon="8.9514964"><ele>333.3333333333333</ele><time>2026-04-09T12:58:06.136Z</time></trkpt><trkpt lat="44.6122662" lon="8.9511247"><ele>333.66666666666663</ele><time>2026-04-09T12:58:07.999Z</time></trkpt><trkpt lat="44.6122352" lon="8.9509426"><ele>334.0</ele><time>2026-04-09T12:58:09.17Z</time></trkpt><trkpt lat="44.6122068" lon="8.9507734"><ele>332.3333333333333</ele><time>2026-04-09T12:58:10.169Z</time></trkpt><trkpt lat="44.6121977" lon="8.9505948"><ele>330.6666666666667</ele><time>2026-04-09T12:58:11.172Z</time></trkpt><trkpt lat="44.6122335" lon="8.9502655"><ele>329.0</ele><time>2026-04-09T12:58:12.999Z</time></trkpt><trkpt lat="44.6122969" lon="8.9501246"><ele>330.0</ele><time>2026-04-09T12:58:13.999Z</time></trkpt><trkpt lat="44.6123683" lon="8.9499964"><ele>331.0</ele><time>2026-04-09T12:58:15.156Z</time></trkpt><trkpt lat="44.6124748" lon="8.9498846"><ele>332.0</ele><time>2026-04-09T12:58:16.161Z</time></trkpt><trkpt lat="44.6127102" lon="8.9497078"><ele>330.25</ele><time>2026-04-09T12:58:18Z</time></trkpt><trkpt lat="44.612827" lon="8.9496196"><ele>328.5</ele><time>2026-04-09T12:58:19Z</time></trkpt><trkpt lat="44.6129545" lon="8.9495227"><ele>326.75</ele><time>2026-04-09T12:58:20.167Z</time></trkpt><trkpt lat="44.6130721" lon="8.9494469"><ele>325.0</ele><time>2026-04-09T12:58:21.131Z</time></trkpt><trkpt lat="44.6133187" lon="8.9492421"><ele>325.25</ele><time>2026-04-09T12:58:23Z</time></trkpt><trkpt lat="44.6134333" lon="8.9491542"><ele>325.5</ele><time>2026-04-09T12:58:23.999Z</time></trkpt><trkpt lat="44.6135458" lon="8.9490712"><ele>325.75</ele><time>2026-04-09T12:58:25.113Z</time></trkpt><trkpt lat="44.6136573" lon="8.9489977"><ele>326.0</ele><time>2026-04-09T12:58:26.135Z</time></trkpt><trkpt lat="44.613873" lon="8.9488958"><ele>325.25</ele><time>2026-04-09T12:58:27.999Z</time></trkpt><trkpt lat="44.6139826" lon="8.9488746"><ele>324.5</ele><time>2026-04-09T12:58:29.11Z</time></trkpt><trkpt lat="44.6140968" lon="8.948864"><ele>323.75</ele><time>2026-04-09T12:58:30.158Z</time></trkpt><trkpt lat="44.6142017" lon="8.9488479"><ele>323.0</ele><time>2026-04-09T12:58:31.15Z</time></trkpt><trkpt lat="44.6143833" lon="8.9487372"><ele>323.0</ele><time>2026-04-09T12:58:33Z</time></trkpt><trkpt lat="44.6144512" lon="8.9486086"><ele>323.0</ele><time>2026-04-09T12:58:33.999Z</time></trkpt><trkpt lat="44.6145181" lon="8.9484705"><ele>323.0</ele><time>2026-04-09T12:58:35Z</time></trkpt><trkpt lat="44.6145773" lon="8.9483214"><ele>323.0</ele><time>2026-04-09T12:58:35.999Z</time></trkpt><trkpt lat="44.6146414" lon="8.9481671"><ele>323.0</ele><time>2026-04-09T12:58:36.999Z</time></trkpt><trkpt lat="44.6147071" lon="8.9480149"><ele>323.0</ele><time>2026-04-09T12:58:37.999Z</time></trkpt><trkpt lat="44.6147682" lon="8.9478498"><ele>323.0</ele><time>2026-04-09T12:58:39.134Z</time></trkpt><trkpt lat="44.6148337" lon="8.9476905"><ele>323.0</ele><time>2026-04-09T12:58:40.122Z</time></trkpt><trkpt lat="44.614903" lon="8.9475314"><ele>324.0</ele><time>2026-04-09T12:58:41.109Z</time></trkpt><trkpt lat="44.6150267" lon="8.9472234"><ele>325.0</ele><time>2026-04-09T12:58:42.999Z</time></trkpt><trkpt lat="44.6150892" lon="8.9470713"><ele>326.0</ele><time>2026-04-09T12:58:44.15Z</time></trkpt><trkpt lat="44.615151" lon="8.9469235"><ele>326.0</ele><time>2026-04-09T12:58:45.144Z</time></trkpt><trkpt lat="44.6152174" lon="8.9467776"><ele>326.0</ele><time>2026-04-09T12:58:46.145Z</time></trkpt><trkpt lat="44.6153502" lon="8.9464858"><ele>326.0</ele><time>2026-04-09T12:58:47.999Z</time></trkpt><trkpt lat="44.6154079" lon="8.9463404"><ele>324.0</ele><time>2026-04-09T12:58:49Z</time></trkpt><trkpt lat="44.615473" lon="8.9461851"><ele>322.0</ele><time>2026-04-09T12:58:50.112Z</time></trkpt><trkpt lat="44.6155978" lon="8.9458781"><ele>320.0</ele><time>2026-04-09T12:58:51.999Z</time></trkpt><trkpt lat="44.6156627" lon="8.9457344"><ele>320.0</ele><time>2026-04-09T12:58:52.999Z</time></trkpt><trkpt lat="44.6157217" lon="8.9455866"><ele>320.0</ele><time>2026-04-09T12:58:54.132Z</time></trkpt><trkpt lat="44.6157824" lon="8.9454317"><ele>320.0</ele><time>2026-04-09T12:58:55.145Z</time></trkpt><trkpt lat="44.6158415" lon="8.9452838"><ele>320.0</ele><time>2026-04-09T12:58:56.166Z</time></trkpt><trkpt lat="44.615955" lon="8.9450044"><ele>321.33333333333337</ele><time>2026-04-09T12:58:57.999Z</time></trkpt><trkpt lat="44.6160142" lon="8.9448623"><ele>322.6666666666667</ele><time>2026-04-09T12:58:58.999Z</time></trkpt><trkpt lat="44.6160776" lon="8.94473"><ele>324.0</ele><time>2026-04-09T12:59:00.167Z</time></trkpt><trkpt lat="44.6162467" lon="8.9444802"><ele>322.0</ele><time>2026-04-09T12:59:02Z</time></trkpt><trkpt lat="44.6163487" lon="8.9443831"><ele>320.0</ele><time>2026-04-09T12:59:02.999Z</time></trkpt><trkpt lat="44.61647" lon="8.9443345"><ele>318.0</ele><time>2026-04-09T12:59:04.157Z</time></trkpt><trkpt lat="44.6165803" lon="8.9443002"><ele>316.0</ele><time>2026-04-09T12:59:05.135Z</time></trkpt><trkpt lat="44.6166903" lon="8.9442741"><ele>316.0</ele><time>2026-04-09T12:59:06.142Z</time></trkpt><trkpt lat="44.6169045" lon="8.9442328"><ele>316.0</ele><time>2026-04-09T12:59:08Z</time></trkpt><trkpt lat="44.6169967" lon="8.9442209"><ele>316.0</ele><time>2026-04-09T12:59:08.999Z</time></trkpt><trkpt lat="44.6170805" lon="8.9442109"><ele>316.0</ele><time>2026-04-09T12:59:09.999Z</time></trkpt><trkpt lat="44.6171703" lon="8.9442021"><ele>316.0</ele><time>2026-04-09T12:59:11.117Z</time></trkpt><trkpt lat="44.61738" lon="8.9441875"><ele>316.0</ele><time>2026-04-09T12:59:12.999Z</time></trkpt><trkpt lat="44.6174952" lon="8.9442097"><ele>316.0</ele><time>2026-04-09T12:59:14.168Z</time></trkpt><trkpt lat="44.6176195" lon="8.9442549"><ele>318.0</ele><time>2026-04-09T12:59:15.177Z</time></trkpt><trkpt lat="44.6178468" lon="8.9444108"><ele>320.0</ele><time>2026-04-09T12:59:16.999Z</time></trkpt><trkpt lat="44.6179691" lon="8.9445141"><ele>322.0</ele><time>2026-04-09T12:59:17.999Z</time></trkpt><trkpt lat="44.6180998" lon="8.9446243"><ele>322.0</ele><time>2026-04-09T12:59:18.999Z</time></trkpt><trkpt lat="44.6182274" lon="8.944748"><ele>322.0</ele><time>2026-04-09T12:59:20.106Z</time></trkpt><trkpt lat="44.6183508" lon="8.9448617"><ele>322.0</ele><time>2026-04-09T12:59:21.114Z</time></trkpt><trkpt lat="44.6186246" lon="8.9450406"><ele>319.3333333333333</ele><time>2026-04-09T12:59:22.999Z</time></trkpt><trkpt lat="44.6187726" lon="8.9451124"><ele>316.6666666666667</ele><time>2026-04-09T12:59:24.11Z</time></trkpt><trkpt lat="44.6189254" lon="8.9451713"><ele>314.0</ele><time>2026-04-09T12:59:25.129Z</time></trkpt><trkpt lat="44.6190756" lon="8.9452297"><ele>314.0</ele><time>2026-04-09T12:59:26.139Z</time></trkpt><trkpt lat="44.619379" lon="8.9453487"><ele>314.0</ele><time>2026-04-09T12:59:28Z</time></trkpt><trkpt lat="44.6195302" lon="8.9454083"><ele>315.6666666666667</ele><time>2026-04-09T12:59:29.111Z</time></trkpt><trkpt lat="44.6196799" lon="8.9454655"><ele>317.3333333333333</ele><time>2026-04-09T12:59:30.151Z</time></trkpt><trkpt lat="44.6198251" lon="8.9455186"><ele>319.0</ele><time>2026-04-09T12:59:31.147Z</time></trkpt><trkpt lat="44.6201148" lon="8.9456711"><ele>319.0</ele><time>2026-04-09T12:59:32.999Z</time></trkpt><trkpt lat="44.6202484" lon="8.9457827"><ele>319.0</ele><time>2026-04-09T12:59:34.154Z</time></trkpt><trkpt lat="44.620373" lon="8.9459086"><ele>319.0</ele><time>2026-04-09T12:59:35.148Z</time></trkpt><trkpt lat="44.6204834" lon="8.9460646"><ele>325.0</ele><time>2026-04-09T12:59:36.15Z</time></trkpt><trkpt lat="44.6206974" lon="8.946395"><ele>331.0</ele><time>2026-04-09T12:59:37.999Z</time></trkpt><trkpt lat="44.6208007" lon="8.9465753"><ele>323.5</ele><time>2026-04-09T12:59:39.156Z</time></trkpt><trkpt lat="44.6210045" lon="8.9469426"><ele>316.0</ele><time>2026-04-09T12:59:41.149Z</time></trkpt><trkpt lat="44.621204" lon="8.9473359"><ele>322.0</ele><time>2026-04-09T12:59:42.999Z</time></trkpt><trkpt lat="44.6212952" lon="8.9475349"><ele>328.0</ele><time>2026-04-09T12:59:44.134Z</time></trkpt><trkpt lat="44.6213751" lon="8.9477245"><ele>334.0</ele><time>2026-04-09T12:59:45.128Z</time></trkpt><trkpt lat="44.6214474" lon="8.9479137"><ele>334.0</ele><time>2026-04-09T12:59:46.18Z</time></trkpt><trkpt lat="44.6215722" lon="8.9483013"><ele>334.0</ele><time>2026-04-09T12:59:48Z</time></trkpt><trkpt lat="44.6216266" lon="8.9485097"><ele>328.0</ele><time>2026-04-09T12:59:49.114Z</time></trkpt><trkpt lat="44.6216787" lon="8.948723"><ele>322.0</ele><time>2026-04-09T12:59:50.109Z</time></trkpt><trkpt lat="44.6217773" lon="8.9491601"><ele>320.66666666666663</ele><time>2026-04-09T12:59:51.999Z</time></trkpt><trkpt lat="44.6218285" lon="8.9493835"><ele>319.3333333333333</ele><time>2026-04-09T12:59:53Z</time></trkpt><trkpt lat="44.6218776" lon="8.9496011"><ele>318.0</ele><time>2026-04-09T12:59:54.166Z</time></trkpt><trkpt lat="44.6219293" lon="8.9498075"><ele>317.5</ele><time>2026-04-09T12:59:55.132Z</time></trkpt><trkpt lat="44.6219901" lon="8.9500122"><ele>317.0</ele><time>2026-04-09T12:59:56.158Z</time></trkpt><trkpt lat="44.6221771" lon="8.9503729"><ele>317.0</ele><time>2026-04-09T12:59:57.999Z</time></trkpt><trkpt lat="44.6223019" lon="8.9505131"><ele>317.0</ele><time>2026-04-09T12:59:59Z</time></trkpt><trkpt lat="44.6224387" lon="8.9506166"><ele>317.0</ele><time>2026-04-09T13:00:00.159Z</time></trkpt><trkpt lat="44.6225757" lon="8.9506754"><ele>315.0</ele><time>2026-04-09T13:00:01.124Z</time></trkpt><trkpt lat="44.6228723" lon="8.9506441"><ele>313.0</ele><time>2026-04-09T13:00:03Z</time></trkpt><trkpt lat="44.6230177" lon="8.9505901"><ele>311.0</ele><time>2026-04-09T13:00:04.163Z</time></trkpt><trkpt lat="44.6232708" lon="8.9503558"><ele>311.0</ele><time>2026-04-09T13:00:06.135Z</time></trkpt><trkpt lat="44.6235421" lon="8.9500428"><ele>311.0</ele><time>2026-04-09T13:00:08Z</time></trkpt><trkpt lat="44.6236851" lon="8.949879"><ele>311.33333333333337</ele><time>2026-04-09T13:00:09.141Z</time></trkpt><trkpt lat="44.6238239" lon="8.9497114"><ele>311.6666666666667</ele><time>2026-04-09T13:00:10.157Z</time></trkpt><trkpt lat="44.6239536" lon="8.9495217"><ele>312.0</ele><time>2026-04-09T13:00:11.137Z</time></trkpt><trkpt lat="44.6241942" lon="8.9491344"><ele>314.5</ele><time>2026-04-09T13:00:12.999Z</time></trkpt><trkpt lat="44.6243109" lon="8.9489374"><ele>317.0</ele><time>2026-04-09T13:00:13.999Z</time></trkpt><trkpt lat="44.6245511" lon="8.9485442"><ele>316.0</ele><time>2026-04-09T13:00:16.123Z</time></trkpt><trkpt lat="44.6247971" lon="8.9481564"><ele>315.0</ele><time>2026-04-09T13:00:17.999Z</time></trkpt><trkpt lat="44.6249191" lon="8.947962"><ele>315.0</ele><time>2026-04-09T13:00:19.109Z</time></trkpt><trkpt lat="44.6251327" lon="8.9475634"><ele>315.0</ele><time>2026-04-09T13:00:21.115Z</time></trkpt><trkpt lat="44.6253252" lon="8.9471354"><ele>314.0</ele><time>2026-04-09T13:00:23Z</time></trkpt><trkpt lat="44.6254185" lon="8.9469148"><ele>313.0</ele><time>2026-04-09T13:00:24.156Z</time></trkpt><trkpt lat="44.6255136" lon="8.9466859"><ele>312.0</ele><time>2026-04-09T13:00:25.141Z</time></trkpt><trkpt lat="44.625617" lon="8.9464725"><ele>312.0</ele><time>2026-04-09T13:00:26.14Z</time></trkpt><trkpt lat="44.6258318" lon="8.9460495"><ele>312.0</ele><time>2026-04-09T13:00:28Z</time></trkpt><trkpt lat="44.6259516" lon="8.9458436"><ele>311.6666666666667</ele><time>2026-04-09T13:00:29.156Z</time></trkpt><trkpt lat="44.6260725" lon="8.9456362"><ele>311.33333333333337</ele><time>2026-04-09T13:00:30.125Z</time></trkpt><trkpt lat="44.6261952" lon="8.9454389"><ele>311.0</ele><time>2026-04-09T13:00:31.131Z</time></trkpt><trkpt lat="44.6264456" lon="8.9450425"><ele>311.0</ele><time>2026-04-09T13:00:32.999Z</time></trkpt><trkpt lat="44.626572" lon="8.9448466"><ele>311.0</ele><time>2026-04-09T13:00:34.152Z</time></trkpt><trkpt lat="44.626698" lon="8.9446513"><ele>311.0</ele><time>2026-04-09T13:00:35.11Z</time></trkpt><trkpt lat="44.6268209" lon="8.9444615"><ele>311.0</ele><time>2026-04-09T13:00:36.106Z</time></trkpt><trkpt lat="44.6269447" lon="8.9442665"><ele>311.0</ele><time>2026-04-09T13:00:37Z</time></trkpt><trkpt lat="44.6270668" lon="8.9440737"><ele>311.0</ele><time>2026-04-09T13:00:37.999Z</time></trkpt><trkpt lat="44.627189" lon="8.9438873"><ele>310.6666666666667</ele><time>2026-04-09T13:00:39.15Z</time></trkpt><trkpt lat="44.6273018" lon="8.9436941"><ele>310.3333333333333</ele><time>2026-04-09T13:00:40.153Z</time></trkpt><trkpt lat="44.6274078" lon="8.9435053"><ele>310.0</ele><time>2026-04-09T13:00:41.114Z</time></trkpt><trkpt lat="44.6276251" lon="8.943124"><ele>310.0</ele><time>2026-04-09T13:00:43Z</time></trkpt><trkpt lat="44.6277328" lon="8.9429431"><ele>310.0</ele><time>2026-04-09T13:00:44.161Z</time></trkpt><trkpt lat="44.627843" lon="8.942777"><ele>310.0</ele><time>2026-04-09T13:00:45.153Z</time></trkpt><trkpt lat="44.6280965" lon="8.9424933"><ele>310.66666666666663</ele><time>2026-04-09T13:00:47Z</time></trkpt><trkpt lat="44.6282383" lon="8.9423694"><ele>311.3333333333333</ele><time>2026-04-09T13:00:48Z</time></trkpt><trkpt lat="44.6283901" lon="8.9422657"><ele>312.0</ele><time>2026-04-09T13:00:49.159Z</time></trkpt><trkpt lat="44.6285451" lon="8.9421803"><ele>307.5</ele><time>2026-04-09T13:00:50.132Z</time></trkpt><trkpt lat="44.6288337" lon="8.9419784"><ele>303.0</ele><time>2026-04-09T13:00:51.999Z</time></trkpt><trkpt lat="44.6289738" lon="8.9418785"><ele>303.0</ele><time>2026-04-09T13:00:53.15Z</time></trkpt><trkpt lat="44.6291183" lon="8.9417806"><ele>303.0</ele><time>2026-04-09T13:00:54.158Z</time></trkpt><trkpt lat="44.6292581" lon="8.9416785"><ele>303.0</ele><time>2026-04-09T13:00:55.155Z</time></trkpt><trkpt lat="44.6293982" lon="8.9415813"><ele>303.0</ele><time>2026-04-09T13:00:56.157Z</time></trkpt><trkpt lat="44.6296738" lon="8.9413879"><ele>303.0</ele><time>2026-04-09T13:00:57.999Z</time></trkpt><trkpt lat="44.629811" lon="8.9412904"><ele>303.0</ele><time>2026-04-09T13:00:59.173Z</time></trkpt><trkpt lat="44.629943" lon="8.9411953"><ele>303.0</ele><time>2026-04-09T13:01:00.139Z</time></trkpt><trkpt lat="44.6300732" lon="8.9411277"><ele>303.0</ele><time>2026-04-09T13:01:01.147Z</time></trkpt><trkpt lat="44.6303405" lon="8.9411099"><ele>304.0</ele><time>2026-04-09T13:01:03Z</time></trkpt><trkpt lat="44.6304833" lon="8.9411453"><ele>305.0</ele><time>2026-04-09T13:01:04.136Z</time></trkpt><trkpt lat="44.6307658" lon="8.9412635"><ele>306.0</ele><time>2026-04-09T13:01:06.125Z</time></trkpt><trkpt lat="44.631023" lon="8.9414583"><ele>305.6666666666667</ele><time>2026-04-09T13:01:07.999Z</time></trkpt><trkpt lat="44.6311509" lon="8.9415666"><ele>305.33333333333337</ele><time>2026-04-09T13:01:09.155Z</time></trkpt><trkpt lat="44.6312737" lon="8.9416741"><ele>305.0</ele><time>2026-04-09T13:01:10.161Z</time></trkpt><trkpt lat="44.6315325" lon="8.9418983"><ele>305.0</ele><time>2026-04-09T13:01:12Z</time></trkpt><trkpt lat="44.6316655" lon="8.9420068"><ele>305.0</ele><time>2026-04-09T13:01:12.999Z</time></trkpt><trkpt lat="44.631798" lon="8.9421078"><ele>305.0</ele><time>2026-04-09T13:01:14.125Z</time></trkpt><trkpt lat="44.6320809" lon="8.9422833"><ele>307.0</ele><time>2026-04-09T13:01:16.125Z</time></trkpt><trkpt lat="44.6323165" lon="8.9425564"><ele>309.0</ele><time>2026-04-09T13:01:18Z</time></trkpt><trkpt lat="44.6324219" lon="8.9427287"><ele>309.0</ele><time>2026-04-09T13:01:19.129Z</time></trkpt><trkpt lat="44.6325249" lon="8.9429114"><ele>309.0</ele><time>2026-04-09T13:01:20.112Z</time></trkpt><trkpt lat="44.6327384" lon="8.943285"><ele>310.3333333333333</ele><time>2026-04-09T13:01:22Z</time></trkpt><trkpt lat="44.6328491" lon="8.9434756"><ele>311.66666666666663</ele><time>2026-04-09T13:01:22.999Z</time></trkpt><trkpt lat="44.6329597" lon="8.9436733"><ele>313.0</ele><time>2026-04-09T13:01:24.149Z</time></trkpt><trkpt lat="44.6331843" lon="8.9440636"><ele>310.66666666666663</ele><time>2026-04-09T13:01:26Z</time></trkpt><trkpt lat="44.6332962" lon="8.9442601"><ele>308.3333333333333</ele><time>2026-04-09T13:01:26.999Z</time></trkpt><trkpt lat="44.6334118" lon="8.9444546"><ele>306.0</ele><time>2026-04-09T13:01:28Z</time></trkpt><trkpt lat="44.6335144" lon="8.9446393"><ele>306.0</ele><time>2026-04-09T13:01:29.123Z</time></trkpt><trkpt lat="44.6336167" lon="8.9448199"><ele>306.0</ele><time>2026-04-09T13:01:30.133Z</time></trkpt><trkpt lat="44.6338182" lon="8.9451722"><ele>308.0</ele><time>2026-04-09T13:01:31.999Z</time></trkpt><trkpt lat="44.6339203" lon="8.945348"><ele>310.0</ele><time>2026-04-09T13:01:33Z</time></trkpt><trkpt lat="44.634029" lon="8.945525"><ele>312.0</ele><time>2026-04-09T13:01:33.999Z</time></trkpt><trkpt lat="44.6341478" lon="8.9456862"><ele>312.0</ele><time>2026-04-09T13:01:35.118Z</time></trkpt><trkpt lat="44.6342748" lon="8.9458451"><ele>312.0</ele><time>2026-04-09T13:01:36.156Z</time></trkpt><trkpt lat="44.6345111" lon="8.9461665"><ele>316.6666666666667</ele><time>2026-04-09T13:01:37.999Z</time></trkpt><trkpt lat="44.6346108" lon="8.9463566"><ele>321.33333333333337</ele><time>2026-04-09T13:01:39.101Z</time></trkpt><trkpt lat="44.6346942" lon="8.9465663"><ele>326.0</ele><time>2026-04-09T13:01:40.127Z</time></trkpt><trkpt lat="44.6347626" lon="8.9467982"><ele>326.0</ele><time>2026-04-09T13:01:41.141Z</time></trkpt><trkpt lat="44.6348519" lon="8.9472722"><ele>326.0</ele><time>2026-04-09T13:01:42.999Z</time></trkpt><trkpt lat="44.6348904" lon="8.9474925"><ele>323.0</ele><time>2026-04-09T13:01:44.162Z</time></trkpt><trkpt lat="44.6349144" lon="8.9477066"><ele>320.0</ele><time>2026-04-09T13:01:45.108Z</time></trkpt><trkpt lat="44.6349339" lon="8.9479291"><ele>317.0</ele><time>2026-04-09T13:01:46.131Z</time></trkpt><trkpt lat="44.6349458" lon="8.9483691"><ele>314.25</ele><time>2026-04-09T13:01:48Z</time></trkpt><trkpt lat="44.6349463" lon="8.948575"><ele>311.5</ele><time>2026-04-09T13:01:49.122Z</time></trkpt><trkpt lat="44.6349423" lon="8.9487655"><ele>308.75</ele><time>2026-04-09T13:01:50.156Z</time></trkpt><trkpt lat="44.6349436" lon="8.9489469"><ele>306.0</ele><time>2026-04-09T13:01:51.149Z</time></trkpt><trkpt lat="44.6350231" lon="8.9492559"><ele>307.0</ele><time>2026-04-09T13:01:53Z</time></trkpt><trkpt lat="44.6351084" lon="8.9494021"><ele>308.0</ele><time>2026-04-09T13:01:54.157Z</time></trkpt><trkpt lat="44.6352198" lon="8.9495173"><ele>309.0</ele><time>2026-04-09T13:01:55.139Z</time></trkpt><trkpt lat="44.6353392" lon="8.9496341"><ele>310.0</ele><time>2026-04-09T13:01:56.13Z</time></trkpt><trkpt lat="44.6355968" lon="8.9498617"><ele>310.0</ele><time>2026-04-09T13:01:57.999Z</time></trkpt><trkpt lat="44.6357264" lon="8.9499876"><ele>310.0</ele><time>2026-04-09T13:01:59Z</time></trkpt><trkpt lat="44.6358576" lon="8.9501122"><ele>310.0</ele><time>2026-04-09T13:01:59.999Z</time></trkpt><trkpt lat="44.6359923" lon="8.9502276"><ele>309.0</ele><time>2026-04-09T13:02:00.999Z</time></trkpt><trkpt lat="44.6361288" lon="8.9503578"><ele>308.0</ele><time>2026-04-09T13:02:02Z</time></trkpt><trkpt lat="44.6362698" lon="8.9504799"><ele>307.0</ele><time>2026-04-09T13:02:02.999Z</time></trkpt><trkpt lat="44.6364123" lon="8.9506056"><ele>307.0</ele><time>2026-04-09T13:02:04Z</time></trkpt><trkpt lat="44.6365535" lon="8.9507426"><ele>307.0</ele><time>2026-04-09T13:02:04.999Z</time></trkpt><trkpt lat="44.6366984" lon="8.9508745"><ele>307.0</ele><time>2026-04-09T13:02:05.999Z</time></trkpt><trkpt lat="44.6368422" lon="8.951006"><ele>305.66666666666663</ele><time>2026-04-09T13:02:07Z</time></trkpt><trkpt lat="44.6369858" lon="8.9511399"><ele>304.3333333333333</ele><time>2026-04-09T13:02:08Z</time></trkpt><trkpt lat="44.6371315" lon="8.9512707"><ele>303.0</ele><time>2026-04-09T13:02:09Z</time></trkpt><trkpt lat="44.6372773" lon="8.9514024"><ele>303.0</ele><time>2026-04-09T13:02:09.999Z</time></trkpt><trkpt lat="44.6374186" lon="8.9515332"><ele>303.0</ele><time>2026-04-09T13:02:11Z</time></trkpt><trkpt lat="44.6375703" lon="8.9516469"><ele>303.0</ele><time>2026-04-09T13:02:12Z</time></trkpt><trkpt lat="44.6377289" lon="8.9517492"><ele>301.6666666666667</ele><time>2026-04-09T13:02:13Z</time></trkpt><trkpt lat="44.6378941" lon="8.95183"><ele>300.33333333333337</ele><time>2026-04-09T13:02:14.11Z</time></trkpt><trkpt lat="44.6380549" lon="8.9519025"><ele>299.0</ele><time>2026-04-09T13:02:15.175Z</time></trkpt><trkpt lat="44.6382148" lon="8.9519745"><ele>299.0</ele><time>2026-04-09T13:02:16.149Z</time></trkpt><trkpt lat="44.6385353" lon="8.9520971"><ele>299.0</ele><time>2026-04-09T13:02:17.999Z</time></trkpt><trkpt lat="44.6386926" lon="8.9521623"><ele>300.33333333333337</ele><time>2026-04-09T13:02:19.179Z</time></trkpt><trkpt lat="44.6388462" lon="8.9522318"><ele>301.6666666666667</ele><time>2026-04-09T13:02:20.126Z</time></trkpt><trkpt lat="44.6389996" lon="8.9522958"><ele>303.0</ele><time>2026-04-09T13:02:21.139Z</time></trkpt><trkpt lat="44.6392781" lon="8.9524093"><ele>303.0</ele><time>2026-04-09T13:02:23Z</time></trkpt><trkpt lat="44.6394195" lon="8.9524711"><ele>303.0</ele><time>2026-04-09T13:02:24.128Z</time></trkpt><trkpt lat="44.6395625" lon="8.9525211"><ele>303.0</ele><time>2026-04-09T13:02:25.101Z</time></trkpt><trkpt lat="44.6396933" lon="8.952584"><ele>303.0</ele><time>2026-04-09T13:02:26.132Z</time></trkpt><trkpt lat="44.6399602" lon="8.952698"><ele>301.25</ele><time>2026-04-09T13:02:28Z</time></trkpt><trkpt lat="44.6401036" lon="8.952747"><ele>299.5</ele><time>2026-04-09T13:02:29.107Z</time></trkpt><trkpt lat="44.6402434" lon="8.9527968"><ele>297.75</ele><time>2026-04-09T13:02:30.135Z</time></trkpt><trkpt lat="44.6403815" lon="8.9528384"><ele>296.0</ele><time>2026-04-09T13:02:31.146Z</time></trkpt><trkpt lat="44.640651" lon="8.9529512"><ele>296.0</ele><time>2026-04-09T13:02:33Z</time></trkpt><trkpt lat="44.6407899" lon="8.9530192"><ele>296.0</ele><time>2026-04-09T13:02:34Z</time></trkpt><trkpt lat="44.641059" lon="8.9531623"><ele>296.0</ele><time>2026-04-09T13:02:36.155Z</time></trkpt><trkpt lat="44.6413368" lon="8.9532899"><ele>294.5</ele><time>2026-04-09T13:02:38Z</time></trkpt><trkpt lat="44.6414702" lon="8.9533424"><ele>293.0</ele><time>2026-04-09T13:02:39.158Z</time></trkpt><trkpt lat="44.6416026" lon="8.9533977"><ele>291.5</ele><time>2026-04-09T13:02:40.159Z</time></trkpt><trkpt lat="44.6417418" lon="8.9534689"><ele>290.0</ele><time>2026-04-09T13:02:41.13Z</time></trkpt><trkpt lat="44.6419642" lon="8.9536958"><ele>290.75</ele><time>2026-04-09T13:02:42.999Z</time></trkpt><trkpt lat="44.6420632" lon="8.9538366"><ele>291.5</ele><time>2026-04-09T13:02:44Z</time></trkpt><trkpt lat="44.642156" lon="8.9539779"><ele>292.25</ele><time>2026-04-09T13:02:45.12Z</time></trkpt><trkpt lat="44.6422492" lon="8.9541167"><ele>293.0</ele><time>2026-04-09T13:02:46.135Z</time></trkpt><trkpt lat="44.6424343" lon="8.9543646"><ele>293.0</ele><time>2026-04-09T13:02:48Z</time></trkpt><trkpt lat="44.6425217" lon="8.9544744"><ele>293.0</ele><time>2026-04-09T13:02:49.116Z</time></trkpt><trkpt lat="44.6426062" lon="8.9545824"><ele>293.0</ele><time>2026-04-09T13:02:50.152Z</time></trkpt><trkpt lat="44.6426925" lon="8.9546878"><ele>293.0</ele><time>2026-04-09T13:02:51.146Z</time></trkpt><trkpt lat="44.6428659" lon="8.9548997"><ele>293.25</ele><time>2026-04-09T13:02:53Z</time></trkpt><trkpt lat="44.6429531" lon="8.9550058"><ele>293.5</ele><time>2026-04-09T13:02:54.152Z</time></trkpt><trkpt lat="44.6430431" lon="8.9551096"><ele>293.75</ele><time>2026-04-09T13:02:55.12Z</time></trkpt><trkpt lat="44.6431415" lon="8.9551953"><ele>294.0</ele><time>2026-04-09T13:02:56.125Z</time></trkpt><trkpt lat="44.6433483" lon="8.9553723"><ele>294.0</ele><time>2026-04-09T13:02:57.999Z</time></trkpt><trkpt lat="44.6434502" lon="8.95546"><ele>294.0</ele><time>2026-04-09T13:02:59.126Z</time></trkpt><trkpt lat="44.6435485" lon="8.9555462"><ele>294.0</ele><time>2026-04-09T13:03:00.16Z</time></trkpt><trkpt lat="44.6436561" lon="8.9556282"><ele>294.0</ele><time>2026-04-09T13:03:01.163Z</time></trkpt><trkpt lat="44.6438778" lon="8.9557917"><ele>294.3333333333333</ele><time>2026-04-09T13:03:03Z</time></trkpt><trkpt lat="44.6439914" lon="8.9558836"><ele>294.66666666666663</ele><time>2026-04-09T13:03:04.161Z</time></trkpt><trkpt lat="44.6440998" lon="8.9559695"><ele>295.0</ele><time>2026-04-09T13:03:05.139Z</time></trkpt><trkpt lat="44.6443002" lon="8.9561323"><ele>295.0</ele><time>2026-04-09T13:03:06.999Z</time></trkpt><trkpt lat="44.644398" lon="8.9562201"><ele>295.0</ele><time>2026-04-09T13:03:08Z</time></trkpt><trkpt lat="44.6444993" lon="8.9562884"><ele>295.0</ele><time>2026-04-09T13:03:08.999Z</time></trkpt><trkpt lat="44.6446109" lon="8.9563254"><ele>295.0</ele><time>2026-04-09T13:03:10Z</time></trkpt><trkpt lat="44.6447156" lon="8.9563577"><ele>296.0</ele><time>2026-04-09T13:03:10.999Z</time></trkpt><trkpt lat="44.6448132" lon="8.9564159"><ele>297.0</ele><time>2026-04-09T13:03:11.999Z</time></trkpt><trkpt lat="44.6449166" lon="8.9564586"><ele>298.0</ele><time>2026-04-09T13:03:12.999Z</time></trkpt><trkpt lat="44.6450025" lon="8.9564935"><ele>299.0</ele><time>2026-04-09T13:03:14.152Z</time></trkpt><trkpt lat="44.645182" lon="8.9565479"><ele>299.4</ele><time>2026-04-09T13:03:16.143Z</time></trkpt><trkpt lat="44.6453143" lon="8.9565888"><ele>299.79999999999995</ele><time>2026-04-09T13:03:17.999Z</time></trkpt><trkpt lat="44.6453882" lon="8.9566104"><ele>300.20000000000005</ele><time>2026-04-09T13:03:19.154Z</time></trkpt><trkpt lat="44.645456" lon="8.9566367"><ele>300.6</ele><time>2026-04-09T13:03:20.157Z</time></trkpt><trkpt lat="44.6455413" lon="8.9566669"><ele>301.0</ele><time>2026-04-09T13:03:21.136Z</time></trkpt><trkpt lat="44.6457432" lon="8.9567458"><ele>299.25</ele><time>2026-04-09T13:03:23Z</time></trkpt><trkpt lat="44.6458417" lon="8.9567861"><ele>297.5</ele><time>2026-04-09T13:03:24.15Z</time></trkpt><trkpt lat="44.6459377" lon="8.9568243"><ele>295.75</ele><time>2026-04-09T13:03:25.105Z</time></trkpt><trkpt lat="44.6461726" lon="8.9568736"><ele>294.0</ele><time>2026-04-09T13:03:26.999Z</time></trkpt><trkpt lat="44.6462834" lon="8.9568967"><ele>294.0</ele><time>2026-04-09T13:03:27.999Z</time></trkpt><trkpt lat="44.6463927" lon="8.9569049"><ele>294.0</ele><time>2026-04-09T13:03:29.13Z</time></trkpt><trkpt lat="44.6464882" lon="8.9569039"><ele>294.0</ele><time>2026-04-09T13:03:30.109Z</time></trkpt><trkpt lat="44.6466146" lon="8.9569042"><ele>294.0</ele><time>2026-04-09T13:03:31.145Z</time></trkpt><trkpt lat="44.6468602" lon="8.9568526"><ele>294.3333333333333</ele><time>2026-04-09T13:03:32.999Z</time></trkpt><trkpt lat="44.646978" lon="8.9568058"><ele>294.66666666666663</ele><time>2026-04-09T13:03:34.126Z</time></trkpt><trkpt lat="44.6470908" lon="8.9567566"><ele>295.0</ele><time>2026-04-09T13:03:35.139Z</time></trkpt><trkpt lat="44.6473302" lon="8.9566573"><ele>296.3333333333333</ele><time>2026-04-09T13:03:37Z</time></trkpt><trkpt lat="44.6474544" lon="8.9566054"><ele>297.6666666666667</ele><time>2026-04-09T13:03:38Z</time></trkpt><trkpt lat="44.6475798" lon="8.9565649"><ele>299.0</ele><time>2026-04-09T13:03:39.108Z</time></trkpt><trkpt lat="44.6478273" lon="8.9564635"><ele>299.0</ele><time>2026-04-09T13:03:40.999Z</time></trkpt><trkpt lat="44.6479446" lon="8.9564204"><ele>299.0</ele><time>2026-04-09T13:03:41.999Z</time></trkpt><trkpt lat="44.6480603" lon="8.9563664"><ele>299.0</ele><time>2026-04-09T13:03:43Z</time></trkpt><trkpt lat="44.6481804" lon="8.9563142"><ele>299.0</ele><time>2026-04-09T13:03:44.153Z</time></trkpt><trkpt lat="44.6484384" lon="8.9562274"><ele>297.0</ele><time>2026-04-09T13:03:46.119Z</time></trkpt><trkpt lat="44.6486627" lon="8.956122"><ele>295.0</ele><time>2026-04-09T13:03:48Z</time></trkpt><trkpt lat="44.6487478" lon="8.956054"><ele>293.0</ele><time>2026-04-09T13:03:49.115Z</time></trkpt><trkpt lat="44.6488147" lon="8.9559805"><ele>291.0</ele><time>2026-04-09T13:03:50.142Z</time></trkpt><trkpt lat="44.6488606" lon="8.9559062"><ele>291.8</ele><time>2026-04-09T13:03:51.155Z</time></trkpt><trkpt lat="44.648938" lon="8.9557731"><ele>292.6</ele><time>2026-04-09T13:03:53Z</time></trkpt><trkpt lat="44.6489773" lon="8.9556838"><ele>293.4</ele><time>2026-04-09T13:03:54.163Z</time></trkpt><trkpt lat="44.6490167" lon="8.9555768"><ele>294.2</ele><time>2026-04-09T13:03:55.132Z</time></trkpt><trkpt lat="44.6490574" lon="8.9554553"><ele>295.0</ele><time>2026-04-09T13:03:56.116Z</time></trkpt><trkpt lat="44.6491419" lon="8.9551744"><ele>298.3333333333333</ele><time>2026-04-09T13:03:58Z</time></trkpt><trkpt lat="44.6491925" lon="8.9550173"><ele>301.6666666666667</ele><time>2026-04-09T13:03:59.104Z</time></trkpt><trkpt lat="44.649235" lon="8.9548491"><ele>305.0</ele><time>2026-04-09T13:04:00.131Z</time></trkpt><trkpt lat="44.6493126" lon="8.954476"><ele>305.0</ele><time>2026-04-09T13:04:01.999Z</time></trkpt><trkpt lat="44.6493475" lon="8.9542756"><ele>305.0</ele><time>2026-04-09T13:04:03Z</time></trkpt><trkpt lat="44.6493842" lon="8.9540719"><ele>305.0</ele><time>2026-04-09T13:04:04.11Z</time></trkpt><trkpt lat="44.6494216" lon="8.9538576"><ele>305.5</ele><time>2026-04-09T13:04:05.127Z</time></trkpt><trkpt lat="44.6494553" lon="8.953651"><ele>306.0</ele><time>2026-04-09T13:04:06.13Z</time></trkpt><trkpt lat="44.6495259" lon="8.9532353"><ele>300.0</ele><time>2026-04-09T13:04:07.999Z</time></trkpt><trkpt lat="44.6495546" lon="8.9530346"><ele>294.0</ele><time>2026-04-09T13:04:09.167Z</time></trkpt><trkpt lat="44.6495893" lon="8.9528239"><ele>288.0</ele><time>2026-04-09T13:04:10.17Z</time></trkpt><trkpt lat="44.6496164" lon="8.9526078"><ele>290.0</ele><time>2026-04-09T13:04:11.169Z</time></trkpt><trkpt lat="44.6496735" lon="8.9521866"><ele>292.0</ele><time>2026-04-09T13:04:12.999Z</time></trkpt><trkpt lat="44.6497069" lon="8.9519696"><ele>292.0</ele><time>2026-04-09T13:04:13.999Z</time></trkpt><trkpt lat="44.6497436" lon="8.9517626"><ele>292.0</ele><time>2026-04-09T13:04:15Z</time></trkpt><trkpt lat="44.6497802" lon="8.951535"><ele>292.0</ele><time>2026-04-09T13:04:16.122Z</time></trkpt><trkpt lat="44.6498495" lon="8.9511066"><ele>292.66666666666663</ele><time>2026-04-09T13:04:18Z</time></trkpt><trkpt lat="44.6498825" lon="8.950897"><ele>293.3333333333333</ele><time>2026-04-09T13:04:19.139Z</time></trkpt><trkpt lat="44.6499135" lon="8.9506854"><ele>294.0</ele><time>2026-04-09T13:04:20.128Z</time></trkpt><trkpt lat="44.6499474" lon="8.950472"><ele>294.0</ele><time>2026-04-09T13:04:21.141Z</time></trkpt><trkpt lat="44.6500198" lon="8.9500547"><ele>294.0</ele><time>2026-04-09T13:04:23Z</time></trkpt><trkpt lat="44.6500514" lon="8.9498438"><ele>295.0</ele><time>2026-04-09T13:04:24.157Z</time></trkpt><trkpt lat="44.650084" lon="8.9496237"><ele>296.0</ele><time>2026-04-09T13:04:25.144Z</time></trkpt><trkpt lat="44.6501629" lon="8.9492047"><ele>296.25</ele><time>2026-04-09T13:04:26.999Z</time></trkpt><trkpt lat="44.6502134" lon="8.9490064"><ele>296.5</ele><time>2026-04-09T13:04:27.999Z</time></trkpt><trkpt lat="44.6502839" lon="8.9488185"><ele>296.75</ele><time>2026-04-09T13:04:28.999Z</time></trkpt><trkpt lat="44.6503622" lon="8.9486435"><ele>297.0</ele><time>2026-04-09T13:04:30.113Z</time></trkpt><trkpt lat="44.6504568" lon="8.9484722"><ele>293.5</ele><time>2026-04-09T13:04:31.129Z</time></trkpt><trkpt lat="44.6506602" lon="8.9481359"><ele>290.0</ele><time>2026-04-09T13:04:33Z</time></trkpt><trkpt lat="44.6507657" lon="8.9479652"><ele>290.0</ele><time>2026-04-09T13:04:34.118Z</time></trkpt><trkpt lat="44.6508704" lon="8.9478036"><ele>290.0</ele><time>2026-04-09T13:04:35.142Z</time></trkpt><trkpt lat="44.6509732" lon="8.9476621"><ele>290.0</ele><time>2026-04-09T13:04:36.111Z</time></trkpt><trkpt lat="44.6511879" lon="8.9473701"><ele>289.25</ele><time>2026-04-09T13:04:37.999Z</time></trkpt><trkpt lat="44.6513022" lon="8.9472344"><ele>288.5</ele><time>2026-04-09T13:04:39.156Z</time></trkpt><trkpt lat="44.6514229" lon="8.9471128"><ele>287.75</ele><time>2026-04-09T13:04:40.118Z</time></trkpt><trkpt lat="44.6515482" lon="8.9470014"><ele>287.0</ele><time>2026-04-09T13:04:41.162Z</time></trkpt><trkpt lat="44.6518035" lon="8.9467766"><ele>289.0</ele><time>2026-04-09T13:04:42.999Z</time></trkpt><trkpt lat="44.6519431" lon="8.9466682"><ele>291.0</ele><time>2026-04-09T13:04:43.999Z</time></trkpt><trkpt lat="44.6520854" lon="8.9465719"><ele>293.0</ele><time>2026-04-09T13:04:45.155Z</time></trkpt><trkpt lat="44.652224" lon="8.9464841"><ele>293.0</ele><time>2026-04-09T13:04:46.15Z</time></trkpt><trkpt lat="44.6525215" lon="8.9463264"><ele>293.0</ele><time>2026-04-09T13:04:47.999Z</time></trkpt><trkpt lat="44.6526775" lon="8.94626"><ele>290.33333333333337</ele><time>2026-04-09T13:04:48.999Z</time></trkpt><trkpt lat="44.6528345" lon="8.9462037"><ele>287.6666666666667</ele><time>2026-04-09T13:04:50.13Z</time></trkpt><trkpt lat="44.6529952" lon="8.9461558"><ele>285.0</ele><time>2026-04-09T13:04:51.132Z</time></trkpt><trkpt lat="44.6533273" lon="8.9460818"><ele>285.0</ele><time>2026-04-09T13:04:53Z</time></trkpt><trkpt lat="44.6534927" lon="8.9460266"><ele>285.0</ele><time>2026-04-09T13:04:53.999Z</time></trkpt><trkpt lat="44.6536527" lon="8.9459529"><ele>285.0</ele><time>2026-04-09T13:04:55.169Z</time></trkpt><trkpt lat="44.6538076" lon="8.9458654"><ele>288.0</ele><time>2026-04-09T13:04:56.155Z</time></trkpt><trkpt lat="44.6540922" lon="8.9456781"><ele>291.0</ele><time>2026-04-09T13:04:57.999Z</time></trkpt><trkpt lat="44.6542298" lon="8.945589"><ele>291.0</ele><time>2026-04-09T13:04:59.159Z</time></trkpt><trkpt lat="44.6543715" lon="8.9455059"><ele>291.0</ele><time>2026-04-09T13:05:00.156Z</time></trkpt><trkpt lat="44.6546652" lon="8.94536"><ele>289.25</ele><time>2026-04-09T13:05:02Z</time></trkpt><trkpt lat="44.6548087" lon="8.9452999"><ele>287.5</ele><time>2026-04-09T13:05:03Z</time></trkpt><trkpt lat="44.6549448" lon="8.9452507"><ele>285.75</ele><time>2026-04-09T13:05:04.144Z</time></trkpt><trkpt lat="44.6550802" lon="8.945213"><ele>284.0</ele><time>2026-04-09T13:05:05.133Z</time></trkpt><trkpt lat="44.6553459" lon="8.945256"><ele>283.75</ele><time>2026-04-09T13:05:07Z</time></trkpt><trkpt lat="44.6554833" lon="8.9453386"><ele>283.5</ele><time>2026-04-09T13:05:08Z</time></trkpt><trkpt lat="44.6556072" lon="8.945445"><ele>283.25</ele><time>2026-04-09T13:05:08.999Z</time></trkpt><trkpt lat="44.6557265" lon="8.945556"><ele>283.0</ele><time>2026-04-09T13:05:10.164Z</time></trkpt><trkpt lat="44.6558649" lon="8.9456537"><ele>288.0</ele><time>2026-04-09T13:05:11.155Z</time></trkpt><trkpt lat="44.6561713" lon="8.9457962"><ele>293.0</ele><time>2026-04-09T13:05:12.999Z</time></trkpt><trkpt lat="44.6563359" lon="8.9458417"><ele>293.0</ele><time>2026-04-09T13:05:14.155Z</time></trkpt><trkpt lat="44.6565005" lon="8.945868"><ele>293.0</ele><time>2026-04-09T13:05:15.135Z</time></trkpt><trkpt lat="44.6566627" lon="8.9458774"><ele>293.0</ele><time>2026-04-09T13:05:16.139Z</time></trkpt><trkpt lat="44.6569835" lon="8.9458778"><ele>295.0</ele><time>2026-04-09T13:05:18Z</time></trkpt><trkpt lat="44.6571385" lon="8.9458725"><ele>297.0</ele><time>2026-04-09T13:05:18.999Z</time></trkpt><trkpt lat="44.6572966" lon="8.945887"><ele>299.0</ele><time>2026-04-09T13:05:20.158Z</time></trkpt><trkpt lat="44.6574402" lon="8.9459339"><ele>293.33333333333337</ele><time>2026-04-09T13:05:21.112Z</time></trkpt><trkpt lat="44.6577254" lon="8.9460144"><ele>287.6666666666667</ele><time>2026-04-09T13:05:23Z</time></trkpt><trkpt lat="44.6578646" lon="8.9460141"><ele>282.0</ele><time>2026-04-09T13:05:24.165Z</time></trkpt><trkpt lat="44.6580108" lon="8.9460161"><ele>282.0</ele><time>2026-04-09T13:05:25.145Z</time></trkpt><trkpt lat="44.6582559" lon="8.946124"><ele>282.0</ele><time>2026-04-09T13:05:27Z</time></trkpt><trkpt lat="44.6583595" lon="8.9462329"><ele>282.0</ele><time>2026-04-09T13:05:27.999Z</time></trkpt><trkpt lat="44.6584459" lon="8.9463582"><ele>282.0</ele><time>2026-04-09T13:05:29.124Z</time></trkpt><trkpt lat="44.6585317" lon="8.946492"><ele>282.0</ele><time>2026-04-09T13:05:30.127Z</time></trkpt><trkpt lat="44.6586308" lon="8.9466128"><ele>282.0</ele><time>2026-04-09T13:05:31.144Z</time></trkpt><trkpt lat="44.6588725" lon="8.9467894"><ele>281.75</ele><time>2026-04-09T13:05:32.999Z</time></trkpt><trkpt lat="44.6590154" lon="8.9468574"><ele>281.5</ele><time>2026-04-09T13:05:34.147Z</time></trkpt><trkpt lat="44.6591534" lon="8.9469238"><ele>281.25</ele><time>2026-04-09T13:05:35.12Z</time></trkpt><trkpt lat="44.6592877" lon="8.9469935"><ele>281.0</ele><time>2026-04-09T13:05:36.158Z</time></trkpt><trkpt lat="44.6595385" lon="8.9471438"><ele>281.0</ele><time>2026-04-09T13:05:37.999Z</time></trkpt><trkpt lat="44.6596623" lon="8.9471811"><ele>281.0</ele><time>2026-04-09T13:05:39.146Z</time></trkpt><trkpt lat="44.6597874" lon="8.9471939"><ele>281.0</ele><time>2026-04-09T13:05:40.117Z</time></trkpt><trkpt lat="44.6599176" lon="8.9471271"><ele>281.0</ele><time>2026-04-09T13:05:41.157Z</time></trkpt><trkpt lat="44.6601683" lon="8.9469738"><ele>279.75</ele><time>2026-04-09T13:05:42.999Z</time></trkpt><trkpt lat="44.6602986" lon="8.9468941"><ele>278.5</ele><time>2026-04-09T13:05:44.123Z</time></trkpt><trkpt lat="44.660435" lon="8.9468203"><ele>277.25</ele><time>2026-04-09T13:05:45.116Z</time></trkpt><trkpt lat="44.6605653" lon="8.9467369"><ele>276.0</ele><time>2026-04-09T13:05:46.13Z</time></trkpt><trkpt lat="44.660812" lon="8.9464976"><ele>281.5</ele><time>2026-04-09T13:05:48Z</time></trkpt><trkpt lat="44.6609212" lon="8.9463393"><ele>287.0</ele><time>2026-04-09T13:05:49.116Z</time></trkpt><trkpt lat="44.6611129" lon="8.9459682"><ele>285.5</ele><time>2026-04-09T13:05:51.162Z</time></trkpt><trkpt lat="44.661299" lon="8.9455704"><ele>284.0</ele><time>2026-04-09T13:05:52.999Z</time></trkpt><trkpt lat="44.6613894" lon="8.9453768"><ele>284.0</ele><time>2026-04-09T13:05:54.134Z</time></trkpt><trkpt lat="44.6614742" lon="8.9451757"><ele>284.0</ele><time>2026-04-09T13:05:55.129Z</time></trkpt><trkpt lat="44.6616286" lon="8.9447442"><ele>284.6666666666667</ele><time>2026-04-09T13:05:56.999Z</time></trkpt><trkpt lat="44.6616906" lon="8.9445249"><ele>285.3333333333333</ele><time>2026-04-09T13:05:58.131Z</time></trkpt><trkpt lat="44.6617428" lon="8.9443035"><ele>286.0</ele><time>2026-04-09T13:05:59.104Z</time></trkpt><trkpt lat="44.6617938" lon="8.9440838"><ele>290.5</ele><time>2026-04-09T13:06:00.123Z</time></trkpt><trkpt lat="44.6618438" lon="8.9438592"><ele>295.0</ele><time>2026-04-09T13:06:01.126Z</time></trkpt><trkpt lat="44.6619414" lon="8.9434233"><ele>287.66666666666663</ele><time>2026-04-09T13:06:03Z</time></trkpt><trkpt lat="44.6619879" lon="8.9432088"><ele>280.3333333333333</ele><time>2026-04-09T13:06:04.149Z</time></trkpt><trkpt lat="44.6620382" lon="8.9429941"><ele>273.0</ele><time>2026-04-09T13:06:05.142Z</time></trkpt><trkpt lat="44.6620879" lon="8.9427789"><ele>273.5</ele><time>2026-04-09T13:06:06.163Z</time></trkpt><trkpt lat="44.6621858" lon="8.9423455"><ele>274.0</ele><time>2026-04-09T13:06:08Z</time></trkpt><trkpt lat="44.662232" lon="8.9421347"><ele>274.0</ele><time>2026-04-09T13:06:09.139Z</time></trkpt><trkpt lat="44.6622825" lon="8.9419105"><ele>274.0</ele><time>2026-04-09T13:06:10.154Z</time></trkpt><trkpt lat="44.6623329" lon="8.9416934"><ele>274.0</ele><time>2026-04-09T13:06:11.168Z</time></trkpt><trkpt lat="44.6623903" lon="8.941482"><ele>276.3333333333333</ele><time>2026-04-09T13:06:11.999Z</time></trkpt><trkpt lat="44.6624573" lon="8.9412817"><ele>278.6666666666667</ele><time>2026-04-09T13:06:12.999Z</time></trkpt><trkpt lat="44.6625335" lon="8.9410851"><ele>281.0</ele><time>2026-04-09T13:06:14.161Z</time></trkpt><trkpt lat="44.6626099" lon="8.9408909"><ele>286.0</ele><time>2026-04-09T13:06:15.125Z</time></trkpt><trkpt lat="44.6626824" lon="8.9407027"><ele>291.0</ele><time>2026-04-09T13:06:16.159Z</time></trkpt><trkpt lat="44.6627958" lon="8.9402946"><ele>286.25</ele><time>2026-04-09T13:06:18Z</time></trkpt><trkpt lat="44.6628351" lon="8.9400858"><ele>281.5</ele><time>2026-04-09T13:06:19.102Z</time></trkpt><trkpt lat="44.6628672" lon="8.9398806"><ele>276.75</ele><time>2026-04-09T13:06:20.127Z</time></trkpt><trkpt lat="44.662894" lon="8.939679"><ele>272.0</ele><time>2026-04-09T13:06:21.12Z</time></trkpt><trkpt lat="44.6629513" lon="8.9392585"><ele>273.25</ele><time>2026-04-09T13:06:22.999Z</time></trkpt><trkpt lat="44.6629892" lon="8.9390559"><ele>274.5</ele><time>2026-04-09T13:06:24.144Z</time></trkpt><trkpt lat="44.6630389" lon="8.9388618"><ele>275.75</ele><time>2026-04-09T13:06:25.139Z</time></trkpt><trkpt lat="44.6630964" lon="8.9386695"><ele>277.0</ele><time>2026-04-09T13:06:26.138Z</time></trkpt><trkpt lat="44.6632206" lon="8.9382913"><ele>279.66666666666663</ele><time>2026-04-09T13:06:28Z</time></trkpt><trkpt lat="44.6632884" lon="8.9381047"><ele>282.3333333333333</ele><time>2026-04-09T13:06:29Z</time></trkpt><trkpt lat="44.6633564" lon="8.9379071"><ele>285.0</ele><time>2026-04-09T13:06:29.999Z</time></trkpt><trkpt lat="44.6634244" lon="8.9377237"><ele>287.6666666666667</ele><time>2026-04-09T13:06:31Z</time></trkpt><trkpt lat="44.6634957" lon="8.9375338"><ele>290.33333333333337</ele><time>2026-04-09T13:06:32Z</time></trkpt><trkpt lat="44.6635638" lon="8.9373447"><ele>293.0</ele><time>2026-04-09T13:06:32.999Z</time></trkpt><trkpt lat="44.6636261" lon="8.9371554"><ele>287.25</ele><time>2026-04-09T13:06:34.135Z</time></trkpt><trkpt lat="44.6636763" lon="8.9369885"><ele>281.5</ele><time>2026-04-09T13:06:35Z</time></trkpt><trkpt lat="44.6637057" lon="8.9367908"><ele>275.75</ele><time>2026-04-09T13:06:35.999Z</time></trkpt><trkpt lat="44.6637232" lon="8.9365921"><ele>270.0</ele><time>2026-04-09T13:06:36.999Z</time></trkpt><trkpt lat="44.6637386" lon="8.9363958"><ele>270.0</ele><time>2026-04-09T13:06:37.999Z</time></trkpt><trkpt lat="44.6637543" lon="8.936189"><ele>270.0</ele><time>2026-04-09T13:06:38.999Z</time></trkpt><trkpt lat="44.6637693" lon="8.9359856"><ele>270.0</ele><time>2026-04-09T13:06:40.115Z</time></trkpt><trkpt lat="44.6637848" lon="8.9357746"><ele>270.0</ele><time>2026-04-09T13:06:41.155Z</time></trkpt><trkpt lat="44.6638188" lon="8.935359"><ele>270.25</ele><time>2026-04-09T13:06:42.999Z</time></trkpt><trkpt lat="44.6638458" lon="8.9351478"><ele>270.5</ele><time>2026-04-09T13:06:44.12Z</time></trkpt><trkpt lat="44.6638681" lon="8.9349475"><ele>270.75</ele><time>2026-04-09T13:06:45.146Z</time></trkpt><trkpt lat="44.6638969" lon="8.93476"><ele>271.0</ele><time>2026-04-09T13:06:46.15Z</time></trkpt><trkpt lat="44.6639537" lon="8.9343895"><ele>273.3333333333333</ele><time>2026-04-09T13:06:48Z</time></trkpt><trkpt lat="44.6639605" lon="8.934205"><ele>275.6666666666667</ele><time>2026-04-09T13:06:49.111Z</time></trkpt><trkpt lat="44.6638838" lon="8.9338715"><ele>278.0</ele><time>2026-04-09T13:06:51.131Z</time></trkpt><trkpt lat="44.6638078" lon="8.9335238"><ele>277.5</ele><time>2026-04-09T13:06:52.999Z</time></trkpt><trkpt lat="44.6637895" lon="8.9333494"><ele>277.0</ele><time>2026-04-09T13:06:54.158Z</time></trkpt><trkpt lat="44.6637811" lon="8.9331772"><ele>276.5</ele><time>2026-04-09T13:06:55.137Z</time></trkpt><trkpt lat="44.6637858" lon="8.9330039"><ele>276.0</ele><time>2026-04-09T13:06:56.12Z</time></trkpt><trkpt lat="44.6638688" lon="8.9326758"><ele>277.75</ele><time>2026-04-09T13:06:57.999Z</time></trkpt><trkpt lat="44.6639439" lon="8.9325386"><ele>279.5</ele><time>2026-04-09T13:06:59Z</time></trkpt><trkpt lat="44.6640198" lon="8.9323999"><ele>281.25</ele><time>2026-04-09T13:07:00.104Z</time></trkpt><trkpt lat="44.6640699" lon="8.9322292"><ele>283.0</ele><time>2026-04-09T13:07:01.134Z</time></trkpt><trkpt lat="44.664104" lon="8.9318457"><ele>282.75</ele><time>2026-04-09T13:07:02.999Z</time></trkpt><trkpt lat="44.6640949" lon="8.9316464"><ele>282.5</ele><time>2026-04-09T13:07:03.999Z</time></trkpt><trkpt lat="44.6640836" lon="8.9314558"><ele>282.25</ele><time>2026-04-09T13:07:04.999Z</time></trkpt><trkpt lat="44.6640766" lon="8.9312726"><ele>282.0</ele><time>2026-04-09T13:07:06.137Z</time></trkpt><trkpt lat="44.6640018" lon="8.930962"><ele>282.75</ele><time>2026-04-09T13:07:08Z</time></trkpt><trkpt lat="44.6639182" lon="8.9308477"><ele>283.5</ele><time>2026-04-09T13:07:09.174Z</time></trkpt><trkpt lat="44.6638147" lon="8.9307758"><ele>284.25</ele><time>2026-04-09T13:07:10.143Z</time></trkpt><trkpt lat="44.6637049" lon="8.9307561"><ele>285.0</ele><time>2026-04-09T13:07:11.173Z</time></trkpt><trkpt lat="44.6634334" lon="8.9307216"><ele>285.0</ele><time>2026-04-09T13:07:13Z</time></trkpt><trkpt lat="44.6632916" lon="8.9307078"><ele>285.0</ele><time>2026-04-09T13:07:14.139Z</time></trkpt><trkpt lat="44.6631425" lon="8.9306925"><ele>285.0</ele><time>2026-04-09T13:07:15.168Z</time></trkpt><trkpt lat="44.6629904" lon="8.9306691"><ele>285.0</ele><time>2026-04-09T13:07:16.158Z</time></trkpt><trkpt lat="44.6626837" lon="8.9306395"><ele>285.0</ele><time>2026-04-09T13:07:17.999Z</time></trkpt><trkpt lat="44.6625234" lon="8.9306199"><ele>285.0</ele><time>2026-04-09T13:07:19.134Z</time></trkpt><trkpt lat="44.6623628" lon="8.9305952"><ele>285.0</ele><time>2026-04-09T13:07:20.152Z</time></trkpt><trkpt lat="44.662194" lon="8.930565"><ele>288.0</ele><time>2026-04-09T13:07:21.161Z</time></trkpt><trkpt lat="44.6618595" lon="8.9304475"><ele>291.0</ele><time>2026-04-09T13:07:23Z</time></trkpt><trkpt lat="44.6616943" lon="8.930366"><ele>291.0</ele><time>2026-04-09T13:07:24.134Z</time></trkpt><trkpt lat="44.6615302" lon="8.9302687"><ele>291.0</ele><time>2026-04-09T13:07:25.104Z</time></trkpt><trkpt lat="44.6613651" lon="8.9301657"><ele>291.0</ele><time>2026-04-09T13:07:26.112Z</time></trkpt><trkpt lat="44.6610293" lon="8.9299518"><ele>287.6666666666667</ele><time>2026-04-09T13:07:27.999Z</time></trkpt><trkpt lat="44.6608629" lon="8.9298433"><ele>284.33333333333337</ele><time>2026-04-09T13:07:29Z</time></trkpt><trkpt lat="44.6606943" lon="8.9297335"><ele>281.0</ele><time>2026-04-09T13:07:30.116Z</time></trkpt><trkpt lat="44.6605243" lon="8.9296251"><ele>287.0</ele><time>2026-04-09T13:07:31.136Z</time></trkpt><trkpt lat="44.6602094" lon="8.9294293"><ele>293.0</ele><time>2026-04-09T13:07:32.999Z</time></trkpt><trkpt lat="44.660059" lon="8.9293432"><ele>293.0</ele><time>2026-04-09T13:07:34.126Z</time></trkpt><trkpt lat="44.6599166" lon="8.9292726"><ele>293.0</ele><time>2026-04-09T13:07:35.119Z</time></trkpt><trkpt lat="44.6597739" lon="8.9292047"><ele>293.0</ele><time>2026-04-09T13:07:36.147Z</time></trkpt><trkpt lat="44.6595027" lon="8.9290732"><ele>292.0</ele><time>2026-04-09T13:07:38Z</time></trkpt><trkpt lat="44.6593712" lon="8.9290059"><ele>291.0</ele><time>2026-04-09T13:07:39Z</time></trkpt><trkpt lat="44.659243" lon="8.9289031"><ele>290.0</ele><time>2026-04-09T13:07:39.999Z</time></trkpt><trkpt lat="44.6591217" lon="8.928769"><ele>289.0</ele><time>2026-04-09T13:07:41Z</time></trkpt><trkpt lat="44.6590084" lon="8.9285948"><ele>289.0</ele><time>2026-04-09T13:07:42Z</time></trkpt><trkpt lat="44.6589083" lon="8.9284142"><ele>289.0</ele><time>2026-04-09T13:07:43Z</time></trkpt><trkpt lat="44.6588099" lon="8.9282287"><ele>289.0</ele><time>2026-04-09T13:07:44Z</time></trkpt><trkpt lat="44.6587071" lon="8.9280408"><ele>289.66666666666663</ele><time>2026-04-09T13:07:45Z</time></trkpt><trkpt lat="44.658614" lon="8.9278402"><ele>290.3333333333333</ele><time>2026-04-09T13:07:46Z</time></trkpt><trkpt lat="44.6585437" lon="8.9276249"><ele>291.0</ele><time>2026-04-09T13:07:46.999Z</time></trkpt><trkpt lat="44.6584916" lon="8.9273911"><ele>291.0</ele><time>2026-04-09T13:07:47.999Z</time></trkpt><trkpt lat="44.6584541" lon="8.9271752"><ele>291.0</ele><time>2026-04-09T13:07:48.999Z</time></trkpt><trkpt lat="44.658415" lon="8.9269578"><ele>291.0</ele><time>2026-04-09T13:07:50Z</time></trkpt><trkpt lat="44.6583772" lon="8.9267566"><ele>289.25</ele><time>2026-04-09T13:07:50.999Z</time></trkpt><trkpt lat="44.6583447" lon="8.9265604"><ele>287.5</ele><time>2026-04-09T13:07:52Z</time></trkpt><trkpt lat="44.6583073" lon="8.9263642"><ele>285.75</ele><time>2026-04-09T13:07:53Z</time></trkpt><trkpt lat="44.6582712" lon="8.9261599"><ele>284.0</ele><time>2026-04-09T13:07:54Z</time></trkpt><trkpt lat="44.6582349" lon="8.9259516"><ele>282.33333333333337</ele><time>2026-04-09T13:07:54.999Z</time></trkpt><trkpt lat="44.6581997" lon="8.9257416"><ele>280.6666666666667</ele><time>2026-04-09T13:07:56Z</time></trkpt><trkpt lat="44.6581608" lon="8.9255283"><ele>279.0</ele><time>2026-04-09T13:07:56.999Z</time></trkpt><trkpt lat="44.6581245" lon="8.92532"><ele>279.0</ele><time>2026-04-09T13:07:57.999Z</time></trkpt><trkpt lat="44.6580911" lon="8.9251041"><ele>279.0</ele><time>2026-04-09T13:07:59Z</time></trkpt><trkpt lat="44.6580547" lon="8.9248931"><ele>279.0</ele><time>2026-04-09T13:07:59.999Z</time></trkpt><trkpt lat="44.6580161" lon="8.9246782"><ele>276.6666666666667</ele><time>2026-04-09T13:08:00.999Z</time></trkpt><trkpt lat="44.6579785" lon="8.9244717"><ele>274.33333333333337</ele><time>2026-04-09T13:08:02Z</time></trkpt><trkpt lat="44.6579425" lon="8.9242647"><ele>272.0</ele><time>2026-04-09T13:08:03Z</time></trkpt><trkpt lat="44.6579075" lon="8.9240634"><ele>271.75</ele><time>2026-04-09T13:08:03.999Z</time></trkpt><trkpt lat="44.657881" lon="8.923857"><ele>271.5</ele><time>2026-04-09T13:08:04.999Z</time></trkpt><trkpt lat="44.6578636" lon="8.9236519"><ele>271.25</ele><time>2026-04-09T13:08:06Z</time></trkpt><trkpt lat="44.6578575" lon="8.9234479"><ele>271.0</ele><time>2026-04-09T13:08:06.999Z</time></trkpt><trkpt lat="44.6578589" lon="8.9232394"><ele>271.0</ele><time>2026-04-09T13:08:08Z</time></trkpt><trkpt lat="44.6578646" lon="8.9230285"><ele>271.0</ele><time>2026-04-09T13:08:09Z</time></trkpt><trkpt lat="44.6578702" lon="8.9228105"><ele>271.0</ele><time>2026-04-09T13:08:09.999Z</time></trkpt><trkpt lat="44.6578776" lon="8.9225944"><ele>271.0</ele><time>2026-04-09T13:08:11Z</time></trkpt><trkpt lat="44.6578847" lon="8.9223881"><ele>271.0</ele><time>2026-04-09T13:08:12Z</time></trkpt><trkpt lat="44.6578917" lon="8.9221938"><ele>271.0</ele><time>2026-04-09T13:08:13Z</time></trkpt><trkpt lat="44.6578979" lon="8.9219836"><ele>271.0</ele><time>2026-04-09T13:08:13.999Z</time></trkpt><trkpt lat="44.6579052" lon="8.9217788"><ele>270.0</ele><time>2026-04-09T13:08:15Z</time></trkpt><trkpt lat="44.6579173" lon="8.9215821"><ele>269.0</ele><time>2026-04-09T13:08:15.999Z</time></trkpt><trkpt lat="44.6579267" lon="8.9213864"><ele>268.0</ele><time>2026-04-09T13:08:17Z</time></trkpt><trkpt lat="44.6579383" lon="8.9211795"><ele>267.0</ele><time>2026-04-09T13:08:17.999Z</time></trkpt><trkpt lat="44.6579477" lon="8.9209715"><ele>266.5</ele><time>2026-04-09T13:08:19Z</time></trkpt><trkpt lat="44.6579548" lon="8.9207724"><ele>266.0</ele><time>2026-04-09T13:08:19.999Z</time></trkpt><trkpt lat="44.6579659" lon="8.9205733"><ele>265.5</ele><time>2026-04-09T13:08:20.999Z</time></trkpt><trkpt lat="44.6579913" lon="8.9203904"><ele>265.0</ele><time>2026-04-09T13:08:21.999Z</time></trkpt><trkpt lat="44.6580454" lon="8.9202122"><ele>268.0</ele><time>2026-04-09T13:08:22.999Z</time></trkpt><trkpt lat="44.6581263" lon="8.9200562"><ele>271.0</ele><time>2026-04-09T13:08:23.999Z</time></trkpt><trkpt lat="44.6582292" lon="8.919906"><ele>274.0</ele><time>2026-04-09T13:08:25Z</time></trkpt><trkpt lat="44.6583388" lon="8.9197592"><ele>277.0</ele><time>2026-04-09T13:08:26Z</time></trkpt><trkpt lat="44.6584488" lon="8.9196181"><ele>277.0</ele><time>2026-04-09T13:08:27Z</time></trkpt><trkpt lat="44.6585614" lon="8.9194758"><ele>277.0</ele><time>2026-04-09T13:08:28Z</time></trkpt><trkpt lat="44.6586768" lon="8.919341"><ele>277.0</ele><time>2026-04-09T13:08:28.999Z</time></trkpt><trkpt lat="44.6587953" lon="8.9192059"><ele>275.66666666666663</ele><time>2026-04-09T13:08:30Z</time></trkpt><trkpt lat="44.6589133" lon="8.9190642"><ele>274.3333333333333</ele><time>2026-04-09T13:08:30.999Z</time></trkpt><trkpt lat="44.6590338" lon="8.9189328"><ele>273.0</ele><time>2026-04-09T13:08:32Z</time></trkpt><trkpt lat="44.6591667" lon="8.9188108"><ele>273.0</ele><time>2026-04-09T13:08:32.999Z</time></trkpt><trkpt lat="44.6592903" lon="8.918698"><ele>273.0</ele><time>2026-04-09T13:08:34.134Z</time></trkpt><trkpt lat="44.6594276" lon="8.9185571"><ele>273.0</ele><time>2026-04-09T13:08:35.105Z</time></trkpt><trkpt lat="44.6595649" lon="8.918418"><ele>273.0</ele><time>2026-04-09T13:08:36.109Z</time></trkpt><trkpt lat="44.6598301" lon="8.9181395"><ele>273.0</ele><time>2026-04-09T13:08:38.103Z</time></trkpt><trkpt lat="44.6599798" lon="8.9179917"><ele>273.0</ele><time>2026-04-09T13:08:39.117Z</time></trkpt><trkpt lat="44.6601296" lon="8.9178479"><ele>273.0</ele><time>2026-04-09T13:08:40.139Z</time></trkpt><trkpt lat="44.6602798" lon="8.9176983"><ele>273.0</ele><time>2026-04-09T13:08:41.163Z</time></trkpt><trkpt lat="44.6605722" lon="8.9173864"><ele>270.6666666666667</ele><time>2026-04-09T13:08:42.999Z</time></trkpt><trkpt lat="44.6606846" lon="8.9172028"><ele>268.33333333333337</ele><time>2026-04-09T13:08:44.167Z</time></trkpt><trkpt lat="44.660791" lon="8.9170123"><ele>266.0</ele><time>2026-04-09T13:08:45.173Z</time></trkpt><trkpt lat="44.6609709" lon="8.9165876"><ele>262.33333333333337</ele><time>2026-04-09T13:08:46.999Z</time></trkpt><trkpt lat="44.6610519" lon="8.9163588"><ele>258.6666666666667</ele><time>2026-04-09T13:08:48.139Z</time></trkpt><trkpt lat="44.6611231" lon="8.9161375"><ele>255.0</ele><time>2026-04-09T13:08:49.116Z</time></trkpt><trkpt lat="44.6611922" lon="8.9159044"><ele>260.0</ele><time>2026-04-09T13:08:50.137Z</time></trkpt><trkpt lat="44.6612526" lon="8.9156745"><ele>265.0</ele><time>2026-04-09T13:08:51.177Z</time></trkpt><trkpt lat="44.6613553" lon="8.915213"><ele>268.0</ele><time>2026-04-09T13:08:52.999Z</time></trkpt><trkpt lat="44.6614024" lon="8.9149859"><ele>271.0</ele><time>2026-04-09T13:08:54.156Z</time></trkpt><trkpt lat="44.6614349" lon="8.9147512"><ele>274.0</ele><time>2026-04-09T13:08:55.118Z</time></trkpt><trkpt lat="44.6614559" lon="8.9145159"><ele>274.5</ele><time>2026-04-09T13:08:56.105Z</time></trkpt><trkpt lat="44.6614751" lon="8.9140412"><ele>275.0</ele><time>2026-04-09T13:08:57.997Z</time></trkpt><trkpt lat="44.6614755" lon="8.9138194"><ele>275.0</ele><time>2026-04-09T13:08:58.999Z</time></trkpt><trkpt lat="44.6614722" lon="8.9136082"><ele>275.0</ele><time>2026-04-09T13:09:00Z</time></trkpt><trkpt lat="44.6614615" lon="8.9134058"><ele>275.0</ele><time>2026-04-09T13:09:01.137Z</time></trkpt><trkpt lat="44.6614055" lon="8.9130185"><ele>274.75</ele><time>2026-04-09T13:09:03Z</time></trkpt><trkpt lat="44.6613718" lon="8.9128318"><ele>274.5</ele><time>2026-04-09T13:09:04.15Z</time></trkpt><trkpt lat="44.6613231" lon="8.9126478"><ele>274.25</ele><time>2026-04-09T13:09:05.114Z</time></trkpt><trkpt lat="44.6612623" lon="8.9124644"><ele>274.0</ele><time>2026-04-09T13:09:06.123Z</time></trkpt><trkpt lat="44.6611136" lon="8.9120977"><ele>276.75</ele><time>2026-04-09T13:09:07.999Z</time></trkpt><trkpt lat="44.6610381" lon="8.9119227"><ele>279.5</ele><time>2026-04-09T13:09:09.145Z</time></trkpt><trkpt lat="44.6609697" lon="8.9117456"><ele>282.25</ele><time>2026-04-09T13:09:10.113Z</time></trkpt><trkpt lat="44.6609258" lon="8.9115577"><ele>285.0</ele><time>2026-04-09T13:09:11.143Z</time></trkpt><trkpt lat="44.6608932" lon="8.9111663"><ele>285.0</ele><time>2026-04-09T13:09:13Z</time></trkpt><trkpt lat="44.6608759" lon="8.9109764"><ele>285.0</ele><time>2026-04-09T13:09:14.146Z</time></trkpt><trkpt lat="44.6608373" lon="8.9108044"><ele>285.0</ele><time>2026-04-09T13:09:15.159Z</time></trkpt><trkpt lat="44.6607764" lon="8.9106508"><ele>285.0</ele><time>2026-04-09T13:09:16.114Z</time></trkpt><trkpt lat="44.6605999" lon="8.9103937"><ele>285.0</ele><time>2026-04-09T13:09:18Z</time></trkpt><trkpt lat="44.6604919" lon="8.9102902"><ele>285.0</ele><time>2026-04-09T13:09:19.125Z</time></trkpt><trkpt lat="44.6602869" lon="8.9101175"><ele>285.0</ele><time>2026-04-09T13:09:20.999Z</time></trkpt><trkpt lat="44.6601986" lon="8.910009"><ele>285.0</ele><time>2026-04-09T13:09:21.999Z</time></trkpt><trkpt lat="44.660138" lon="8.9098802"><ele>285.0</ele><time>2026-04-09T13:09:23Z</time></trkpt><trkpt lat="44.6600995" lon="8.9097228"><ele>285.0</ele><time>2026-04-09T13:09:24.109Z</time></trkpt><trkpt lat="44.6601055" lon="8.9095557"><ele>285.0</ele><time>2026-04-09T13:09:25.147Z</time></trkpt><trkpt lat="44.6601409" lon="8.9093969"><ele>281.6666666666667</ele><time>2026-04-09T13:09:26.141Z</time></trkpt><trkpt lat="44.6602532" lon="8.9090862"><ele>278.33333333333337</ele><time>2026-04-09T13:09:28Z</time></trkpt><trkpt lat="44.6603111" lon="8.9089284"><ele>275.0</ele><time>2026-04-09T13:09:29.146Z</time></trkpt><trkpt lat="44.6604326" lon="8.9086119"><ele>271.0</ele><time>2026-04-09T13:09:31.133Z</time></trkpt><trkpt lat="44.66056" lon="8.9083373"><ele>267.0</ele><time>2026-04-09T13:09:33Z</time></trkpt><trkpt lat="44.6606345" lon="8.9082057"><ele>263.0</ele><time>2026-04-09T13:09:34.167Z</time></trkpt><trkpt lat="44.6607131" lon="8.9080821"><ele>263.0</ele><time>2026-04-09T13:09:35.164Z</time></trkpt><trkpt lat="44.6607929" lon="8.9079598"><ele>263.0</ele><time>2026-04-09T13:09:36.158Z</time></trkpt><trkpt lat="44.6609625" lon="8.9077222"><ele>263.0</ele><time>2026-04-09T13:09:37.999Z</time></trkpt><trkpt lat="44.6610444" lon="8.907608"><ele>262.6666666666667</ele><time>2026-04-09T13:09:39.132Z</time></trkpt><trkpt lat="44.6612087" lon="8.9073838"><ele>262.3333333333333</ele><time>2026-04-09T13:09:40.999Z</time></trkpt><trkpt lat="44.6612884" lon="8.9072717"><ele>262.0</ele><time>2026-04-09T13:09:42Z</time></trkpt><trkpt lat="44.6613679" lon="8.9071595"><ele>262.0</ele><time>2026-04-09T13:09:43Z</time></trkpt><trkpt lat="44.6614486" lon="8.9070425"><ele>262.0</ele><time>2026-04-09T13:09:44.1Z</time></trkpt><trkpt lat="44.6615318" lon="8.9069311"><ele>262.0</ele><time>2026-04-09T13:09:45.167Z</time></trkpt><trkpt lat="44.6616168" lon="8.9068219"><ele>262.0</ele><time>2026-04-09T13:09:46.165Z</time></trkpt><trkpt lat="44.6617852" lon="8.9065822"><ele>262.25</ele><time>2026-04-09T13:09:47.999Z</time></trkpt><trkpt lat="44.6618672" lon="8.9064665"><ele>262.5</ele><time>2026-04-09T13:09:49.158Z</time></trkpt><trkpt lat="44.6619552" lon="8.9063459"><ele>262.75</ele><time>2026-04-09T13:09:50.165Z</time></trkpt><trkpt lat="44.6620417" lon="8.906227"><ele>263.0</ele><time>2026-04-09T13:09:51.173Z</time></trkpt><trkpt lat="44.6622144" lon="8.9059818"><ele>263.5</ele><time>2026-04-09T13:09:52.999Z</time></trkpt><trkpt lat="44.6622972" lon="8.9058541"><ele>264.0</ele><time>2026-04-09T13:09:53.999Z</time></trkpt><trkpt lat="44.6623903" lon="8.9057326"><ele>264.5</ele><time>2026-04-09T13:09:54.999Z</time></trkpt><trkpt lat="44.6624768" lon="8.9056027"><ele>265.0</ele><time>2026-04-09T13:09:56.113Z</time></trkpt><trkpt lat="44.6626561" lon="8.9053472"><ele>265.0</ele><time>2026-04-09T13:09:57.999Z</time></trkpt><trkpt lat="44.6627483" lon="8.9052124"><ele>265.0</ele><time>2026-04-09T13:09:59Z</time></trkpt><trkpt lat="44.662843" lon="8.9050769"><ele>265.0</ele><time>2026-04-09T13:10:00.134Z</time></trkpt><trkpt lat="44.6629397" lon="8.9049457"><ele>265.0</ele><time>2026-04-09T13:10:01.132Z</time></trkpt><trkpt lat="44.6631321" lon="8.9046709"><ele>264.5</ele><time>2026-04-09T13:10:02.999Z</time></trkpt><trkpt lat="44.6632304" lon="8.9045266"><ele>264.0</ele><time>2026-04-09T13:10:04.141Z</time></trkpt><trkpt lat="44.6633291" lon="8.9043944"><ele>263.5</ele><time>2026-04-09T13:10:05.142Z</time></trkpt><trkpt lat="44.6634285" lon="8.9042521"><ele>263.0</ele><time>2026-04-09T13:10:06.107Z</time></trkpt><trkpt lat="44.6636282" lon="8.903964"><ele>263.0</ele><time>2026-04-09T13:10:07.999Z</time></trkpt><trkpt lat="44.6637287" lon="8.9038196"><ele>263.0</ele><time>2026-04-09T13:10:09.116Z</time></trkpt><trkpt lat="44.6638304" lon="8.9036766"><ele>263.0</ele><time>2026-04-09T13:10:10.13Z</time></trkpt><trkpt lat="44.6639274" lon="8.9035356"><ele>263.0</ele><time>2026-04-09T13:10:11.142Z</time></trkpt><trkpt lat="44.6640252" lon="8.9033912"><ele>263.25</ele><time>2026-04-09T13:10:11.999Z</time></trkpt><trkpt lat="44.6641258" lon="8.9032515"><ele>263.5</ele><time>2026-04-09T13:10:12.999Z</time></trkpt><trkpt lat="44.6642368" lon="8.9031129"><ele>263.75</ele><time>2026-04-09T13:10:14.135Z</time></trkpt><trkpt lat="44.6643526" lon="8.9029786"><ele>264.0</ele><time>2026-04-09T13:10:15.148Z</time></trkpt><trkpt lat="44.664476" lon="8.9028425"><ele>264.0</ele><time>2026-04-09T13:10:16.125Z</time></trkpt><trkpt lat="44.6647383" lon="8.9026199"><ele>264.0</ele><time>2026-04-09T13:10:17.999Z</time></trkpt><trkpt lat="44.6648703" lon="8.902503"><ele>264.0</ele><time>2026-04-09T13:10:18.999Z</time></trkpt><trkpt lat="44.6650042" lon="8.9023866"><ele>264.0</ele><time>2026-04-09T13:10:20.153Z</time></trkpt><trkpt lat="44.6651403" lon="8.902267"><ele>264.0</ele><time>2026-04-09T13:10:21.13Z</time></trkpt><trkpt lat="44.665414" lon="8.9020356"><ele>263.0</ele><time>2026-04-09T13:10:22.999Z</time></trkpt><trkpt lat="44.6655477" lon="8.9019208"><ele>262.0</ele><time>2026-04-09T13:10:24.154Z</time></trkpt><trkpt lat="44.6658126" lon="8.9016798"><ele>262.0</ele><time>2026-04-09T13:10:26Z</time></trkpt><trkpt lat="44.6659354" lon="8.9015502"><ele>262.0</ele><time>2026-04-09T13:10:27Z</time></trkpt><trkpt lat="44.6660494" lon="8.9014284"><ele>262.0</ele><time>2026-04-09T13:10:28Z</time></trkpt><trkpt lat="44.6661454" lon="8.9012776"><ele>262.0</ele><time>2026-04-09T13:10:29.109Z</time></trkpt><trkpt lat="44.6662349" lon="8.9011055"><ele>259.0</ele><time>2026-04-09T13:10:29.999Z</time></trkpt><trkpt lat="44.6663111" lon="8.9009194"><ele>256.0</ele><time>2026-04-09T13:10:31.125Z</time></trkpt><trkpt lat="44.66646" lon="8.9005536"><ele>256.0</ele><time>2026-04-09T13:10:32.999Z</time></trkpt><trkpt lat="44.6665425" lon="8.9003702"><ele>256.0</ele><time>2026-04-09T13:10:34.131Z</time></trkpt><trkpt lat="44.666626" lon="8.9001857"><ele>256.0</ele><time>2026-04-09T13:10:35.166Z</time></trkpt><trkpt lat="44.6667082" lon="8.9000163"><ele>256.5</ele><time>2026-04-09T13:10:36.167Z</time></trkpt><trkpt lat="44.6668891" lon="8.8996571"><ele>257.0</ele><time>2026-04-09T13:10:37.999Z</time></trkpt><trkpt lat="44.6669855" lon="8.8994883"><ele>254.0</ele><time>2026-04-09T13:10:39.13Z</time></trkpt><trkpt lat="44.6670898" lon="8.8993238"><ele>251.0</ele><time>2026-04-09T13:10:40.141Z</time></trkpt><trkpt lat="44.6672982" lon="8.8989887"><ele>251.0</ele><time>2026-04-09T13:10:42Z</time></trkpt><trkpt lat="44.6674009" lon="8.8988254"><ele>251.0</ele><time>2026-04-09T13:10:42.999Z</time></trkpt><trkpt lat="44.6674966" lon="8.8986638"><ele>251.0</ele><time>2026-04-09T13:10:44.127Z</time></trkpt><trkpt lat="44.667668" lon="8.8983262"><ele>252.33333333333334</ele><time>2026-04-09T13:10:46.125Z</time></trkpt><trkpt lat="44.6677896" lon="8.8979563"><ele>253.66666666666669</ele><time>2026-04-09T13:10:48Z</time></trkpt><trkpt lat="44.667828" lon="8.897774"><ele>255.0</ele><time>2026-04-09T13:10:49.118Z</time></trkpt><trkpt lat="44.6679245" lon="8.8974433"><ele>256.6666666666667</ele><time>2026-04-09T13:10:51.127Z</time></trkpt><trkpt lat="44.6681176" lon="8.8972237"><ele>258.33333333333337</ele><time>2026-04-09T13:10:53Z</time></trkpt><trkpt lat="44.6682431" lon="8.8971708"><ele>260.0</ele><time>2026-04-09T13:10:54.107Z</time></trkpt><trkpt lat="44.6683667" lon="8.8971231"><ele>260.0</ele><time>2026-04-09T13:10:55.112Z</time></trkpt><trkpt lat="44.668487" lon="8.8970718"><ele>260.0</ele><time>2026-04-09T13:10:56.154Z</time></trkpt><trkpt lat="44.6687362" lon="8.8969715"><ele>260.0</ele><time>2026-04-09T13:10:57.999Z</time></trkpt><trkpt lat="44.668861" lon="8.8969176"><ele>260.0</ele><time>2026-04-09T13:10:59.145Z</time></trkpt><trkpt lat="44.668988" lon="8.8968574"><ele>260.0</ele><time>2026-04-09T13:11:00.12Z</time></trkpt><trkpt lat="44.66912" lon="8.8968026"><ele>260.0</ele><time>2026-04-09T13:11:01.116Z</time></trkpt><trkpt lat="44.6693939" lon="8.8966838"><ele>259.5</ele><time>2026-04-09T13:11:02.999Z</time></trkpt><trkpt lat="44.6695398" lon="8.8966379"><ele>259.0</ele><time>2026-04-09T13:11:04Z</time></trkpt><trkpt lat="44.6696797" lon="8.8965907"><ele>258.5</ele><time>2026-04-09T13:11:05.116Z</time></trkpt><trkpt lat="44.6697972" lon="8.8965338"><ele>258.0</ele><time>2026-04-09T13:11:06.14Z</time></trkpt><trkpt lat="44.6700673" lon="8.8964073"><ele>258.0</ele><time>2026-04-09T13:11:08Z</time></trkpt><trkpt lat="44.6702062" lon="8.8963497"><ele>258.0</ele><time>2026-04-09T13:11:09.148Z</time></trkpt><trkpt lat="44.6703456" lon="8.896285"><ele>258.0</ele><time>2026-04-09T13:11:10.135Z</time></trkpt><trkpt lat="44.6704816" lon="8.896203"><ele>258.0</ele><time>2026-04-09T13:11:11.151Z</time></trkpt><trkpt lat="44.6707263" lon="8.8959869"><ele>258.5</ele><time>2026-04-09T13:11:12.999Z</time></trkpt><trkpt lat="44.6708527" lon="8.8958647"><ele>259.0</ele><time>2026-04-09T13:11:14.144Z</time></trkpt><trkpt lat="44.6709748" lon="8.8957343"><ele>259.5</ele><time>2026-04-09T13:11:15.143Z</time></trkpt><trkpt lat="44.6710939" lon="8.8956304"><ele>260.0</ele><time>2026-04-09T13:11:16.143Z</time></trkpt><trkpt lat="44.6713679" lon="8.8955023"><ele>260.0</ele><time>2026-04-09T13:11:17.999Z</time></trkpt><trkpt lat="44.6715181" lon="8.8954958"><ele>260.0</ele><time>2026-04-09T13:11:18.999Z</time></trkpt><trkpt lat="44.6716647" lon="8.8955304"><ele>260.0</ele><time>2026-04-09T13:11:20Z</time></trkpt><trkpt lat="44.6718075" lon="8.8955674"><ele>260.0</ele><time>2026-04-09T13:11:20.999Z</time></trkpt><trkpt lat="44.6719561" lon="8.8956107"><ele>260.0</ele><time>2026-04-09T13:11:21.999Z</time></trkpt><trkpt lat="44.672104" lon="8.8956517"><ele>260.0</ele><time>2026-04-09T13:11:23.113Z</time></trkpt><trkpt lat="44.6722542" lon="8.8956925"><ele>260.0</ele><time>2026-04-09T13:11:24.123Z</time></trkpt><trkpt lat="44.6725616" lon="8.8957747"><ele>261.0</ele><time>2026-04-09T13:11:26.119Z</time></trkpt><trkpt lat="44.672877" lon="8.8958578"><ele>262.0</ele><time>2026-04-09T13:11:28Z</time></trkpt><trkpt lat="44.6730369" lon="8.8958985"><ele>254.66666666666666</ele><time>2026-04-09T13:11:28.999Z</time></trkpt><trkpt lat="44.6732004" lon="8.8959346"><ele>247.33333333333331</ele><time>2026-04-09T13:11:30.162Z</time></trkpt><trkpt lat="44.6733655" lon="8.8959644"><ele>240.0</ele><time>2026-04-09T13:11:31.13Z</time></trkpt><trkpt lat="44.6737032" lon="8.8959875"><ele>240.0</ele><time>2026-04-09T13:11:33Z</time></trkpt><trkpt lat="44.6738749" lon="8.8959957"><ele>240.0</ele><time>2026-04-09T13:11:34.125Z</time></trkpt><trkpt lat="44.674045" lon="8.8959884"><ele>240.0</ele><time>2026-04-09T13:11:35.148Z</time></trkpt><trkpt lat="44.6743984" lon="8.8959591"><ele>240.66666666666669</ele><time>2026-04-09T13:11:36.999Z</time></trkpt><trkpt lat="44.6745747" lon="8.8959339"><ele>241.33333333333334</ele><time>2026-04-09T13:11:38.152Z</time></trkpt><trkpt lat="44.6747582" lon="8.8958973"><ele>242.0</ele><time>2026-04-09T13:11:39.139Z</time></trkpt><trkpt lat="44.6749362" lon="8.8958588"><ele>248.5</ele><time>2026-04-09T13:11:40.158Z</time></trkpt><trkpt lat="44.6751226" lon="8.8958203"><ele>255.0</ele><time>2026-04-09T13:11:41.173Z</time></trkpt><trkpt lat="44.6755047" lon="8.8957463"><ele>255.0</ele><time>2026-04-09T13:11:42.999Z</time></trkpt><trkpt lat="44.6756912" lon="8.8956998"><ele>255.0</ele><time>2026-04-09T13:11:44.15Z</time></trkpt><trkpt lat="44.6758702" lon="8.8956539"><ele>255.0</ele><time>2026-04-09T13:11:45.131Z</time></trkpt><trkpt lat="44.6760507" lon="8.895602"><ele>252.5</ele><time>2026-04-09T13:11:46.118Z</time></trkpt><trkpt lat="44.676392" lon="8.8954885"><ele>250.0</ele><time>2026-04-09T13:11:47.999Z</time></trkpt><trkpt lat="44.6765669" lon="8.8954278"><ele>250.0</ele><time>2026-04-09T13:11:49.128Z</time></trkpt><trkpt lat="44.6767435" lon="8.8953843"><ele>250.0</ele><time>2026-04-09T13:11:50.113Z</time></trkpt><trkpt lat="44.6769218" lon="8.8953516"><ele>250.0</ele><time>2026-04-09T13:11:51.136Z</time></trkpt><trkpt lat="44.6772651" lon="8.8952992"><ele>249.33333333333331</ele><time>2026-04-09T13:11:52.999Z</time></trkpt><trkpt lat="44.67743" lon="8.8952749"><ele>248.66666666666669</ele><time>2026-04-09T13:11:54.116Z</time></trkpt><trkpt lat="44.6776037" lon="8.8952474"><ele>248.0</ele><time>2026-04-09T13:11:55.148Z</time></trkpt><trkpt lat="44.6779373" lon="8.8952001"><ele>247.66666666666669</ele><time>2026-04-09T13:11:56.999Z</time></trkpt><trkpt lat="44.6780949" lon="8.895172"><ele>247.33333333333331</ele><time>2026-04-09T13:11:58Z</time></trkpt><trkpt lat="44.6782564" lon="8.895145"><ele>247.0</ele><time>2026-04-09T13:11:59.138Z</time></trkpt><trkpt lat="44.6784153" lon="8.8951222"><ele>247.0</ele><time>2026-04-09T13:12:00.146Z</time></trkpt><trkpt lat="44.6785783" lon="8.8950993"><ele>247.0</ele><time>2026-04-09T13:12:01.115Z</time></trkpt><trkpt lat="44.6788985" lon="8.8950572"><ele>248.33333333333331</ele><time>2026-04-09T13:12:02.999Z</time></trkpt><trkpt lat="44.6790668" lon="8.8950313"><ele>249.66666666666669</ele><time>2026-04-09T13:12:03.999Z</time></trkpt><trkpt lat="44.6792323" lon="8.894995"><ele>251.0</ele><time>2026-04-09T13:12:05.129Z</time></trkpt><trkpt lat="44.679391" lon="8.8949553"><ele>249.5</ele><time>2026-04-09T13:12:06.15Z</time></trkpt><trkpt lat="44.6797051" lon="8.8948787"><ele>248.0</ele><time>2026-04-09T13:12:07.999Z</time></trkpt><trkpt lat="44.6798574" lon="8.8948222"><ele>248.0</ele><time>2026-04-09T13:12:09.157Z</time></trkpt><trkpt lat="44.680008" lon="8.8947555"><ele>248.0</ele><time>2026-04-09T13:12:09.999Z</time></trkpt><trkpt lat="44.6801591" lon="8.8946833"><ele>248.0</ele><time>2026-04-09T13:12:10.999Z</time></trkpt><trkpt lat="44.6802994" lon="8.8946134"><ele>247.33333333333334</ele><time>2026-04-09T13:12:11.999Z</time></trkpt><trkpt lat="44.6804515" lon="8.8945286"><ele>246.66666666666669</ele><time>2026-04-09T13:12:12.999Z</time></trkpt><trkpt lat="44.6805978" lon="8.8944432"><ele>246.0</ele><time>2026-04-09T13:12:13.999Z</time></trkpt><trkpt lat="44.6807422" lon="8.8943549"><ele>246.0</ele><time>2026-04-09T13:12:14.999Z</time></trkpt><trkpt lat="44.6808883" lon="8.894258"><ele>246.0</ele><time>2026-04-09T13:12:16Z</time></trkpt><trkpt lat="44.6810312" lon="8.8941619"><ele>246.0</ele><time>2026-04-09T13:12:17Z</time></trkpt><trkpt lat="44.6811697" lon="8.8940599"><ele>246.5</ele><time>2026-04-09T13:12:18Z</time></trkpt><trkpt lat="44.6813021" lon="8.8939517"><ele>247.0</ele><time>2026-04-09T13:12:19Z</time></trkpt><trkpt lat="44.6814298" lon="8.8938453"><ele>247.5</ele><time>2026-04-09T13:12:20Z</time></trkpt><trkpt lat="44.6815525" lon="8.893738"><ele>248.0</ele><time>2026-04-09T13:12:21Z</time></trkpt><trkpt lat="44.6816765" lon="8.8936355"><ele>248.0</ele><time>2026-04-09T13:12:21.999Z</time></trkpt><trkpt lat="44.6817867" lon="8.8935379"><ele>248.0</ele><time>2026-04-09T13:12:22.999Z</time></trkpt><trkpt lat="44.6818966" lon="8.8934391"><ele>248.0</ele><time>2026-04-09T13:12:23.999Z</time></trkpt><trkpt lat="44.6821027" lon="8.893246"><ele>248.33333333333334</ele><time>2026-04-09T13:12:26.121Z</time></trkpt><trkpt lat="44.6823043" lon="8.8930543"><ele>248.66666666666669</ele><time>2026-04-09T13:12:28Z</time></trkpt><trkpt lat="44.6824098" lon="8.8929547"><ele>249.0</ele><time>2026-04-09T13:12:29.114Z</time></trkpt><trkpt lat="44.6825135" lon="8.8928567"><ele>249.0</ele><time>2026-04-09T13:12:30.146Z</time></trkpt><trkpt lat="44.6827164" lon="8.8926593"><ele>249.0</ele><time>2026-04-09T13:12:32Z</time></trkpt><trkpt lat="44.6828185" lon="8.8925614"><ele>249.0</ele><time>2026-04-09T13:12:33Z</time></trkpt><trkpt lat="44.682923" lon="8.8924689"><ele>249.0</ele><time>2026-04-09T13:12:34.15Z</time></trkpt><trkpt lat="44.6830275" lon="8.8923681"><ele>249.0</ele><time>2026-04-09T13:12:35.111Z</time></trkpt><trkpt lat="44.6831298" lon="8.8922699"><ele>249.0</ele><time>2026-04-09T13:12:36.123Z</time></trkpt><trkpt lat="44.6833337" lon="8.8920866"><ele>249.0</ele><time>2026-04-09T13:12:38Z</time></trkpt><trkpt lat="44.6834302" lon="8.8919947"><ele>249.0</ele><time>2026-04-09T13:12:39.153Z</time></trkpt><trkpt lat="44.6835327" lon="8.8919003"><ele>249.0</ele><time>2026-04-09T13:12:40.153Z</time></trkpt><trkpt lat="44.6836323" lon="8.8918069"><ele>249.0</ele><time>2026-04-09T13:12:41.168Z</time></trkpt><trkpt lat="44.6838322" lon="8.8916125"><ele>249.25</ele><time>2026-04-09T13:12:42.999Z</time></trkpt><trkpt lat="44.683934" lon="8.8915129"><ele>249.5</ele><time>2026-04-09T13:12:44Z</time></trkpt><trkpt lat="44.6840367" lon="8.8914189"><ele>249.75</ele><time>2026-04-09T13:12:44.999Z</time></trkpt><trkpt lat="44.6841339" lon="8.8913191"><ele>250.0</ele><time>2026-04-09T13:12:46.126Z</time></trkpt><trkpt lat="44.684332" lon="8.8911255"><ele>249.75</ele><time>2026-04-09T13:12:48Z</time></trkpt><trkpt lat="44.68443" lon="8.8910352"><ele>249.5</ele><time>2026-04-09T13:12:49Z</time></trkpt><trkpt lat="44.6845255" lon="8.8909449"><ele>249.25</ele><time>2026-04-09T13:12:50.175Z</time></trkpt><trkpt lat="44.6846179" lon="8.8908577"><ele>249.0</ele><time>2026-04-09T13:12:51.15Z</time></trkpt><trkpt lat="44.6847141" lon="8.890768"><ele>249.39999999999998</ele><time>2026-04-09T13:12:52Z</time></trkpt><trkpt lat="44.6848098" lon="8.8906737"><ele>249.79999999999998</ele><time>2026-04-09T13:12:52.999Z</time></trkpt><trkpt lat="44.6849019" lon="8.8905852"><ele>250.20000000000002</ele><time>2026-04-09T13:12:54.133Z</time></trkpt><trkpt lat="44.6849932" lon="8.8905031"><ele>250.60000000000002</ele><time>2026-04-09T13:12:55.138Z</time></trkpt><trkpt lat="44.6850775" lon="8.8904207"><ele>251.0</ele><time>2026-04-09T13:12:56.114Z</time></trkpt><trkpt lat="44.6852519" lon="8.8902499"><ele>250.5</ele><time>2026-04-09T13:12:57.999Z</time></trkpt><trkpt lat="44.6853339" lon="8.8901617"><ele>250.0</ele><time>2026-04-09T13:12:59Z</time></trkpt><trkpt lat="44.6854228" lon="8.890088"><ele>249.5</ele><time>2026-04-09T13:13:00.115Z</time></trkpt><trkpt lat="44.6855114" lon="8.8900045"><ele>249.0</ele><time>2026-04-09T13:13:01.13Z</time></trkpt><trkpt lat="44.6856886" lon="8.8898304"><ele>249.0</ele><time>2026-04-09T13:13:02.999Z</time></trkpt><trkpt lat="44.6857768" lon="8.8897445"><ele>249.0</ele><time>2026-04-09T13:13:04.13Z</time></trkpt><trkpt lat="44.6858681" lon="8.8896557"><ele>249.0</ele><time>2026-04-09T13:13:05.136Z</time></trkpt><trkpt lat="44.6859587" lon="8.8895731"><ele>249.0</ele><time>2026-04-09T13:13:06.125Z</time></trkpt><trkpt lat="44.6861463" lon="8.8893948"><ele>249.33333333333331</ele><time>2026-04-09T13:13:07.999Z</time></trkpt><trkpt lat="44.6862407" lon="8.8893102"><ele>249.66666666666666</ele><time>2026-04-09T13:13:09.124Z</time></trkpt><trkpt lat="44.6864367" lon="8.8891353"><ele>250.0</ele><time>2026-04-09T13:13:11.111Z</time></trkpt><trkpt lat="44.6866358" lon="8.8889551"><ele>250.0</ele><time>2026-04-09T13:13:13Z</time></trkpt><trkpt lat="44.6867375" lon="8.8888608"><ele>250.0</ele><time>2026-04-09T13:13:13.999Z</time></trkpt><trkpt lat="44.6868413" lon="8.8887672"><ele>250.0</ele><time>2026-04-09T13:13:14.999Z</time></trkpt><trkpt lat="44.6869383" lon="8.8886664"><ele>250.0</ele><time>2026-04-09T13:13:15.999Z</time></trkpt><trkpt lat="44.6870367" lon="8.8885696"><ele>249.4</ele><time>2026-04-09T13:13:16.999Z</time></trkpt><trkpt lat="44.687129" lon="8.8884826"><ele>248.8</ele><time>2026-04-09T13:13:18Z</time></trkpt><trkpt lat="44.6872148" lon="8.8883986"><ele>248.2</ele><time>2026-04-09T13:13:18.999Z</time></trkpt><trkpt lat="44.6873059" lon="8.888307"><ele>247.6</ele><time>2026-04-09T13:13:19.999Z</time></trkpt><trkpt lat="44.6874001" lon="8.8882081"><ele>247.0</ele><time>2026-04-09T13:13:20.999Z</time></trkpt><trkpt lat="44.6874919" lon="8.8881121"><ele>247.0</ele><time>2026-04-09T13:13:21.999Z</time></trkpt><trkpt lat="44.687587" lon="8.8880148"><ele>247.0</ele><time>2026-04-09T13:13:22.999Z</time></trkpt><trkpt lat="44.6876761" lon="8.887925"><ele>247.0</ele><time>2026-04-09T13:13:23.999Z</time></trkpt><trkpt lat="44.6877666" lon="8.8878433"><ele>247.0</ele><time>2026-04-09T13:13:24.999Z</time></trkpt><trkpt lat="44.6878536" lon="8.8877397"><ele>247.0</ele><time>2026-04-09T13:13:25.999Z</time></trkpt><trkpt lat="44.687939" lon="8.8876434"><ele>246.83333333333331</ele><time>2026-04-09T13:13:27Z</time></trkpt><trkpt lat="44.6880186" lon="8.8875552"><ele>246.66666666666666</ele><time>2026-04-09T13:13:28Z</time></trkpt><trkpt lat="44.6880919" lon="8.887497"><ele>246.5</ele><time>2026-04-09T13:13:28.999Z</time></trkpt><trkpt lat="44.6881558" lon="8.8874203"><ele>246.33333333333331</ele><time>2026-04-09T13:13:29.999Z</time></trkpt><trkpt lat="44.688217" lon="8.8873521"><ele>246.16666666666666</ele><time>2026-04-09T13:13:30.999Z</time></trkpt><trkpt lat="44.6882722" lon="8.8872902"><ele>246.0</ele><time>2026-04-09T13:13:31.999Z</time></trkpt><trkpt lat="44.6883666" lon="8.8871867"><ele>246.0</ele><time>2026-04-09T13:13:33.999Z</time></trkpt><trkpt lat="44.68842" lon="8.8871216"><ele>246.0</ele><time>2026-04-09T13:13:36Z</time></trkpt><trkpt lat="44.6884708" lon="8.8870603"><ele>246.0</ele><time>2026-04-09T13:13:37.999Z</time></trkpt><trkpt lat="44.6885668" lon="8.8870555"><ele>246.0</ele><time>2026-04-09T13:13:41Z</time></trkpt><trkpt lat="44.6886506" lon="8.8870089"><ele>246.0</ele><time>2026-04-09T13:13:43Z</time></trkpt><trkpt lat="44.6886986" lon="8.886883"><ele>246.0</ele><time>2026-04-09T13:13:44.999Z</time></trkpt><trkpt lat="44.6887474" lon="8.8867456"><ele>245.66666666666666</ele><time>2026-04-09T13:13:46.999Z</time></trkpt><trkpt lat="44.688793" lon="8.8866773"><ele>245.33333333333331</ele><time>2026-04-09T13:13:47.999Z</time></trkpt><trkpt lat="44.6888449" lon="8.8866127"><ele>245.0</ele><time>2026-04-09T13:13:48.999Z</time></trkpt><trkpt lat="44.6889023" lon="8.8865431"><ele>244.66666666666666</ele><time>2026-04-09T13:13:49.999Z</time></trkpt><trkpt lat="44.6889581" lon="8.8864692"><ele>244.33333333333331</ele><time>2026-04-09T13:13:50.999Z</time></trkpt><trkpt lat="44.6890242" lon="8.8863891"><ele>244.0</ele><time>2026-04-09T13:13:52Z</time></trkpt><trkpt lat="44.6890769" lon="8.8863149"><ele>243.99999999999997</ele><time>2026-04-09T13:13:53Z</time></trkpt><trkpt lat="44.6891392" lon="8.8862413"><ele>244.0</ele><time>2026-04-09T13:13:53.999Z</time></trkpt><trkpt lat="44.6892023" lon="8.8861658"><ele>244.0</ele><time>2026-04-09T13:13:54.999Z</time></trkpt><trkpt lat="44.6892684" lon="8.8860817"><ele>244.0</ele><time>2026-04-09T13:13:55.999Z</time></trkpt><trkpt lat="44.6893275" lon="8.8859954"><ele>243.99999999999997</ele><time>2026-04-09T13:13:56.999Z</time></trkpt><trkpt lat="44.6893888" lon="8.8859112"><ele>244.0</ele><time>2026-04-09T13:13:58Z</time></trkpt><trkpt lat="44.6894461" lon="8.8858237"><ele>244.16666666666666</ele><time>2026-04-09T13:13:59Z</time></trkpt><trkpt lat="44.6895014" lon="8.8857326"><ele>244.33333333333331</ele><time>2026-04-09T13:14:00Z</time></trkpt><trkpt lat="44.6895615" lon="8.8856458"><ele>244.5</ele><time>2026-04-09T13:14:00.999Z</time></trkpt><trkpt lat="44.6896199" lon="8.8855656"><ele>244.66666666666669</ele><time>2026-04-09T13:14:02Z</time></trkpt><trkpt lat="44.6896729" lon="8.8854868"><ele>244.83333333333334</ele><time>2026-04-09T13:14:02.999Z</time></trkpt><trkpt lat="44.6897279" lon="8.8854111"><ele>245.0</ele><time>2026-04-09T13:14:04Z</time></trkpt><trkpt lat="44.6897843" lon="8.8853306"><ele>245.0</ele><time>2026-04-09T13:14:05Z</time></trkpt><trkpt lat="44.6898425" lon="8.8852529"><ele>245.0</ele><time>2026-04-09T13:14:06.108Z</time></trkpt><trkpt lat="44.6899571" lon="8.8850858"><ele>245.0</ele><time>2026-04-09T13:14:08Z</time></trkpt><trkpt lat="44.6900182" lon="8.8849944"><ele>245.0</ele><time>2026-04-09T13:14:09.137Z</time></trkpt><trkpt lat="44.6900802" lon="8.8849031"><ele>245.0</ele><time>2026-04-09T13:14:10.172Z</time></trkpt><trkpt lat="44.6901376" lon="8.8848152"><ele>245.0</ele><time>2026-04-09T13:14:11.164Z</time></trkpt><trkpt lat="44.6902479" lon="8.8846611"><ele>245.0</ele><time>2026-04-09T13:14:13Z</time></trkpt><trkpt lat="44.6903039" lon="8.8845829"><ele>245.0</ele><time>2026-04-09T13:14:14.128Z</time></trkpt><trkpt lat="44.6904071" lon="8.8844352"><ele>245.0</ele><time>2026-04-09T13:14:15.999Z</time></trkpt><trkpt lat="44.6904685" lon="8.8843547"><ele>245.0</ele><time>2026-04-09T13:14:17.999Z</time></trkpt><trkpt lat="44.6905352" lon="8.8842556"><ele>245.0</ele><time>2026-04-09T13:14:21Z</time></trkpt><trkpt lat="44.6905844" lon="8.8841696"><ele>245.0</ele><time>2026-04-09T13:14:23Z</time></trkpt><trkpt lat="44.6906337" lon="8.8841072"><ele>245.0</ele><time>2026-04-09T13:14:23.999Z</time></trkpt><trkpt lat="44.6907165" lon="8.8839751"><ele>245.0</ele><time>2026-04-09T13:14:25.999Z</time></trkpt><trkpt lat="44.6908018" lon="8.8838504"><ele>245.00000000000003</ele><time>2026-04-09T13:14:27.999Z</time></trkpt><trkpt lat="44.6908819" lon="8.883756"><ele>245.0</ele><time>2026-04-09T13:14:29.999Z</time></trkpt><trkpt lat="44.6909651" lon="8.8836915"><ele>245.0</ele><time>2026-04-09T13:14:31.999Z</time></trkpt><trkpt lat="44.6910377" lon="8.8836212"><ele>245.0</ele><time>2026-04-09T13:14:34Z</time></trkpt><trkpt lat="44.6910883" lon="8.8835623"><ele>245.00000000000003</ele><time>2026-04-09T13:14:36.999Z</time></trkpt><trkpt lat="44.691122" lon="8.8834633"><ele>245.0</ele><time>2026-04-09T13:14:39Z</time></trkpt><trkpt lat="44.6911653" lon="8.8833746"><ele>244.0</ele><time>2026-04-09T13:14:41Z</time></trkpt><trkpt lat="44.6912335" lon="8.8832656"><ele>243.0</ele><time>2026-04-09T13:14:42.999Z</time></trkpt><trkpt lat="44.6913054" lon="8.8831539"><ele>242.0</ele><time>2026-04-09T13:14:45Z</time></trkpt><trkpt lat="44.691399" lon="8.8830113"><ele>241.0</ele><time>2026-04-09T13:14:47Z</time></trkpt><trkpt lat="44.6914643" lon="8.8829068"><ele>240.0</ele><time>2026-04-09T13:14:47.999Z</time></trkpt><trkpt lat="44.6915408" lon="8.8828024"><ele>240.0</ele><time>2026-04-09T13:14:49Z</time></trkpt><trkpt lat="44.6916166" lon="8.882708"><ele>240.0</ele><time>2026-04-09T13:14:50Z</time></trkpt><trkpt lat="44.6916849" lon="8.8826123"><ele>240.0</ele><time>2026-04-09T13:14:51Z</time></trkpt><trkpt lat="44.6917513" lon="8.8825211"><ele>240.0</ele><time>2026-04-09T13:14:52Z</time></trkpt><trkpt lat="44.6918174" lon="8.8824282"><ele>240.0</ele><time>2026-04-09T13:14:53Z</time></trkpt><trkpt lat="44.6918973" lon="8.8823024"><ele>240.25</ele><time>2026-04-09T13:14:53.999Z</time></trkpt><trkpt lat="44.6919806" lon="8.8821764"><ele>240.5</ele><time>2026-04-09T13:14:54.999Z</time></trkpt><trkpt lat="44.6920717" lon="8.8820522"><ele>240.75</ele><time>2026-04-09T13:14:56Z</time></trkpt><trkpt lat="44.6921622" lon="8.8819402"><ele>241.0</ele><time>2026-04-09T13:14:57Z</time></trkpt><trkpt lat="44.6922456" lon="8.8818312"><ele>241.0</ele><time>2026-04-09T13:14:57.999Z</time></trkpt><trkpt lat="44.6923212" lon="8.8817172"><ele>241.00000000000003</ele><time>2026-04-09T13:14:58.999Z</time></trkpt><trkpt lat="44.6923892" lon="8.8816234"><ele>241.00000000000003</ele><time>2026-04-09T13:14:59.999Z</time></trkpt><trkpt lat="44.6924466" lon="8.8815359"><ele>241.0</ele><time>2026-04-09T13:15:00.999Z</time></trkpt><trkpt lat="44.6925024" lon="8.8814542"><ele>241.0</ele><time>2026-04-09T13:15:01.999Z</time></trkpt><trkpt lat="44.6925555" lon="8.8813728"><ele>240.99999999999997</ele><time>2026-04-09T13:15:03Z</time></trkpt><trkpt lat="44.6926067" lon="8.8812972"><ele>241.0</ele><time>2026-04-09T13:15:04Z</time></trkpt><trkpt lat="44.6926505" lon="8.8812307"><ele>241.0</ele><time>2026-04-09T13:15:05Z</time></trkpt><trkpt lat="44.6927183" lon="8.8811261"><ele>241.0</ele><time>2026-04-09T13:15:07Z</time></trkpt><trkpt lat="44.6927865" lon="8.8810492"><ele>240.99999999999997</ele><time>2026-04-09T13:15:08.999Z</time></trkpt><trkpt lat="44.6928613" lon="8.8809885"><ele>241.0</ele><time>2026-04-09T13:15:11Z</time></trkpt><trkpt lat="44.6929527" lon="8.8809677"><ele>240.49999999999997</ele><time>2026-04-09T13:15:13Z</time></trkpt><trkpt lat="44.6930354" lon="8.8809615"><ele>240.0</ele><time>2026-04-09T13:15:14.999Z</time></trkpt><trkpt lat="44.6931126" lon="8.8808691"><ele>239.5</ele><time>2026-04-09T13:15:16.999Z</time></trkpt><trkpt lat="44.6931529" lon="8.8807058"><ele>239.0</ele><time>2026-04-09T13:15:18.999Z</time></trkpt><trkpt lat="44.6931632" lon="8.8806109"><ele>238.49999999999997</ele><time>2026-04-09T13:15:19.999Z</time></trkpt><trkpt lat="44.6931901" lon="8.8805183"><ele>238.0</ele><time>2026-04-09T13:15:21Z</time></trkpt><trkpt lat="44.6932288" lon="8.8804385"><ele>237.99999999999997</ele><time>2026-04-09T13:15:21.999Z</time></trkpt><trkpt lat="44.6932748" lon="8.8803573"><ele>238.0</ele><time>2026-04-09T13:15:22.999Z</time></trkpt><trkpt lat="44.6933265" lon="8.880277"><ele>238.0</ele><time>2026-04-09T13:15:23.999Z</time></trkpt><trkpt lat="44.6933844" lon="8.8801942"><ele>238.0</ele><time>2026-04-09T13:15:24.999Z</time></trkpt><trkpt lat="44.6934468" lon="8.8801092"><ele>237.99999999999997</ele><time>2026-04-09T13:15:26Z</time></trkpt><trkpt lat="44.6935109" lon="8.8800257"><ele>238.0</ele><time>2026-04-09T13:15:26.999Z</time></trkpt><trkpt lat="44.6935738" lon="8.8799324"><ele>237.8</ele><time>2026-04-09T13:15:27.999Z</time></trkpt><trkpt lat="44.6936392" lon="8.8798359"><ele>237.60000000000002</ele><time>2026-04-09T13:15:28.999Z</time></trkpt><trkpt lat="44.6937104" lon="8.8797343"><ele>237.39999999999998</ele><time>2026-04-09T13:15:30Z</time></trkpt><trkpt lat="44.6937829" lon="8.8796288"><ele>237.2</ele><time>2026-04-09T13:15:31Z</time></trkpt><trkpt lat="44.6938562" lon="8.879523"><ele>237.0</ele><time>2026-04-09T13:15:31.999Z</time></trkpt><trkpt lat="44.6939285" lon="8.8794184"><ele>237.0</ele><time>2026-04-09T13:15:33Z</time></trkpt><trkpt lat="44.6940054" lon="8.8793095"><ele>237.0</ele><time>2026-04-09T13:15:34Z</time></trkpt><trkpt lat="44.694087" lon="8.879198"><ele>237.0</ele><time>2026-04-09T13:15:34.999Z</time></trkpt><trkpt lat="44.6941674" lon="8.8790852"><ele>237.0</ele><time>2026-04-09T13:15:36Z</time></trkpt><trkpt lat="44.6942499" lon="8.8789728"><ele>237.25</ele><time>2026-04-09T13:15:36.999Z</time></trkpt><trkpt lat="44.6943323" lon="8.8788601"><ele>237.5</ele><time>2026-04-09T13:15:37.999Z</time></trkpt><trkpt lat="44.6944152" lon="8.8787373"><ele>237.75</ele><time>2026-04-09T13:15:39Z</time></trkpt><trkpt lat="44.6944998" lon="8.8786182"><ele>238.0</ele><time>2026-04-09T13:15:39.999Z</time></trkpt><trkpt lat="44.6945843" lon="8.8785011"><ele>238.0</ele><time>2026-04-09T13:15:41Z</time></trkpt><trkpt lat="44.6946714" lon="8.8783807"><ele>238.0</ele><time>2026-04-09T13:15:41.999Z</time></trkpt><trkpt lat="44.6947589" lon="8.8782662"><ele>238.0</ele><time>2026-04-09T13:15:42.999Z</time></trkpt><trkpt lat="44.6948483" lon="8.8781462"><ele>238.0</ele><time>2026-04-09T13:15:43.999Z</time></trkpt><trkpt lat="44.6949334" lon="8.8780219"><ele>238.0</ele><time>2026-04-09T13:15:45Z</time></trkpt><trkpt lat="44.6950211" lon="8.8779007"><ele>238.0</ele><time>2026-04-09T13:15:45.999Z</time></trkpt><trkpt lat="44.6951074" lon="8.8777724"><ele>238.0</ele><time>2026-04-09T13:15:47Z</time></trkpt><trkpt lat="44.6951964" lon="8.8776476"><ele>238.0</ele><time>2026-04-09T13:15:48Z</time></trkpt><trkpt lat="44.6952825" lon="8.8775229"><ele>237.5</ele><time>2026-04-09T13:15:48.999Z</time></trkpt><trkpt lat="44.6953703" lon="8.8773995"><ele>237.0</ele><time>2026-04-09T13:15:49.999Z</time></trkpt><trkpt lat="44.6954564" lon="8.8772722"><ele>236.5</ele><time>2026-04-09T13:15:50.999Z</time></trkpt><trkpt lat="44.6955411" lon="8.8771555"><ele>236.0</ele><time>2026-04-09T13:15:51.999Z</time></trkpt><trkpt lat="44.6956236" lon="8.8770293"><ele>236.0</ele><time>2026-04-09T13:15:52.999Z</time></trkpt><trkpt lat="44.6957058" lon="8.8769086"><ele>236.0</ele><time>2026-04-09T13:15:54Z</time></trkpt><trkpt lat="44.6957926" lon="8.8767872"><ele>236.0</ele><time>2026-04-09T13:15:55Z</time></trkpt><trkpt lat="44.6958785" lon="8.8766682"><ele>236.0</ele><time>2026-04-09T13:15:55.999Z</time></trkpt><trkpt lat="44.6959674" lon="8.876544"><ele>236.0</ele><time>2026-04-09T13:15:57Z</time></trkpt><trkpt lat="44.6960538" lon="8.8764152"><ele>236.0</ele><time>2026-04-09T13:15:57.999Z</time></trkpt><trkpt lat="44.6961416" lon="8.8762851"><ele>236.0</ele><time>2026-04-09T13:15:58.999Z</time></trkpt><trkpt lat="44.6962301" lon="8.8761555"><ele>236.0</ele><time>2026-04-09T13:16:00Z</time></trkpt><trkpt lat="44.6963162" lon="8.8760269"><ele>236.0</ele><time>2026-04-09T13:16:00.999Z</time></trkpt><trkpt lat="44.69641" lon="8.8759067"><ele>236.0</ele><time>2026-04-09T13:16:01.999Z</time></trkpt><trkpt lat="44.6965007" lon="8.8757723"><ele>236.0</ele><time>2026-04-09T13:16:03Z</time></trkpt><trkpt lat="44.6965942" lon="8.8756347"><ele>236.0</ele><time>2026-04-09T13:16:03.999Z</time></trkpt><trkpt lat="44.6967833" lon="8.8753621"><ele>236.0</ele><time>2026-04-09T13:16:06.142Z</time></trkpt><trkpt lat="44.6969824" lon="8.8750866"><ele>236.0</ele><time>2026-04-09T13:16:08Z</time></trkpt><trkpt lat="44.6970806" lon="8.8749507"><ele>236.0</ele><time>2026-04-09T13:16:09.145Z</time></trkpt><trkpt lat="44.6971802" lon="8.8748013"><ele>236.0</ele><time>2026-04-09T13:16:10.108Z</time></trkpt><trkpt lat="44.6972828" lon="8.874651"><ele>236.0</ele><time>2026-04-09T13:16:11.105Z</time></trkpt><trkpt lat="44.6973913" lon="8.8745107"><ele>236.0</ele><time>2026-04-09T13:16:11.999Z</time></trkpt><trkpt lat="44.6975044" lon="8.8743507"><ele>236.0</ele><time>2026-04-09T13:16:13Z</time></trkpt><trkpt lat="44.6976188" lon="8.8741844"><ele>236.0</ele><time>2026-04-09T13:16:14.145Z</time></trkpt><trkpt lat="44.6977362" lon="8.8740167"><ele>236.0</ele><time>2026-04-09T13:16:15.109Z</time></trkpt><trkpt lat="44.697983" lon="8.8736778"><ele>235.33333333333334</ele><time>2026-04-09T13:16:17Z</time></trkpt><trkpt lat="44.6981091" lon="8.873506"><ele>234.66666666666669</ele><time>2026-04-09T13:16:17.999Z</time></trkpt><trkpt lat="44.6982379" lon="8.8733362"><ele>234.0</ele><time>2026-04-09T13:16:19.118Z</time></trkpt><trkpt lat="44.6983674" lon="8.8731582"><ele>233.5</ele><time>2026-04-09T13:16:20.122Z</time></trkpt><trkpt lat="44.6984969" lon="8.8729894"><ele>233.0</ele><time>2026-04-09T13:16:21.154Z</time></trkpt><trkpt lat="44.6987386" lon="8.8726815"><ele>233.0</ele><time>2026-04-09T13:16:22.999Z</time></trkpt><trkpt lat="44.6988454" lon="8.872551"><ele>233.0</ele><time>2026-04-09T13:16:24.132Z</time></trkpt><trkpt lat="44.6990354" lon="8.8723217"><ele>233.0</ele><time>2026-04-09T13:16:26.132Z</time></trkpt><trkpt lat="44.6991974" lon="8.8721154"><ele>233.0</ele><time>2026-04-09T13:16:27.999Z</time></trkpt><trkpt lat="44.6992548" lon="8.8720127"><ele>233.0</ele><time>2026-04-09T13:16:29.155Z</time></trkpt><trkpt lat="44.6992918" lon="8.8719009"><ele>233.0</ele><time>2026-04-09T13:16:30.11Z</time></trkpt><trkpt lat="44.6993154" lon="8.8717892"><ele>233.0</ele><time>2026-04-09T13:16:31.153Z</time></trkpt><trkpt lat="44.699392" lon="8.8716056"><ele>233.0</ele><time>2026-04-09T13:16:32.999Z</time></trkpt><trkpt lat="44.6994192" lon="8.8715188"><ele>233.2</ele><time>2026-04-09T13:16:34.129Z</time></trkpt><trkpt lat="44.6994274" lon="8.8714261"><ele>233.4</ele><time>2026-04-09T13:16:35.151Z</time></trkpt><trkpt lat="44.6993356" lon="8.8712595"><ele>233.59999999999997</ele><time>2026-04-09T13:16:37.999Z</time></trkpt><trkpt lat="44.6992193" lon="8.8712836"><ele>233.79999999999998</ele><time>2026-04-09T13:16:40.128Z</time></trkpt><trkpt lat="44.6991608" lon="8.8713516"><ele>234.0</ele><time>2026-04-09T13:16:41.172Z</time></trkpt><trkpt lat="44.6990459" lon="8.8715396"><ele>234.0</ele><time>2026-04-09T13:16:42.999Z</time></trkpt><trkpt lat="44.6989687" lon="8.8716206"><ele>234.0</ele><time>2026-04-09T13:16:44.159Z</time></trkpt><trkpt lat="44.6988725" lon="8.8717128"><ele>234.0</ele><time>2026-04-09T13:16:45.137Z</time></trkpt><trkpt lat="44.6987772" lon="8.8718119"><ele>234.0</ele><time>2026-04-09T13:16:46.133Z</time></trkpt><trkpt lat="44.6985739" lon="8.8720414"><ele>234.66666666666669</ele><time>2026-04-09T13:16:48Z</time></trkpt><trkpt lat="44.6984679" lon="8.8721693"><ele>235.33333333333334</ele><time>2026-04-09T13:16:49.141Z</time></trkpt><trkpt lat="44.698248" lon="8.8724419"><ele>236.0</ele><time>2026-04-09T13:16:50.999Z</time></trkpt><trkpt lat="44.6981379" lon="8.872593"><ele>235.0</ele><time>2026-04-09T13:16:51.999Z</time></trkpt><trkpt lat="44.6980262" lon="8.8727393"><ele>234.0</ele><time>2026-04-09T13:16:52.999Z</time></trkpt><trkpt lat="44.6979077" lon="8.8728893"><ele>233.0</ele><time>2026-04-09T13:16:53.999Z</time></trkpt><trkpt lat="44.6977857" lon="8.8730415"><ele>234.0</ele><time>2026-04-09T13:16:55Z</time></trkpt><trkpt lat="44.69766" lon="8.8732041"><ele>235.0</ele><time>2026-04-09T13:16:56.127Z</time></trkpt><trkpt lat="44.6975299" lon="8.8733677"><ele>236.0</ele><time>2026-04-09T13:16:56.999Z</time></trkpt><trkpt lat="44.6974015" lon="8.8735383"><ele>236.0</ele><time>2026-04-09T13:16:58Z</time></trkpt><trkpt lat="44.6972744" lon="8.8737089"><ele>236.0</ele><time>2026-04-09T13:16:59.115Z</time></trkpt><trkpt lat="44.6970165" lon="8.8740434"><ele>236.0</ele><time>2026-04-09T13:17:01Z</time></trkpt><trkpt lat="44.6968943" lon="8.8742126"><ele>236.0</ele><time>2026-04-09T13:17:02Z</time></trkpt><trkpt lat="44.6967732" lon="8.8743671"><ele>236.0</ele><time>2026-04-09T13:17:02.999Z</time></trkpt><trkpt lat="44.6966536" lon="8.8745141"><ele>236.0</ele><time>2026-04-09T13:17:04.127Z</time></trkpt><trkpt lat="44.6965436" lon="8.8746544"><ele>236.0</ele><time>2026-04-09T13:17:05.153Z</time></trkpt><trkpt lat="44.6964379" lon="8.8747929"><ele>236.0</ele><time>2026-04-09T13:17:06.124Z</time></trkpt><trkpt lat="44.6962254" lon="8.8750673"><ele>236.0</ele><time>2026-04-09T13:17:08Z</time></trkpt><trkpt lat="44.6961234" lon="8.875197"><ele>236.0</ele><time>2026-04-09T13:17:09.154Z</time></trkpt><trkpt lat="44.6960188" lon="8.8753327"><ele>236.0</ele><time>2026-04-09T13:17:10.164Z</time></trkpt><trkpt lat="44.6958147" lon="8.875609"><ele>236.0</ele><time>2026-04-09T13:17:11.999Z</time></trkpt><trkpt lat="44.6957194" lon="8.8757423"><ele>236.0</ele><time>2026-04-09T13:17:12.999Z</time></trkpt><trkpt lat="44.6956167" lon="8.8758743"><ele>236.0</ele><time>2026-04-09T13:17:14Z</time></trkpt><trkpt lat="44.6955133" lon="8.8759997"><ele>236.0</ele><time>2026-04-09T13:17:15Z</time></trkpt><trkpt lat="44.6954203" lon="8.8761218"><ele>236.0</ele><time>2026-04-09T13:17:16Z</time></trkpt><trkpt lat="44.6953291" lon="8.87624"><ele>236.0</ele><time>2026-04-09T13:17:16.999Z</time></trkpt><trkpt lat="44.6952335" lon="8.8763555"><ele>236.0</ele><time>2026-04-09T13:17:17.999Z</time></trkpt><trkpt lat="44.6951479" lon="8.8764602"><ele>236.0</ele><time>2026-04-09T13:17:19Z</time></trkpt><trkpt lat="44.6950626" lon="8.8765771"><ele>236.20000000000002</ele><time>2026-04-09T13:17:19.999Z</time></trkpt><trkpt lat="44.6949774" lon="8.8766862"><ele>236.40000000000003</ele><time>2026-04-09T13:17:20.999Z</time></trkpt><trkpt lat="44.6948975" lon="8.8767899"><ele>236.6</ele><time>2026-04-09T13:17:21.999Z</time></trkpt><trkpt lat="44.6948197" lon="8.8768869"><ele>236.8</ele><time>2026-04-09T13:17:23Z</time></trkpt><trkpt lat="44.6947522" lon="8.876975"><ele>237.0</ele><time>2026-04-09T13:17:23.999Z</time></trkpt><trkpt lat="44.69468" lon="8.8770742"><ele>237.33333333333334</ele><time>2026-04-09T13:17:24.999Z</time></trkpt><trkpt lat="44.694624" lon="8.8771435"><ele>237.66666666666669</ele><time>2026-04-09T13:17:26Z</time></trkpt><trkpt lat="44.6945751" lon="8.8772051"><ele>238.0</ele><time>2026-04-09T13:17:27Z</time></trkpt><trkpt lat="44.6945076" lon="8.8772299"><ele>238.33333333333334</ele><time>2026-04-09T13:17:27.999Z</time></trkpt><trkpt lat="44.6944172" lon="8.8772976"><ele>238.66666666666669</ele><time>2026-04-09T13:17:29.999Z</time></trkpt><trkpt lat="44.6943781" lon="8.8773789"><ele>239.0</ele><time>2026-04-09T13:18:04.999Z</time></trkpt><trkpt lat="44.6943216" lon="8.8774511"><ele>239.0</ele><time>2026-04-09T13:19:24Z</time></trkpt><trkpt lat="44.6941663" lon="8.8776479"><ele>239.0</ele><time>2026-04-09T13:19:25.999Z</time></trkpt><trkpt lat="44.6941105" lon="8.8777371"><ele>239.0</ele><time>2026-04-09T13:19:26.999Z</time></trkpt><trkpt lat="44.6940381" lon="8.8778396"><ele>239.0</ele><time>2026-04-09T13:19:27.999Z</time></trkpt><trkpt lat="44.6939856" lon="8.8779406"><ele>239.0</ele><time>2026-04-09T13:19:28.999Z</time></trkpt><trkpt lat="44.6938873" lon="8.8780593"><ele>239.0</ele><time>2026-04-09T13:19:29.999Z</time></trkpt><trkpt lat="44.6937997" lon="8.8781517"><ele>239.0</ele><time>2026-04-09T13:19:30.999Z</time></trkpt><trkpt lat="44.6937197" lon="8.8782558"><ele>239.0</ele><time>2026-04-09T13:19:32Z</time></trkpt><trkpt lat="44.6936366" lon="8.8783662"><ele>239.66666666666669</ele><time>2026-04-09T13:19:33Z</time></trkpt><trkpt lat="44.6935501" lon="8.8784813"><ele>240.33333333333331</ele><time>2026-04-09T13:19:34Z</time></trkpt><trkpt lat="44.6934661" lon="8.8785878"><ele>241.0</ele><time>2026-04-09T13:19:35.146Z</time></trkpt><trkpt lat="44.6932952" lon="8.8788018"><ele>241.0</ele><time>2026-04-09T13:19:36.999Z</time></trkpt><trkpt lat="44.6932093" lon="8.8789265"><ele>241.0</ele><time>2026-04-09T13:19:38Z</time></trkpt><trkpt lat="44.6931201" lon="8.8790441"><ele>241.0</ele><time>2026-04-09T13:19:39.167Z</time></trkpt><trkpt lat="44.6930323" lon="8.8791489"><ele>241.0</ele><time>2026-04-09T13:19:40.178Z</time></trkpt><trkpt lat="44.6929555" lon="8.8792574"><ele>240.75</ele><time>2026-04-09T13:19:41.153Z</time></trkpt><trkpt lat="44.6927903" lon="8.8794625"><ele>240.5</ele><time>2026-04-09T13:19:43.125Z</time></trkpt><trkpt lat="44.6927116" lon="8.8795564"><ele>240.25</ele><time>2026-04-09T13:19:44.156Z</time></trkpt><trkpt lat="44.6926481" lon="8.8796596"><ele>240.0</ele><time>2026-04-09T13:19:45.161Z</time></trkpt><trkpt lat="44.6925752" lon="8.8797584"><ele>240.0</ele><time>2026-04-09T13:19:46.136Z</time></trkpt><trkpt lat="44.6924403" lon="8.8799373"><ele>240.0</ele><time>2026-04-09T13:19:48Z</time></trkpt><trkpt lat="44.6923748" lon="8.8800266"><ele>240.0</ele><time>2026-04-09T13:19:49Z</time></trkpt><trkpt lat="44.6923137" lon="8.8800976"><ele>240.0</ele><time>2026-04-09T13:19:50.134Z</time></trkpt><trkpt lat="44.6922488" lon="8.8801815"><ele>240.0</ele><time>2026-04-09T13:19:51.164Z</time></trkpt><trkpt lat="44.6921233" lon="8.8803436"><ele>240.0</ele><time>2026-04-09T13:19:52.999Z</time></trkpt><trkpt lat="44.6920537" lon="8.8804287"><ele>240.0</ele><time>2026-04-09T13:19:54.162Z</time></trkpt><trkpt lat="44.6919889" lon="8.8805147"><ele>240.0</ele><time>2026-04-09T13:19:55.129Z</time></trkpt><trkpt lat="44.6919233" lon="8.8806076"><ele>240.0</ele><time>2026-04-09T13:19:56.112Z</time></trkpt><trkpt lat="44.6917765" lon="8.8807814"><ele>240.25</ele><time>2026-04-09T13:19:57.999Z</time></trkpt><trkpt lat="44.6917071" lon="8.8808789"><ele>240.5</ele><time>2026-04-09T13:19:59Z</time></trkpt><trkpt lat="44.6916345" lon="8.8809841"><ele>240.75</ele><time>2026-04-09T13:20:00Z</time></trkpt><trkpt lat="44.6915892" lon="8.8810785"><ele>241.0</ele><time>2026-04-09T13:20:01.147Z</time></trkpt><trkpt lat="44.6914495" lon="8.8812576"><ele>241.0</ele><time>2026-04-09T13:20:02.999Z</time></trkpt><trkpt lat="44.6913745" lon="8.8813519"><ele>241.0</ele><time>2026-04-09T13:20:04.117Z</time></trkpt><trkpt lat="44.6912185" lon="8.8815525"><ele>241.0</ele><time>2026-04-09T13:20:06.127Z</time></trkpt><trkpt lat="44.6910646" lon="8.8817565"><ele>241.25</ele><time>2026-04-09T13:20:08.146Z</time></trkpt><trkpt lat="44.6909923" lon="8.8818568"><ele>241.5</ele><time>2026-04-09T13:20:09.129Z</time></trkpt><trkpt lat="44.6909261" lon="8.8819475"><ele>241.75</ele><time>2026-04-09T13:20:10.152Z</time></trkpt><trkpt lat="44.6907978" lon="8.8821141"><ele>242.0</ele><time>2026-04-09T13:20:12Z</time></trkpt><trkpt lat="44.6907282" lon="8.8822045"><ele>242.0</ele><time>2026-04-09T13:20:13Z</time></trkpt><trkpt lat="44.6906445" lon="8.8822979"><ele>242.0</ele><time>2026-04-09T13:20:14.12Z</time></trkpt><trkpt lat="44.6905809" lon="8.8823743"><ele>242.0</ele><time>2026-04-09T13:20:15.131Z</time></trkpt><trkpt lat="44.6904829" lon="8.8824922"><ele>242.0</ele><time>2026-04-09T13:20:16.999Z</time></trkpt><trkpt lat="44.6904032" lon="8.8826038"><ele>242.0</ele><time>2026-04-09T13:20:19.159Z</time></trkpt><trkpt lat="44.6903413" lon="8.8826626"><ele>242.39999999999998</ele><time>2026-04-09T13:20:20.137Z</time></trkpt><trkpt lat="44.6902778" lon="8.8827279"><ele>242.79999999999998</ele><time>2026-04-09T13:20:21.153Z</time></trkpt><trkpt lat="44.6901975" lon="8.8828209"><ele>243.2</ele><time>2026-04-09T13:20:22.999Z</time></trkpt><trkpt lat="44.6901338" lon="8.8828893"><ele>243.6</ele><time>2026-04-09T13:20:25.999Z</time></trkpt><trkpt lat="44.6900588" lon="8.8829638"><ele>244.0</ele><time>2026-04-09T13:20:36.171Z</time></trkpt><trkpt lat="44.6899806" lon="8.8831155"><ele>244.16666666666666</ele><time>2026-04-09T13:20:38Z</time></trkpt><trkpt lat="44.6898918" lon="8.8832421"><ele>244.33333333333331</ele><time>2026-04-09T13:20:40Z</time></trkpt><trkpt lat="44.6898289" lon="8.8833339"><ele>244.5</ele><time>2026-04-09T13:20:42Z</time></trkpt><trkpt lat="44.6897783" lon="8.8834005"><ele>244.66666666666669</ele><time>2026-04-09T13:20:43.159Z</time></trkpt><trkpt lat="44.6897249" lon="8.8834668"><ele>244.83333333333334</ele><time>2026-04-09T13:20:44.113Z</time></trkpt><trkpt lat="44.6896758" lon="8.8835266"><ele>245.0</ele><time>2026-04-09T13:20:45.142Z</time></trkpt><trkpt lat="44.689576" lon="8.8836542"><ele>245.0</ele><time>2026-04-09T13:20:46.999Z</time></trkpt><trkpt lat="44.6895291" lon="8.8837153"><ele>245.0</ele><time>2026-04-09T13:20:47.999Z</time></trkpt><trkpt lat="44.6894832" lon="8.8837763"><ele>245.0</ele><time>2026-04-09T13:20:49Z</time></trkpt><trkpt lat="44.6894387" lon="8.883844"><ele>245.0</ele><time>2026-04-09T13:20:49.999Z</time></trkpt><trkpt lat="44.6892805" lon="8.8840276"><ele>245.0</ele><time>2026-04-09T13:20:52.999Z</time></trkpt><trkpt lat="44.689232" lon="8.884085"><ele>245.2</ele><time>2026-04-09T13:20:54.164Z</time></trkpt><trkpt lat="44.6891815" lon="8.8841501"><ele>245.4</ele><time>2026-04-09T13:20:55.167Z</time></trkpt><trkpt lat="44.6891195" lon="8.8842214"><ele>245.60000000000002</ele><time>2026-04-09T13:20:56.154Z</time></trkpt><trkpt lat="44.6890124" lon="8.8843532"><ele>245.8</ele><time>2026-04-09T13:20:58Z</time></trkpt><trkpt lat="44.6889371" lon="8.8844389"><ele>246.0</ele><time>2026-04-09T13:20:59.168Z</time></trkpt><trkpt lat="44.6888502" lon="8.8844909"><ele>246.0</ele><time>2026-04-09T13:21:00.122Z</time></trkpt><trkpt lat="44.6887773" lon="8.8846242"><ele>246.0</ele><time>2026-04-09T13:21:02.999Z</time></trkpt><trkpt lat="44.6887289" lon="8.8847163"><ele>246.0</ele><time>2026-04-09T13:21:05.159Z</time></trkpt><trkpt lat="44.688627" lon="8.8848887"><ele>246.0</ele><time>2026-04-09T13:21:08Z</time></trkpt><trkpt lat="44.6885711" lon="8.8849867"><ele>246.20000000000002</ele><time>2026-04-09T13:21:10Z</time></trkpt><trkpt lat="44.6884704" lon="8.8851186"><ele>246.40000000000003</ele><time>2026-04-09T13:21:12.999Z</time></trkpt><trkpt lat="44.6884046" lon="8.8851999"><ele>246.6</ele><time>2026-04-09T13:21:16Z</time></trkpt><trkpt lat="44.6883355" lon="8.885288"><ele>246.8</ele><time>2026-04-09T13:21:19Z</time></trkpt><trkpt lat="44.6882806" lon="8.8853678"><ele>247.0</ele><time>2026-04-09T13:21:20.999Z</time></trkpt><trkpt lat="44.6882305" lon="8.8854312"><ele>246.99999999999997</ele><time>2026-04-09T13:21:22Z</time></trkpt><trkpt lat="44.6881819" lon="8.8854883"><ele>247.0</ele><time>2026-04-09T13:21:23.183Z</time></trkpt><trkpt lat="44.6880892" lon="8.8855969"><ele>247.0</ele><time>2026-04-09T13:21:25Z</time></trkpt><trkpt lat="44.6880122" lon="8.8857002"><ele>247.0</ele><time>2026-04-09T13:21:27Z</time></trkpt><trkpt lat="44.6879639" lon="8.8857578"><ele>246.99999999999997</ele><time>2026-04-09T13:21:28Z</time></trkpt><trkpt lat="44.6878947" lon="8.8857717"><ele>247.0</ele><time>2026-04-09T13:21:28.999Z</time></trkpt><trkpt lat="44.6877895" lon="8.8858227"><ele>247.8</ele><time>2026-04-09T13:21:30.999Z</time></trkpt><trkpt lat="44.6876999" lon="8.8859178"><ele>248.6</ele><time>2026-04-09T13:21:33Z</time></trkpt><trkpt lat="44.6876271" lon="8.8860201"><ele>249.40000000000003</ele><time>2026-04-09T13:21:35.125Z</time></trkpt><trkpt lat="44.6875374" lon="8.8861316"><ele>250.20000000000002</ele><time>2026-04-09T13:21:37Z</time></trkpt><trkpt lat="44.6874948" lon="8.886205"><ele>251.0</ele><time>2026-04-09T13:21:37.999Z</time></trkpt><trkpt lat="44.6874294" lon="8.8862845"><ele>251.0</ele><time>2026-04-09T13:21:39.999Z</time></trkpt><trkpt lat="44.6873571" lon="8.8863305"><ele>251.00000000000003</ele><time>2026-04-09T13:21:41.999Z</time></trkpt><trkpt lat="44.6872824" lon="8.8864308"><ele>251.00000000000003</ele><time>2026-04-09T13:21:43.999Z</time></trkpt><trkpt lat="44.6872287" lon="8.8865573"><ele>251.0</ele><time>2026-04-09T13:21:46Z</time></trkpt><trkpt lat="44.6871694" lon="8.8866316"><ele>251.0</ele><time>2026-04-09T13:21:48Z</time></trkpt><trkpt lat="44.6870851" lon="8.8867163"><ele>251.16666666666669</ele><time>2026-04-09T13:21:49.999Z</time></trkpt><trkpt lat="44.6870148" lon="8.8867969"><ele>251.33333333333334</ele><time>2026-04-09T13:21:51.999Z</time></trkpt><trkpt lat="44.6869641" lon="8.8868545"><ele>251.5</ele><time>2026-04-09T13:21:53.168Z</time></trkpt><trkpt lat="44.6869153" lon="8.8869156"><ele>251.66666666666669</ele><time>2026-04-09T13:21:54.142Z</time></trkpt><trkpt lat="44.6868068" lon="8.8870169"><ele>251.83333333333334</ele><time>2026-04-09T13:21:55.999Z</time></trkpt><trkpt lat="44.6867564" lon="8.8870708"><ele>252.0</ele><time>2026-04-09T13:21:57Z</time></trkpt><trkpt lat="44.6866581" lon="8.8871893"><ele>252.0</ele><time>2026-04-09T13:21:59Z</time></trkpt><trkpt lat="44.6865928" lon="8.8872355"><ele>252.0</ele><time>2026-04-09T13:21:59.999Z</time></trkpt><trkpt lat="44.6865468" lon="8.8873283"><ele>252.0</ele><time>2026-04-09T13:22:01Z</time></trkpt><trkpt lat="44.6864853" lon="8.8874437"><ele>252.0</ele><time>2026-04-09T13:22:03Z</time></trkpt><trkpt lat="44.6864236" lon="8.8875294"><ele>252.0</ele><time>2026-04-09T13:22:05.128Z</time></trkpt><trkpt lat="44.68633" lon="8.8876606"><ele>252.0</ele><time>2026-04-09T13:22:07Z</time></trkpt><trkpt lat="44.686272" lon="8.8877145"><ele>252.0</ele><time>2026-04-09T13:22:08Z</time></trkpt><trkpt lat="44.6861686" lon="8.8878275"><ele>252.0</ele><time>2026-04-09T13:22:10Z</time></trkpt><trkpt lat="44.6861236" lon="8.8879095"><ele>252.0</ele><time>2026-04-09T13:22:10.999Z</time></trkpt><trkpt lat="44.686073" lon="8.8879786"><ele>252.0</ele><time>2026-04-09T13:22:12Z</time></trkpt><trkpt lat="44.6860102" lon="8.8880363"><ele>252.0</ele><time>2026-04-09T13:22:12.999Z</time></trkpt><trkpt lat="44.6859558" lon="8.8880924"><ele>252.0</ele><time>2026-04-09T13:22:13.999Z</time></trkpt><trkpt lat="44.6858908" lon="8.8881564"><ele>252.0</ele><time>2026-04-09T13:22:15Z</time></trkpt><trkpt lat="44.6858365" lon="8.8882151"><ele>252.0</ele><time>2026-04-09T13:22:15.999Z</time></trkpt><trkpt lat="44.6857708" lon="8.8882729"><ele>252.0</ele><time>2026-04-09T13:22:16.999Z</time></trkpt><trkpt lat="44.685713" lon="8.888329"><ele>252.0</ele><time>2026-04-09T13:22:18Z</time></trkpt><trkpt lat="44.6856485" lon="8.8883856"><ele>252.0</ele><time>2026-04-09T13:22:19Z</time></trkpt><trkpt lat="44.6855918" lon="8.888441"><ele>252.0</ele><time>2026-04-09T13:22:19.999Z</time></trkpt><trkpt lat="44.685537" lon="8.8884958"><ele>252.2</ele><time>2026-04-09T13:22:20.999Z</time></trkpt><trkpt lat="44.6854425" lon="8.8885804"><ele>252.39999999999998</ele><time>2026-04-09T13:22:22.999Z</time></trkpt><trkpt lat="44.6853464" lon="8.8886731"><ele>252.60000000000002</ele><time>2026-04-09T13:22:25.146Z</time></trkpt><trkpt lat="44.6852415" lon="8.8887751"><ele>252.8</ele><time>2026-04-09T13:22:26.999Z</time></trkpt><trkpt lat="44.6851819" lon="8.8888394"><ele>253.0</ele><time>2026-04-09T13:22:28Z</time></trkpt><trkpt lat="44.6851237" lon="8.8889046"><ele>253.0</ele><time>2026-04-09T13:22:29Z</time></trkpt><trkpt lat="44.6850787" lon="8.8889815"><ele>253.0</ele><time>2026-04-09T13:22:30Z</time></trkpt><trkpt lat="44.6850124" lon="8.8890477"><ele>253.0</ele><time>2026-04-09T13:22:31.111Z</time></trkpt><trkpt lat="44.6848831" lon="8.8891925"><ele>253.0</ele><time>2026-04-09T13:22:32.999Z</time></trkpt><trkpt lat="44.6848171" lon="8.8892544"><ele>253.0</ele><time>2026-04-09T13:22:33.999Z</time></trkpt><trkpt lat="44.6847448" lon="8.8893373"><ele>252.8</ele><time>2026-04-09T13:22:35.144Z</time></trkpt><trkpt lat="44.684625" lon="8.8894795"><ele>252.60000000000002</ele><time>2026-04-09T13:22:36.999Z</time></trkpt><trkpt lat="44.6845531" lon="8.8895505"><ele>252.39999999999998</ele><time>2026-04-09T13:22:37.999Z</time></trkpt><trkpt lat="44.6844901" lon="8.8896272"><ele>252.2</ele><time>2026-04-09T13:22:39.155Z</time></trkpt><trkpt lat="44.684407" lon="8.8897185"><ele>252.0</ele><time>2026-04-09T13:22:40.157Z</time></trkpt><trkpt lat="44.6843298" lon="8.8897833"><ele>252.0</ele><time>2026-04-09T13:22:41.135Z</time></trkpt><trkpt lat="44.6841689" lon="8.8899394"><ele>252.0</ele><time>2026-04-09T13:22:43Z</time></trkpt><trkpt lat="44.6840908" lon="8.8900214"><ele>252.0</ele><time>2026-04-09T13:22:43.999Z</time></trkpt><trkpt lat="44.6840074" lon="8.8901046"><ele>252.0</ele><time>2026-04-09T13:22:45.118Z</time></trkpt><trkpt lat="44.6838498" lon="8.8902994"><ele>252.0</ele><time>2026-04-09T13:22:46.999Z</time></trkpt><trkpt lat="44.6837735" lon="8.8903797"><ele>252.0</ele><time>2026-04-09T13:22:47.999Z</time></trkpt><trkpt lat="44.6836941" lon="8.8904615"><ele>252.0</ele><time>2026-04-09T13:22:49.135Z</time></trkpt><trkpt lat="44.6836119" lon="8.8905326"><ele>252.0</ele><time>2026-04-09T13:22:50.172Z</time></trkpt><trkpt lat="44.6835229" lon="8.890609"><ele>252.0</ele><time>2026-04-09T13:22:51.161Z</time></trkpt><trkpt lat="44.6833591" lon="8.890788"><ele>251.75</ele><time>2026-04-09T13:22:52.999Z</time></trkpt><trkpt lat="44.6832768" lon="8.8908794"><ele>251.5</ele><time>2026-04-09T13:22:54.176Z</time></trkpt><trkpt lat="44.6831987" lon="8.8909634"><ele>251.25</ele><time>2026-04-09T13:22:55.177Z</time></trkpt><trkpt lat="44.6831127" lon="8.8910412"><ele>251.0</ele><time>2026-04-09T13:22:56.17Z</time></trkpt><trkpt lat="44.6829457" lon="8.8912164"><ele>251.0</ele><time>2026-04-09T13:22:58Z</time></trkpt><trkpt lat="44.6828615" lon="8.8912979"><ele>251.0</ele><time>2026-04-09T13:22:59.129Z</time></trkpt><trkpt lat="44.6827698" lon="8.8913981"><ele>251.0</ele><time>2026-04-09T13:23:00.123Z</time></trkpt><trkpt lat="44.6826696" lon="8.8914983"><ele>251.0</ele><time>2026-04-09T13:23:01.12Z</time></trkpt><trkpt lat="44.682491" lon="8.8916847"><ele>250.5</ele><time>2026-04-09T13:23:03Z</time></trkpt><trkpt lat="44.682399" lon="8.8917827"><ele>250.0</ele><time>2026-04-09T13:23:04Z</time></trkpt><trkpt lat="44.6823076" lon="8.8918785"><ele>249.5</ele><time>2026-04-09T13:23:04.999Z</time></trkpt><trkpt lat="44.682216" lon="8.8919764"><ele>249.0</ele><time>2026-04-09T13:23:06.1Z</time></trkpt><trkpt lat="44.6820375" lon="8.8921835"><ele>249.0</ele><time>2026-04-09T13:23:07.999Z</time></trkpt><trkpt lat="44.6819517" lon="8.8922712"><ele>248.99999999999997</ele><time>2026-04-09T13:23:08.999Z</time></trkpt><trkpt lat="44.681868" lon="8.892365"><ele>248.99999999999997</ele><time>2026-04-09T13:23:10Z</time></trkpt><trkpt lat="44.6817774" lon="8.8924566"><ele>249.0</ele><time>2026-04-09T13:23:11Z</time></trkpt><trkpt lat="44.6816939" lon="8.8925469"><ele>249.0</ele><time>2026-04-09T13:23:12Z</time></trkpt><trkpt lat="44.6816044" lon="8.8926495"><ele>249.25</ele><time>2026-04-09T13:23:13.154Z</time></trkpt><trkpt lat="44.6815171" lon="8.8927507"><ele>249.5</ele><time>2026-04-09T13:23:14.152Z</time></trkpt><trkpt lat="44.6814279" lon="8.892845"><ele>249.75</ele><time>2026-04-09T13:23:15.154Z</time></trkpt><trkpt lat="44.6813534" lon="8.8929204"><ele>250.0</ele><time>2026-04-09T13:23:16.147Z</time></trkpt><trkpt lat="44.681189" lon="8.8931122"><ele>250.0</ele><time>2026-04-09T13:23:18Z</time></trkpt><trkpt lat="44.6810937" lon="8.8932044"><ele>250.0</ele><time>2026-04-09T13:23:19Z</time></trkpt><trkpt lat="44.6810078" lon="8.8932959"><ele>250.0</ele><time>2026-04-09T13:23:20.153Z</time></trkpt><trkpt lat="44.6809107" lon="8.8933982"><ele>250.0</ele><time>2026-04-09T13:23:21.152Z</time></trkpt><trkpt lat="44.6807221" lon="8.8935855"><ele>250.0</ele><time>2026-04-09T13:23:22.999Z</time></trkpt><trkpt lat="44.6806163" lon="8.8936843"><ele>250.0</ele><time>2026-04-09T13:23:24.158Z</time></trkpt><trkpt lat="44.6805178" lon="8.8937853"><ele>250.0</ele><time>2026-04-09T13:23:25.141Z</time></trkpt><trkpt lat="44.6804242" lon="8.8938823"><ele>250.0</ele><time>2026-04-09T13:23:26.114Z</time></trkpt><trkpt lat="44.6802504" lon="8.8940954"><ele>249.5</ele><time>2026-04-09T13:23:28Z</time></trkpt><trkpt lat="44.68016" lon="8.8941923"><ele>249.0</ele><time>2026-04-09T13:23:29.132Z</time></trkpt><trkpt lat="44.6800655" lon="8.8942815"><ele>248.5</ele><time>2026-04-09T13:23:30.15Z</time></trkpt><trkpt lat="44.6799817" lon="8.8943579"><ele>248.0</ele><time>2026-04-09T13:23:31.159Z</time></trkpt><trkpt lat="44.6797871" lon="8.8945076"><ele>248.0</ele><time>2026-04-09T13:23:33Z</time></trkpt><trkpt lat="44.6797036" lon="8.8945669"><ele>248.0</ele><time>2026-04-09T13:23:34.156Z</time></trkpt><trkpt lat="44.6796236" lon="8.894617"><ele>248.0</ele><time>2026-04-09T13:23:35.174Z</time></trkpt><trkpt lat="44.6795378" lon="8.8946664"><ele>248.0</ele><time>2026-04-09T13:23:36.152Z</time></trkpt><trkpt lat="44.6794023" lon="8.8947472"><ele>248.0</ele><time>2026-04-09T13:23:38Z</time></trkpt><trkpt lat="44.6793326" lon="8.8947894"><ele>248.75</ele><time>2026-04-09T13:23:38.999Z</time></trkpt><trkpt lat="44.6792225" lon="8.8948521"><ele>249.5</ele><time>2026-04-09T13:23:41.161Z</time></trkpt><trkpt lat="44.6790744" lon="8.8949214"><ele>250.25</ele><time>2026-04-09T13:23:43Z</time></trkpt><trkpt lat="44.6789881" lon="8.8949515"><ele>251.0</ele><time>2026-04-09T13:23:44.167Z</time></trkpt><trkpt lat="44.6788982" lon="8.894973"><ele>251.0</ele><time>2026-04-09T13:23:45.102Z</time></trkpt><trkpt lat="44.6787925" lon="8.8949871"><ele>251.0</ele><time>2026-04-09T13:23:46.152Z</time></trkpt><trkpt lat="44.6785539" lon="8.8950376"><ele>251.0</ele><time>2026-04-09T13:23:48Z</time></trkpt><trkpt lat="44.6784232" lon="8.8950622"><ele>249.66666666666669</ele><time>2026-04-09T13:23:49.167Z</time></trkpt><trkpt lat="44.6782874" lon="8.8950866"><ele>248.33333333333331</ele><time>2026-04-09T13:23:50.137Z</time></trkpt><trkpt lat="44.6781485" lon="8.8951112"><ele>247.0</ele><time>2026-04-09T13:23:51.16Z</time></trkpt><trkpt lat="44.6778648" lon="8.8951531"><ele>247.25</ele><time>2026-04-09T13:23:52.999Z</time></trkpt><trkpt lat="44.6777223" lon="8.8951686"><ele>247.5</ele><time>2026-04-09T13:23:54.164Z</time></trkpt><trkpt lat="44.6775685" lon="8.8951905"><ele>247.75</ele><time>2026-04-09T13:23:55.172Z</time></trkpt><trkpt lat="44.6774211" lon="8.8952071"><ele>248.0</ele><time>2026-04-09T13:23:56.136Z</time></trkpt><trkpt lat="44.6771016" lon="8.8952591"><ele>249.0</ele><time>2026-04-09T13:23:58Z</time></trkpt><trkpt lat="44.6769359" lon="8.895287"><ele>250.0</ele><time>2026-04-09T13:23:59.177Z</time></trkpt><trkpt lat="44.6766057" lon="8.8953642"><ele>250.0</ele><time>2026-04-09T13:24:01.127Z</time></trkpt><trkpt lat="44.6762691" lon="8.8954574"><ele>250.0</ele><time>2026-04-09T13:24:03.109Z</time></trkpt><trkpt lat="44.6761046" lon="8.8955113"><ele>251.66666666666666</ele><time>2026-04-09T13:24:04.116Z</time></trkpt><trkpt lat="44.6759468" lon="8.8955624"><ele>253.33333333333331</ele><time>2026-04-09T13:24:05.145Z</time></trkpt><trkpt lat="44.6757886" lon="8.895612"><ele>255.0</ele><time>2026-04-09T13:24:06.158Z</time></trkpt><trkpt lat="44.6754569" lon="8.8956907"><ele>255.0</ele><time>2026-04-09T13:24:07.999Z</time></trkpt><trkpt lat="44.6752869" lon="8.8957289"><ele>255.0</ele><time>2026-04-09T13:24:09Z</time></trkpt><trkpt lat="44.6751238" lon="8.8957685"><ele>255.0</ele><time>2026-04-09T13:24:10.156Z</time></trkpt><trkpt lat="44.6748045" lon="8.8958452"><ele>256.0</ele><time>2026-04-09T13:24:11.999Z</time></trkpt><trkpt lat="44.6746394" lon="8.8958745"><ele>257.0</ele><time>2026-04-09T13:24:13.146Z</time></trkpt><trkpt lat="44.6744719" lon="8.8959017"><ele>258.0</ele><time>2026-04-09T13:24:14.156Z</time></trkpt><trkpt lat="44.6743118" lon="8.8959229"><ele>249.0</ele><time>2026-04-09T13:24:15.104Z</time></trkpt><trkpt lat="44.6741524" lon="8.8959358"><ele>240.0</ele><time>2026-04-09T13:24:16.124Z</time></trkpt><trkpt lat="44.6738219" lon="8.8959384"><ele>240.0</ele><time>2026-04-09T13:24:17.999Z</time></trkpt><trkpt lat="44.6736561" lon="8.8959251"><ele>240.0</ele><time>2026-04-09T13:24:19.155Z</time></trkpt><trkpt lat="44.6734864" lon="8.8959162"><ele>240.0</ele><time>2026-04-09T13:24:20.156Z</time></trkpt><trkpt lat="44.6733135" lon="8.895901"><ele>251.0</ele><time>2026-04-09T13:24:21.113Z</time></trkpt><trkpt lat="44.6729823" lon="8.8958326"><ele>262.0</ele><time>2026-04-09T13:24:22.999Z</time></trkpt><trkpt lat="44.6728143" lon="8.8957864"><ele>261.0</ele><time>2026-04-09T13:24:24.156Z</time></trkpt><trkpt lat="44.6724767" lon="8.8956888"><ele>260.0</ele><time>2026-04-09T13:24:26.122Z</time></trkpt><trkpt lat="44.6721507" lon="8.8956052"><ele>260.0</ele><time>2026-04-09T13:24:27.999Z</time></trkpt><trkpt lat="44.6719984" lon="8.8955619"><ele>260.0</ele><time>2026-04-09T13:24:29.157Z</time></trkpt><trkpt lat="44.6718558" lon="8.8955187"><ele>260.0</ele><time>2026-04-09T13:24:30.12Z</time></trkpt><trkpt lat="44.6717177" lon="8.895473"><ele>260.0</ele><time>2026-04-09T13:24:31.134Z</time></trkpt><trkpt lat="44.6714359" lon="8.8954269"><ele>260.0</ele><time>2026-04-09T13:24:32.999Z</time></trkpt><trkpt lat="44.6713047" lon="8.8954482"><ele>260.0</ele><time>2026-04-09T13:24:34.161Z</time></trkpt><trkpt lat="44.671058" lon="8.8955985"><ele>260.0</ele><time>2026-04-09T13:24:36.153Z</time></trkpt><trkpt lat="44.6708262" lon="8.8958274"><ele>259.5</ele><time>2026-04-09T13:24:38Z</time></trkpt><trkpt lat="44.6707113" lon="8.8959448"><ele>259.0</ele><time>2026-04-09T13:24:39.17Z</time></trkpt><trkpt lat="44.6705821" lon="8.8960603"><ele>258.5</ele><time>2026-04-09T13:24:40.134Z</time></trkpt><trkpt lat="44.670449" lon="8.8961503"><ele>258.0</ele><time>2026-04-09T13:24:41.138Z</time></trkpt><trkpt lat="44.6701683" lon="8.8963064"><ele>258.0</ele><time>2026-04-09T13:24:42.999Z</time></trkpt><trkpt lat="44.6700272" lon="8.896368"><ele>258.0</ele><time>2026-04-09T13:24:44.146Z</time></trkpt><trkpt lat="44.6697378" lon="8.8965054"><ele>258.0</ele><time>2026-04-09T13:24:45.999Z</time></trkpt><trkpt lat="44.6695937" lon="8.8965743"><ele>258.0</ele><time>2026-04-09T13:24:46.999Z</time></trkpt><trkpt lat="44.6694491" lon="8.8966388"><ele>258.0</ele><time>2026-04-09T13:24:48Z</time></trkpt><trkpt lat="44.6693026" lon="8.8967039"><ele>257.25</ele><time>2026-04-09T13:24:49Z</time></trkpt><trkpt lat="44.6691611" lon="8.8967661"><ele>256.5</ele><time>2026-04-09T13:24:50.159Z</time></trkpt><trkpt lat="44.6690262" lon="8.8968241"><ele>255.75</ele><time>2026-04-09T13:24:51.169Z</time></trkpt><trkpt lat="44.6688834" lon="8.8968802"><ele>255.0</ele><time>2026-04-09T13:24:52Z</time></trkpt><trkpt lat="44.6687494" lon="8.8969314"><ele>255.0</ele><time>2026-04-09T13:24:52.999Z</time></trkpt><trkpt lat="44.6686158" lon="8.8969875"><ele>255.0</ele><time>2026-04-09T13:24:54.15Z</time></trkpt><trkpt lat="44.6684941" lon="8.8970427"><ele>255.0</ele><time>2026-04-09T13:24:55.131Z</time></trkpt><trkpt lat="44.6683689" lon="8.8970921"><ele>255.0</ele><time>2026-04-09T13:24:56.134Z</time></trkpt><trkpt lat="44.6681271" lon="8.8971907"><ele>255.0</ele><time>2026-04-09T13:24:57.999Z</time></trkpt><trkpt lat="44.6680094" lon="8.8972605"><ele>255.0</ele><time>2026-04-09T13:24:59.109Z</time></trkpt><trkpt lat="44.6679164" lon="8.8973569"><ele>255.0</ele><time>2026-04-09T13:25:00.139Z</time></trkpt><trkpt lat="44.6678724" lon="8.8974981"><ele>255.0</ele><time>2026-04-09T13:25:01.103Z</time></trkpt><trkpt lat="44.6678135" lon="8.8977999"><ele>255.0</ele><time>2026-04-09T13:25:02.999Z</time></trkpt><trkpt lat="44.6677792" lon="8.8979527"><ele>255.0</ele><time>2026-04-09T13:25:04.131Z</time></trkpt><trkpt lat="44.66773" lon="8.8981091"><ele>255.0</ele><time>2026-04-09T13:25:05.132Z</time></trkpt><trkpt lat="44.6675942" lon="8.8984092"><ele>254.0</ele><time>2026-04-09T13:25:07Z</time></trkpt><trkpt lat="44.6675139" lon="8.8985609"><ele>253.0</ele><time>2026-04-09T13:25:07.999Z</time></trkpt><trkpt lat="44.6674267" lon="8.8987084"><ele>252.0</ele><time>2026-04-09T13:25:09Z</time></trkpt><trkpt lat="44.6673361" lon="8.8988604"><ele>251.0</ele><time>2026-04-09T13:25:10Z</time></trkpt><trkpt lat="44.667249" lon="8.8990069"><ele>253.0</ele><time>2026-04-09T13:25:11.109Z</time></trkpt><trkpt lat="44.6670634" lon="8.8993153"><ele>255.0</ele><time>2026-04-09T13:25:13Z</time></trkpt><trkpt lat="44.6669672" lon="8.8994796"><ele>257.0</ele><time>2026-04-09T13:25:14.119Z</time></trkpt><trkpt lat="44.6668708" lon="8.8996462"><ele>257.0</ele><time>2026-04-09T13:25:14.999Z</time></trkpt><trkpt lat="44.6667758" lon="8.8998111"><ele>257.0</ele><time>2026-04-09T13:25:16Z</time></trkpt><trkpt lat="44.6666923" lon="8.8999753"><ele>257.0</ele><time>2026-04-09T13:25:16.999Z</time></trkpt><trkpt lat="44.6666087" lon="8.9001583"><ele>257.0</ele><time>2026-04-09T13:25:17.999Z</time></trkpt><trkpt lat="44.6665272" lon="8.9003341"><ele>256.6666666666667</ele><time>2026-04-09T13:25:18.999Z</time></trkpt><trkpt lat="44.6664447" lon="8.9005322"><ele>256.3333333333333</ele><time>2026-04-09T13:25:19.999Z</time></trkpt><trkpt lat="44.6663702" lon="8.9007202"><ele>256.0</ele><time>2026-04-09T13:25:21Z</time></trkpt><trkpt lat="44.6662984" lon="8.9009049"><ele>258.0</ele><time>2026-04-09T13:25:22Z</time></trkpt><trkpt lat="44.6662239" lon="8.9010936"><ele>260.0</ele><time>2026-04-09T13:25:23Z</time></trkpt><trkpt lat="44.6661367" lon="8.901269"><ele>262.0</ele><time>2026-04-09T13:25:23.999Z</time></trkpt><trkpt lat="44.6660366" lon="8.9014186"><ele>262.0</ele><time>2026-04-09T13:25:25Z</time></trkpt><trkpt lat="44.6659279" lon="8.9015697"><ele>262.0</ele><time>2026-04-09T13:25:25.999Z</time></trkpt><trkpt lat="44.6658108" lon="8.9017091"><ele>262.0</ele><time>2026-04-09T13:25:27Z</time></trkpt><trkpt lat="44.6656684" lon="8.9018509"><ele>262.66666666666663</ele><time>2026-04-09T13:25:28Z</time></trkpt><trkpt lat="44.6655361" lon="8.9019664"><ele>263.3333333333333</ele><time>2026-04-09T13:25:28.999Z</time></trkpt><trkpt lat="44.665393" lon="8.9020748"><ele>264.0</ele><time>2026-04-09T13:25:30Z</time></trkpt><trkpt lat="44.6652553" lon="8.9021932"><ele>264.0</ele><time>2026-04-09T13:25:31Z</time></trkpt><trkpt lat="44.6651226" lon="8.9023118"><ele>264.0</ele><time>2026-04-09T13:25:31.999Z</time></trkpt><trkpt lat="44.6649824" lon="8.9024284"><ele>264.0</ele><time>2026-04-09T13:25:32.999Z</time></trkpt><trkpt lat="44.6648469" lon="8.9025362"><ele>264.0</ele><time>2026-04-09T13:25:34Z</time></trkpt><trkpt lat="44.6647067" lon="8.902647"><ele>264.0</ele><time>2026-04-09T13:25:34.999Z</time></trkpt><trkpt lat="44.6645721" lon="8.9027694"><ele>264.0</ele><time>2026-04-09T13:25:36Z</time></trkpt><trkpt lat="44.6644455" lon="8.9028926"><ele>264.0</ele><time>2026-04-09T13:25:37Z</time></trkpt><trkpt lat="44.6643258" lon="8.9030206"><ele>264.0</ele><time>2026-04-09T13:25:37.999Z</time></trkpt><trkpt lat="44.664213" lon="8.9031525"><ele>264.0</ele><time>2026-04-09T13:25:39Z</time></trkpt><trkpt lat="44.6641056" lon="8.9032893"><ele>264.0</ele><time>2026-04-09T13:25:39.999Z</time></trkpt><trkpt lat="44.6640034" lon="8.9034291"><ele>263.75</ele><time>2026-04-09T13:25:40.999Z</time></trkpt><trkpt lat="44.6638996" lon="8.9035641"><ele>263.5</ele><time>2026-04-09T13:25:41.999Z</time></trkpt><trkpt lat="44.6638016" lon="8.9036983"><ele>263.25</ele><time>2026-04-09T13:25:42.999Z</time></trkpt><trkpt lat="44.6637117" lon="8.9038356"><ele>263.0</ele><time>2026-04-09T13:25:44Z</time></trkpt><trkpt lat="44.6636212" lon="8.9039675"><ele>263.0</ele><time>2026-04-09T13:25:45.119Z</time></trkpt><trkpt lat="44.6635263" lon="8.904098"><ele>263.0</ele><time>2026-04-09T13:25:46.128Z</time></trkpt><trkpt lat="44.6633529" lon="8.9043517"><ele>263.0</ele><time>2026-04-09T13:25:47.999Z</time></trkpt><trkpt lat="44.6632589" lon="8.9044776"><ele>263.0</ele><time>2026-04-09T13:25:49.133Z</time></trkpt><trkpt lat="44.663169" lon="8.9046031"><ele>263.0</ele><time>2026-04-09T13:25:50.158Z</time></trkpt><trkpt lat="44.6630769" lon="8.904729"><ele>263.0</ele><time>2026-04-09T13:25:51.118Z</time></trkpt><trkpt lat="44.6628945" lon="8.9049793"><ele>263.0</ele><time>2026-04-09T13:25:52.999Z</time></trkpt><trkpt lat="44.6627998" lon="8.905112"><ele>263.0</ele><time>2026-04-09T13:25:53.999Z</time></trkpt><trkpt lat="44.6627091" lon="8.9052355"><ele>263.0</ele><time>2026-04-09T13:25:55Z</time></trkpt><trkpt lat="44.6624325" lon="8.9056255"><ele>263.0</ele><time>2026-04-09T13:25:58Z</time></trkpt><trkpt lat="44.6623482" lon="8.9057476"><ele>263.0</ele><time>2026-04-09T13:25:59.126Z</time></trkpt><trkpt lat="44.662262" lon="8.905873"><ele>263.0</ele><time>2026-04-09T13:26:00.173Z</time></trkpt><trkpt lat="44.6621734" lon="8.905991"><ele>263.0</ele><time>2026-04-09T13:26:01.15Z</time></trkpt><trkpt lat="44.6620021" lon="8.9062319"><ele>262.75</ele><time>2026-04-09T13:26:03Z</time></trkpt><trkpt lat="44.6619178" lon="8.9063608"><ele>262.5</ele><time>2026-04-09T13:26:04.169Z</time></trkpt><trkpt lat="44.6618323" lon="8.9064733"><ele>262.25</ele><time>2026-04-09T13:26:05.149Z</time></trkpt><trkpt lat="44.6617483" lon="8.9065948"><ele>262.0</ele><time>2026-04-09T13:26:06.135Z</time></trkpt><trkpt lat="44.6615767" lon="8.9068319"><ele>262.0</ele><time>2026-04-09T13:26:08Z</time></trkpt><trkpt lat="44.6614914" lon="8.906956"><ele>262.0</ele><time>2026-04-09T13:26:09Z</time></trkpt><trkpt lat="44.6614038" lon="8.9070839"><ele>262.0</ele><time>2026-04-09T13:26:10.159Z</time></trkpt><trkpt lat="44.6613129" lon="8.9072074"><ele>262.0</ele><time>2026-04-09T13:26:11.137Z</time></trkpt><trkpt lat="44.6611327" lon="8.9074556"><ele>262.25</ele><time>2026-04-09T13:26:12.999Z</time></trkpt><trkpt lat="44.661046" lon="8.9075778"><ele>262.5</ele><time>2026-04-09T13:26:14.157Z</time></trkpt><trkpt lat="44.6609497" lon="8.9077069"><ele>262.75</ele><time>2026-04-09T13:26:15.164Z</time></trkpt><trkpt lat="44.6608587" lon="8.9078279"><ele>263.0</ele><time>2026-04-09T13:26:16.157Z</time></trkpt><trkpt lat="44.6606745" lon="8.90809"><ele>263.0</ele><time>2026-04-09T13:26:17.999Z</time></trkpt><trkpt lat="44.6605865" lon="8.9082319"><ele>263.0</ele><time>2026-04-09T13:26:19.127Z</time></trkpt><trkpt lat="44.66051" lon="8.9083778"><ele>263.0</ele><time>2026-04-09T13:26:20.16Z</time></trkpt><trkpt lat="44.6604514" lon="8.9085049"><ele>263.0</ele><time>2026-04-09T13:26:21.176Z</time></trkpt><trkpt lat="44.6603315" lon="8.9088263"><ele>266.0</ele><time>2026-04-09T13:26:23Z</time></trkpt><trkpt lat="44.6602647" lon="8.9089912"><ele>269.0</ele><time>2026-04-09T13:26:24.15Z</time></trkpt><trkpt lat="44.6602014" lon="8.9091551"><ele>272.0</ele><time>2026-04-09T13:26:25.12Z</time></trkpt><trkpt lat="44.6601441" lon="8.9092963"><ele>275.0</ele><time>2026-04-09T13:26:26.142Z</time></trkpt><trkpt lat="44.660066" lon="8.9095907"><ele>275.0</ele><time>2026-04-09T13:26:28Z</time></trkpt><trkpt lat="44.6600765" lon="8.9097428"><ele>275.0</ele><time>2026-04-09T13:26:29.117Z</time></trkpt><trkpt lat="44.6601144" lon="8.9098898"><ele>275.0</ele><time>2026-04-09T13:26:30.16Z</time></trkpt><trkpt lat="44.6601867" lon="8.9099958"><ele>275.0</ele><time>2026-04-09T13:26:31.123Z</time></trkpt><trkpt lat="44.660367" lon="8.9101854"><ele>275.0</ele><time>2026-04-09T13:26:32.999Z</time></trkpt><trkpt lat="44.6604602" lon="8.9102816"><ele>275.0</ele><time>2026-04-09T13:26:34.155Z</time></trkpt><trkpt lat="44.6606439" lon="8.9105039"><ele>275.0</ele><time>2026-04-09T13:26:36.153Z</time></trkpt><trkpt lat="44.6607879" lon="8.9107945"><ele>277.5</ele><time>2026-04-09T13:26:37.999Z</time></trkpt><trkpt lat="44.6608187" lon="8.9109586"><ele>280.0</ele><time>2026-04-09T13:26:39.148Z</time></trkpt><trkpt lat="44.6608451" lon="8.9111212"><ele>282.5</ele><time>2026-04-09T13:26:40.127Z</time></trkpt><trkpt lat="44.6608598" lon="8.9112937"><ele>285.0</ele><time>2026-04-09T13:26:41.155Z</time></trkpt><trkpt lat="44.6609199" lon="8.9116394"><ele>288.0</ele><time>2026-04-09T13:26:42.999Z</time></trkpt><trkpt lat="44.6609786" lon="8.9118011"><ele>291.0</ele><time>2026-04-09T13:26:44.148Z</time></trkpt><trkpt lat="44.6610493" lon="8.9119608"><ele>294.0</ele><time>2026-04-09T13:26:45.131Z</time></trkpt><trkpt lat="44.6611285" lon="8.912112"><ele>297.0</ele><time>2026-04-09T13:26:46.154Z</time></trkpt><trkpt lat="44.661262" lon="8.9124469"><ele>291.25</ele><time>2026-04-09T13:26:48Z</time></trkpt><trkpt lat="44.661311" lon="8.9126262"><ele>285.5</ele><time>2026-04-09T13:26:49.101Z</time></trkpt><trkpt lat="44.6613564" lon="8.9128088"><ele>279.75</ele><time>2026-04-09T13:26:50.17Z</time></trkpt><trkpt lat="44.661396" lon="8.9129931"><ele>274.0</ele><time>2026-04-09T13:26:51.131Z</time></trkpt><trkpt lat="44.661447" lon="8.9133626"><ele>274.0</ele><time>2026-04-09T13:26:53Z</time></trkpt><trkpt lat="44.6614514" lon="8.9135678"><ele>274.0</ele><time>2026-04-09T13:26:54.159Z</time></trkpt><trkpt lat="44.661455" lon="8.9137587"><ele>274.0</ele><time>2026-04-09T13:26:55.122Z</time></trkpt><trkpt lat="44.6614574" lon="8.9139641"><ele>274.0</ele><time>2026-04-09T13:26:56.162Z</time></trkpt><trkpt lat="44.6614541" lon="8.9143818"><ele>274.0</ele><time>2026-04-09T13:26:58Z</time></trkpt><trkpt lat="44.6614288" lon="8.9145931"><ele>274.0</ele><time>2026-04-09T13:26:59.103Z</time></trkpt><trkpt lat="44.6614002" lon="8.9148095"><ele>274.0</ele><time>2026-04-09T13:27:00.155Z</time></trkpt><trkpt lat="44.6613306" lon="8.9152541"><ele>271.0</ele><time>2026-04-09T13:27:01.999Z</time></trkpt><trkpt lat="44.6612859" lon="8.9154811"><ele>268.0</ele><time>2026-04-09T13:27:02.999Z</time></trkpt><trkpt lat="44.6612375" lon="8.9156953"><ele>265.0</ele><time>2026-04-09T13:27:04.133Z</time></trkpt><trkpt lat="44.661183" lon="8.9159118"><ele>260.0</ele><time>2026-04-09T13:27:05.161Z</time></trkpt><trkpt lat="44.6611225" lon="8.9161274"><ele>255.0</ele><time>2026-04-09T13:27:06.152Z</time></trkpt><trkpt lat="44.660955" lon="8.9165322"><ele>258.6666666666667</ele><time>2026-04-09T13:27:08Z</time></trkpt><trkpt lat="44.6608773" lon="8.916727"><ele>262.33333333333337</ele><time>2026-04-09T13:27:09.149Z</time></trkpt><trkpt lat="44.6607928" lon="8.9169115"><ele>266.0</ele><time>2026-04-09T13:27:10.153Z</time></trkpt><trkpt lat="44.6606902" lon="8.917095"><ele>266.0</ele><time>2026-04-09T13:27:11.137Z</time></trkpt><trkpt lat="44.6604295" lon="8.9173768"><ele>266.0</ele><time>2026-04-09T13:27:12.999Z</time></trkpt><trkpt lat="44.6602888" lon="8.9175101"><ele>269.5</ele><time>2026-04-09T13:27:14.138Z</time></trkpt><trkpt lat="44.6600068" lon="8.9177861"><ele>273.0</ele><time>2026-04-09T13:27:15.999Z</time></trkpt><trkpt lat="44.6598625" lon="8.9179286"><ele>273.0</ele><time>2026-04-09T13:27:16.999Z</time></trkpt><trkpt lat="44.659721" lon="8.9180603"><ele>273.0</ele><time>2026-04-09T13:27:17.999Z</time></trkpt><trkpt lat="44.659577" lon="8.9182067"><ele>273.0</ele><time>2026-04-09T13:27:18.999Z</time></trkpt><trkpt lat="44.6594451" lon="8.9183347"><ele>273.0</ele><time>2026-04-09T13:27:20.101Z</time></trkpt><trkpt lat="44.6593087" lon="8.918473"><ele>273.0</ele><time>2026-04-09T13:27:21.182Z</time></trkpt><trkpt lat="44.6590244" lon="8.9187675"><ele>273.0</ele><time>2026-04-09T13:27:22.999Z</time></trkpt><trkpt lat="44.6588817" lon="8.9188989"><ele>273.0</ele><time>2026-04-09T13:27:24.178Z</time></trkpt><trkpt lat="44.6587519" lon="8.9190343"><ele>273.0</ele><time>2026-04-09T13:27:25.136Z</time></trkpt><trkpt lat="44.658629" lon="8.9191719"><ele>274.3333333333333</ele><time>2026-04-09T13:27:26.108Z</time></trkpt><trkpt lat="44.6584083" lon="8.919452"><ele>275.66666666666663</ele><time>2026-04-09T13:27:28Z</time></trkpt><trkpt lat="44.6583024" lon="8.9195769"><ele>277.0</ele><time>2026-04-09T13:27:29.146Z</time></trkpt><trkpt lat="44.6582027" lon="8.9197132"><ele>277.0</ele><time>2026-04-09T13:27:30.153Z</time></trkpt><trkpt lat="44.6581072" lon="8.9198518"><ele>277.0</ele><time>2026-04-09T13:27:31.143Z</time></trkpt><trkpt lat="44.6579836" lon="8.9201802"><ele>277.0</ele><time>2026-04-09T13:27:33Z</time></trkpt><trkpt lat="44.6579585" lon="8.9203668"><ele>274.5</ele><time>2026-04-09T13:27:33.999Z</time></trkpt><trkpt lat="44.6579466" lon="8.9205946"><ele>272.0</ele><time>2026-04-09T13:27:34.999Z</time></trkpt><trkpt lat="44.6579417" lon="8.9207827"><ele>269.5</ele><time>2026-04-09T13:27:35.999Z</time></trkpt><trkpt lat="44.6579401" lon="8.9209573"><ele>267.0</ele><time>2026-04-09T13:27:37Z</time></trkpt><trkpt lat="44.657934" lon="8.9211527"><ele>267.0</ele><time>2026-04-09T13:27:37.999Z</time></trkpt><trkpt lat="44.6579235" lon="8.9213594"><ele>267.0</ele><time>2026-04-09T13:27:39Z</time></trkpt><trkpt lat="44.6579167" lon="8.9215531"><ele>267.0</ele><time>2026-04-09T13:27:39.999Z</time></trkpt><trkpt lat="44.6579154" lon="8.9217536"><ele>267.0</ele><time>2026-04-09T13:27:40.999Z</time></trkpt><trkpt lat="44.6579086" lon="8.9219589"><ele>268.0</ele><time>2026-04-09T13:27:41.999Z</time></trkpt><trkpt lat="44.6578961" lon="8.9221796"><ele>269.0</ele><time>2026-04-09T13:27:43.153Z</time></trkpt><trkpt lat="44.6578886" lon="8.9223817"><ele>270.0</ele><time>2026-04-09T13:27:44.156Z</time></trkpt><trkpt lat="44.6578842" lon="8.9225853"><ele>271.0</ele><time>2026-04-09T13:27:45.163Z</time></trkpt><trkpt lat="44.6578732" lon="8.9227934"><ele>271.0</ele><time>2026-04-09T13:27:46.171Z</time></trkpt><trkpt lat="44.6578646" lon="8.923184"><ele>271.0</ele><time>2026-04-09T13:27:47.999Z</time></trkpt><trkpt lat="44.6578681" lon="8.92338"><ele>271.0</ele><time>2026-04-09T13:27:49.116Z</time></trkpt><trkpt lat="44.6578863" lon="8.9235716"><ele>271.25</ele><time>2026-04-09T13:27:50.133Z</time></trkpt><trkpt lat="44.657905" lon="8.9237707"><ele>271.5</ele><time>2026-04-09T13:27:51.157Z</time></trkpt><trkpt lat="44.6579314" lon="8.9239769"><ele>271.75</ele><time>2026-04-09T13:27:52Z</time></trkpt><trkpt lat="44.6579645" lon="8.9241779"><ele>272.0</ele><time>2026-04-09T13:27:53Z</time></trkpt><trkpt lat="44.6579928" lon="8.9243839"><ele>272.0</ele><time>2026-04-09T13:27:54.183Z</time></trkpt><trkpt lat="44.6580298" lon="8.9245865"><ele>272.0</ele><time>2026-04-09T13:27:55.145Z</time></trkpt><trkpt lat="44.6580636" lon="8.9247894"><ele>272.0</ele><time>2026-04-09T13:27:56.14Z</time></trkpt><trkpt lat="44.6581378" lon="8.9252004"><ele>274.33333333333337</ele><time>2026-04-09T13:27:57.999Z</time></trkpt><trkpt lat="44.6581756" lon="8.9254101"><ele>276.6666666666667</ele><time>2026-04-09T13:27:59.168Z</time></trkpt><trkpt lat="44.6582162" lon="8.9256091"><ele>279.0</ele><time>2026-04-09T13:28:00.163Z</time></trkpt><trkpt lat="44.6582538" lon="8.9258166"><ele>281.5</ele><time>2026-04-09T13:28:01.154Z</time></trkpt><trkpt lat="44.6583298" lon="8.9262438"><ele>284.0</ele><time>2026-04-09T13:28:02.999Z</time></trkpt><trkpt lat="44.658371" lon="8.9264604"><ele>284.0</ele><time>2026-04-09T13:28:04.164Z</time></trkpt><trkpt lat="44.6584048" lon="8.926676"><ele>284.0</ele><time>2026-04-09T13:28:05.148Z</time></trkpt><trkpt lat="44.6584359" lon="8.9268879"><ele>284.0</ele><time>2026-04-09T13:28:06.167Z</time></trkpt><trkpt lat="44.6585166" lon="8.9273263"><ele>286.33333333333337</ele><time>2026-04-09T13:28:07.999Z</time></trkpt><trkpt lat="44.6585684" lon="8.9275327"><ele>288.6666666666667</ele><time>2026-04-09T13:28:08.999Z</time></trkpt><trkpt lat="44.6586376" lon="8.9277303"><ele>291.0</ele><time>2026-04-09T13:28:09.999Z</time></trkpt><trkpt lat="44.6587202" lon="8.9279245"><ele>290.0</ele><time>2026-04-09T13:28:11.108Z</time></trkpt><trkpt lat="44.6589024" lon="8.9282865"><ele>289.0</ele><time>2026-04-09T13:28:12.999Z</time></trkpt><trkpt lat="44.6589986" lon="8.9284577"><ele>289.0</ele><time>2026-04-09T13:28:14.178Z</time></trkpt><trkpt lat="44.6592046" lon="8.9287766"><ele>289.0</ele><time>2026-04-09T13:28:16.128Z</time></trkpt><trkpt lat="44.6594729" lon="8.9290088"><ele>290.3333333333333</ele><time>2026-04-09T13:28:18Z</time></trkpt><trkpt lat="44.659633" lon="8.9291242"><ele>291.6666666666667</ele><time>2026-04-09T13:28:19.134Z</time></trkpt><trkpt lat="44.6597898" lon="8.9292054"><ele>293.0</ele><time>2026-04-09T13:28:20.136Z</time></trkpt><trkpt lat="44.6599515" lon="8.9292838"><ele>293.0</ele><time>2026-04-09T13:28:21.171Z</time></trkpt><trkpt lat="44.6602588" lon="8.9294586"><ele>293.0</ele><time>2026-04-09T13:28:23Z</time></trkpt><trkpt lat="44.6604061" lon="8.9295408"><ele>289.0</ele><time>2026-04-09T13:28:24.135Z</time></trkpt><trkpt lat="44.6605568" lon="8.9296327"><ele>285.0</ele><time>2026-04-09T13:28:25.109Z</time></trkpt><trkpt lat="44.6607005" lon="8.929728"><ele>281.0</ele><time>2026-04-09T13:28:26.141Z</time></trkpt><trkpt lat="44.6609865" lon="8.9299203"><ele>279.0</ele><time>2026-04-09T13:28:28Z</time></trkpt><trkpt lat="44.6611314" lon="8.9300162"><ele>277.0</ele><time>2026-04-09T13:28:29.145Z</time></trkpt><trkpt lat="44.6612744" lon="8.9301157"><ele>275.0</ele><time>2026-04-09T13:28:30.159Z</time></trkpt><trkpt lat="44.6614191" lon="8.9302149"><ele>283.0</ele><time>2026-04-09T13:28:31.121Z</time></trkpt><trkpt lat="44.6617206" lon="8.9303978"><ele>291.0</ele><time>2026-04-09T13:28:32.999Z</time></trkpt><trkpt lat="44.6618697" lon="8.9304845"><ele>289.0</ele><time>2026-04-09T13:28:34.155Z</time></trkpt><trkpt lat="44.6620146" lon="8.9305442"><ele>287.0</ele><time>2026-04-09T13:28:35.157Z</time></trkpt><trkpt lat="44.6621669" lon="8.9306032"><ele>285.0</ele><time>2026-04-09T13:28:36.155Z</time></trkpt><trkpt lat="44.6624883" lon="8.9306691"><ele>285.0</ele><time>2026-04-09T13:28:38Z</time></trkpt><trkpt lat="44.662647" lon="8.9306862"><ele>285.0</ele><time>2026-04-09T13:28:39Z</time></trkpt><trkpt lat="44.6628104" lon="8.9307002"><ele>285.0</ele><time>2026-04-09T13:28:40.148Z</time></trkpt><trkpt lat="44.6629746" lon="8.9307101"><ele>285.0</ele><time>2026-04-09T13:28:41.157Z</time></trkpt><trkpt lat="44.663309" lon="8.930733"><ele>285.0</ele><time>2026-04-09T13:28:43Z</time></trkpt><trkpt lat="44.6634669" lon="8.9307523"><ele>281.0</ele><time>2026-04-09T13:28:44.153Z</time></trkpt><trkpt lat="44.6636142" lon="8.9307628"><ele>277.0</ele><time>2026-04-09T13:28:45.131Z</time></trkpt><trkpt lat="44.6637376" lon="8.930772"><ele>273.0</ele><time>2026-04-09T13:28:46.136Z</time></trkpt><trkpt lat="44.663972" lon="8.9308854"><ele>275.25</ele><time>2026-04-09T13:28:47.999Z</time></trkpt><trkpt lat="44.6640524" lon="8.9310052"><ele>277.5</ele><time>2026-04-09T13:28:49.137Z</time></trkpt><trkpt lat="44.6641018" lon="8.9311543"><ele>279.75</ele><time>2026-04-09T13:28:50.131Z</time></trkpt><trkpt lat="44.6641353" lon="8.9313209"><ele>282.0</ele><time>2026-04-09T13:28:51.146Z</time></trkpt><trkpt lat="44.6641533" lon="8.9317403"><ele>282.25</ele><time>2026-04-09T13:28:53Z</time></trkpt><trkpt lat="44.664162" lon="8.9319441"><ele>282.5</ele><time>2026-04-09T13:28:53.999Z</time></trkpt><trkpt lat="44.6641427" lon="8.9321356"><ele>282.75</ele><time>2026-04-09T13:28:55.153Z</time></trkpt><trkpt lat="44.6641135" lon="8.9323248"><ele>283.0</ele><time>2026-04-09T13:28:56.154Z</time></trkpt><trkpt lat="44.6639522" lon="8.9326411"><ele>281.75</ele><time>2026-04-09T13:28:57.999Z</time></trkpt><trkpt lat="44.6639044" lon="8.9328247"><ele>280.5</ele><time>2026-04-09T13:28:58.999Z</time></trkpt><trkpt lat="44.6638659" lon="8.9330187"><ele>279.25</ele><time>2026-04-09T13:29:00.157Z</time></trkpt><trkpt lat="44.6638602" lon="8.9332344"><ele>278.0</ele><time>2026-04-09T13:29:01.153Z</time></trkpt><trkpt lat="44.6639069" lon="8.9336658"><ele>278.0</ele><time>2026-04-09T13:29:02.999Z</time></trkpt><trkpt lat="44.6639534" lon="8.933856"><ele>278.0</ele><time>2026-04-09T13:29:03.999Z</time></trkpt><trkpt lat="44.6639996" lon="8.9340372"><ele>278.0</ele><time>2026-04-09T13:29:05.14Z</time></trkpt><trkpt lat="44.6640145" lon="8.9342275"><ele>278.0</ele><time>2026-04-09T13:29:06.127Z</time></trkpt><trkpt lat="44.6640022" lon="8.9346175"><ele>276.6666666666667</ele><time>2026-04-09T13:29:07.999Z</time></trkpt><trkpt lat="44.6639693" lon="8.9348554"><ele>275.3333333333333</ele><time>2026-04-09T13:29:09.135Z</time></trkpt><trkpt lat="44.6639455" lon="8.93511"><ele>274.0</ele><time>2026-04-09T13:29:10.172Z</time></trkpt><trkpt lat="44.6639205" lon="8.9353391"><ele>273.0</ele><time>2026-04-09T13:29:11.179Z</time></trkpt><trkpt lat="44.6638872" lon="8.9355905"><ele>272.0</ele><time>2026-04-09T13:29:11.999Z</time></trkpt><trkpt lat="44.6638619" lon="8.9358493"><ele>271.0</ele><time>2026-04-09T13:29:12.999Z</time></trkpt><trkpt lat="44.6638401" lon="8.936116"><ele>270.5</ele><time>2026-04-09T13:29:14.148Z</time></trkpt><trkpt lat="44.6637835" lon="8.9366451"><ele>270.0</ele><time>2026-04-09T13:29:15.999Z</time></trkpt><trkpt lat="44.6637435" lon="8.9369043"><ele>269.0</ele><time>2026-04-09T13:29:17Z</time></trkpt><trkpt lat="44.6636795" lon="8.9371284"><ele>268.0</ele><time>2026-04-09T13:29:18.123Z</time></trkpt><trkpt lat="44.6635844" lon="8.9373455"><ele>267.0</ele><time>2026-04-09T13:29:19.128Z</time></trkpt><trkpt lat="44.663496" lon="8.9375553"><ele>276.0</ele><time>2026-04-09T13:29:20.147Z</time></trkpt><trkpt lat="44.6634085" lon="8.9377525"><ele>285.0</ele><time>2026-04-09T13:29:21.151Z</time></trkpt><trkpt lat="44.6632333" lon="8.938172"><ele>282.3333333333333</ele><time>2026-04-09T13:29:22.999Z</time></trkpt><trkpt lat="44.663155" lon="8.938396"><ele>279.66666666666663</ele><time>2026-04-09T13:29:24.127Z</time></trkpt><trkpt lat="44.6630847" lon="8.9386105"><ele>277.0</ele><time>2026-04-09T13:29:25.147Z</time></trkpt><trkpt lat="44.6630249" lon="8.9388243"><ele>274.5</ele><time>2026-04-09T13:29:26.115Z</time></trkpt><trkpt lat="44.6629445" lon="8.939239"><ele>272.0</ele><time>2026-04-09T13:29:28Z</time></trkpt><trkpt lat="44.6629102" lon="8.9394474"><ele>272.0</ele><time>2026-04-09T13:29:29.118Z</time></trkpt><trkpt lat="44.6628858" lon="8.9396535"><ele>272.0</ele><time>2026-04-09T13:29:30.139Z</time></trkpt><trkpt lat="44.6628585" lon="8.9398539"><ele>272.0</ele><time>2026-04-09T13:29:31.162Z</time></trkpt><trkpt lat="44.662786" lon="8.9402275"><ele>274.25</ele><time>2026-04-09T13:29:33Z</time></trkpt><trkpt lat="44.6627345" lon="8.9404106"><ele>276.5</ele><time>2026-04-09T13:29:34.151Z</time></trkpt><trkpt lat="44.6626699" lon="8.940582"><ele>278.75</ele><time>2026-04-09T13:29:35.149Z</time></trkpt><trkpt lat="44.6626002" lon="8.9407521"><ele>281.0</ele><time>2026-04-09T13:29:36.15Z</time></trkpt><trkpt lat="44.6624623" lon="8.9411153"><ele>281.0</ele><time>2026-04-09T13:29:37.999Z</time></trkpt><trkpt lat="44.6623991" lon="8.9413054"><ele>281.0</ele><time>2026-04-09T13:29:39.13Z</time></trkpt><trkpt lat="44.6623407" lon="8.9414977"><ele>281.0</ele><time>2026-04-09T13:29:40.121Z</time></trkpt><trkpt lat="44.6622874" lon="8.9416993"><ele>277.5</ele><time>2026-04-09T13:29:41.125Z</time></trkpt><trkpt lat="44.6622008" lon="8.9421135"><ele>274.0</ele><time>2026-04-09T13:29:42.999Z</time></trkpt><trkpt lat="44.6621584" lon="8.9423203"><ele>274.0</ele><time>2026-04-09T13:29:44.156Z</time></trkpt><trkpt lat="44.6621103" lon="8.9425292"><ele>274.0</ele><time>2026-04-09T13:29:45.149Z</time></trkpt><trkpt lat="44.6620624" lon="8.9427363"><ele>274.0</ele><time>2026-04-09T13:29:46.139Z</time></trkpt><trkpt lat="44.6619794" lon="8.9431397"><ele>279.25</ele><time>2026-04-09T13:29:47.999Z</time></trkpt><trkpt lat="44.6619346" lon="8.9433324"><ele>284.5</ele><time>2026-04-09T13:29:48.999Z</time></trkpt><trkpt lat="44.6618937" lon="8.9435283"><ele>289.75</ele><time>2026-04-09T13:29:50Z</time></trkpt><trkpt lat="44.6618535" lon="8.9437116"><ele>295.0</ele><time>2026-04-09T13:29:51Z</time></trkpt><trkpt lat="44.6618093" lon="8.9439043"><ele>295.0</ele><time>2026-04-09T13:29:51.999Z</time></trkpt><trkpt lat="44.6617659" lon="8.9440962"><ele>295.0</ele><time>2026-04-09T13:29:52.999Z</time></trkpt><trkpt lat="44.661718" lon="8.9442721"><ele>295.0</ele><time>2026-04-09T13:29:54.156Z</time></trkpt><trkpt lat="44.6616675" lon="8.9444472"><ele>295.0</ele><time>2026-04-09T13:29:55.102Z</time></trkpt><trkpt lat="44.661611" lon="8.9446125"><ele>292.0</ele><time>2026-04-09T13:29:56.167Z</time></trkpt><trkpt lat="44.6614769" lon="8.9449388"><ele>289.0</ele><time>2026-04-09T13:29:57.999Z</time></trkpt><trkpt lat="44.6613963" lon="8.9451036"><ele>286.0</ele><time>2026-04-09T13:29:59.131Z</time></trkpt><trkpt lat="44.6613187" lon="8.9452686"><ele>285.3333333333333</ele><time>2026-04-09T13:30:00.172Z</time></trkpt><trkpt lat="44.6612338" lon="8.9454073"><ele>284.6666666666667</ele><time>2026-04-09T13:30:01.16Z</time></trkpt><trkpt lat="44.6610785" lon="8.9457163"><ele>284.0</ele><time>2026-04-09T13:30:02.999Z</time></trkpt><trkpt lat="44.6610142" lon="8.9458581"><ele>285.5</ele><time>2026-04-09T13:30:04.119Z</time></trkpt><trkpt lat="44.6608637" lon="8.9461413"><ele>287.0</ele><time>2026-04-09T13:30:06.154Z</time></trkpt><trkpt lat="44.6606741" lon="8.9463672"><ele>287.0</ele><time>2026-04-09T13:30:08Z</time></trkpt><trkpt lat="44.660554" lon="8.9465023"><ele>287.0</ele><time>2026-04-09T13:30:09.161Z</time></trkpt><trkpt lat="44.6604324" lon="8.9466095"><ele>287.0</ele><time>2026-04-09T13:30:10.172Z</time></trkpt><trkpt lat="44.6603114" lon="8.9466813"><ele>287.0</ele><time>2026-04-09T13:30:11.151Z</time></trkpt><trkpt lat="44.6600843" lon="8.946813"><ele>285.5</ele><time>2026-04-09T13:30:12.999Z</time></trkpt><trkpt lat="44.6599742" lon="8.9468861"><ele>284.0</ele><time>2026-04-09T13:30:14.178Z</time></trkpt><trkpt lat="44.6598729" lon="8.94694"><ele>282.5</ele><time>2026-04-09T13:30:15.179Z</time></trkpt><trkpt lat="44.6597707" lon="8.9469923"><ele>281.0</ele><time>2026-04-09T13:30:16.169Z</time></trkpt><trkpt lat="44.6595625" lon="8.9470266"><ele>281.0</ele><time>2026-04-09T13:30:18Z</time></trkpt><trkpt lat="44.6594562" lon="8.9470089"><ele>281.0</ele><time>2026-04-09T13:30:19.155Z</time></trkpt><trkpt lat="44.6593472" lon="8.9469628"><ele>281.0</ele><time>2026-04-09T13:30:20.119Z</time></trkpt><trkpt lat="44.6592082" lon="8.946895"><ele>281.0</ele><time>2026-04-09T13:30:21.156Z</time></trkpt><trkpt lat="44.6589673" lon="8.9467676"><ele>281.25</ele><time>2026-04-09T13:30:23Z</time></trkpt><trkpt lat="44.6588544" lon="8.9466996"><ele>281.5</ele><time>2026-04-09T13:30:23.999Z</time></trkpt><trkpt lat="44.658754" lon="8.9466307"><ele>281.75</ele><time>2026-04-09T13:30:24.999Z</time></trkpt><trkpt lat="44.6586575" lon="8.9465456"><ele>282.0</ele><time>2026-04-09T13:30:26Z</time></trkpt><trkpt lat="44.658557" lon="8.9464438"><ele>282.0</ele><time>2026-04-09T13:30:26.999Z</time></trkpt><trkpt lat="44.6584689" lon="8.9463278"><ele>282.0</ele><time>2026-04-09T13:30:28Z</time></trkpt><trkpt lat="44.6583857" lon="8.9462114"><ele>282.0</ele><time>2026-04-09T13:30:29Z</time></trkpt><trkpt lat="44.6582938" lon="8.9461067"><ele>282.0</ele><time>2026-04-09T13:30:29.999Z</time></trkpt><trkpt lat="44.658192" lon="8.9460269"><ele>282.0</ele><time>2026-04-09T13:30:31Z</time></trkpt><trkpt lat="44.6580818" lon="8.9459828"><ele>282.0</ele><time>2026-04-09T13:30:32Z</time></trkpt><trkpt lat="44.6579583" lon="8.9459666"><ele>282.0</ele><time>2026-04-09T13:30:32.999Z</time></trkpt><trkpt lat="44.6578309" lon="8.9459665"><ele>282.0</ele><time>2026-04-09T13:30:34Z</time></trkpt><trkpt lat="44.6577007" lon="8.9459551"><ele>280.0</ele><time>2026-04-09T13:30:34.999Z</time></trkpt><trkpt lat="44.6575696" lon="8.9459194"><ele>278.0</ele><time>2026-04-09T13:30:35.999Z</time></trkpt><trkpt lat="44.6574262" lon="8.9458808"><ele>276.0</ele><time>2026-04-09T13:30:36.999Z</time></trkpt><trkpt lat="44.6572634" lon="8.9458578"><ele>274.0</ele><time>2026-04-09T13:30:37.999Z</time></trkpt><trkpt lat="44.6570935" lon="8.9458513"><ele>280.3333333333333</ele><time>2026-04-09T13:30:38.999Z</time></trkpt><trkpt lat="44.6569092" lon="8.9458691"><ele>286.6666666666667</ele><time>2026-04-09T13:30:39.999Z</time></trkpt><trkpt lat="44.6567291" lon="8.9458539"><ele>293.0</ele><time>2026-04-09T13:30:41Z</time></trkpt><trkpt lat="44.6565593" lon="8.9458301"><ele>293.0</ele><time>2026-04-09T13:30:42Z</time></trkpt><trkpt lat="44.6563848" lon="8.9458099"><ele>293.0</ele><time>2026-04-09T13:30:42.999Z</time></trkpt><trkpt lat="44.6562236" lon="8.9457842"><ele>293.0</ele><time>2026-04-09T13:30:44Z</time></trkpt><trkpt lat="44.6560742" lon="8.9457399"><ele>290.5</ele><time>2026-04-09T13:30:45Z</time></trkpt><trkpt lat="44.6559357" lon="8.9456738"><ele>288.0</ele><time>2026-04-09T13:30:45.999Z</time></trkpt><trkpt lat="44.6558088" lon="8.9455947"><ele>285.5</ele><time>2026-04-09T13:30:46.999Z</time></trkpt><trkpt lat="44.6556929" lon="8.9454998"><ele>283.0</ele><time>2026-04-09T13:30:47.999Z</time></trkpt><trkpt lat="44.6555823" lon="8.9454056"><ele>283.0</ele><time>2026-04-09T13:30:48.999Z</time></trkpt><trkpt lat="44.6554724" lon="8.9453236"><ele>283.0</ele><time>2026-04-09T13:30:49.999Z</time></trkpt><trkpt lat="44.6553663" lon="8.9452631"><ele>283.0</ele><time>2026-04-09T13:30:51Z</time></trkpt><trkpt lat="44.6552609" lon="8.9452228"><ele>283.0</ele><time>2026-04-09T13:30:51.999Z</time></trkpt><trkpt lat="44.6551423" lon="8.9452141"><ele>283.25</ele><time>2026-04-09T13:30:52.999Z</time></trkpt><trkpt lat="44.655025" lon="8.9452285"><ele>283.5</ele><time>2026-04-09T13:30:53.999Z</time></trkpt><trkpt lat="44.6548914" lon="8.9452821"><ele>283.75</ele><time>2026-04-09T13:30:54.999Z</time></trkpt><trkpt lat="44.654744" lon="8.9453488"><ele>284.0</ele><time>2026-04-09T13:30:56.141Z</time></trkpt><trkpt lat="44.6544106" lon="8.9454801"><ele>282.33333333333337</ele><time>2026-04-09T13:30:57.999Z</time></trkpt><trkpt lat="44.6542385" lon="8.9455786"><ele>280.6666666666667</ele><time>2026-04-09T13:30:59Z</time></trkpt><trkpt lat="44.6540672" lon="8.9456821"><ele>279.0</ele><time>2026-04-09T13:31:00.144Z</time></trkpt><trkpt lat="44.6537249" lon="8.9458953"><ele>281.0</ele><time>2026-04-09T13:31:01.999Z</time></trkpt><trkpt lat="44.6535421" lon="8.9459871"><ele>283.0</ele><time>2026-04-09T13:31:03Z</time></trkpt><trkpt lat="44.6533488" lon="8.9460634"><ele>285.0</ele><time>2026-04-09T13:31:04.154Z</time></trkpt><trkpt lat="44.6531498" lon="8.9461113"><ele>285.0</ele><time>2026-04-09T13:31:05.11Z</time></trkpt><trkpt lat="44.6529577" lon="8.9461551"><ele>285.0</ele><time>2026-04-09T13:31:06.108Z</time></trkpt><trkpt lat="44.6525565" lon="8.9462918"><ele>287.6666666666667</ele><time>2026-04-09T13:31:07.999Z</time></trkpt><trkpt lat="44.6523606" lon="8.9463837"><ele>290.33333333333337</ele><time>2026-04-09T13:31:09.134Z</time></trkpt><trkpt lat="44.6521669" lon="8.9464858"><ele>293.0</ele><time>2026-04-09T13:31:10.156Z</time></trkpt><trkpt lat="44.6519703" lon="8.9466009"><ele>290.0</ele><time>2026-04-09T13:31:11.163Z</time></trkpt><trkpt lat="44.6515952" lon="8.9468997"><ele>287.0</ele><time>2026-04-09T13:31:13Z</time></trkpt><trkpt lat="44.6514195" lon="8.947071"><ele>287.0</ele><time>2026-04-09T13:31:14.164Z</time></trkpt><trkpt lat="44.6512383" lon="8.9472615"><ele>287.0</ele><time>2026-04-09T13:31:15.148Z</time></trkpt><trkpt lat="44.6510759" lon="8.9474619"><ele>287.0</ele><time>2026-04-09T13:31:16.154Z</time></trkpt><trkpt lat="44.6507758" lon="8.9478947"><ele>288.0</ele><time>2026-04-09T13:31:17.999Z</time></trkpt><trkpt lat="44.6506369" lon="8.9481173"><ele>289.0</ele><time>2026-04-09T13:31:19.116Z</time></trkpt><trkpt lat="44.6505057" lon="8.9483268"><ele>290.0</ele><time>2026-04-09T13:31:20.188Z</time></trkpt><trkpt lat="44.650382" lon="8.9485337"><ele>293.5</ele><time>2026-04-09T13:31:21.141Z</time></trkpt><trkpt lat="44.6501928" lon="8.948944"><ele>297.0</ele><time>2026-04-09T13:31:23Z</time></trkpt><trkpt lat="44.6501314" lon="8.9491632"><ele>296.6666666666667</ele><time>2026-04-09T13:31:24.181Z</time></trkpt><trkpt lat="44.6500831" lon="8.9493837"><ele>296.33333333333337</ele><time>2026-04-09T13:31:25.178Z</time></trkpt><trkpt lat="44.6500483" lon="8.9495973"><ele>296.0</ele><time>2026-04-09T13:31:26.18Z</time></trkpt><trkpt lat="44.6499721" lon="8.9500384"><ele>295.75</ele><time>2026-04-09T13:31:28Z</time></trkpt><trkpt lat="44.6499399" lon="8.9502479"><ele>295.5</ele><time>2026-04-09T13:31:29.121Z</time></trkpt><trkpt lat="44.6499045" lon="8.9504551"><ele>295.25</ele><time>2026-04-09T13:31:30.113Z</time></trkpt><trkpt lat="44.6498719" lon="8.9506537"><ele>295.0</ele><time>2026-04-09T13:31:31.13Z</time></trkpt><trkpt lat="44.6498109" lon="8.9510445"><ele>295.0</ele><time>2026-04-09T13:31:32.999Z</time></trkpt><trkpt lat="44.6497841" lon="8.9512262"><ele>295.0</ele><time>2026-04-09T13:31:34.13Z</time></trkpt><trkpt lat="44.6497554" lon="8.9514028"><ele>295.0</ele><time>2026-04-09T13:31:35.116Z</time></trkpt><trkpt lat="44.6497277" lon="8.9515817"><ele>295.0</ele><time>2026-04-09T13:31:36.152Z</time></trkpt><trkpt lat="44.6496751" lon="8.9519172"><ele>294.25</ele><time>2026-04-09T13:31:37.999Z</time></trkpt><trkpt lat="44.6496479" lon="8.952085"><ele>293.5</ele><time>2026-04-09T13:31:39.117Z</time></trkpt><trkpt lat="44.6496215" lon="8.9522499"><ele>292.75</ele><time>2026-04-09T13:31:40.127Z</time></trkpt><trkpt lat="44.6495967" lon="8.9524192"><ele>292.0</ele><time>2026-04-09T13:31:41.108Z</time></trkpt><trkpt lat="44.649543" lon="8.9527484"><ele>290.66666666666663</ele><time>2026-04-09T13:31:42.999Z</time></trkpt><trkpt lat="44.6495124" lon="8.9529067"><ele>289.3333333333333</ele><time>2026-04-09T13:31:44.153Z</time></trkpt><trkpt lat="44.6494853" lon="8.9530789"><ele>288.0</ele><time>2026-04-09T13:31:45.109Z</time></trkpt><trkpt lat="44.6494283" lon="8.9534324"><ele>292.5</ele><time>2026-04-09T13:31:46.999Z</time></trkpt><trkpt lat="44.6493989" lon="8.9536137"><ele>297.0</ele><time>2026-04-09T13:31:47.999Z</time></trkpt><trkpt lat="44.6493704" lon="8.9537846"><ele>301.5</ele><time>2026-04-09T13:31:49Z</time></trkpt><trkpt lat="44.6493419" lon="8.9539593"><ele>306.0</ele><time>2026-04-09T13:31:50Z</time></trkpt><trkpt lat="44.6493155" lon="8.9541283"><ele>305.75</ele><time>2026-04-09T13:31:50.999Z</time></trkpt><trkpt lat="44.6492887" lon="8.9542972"><ele>305.5</ele><time>2026-04-09T13:31:52Z</time></trkpt><trkpt lat="44.6492547" lon="8.9544572"><ele>305.25</ele><time>2026-04-09T13:31:52.999Z</time></trkpt><trkpt lat="44.6492187" lon="8.9546142"><ele>305.0</ele><time>2026-04-09T13:31:54Z</time></trkpt><trkpt lat="44.6491821" lon="8.9547746"><ele>305.0</ele><time>2026-04-09T13:31:55Z</time></trkpt><trkpt lat="44.6491456" lon="8.9549366"><ele>305.0</ele><time>2026-04-09T13:31:55.999Z</time></trkpt><trkpt lat="44.6491028" lon="8.9550975"><ele>305.0</ele><time>2026-04-09T13:31:57Z</time></trkpt><trkpt lat="44.6490559" lon="8.9552635"><ele>305.0</ele><time>2026-04-09T13:31:57.999Z</time></trkpt><trkpt lat="44.6490055" lon="8.955423"><ele>302.5</ele><time>2026-04-09T13:31:58.999Z</time></trkpt><trkpt lat="44.6489531" lon="8.9555839"><ele>300.0</ele><time>2026-04-09T13:31:59.999Z</time></trkpt><trkpt lat="44.6488833" lon="8.9557298"><ele>297.5</ele><time>2026-04-09T13:32:01Z</time></trkpt><trkpt lat="44.6488063" lon="8.9558621"><ele>295.0</ele><time>2026-04-09T13:32:02Z</time></trkpt><trkpt lat="44.648693" lon="8.9559631"><ele>296.0</ele><time>2026-04-09T13:32:02.999Z</time></trkpt><trkpt lat="44.6485674" lon="8.9560618"><ele>297.0</ele><time>2026-04-09T13:32:04Z</time></trkpt><trkpt lat="44.6484407" lon="8.9561284"><ele>298.0</ele><time>2026-04-09T13:32:05Z</time></trkpt><trkpt lat="44.6483127" lon="8.9561804"><ele>299.0</ele><time>2026-04-09T13:32:05.999Z</time></trkpt><trkpt lat="44.6481912" lon="8.9562382"><ele>299.0</ele><time>2026-04-09T13:32:07Z</time></trkpt><trkpt lat="44.6480744" lon="8.9562976"><ele>299.0</ele><time>2026-04-09T13:32:08Z</time></trkpt><trkpt lat="44.6479516" lon="8.9563619"><ele>299.0</ele><time>2026-04-09T13:32:09Z</time></trkpt><trkpt lat="44.6478261" lon="8.9564199"><ele>299.0</ele><time>2026-04-09T13:32:10Z</time></trkpt><trkpt lat="44.6477006" lon="8.9564739"><ele>299.5</ele><time>2026-04-09T13:32:11Z</time></trkpt><trkpt lat="44.6475765" lon="8.9565285"><ele>300.0</ele><time>2026-04-09T13:32:12Z</time></trkpt><trkpt lat="44.6474538" lon="8.9565725"><ele>300.5</ele><time>2026-04-09T13:32:12.999Z</time></trkpt><trkpt lat="44.6473321" lon="8.9566249"><ele>301.0</ele><time>2026-04-09T13:32:13.999Z</time></trkpt><trkpt lat="44.6472165" lon="8.9566715"><ele>299.0</ele><time>2026-04-09T13:32:15.12Z</time></trkpt><trkpt lat="44.6470945" lon="8.9567248"><ele>297.0</ele><time>2026-04-09T13:32:16.166Z</time></trkpt><trkpt lat="44.6468464" lon="8.9568199"><ele>295.0</ele><time>2026-04-09T13:32:18Z</time></trkpt><trkpt lat="44.6467184" lon="8.9568593"><ele>294.66666666666663</ele><time>2026-04-09T13:32:18.999Z</time></trkpt><trkpt lat="44.6465929" lon="8.9569004"><ele>294.3333333333333</ele><time>2026-04-09T13:32:20.152Z</time></trkpt><trkpt lat="44.6464659" lon="8.9569231"><ele>294.0</ele><time>2026-04-09T13:32:21.144Z</time></trkpt><trkpt lat="44.646208" lon="8.9569107"><ele>293.25</ele><time>2026-04-09T13:32:23Z</time></trkpt><trkpt lat="44.6460789" lon="8.9568666"><ele>292.5</ele><time>2026-04-09T13:32:24.148Z</time></trkpt><trkpt lat="44.6459551" lon="8.9568221"><ele>291.75</ele><time>2026-04-09T13:32:25.172Z</time></trkpt><trkpt lat="44.6458343" lon="8.9567756"><ele>291.0</ele><time>2026-04-09T13:32:26.136Z</time></trkpt><trkpt lat="44.6455748" lon="8.9566896"><ele>293.6666666666667</ele><time>2026-04-09T13:32:28Z</time></trkpt><trkpt lat="44.6454464" lon="8.9566449"><ele>296.33333333333337</ele><time>2026-04-09T13:32:29.139Z</time></trkpt><trkpt lat="44.645195" lon="8.9565482"><ele>299.0</ele><time>2026-04-09T13:32:31Z</time></trkpt><trkpt lat="44.6450672" lon="8.9565022"><ele>299.0</ele><time>2026-04-09T13:32:32Z</time></trkpt><trkpt lat="44.6449395" lon="8.9564733"><ele>299.0</ele><time>2026-04-09T13:32:33Z</time></trkpt><trkpt lat="44.6448081" lon="8.9564315"><ele>299.0</ele><time>2026-04-09T13:32:34.151Z</time></trkpt><trkpt lat="44.6446827" lon="8.9563796"><ele>299.0</ele><time>2026-04-09T13:32:35.172Z</time></trkpt><trkpt lat="44.6445577" lon="8.9563253"><ele>297.6666666666667</ele><time>2026-04-09T13:32:36.158Z</time></trkpt><trkpt lat="44.6443354" lon="8.9561978"><ele>296.3333333333333</ele><time>2026-04-09T13:32:38Z</time></trkpt><trkpt lat="44.6442245" lon="8.9560938"><ele>295.0</ele><time>2026-04-09T13:32:39Z</time></trkpt><trkpt lat="44.6441145" lon="8.9559912"><ele>295.0</ele><time>2026-04-09T13:32:39.999Z</time></trkpt><trkpt lat="44.6440101" lon="8.9559005"><ele>295.0</ele><time>2026-04-09T13:32:41.119Z</time></trkpt><trkpt lat="44.6437623" lon="8.9557213"><ele>295.0</ele><time>2026-04-09T13:32:43Z</time></trkpt><trkpt lat="44.6436589" lon="8.955632"><ele>294.66666666666663</ele><time>2026-04-09T13:32:44.164Z</time></trkpt><trkpt lat="44.643546" lon="8.9555427"><ele>294.3333333333333</ele><time>2026-04-09T13:32:45.154Z</time></trkpt><trkpt lat="44.6434358" lon="8.9554385"><ele>294.0</ele><time>2026-04-09T13:32:46.169Z</time></trkpt><trkpt lat="44.6432249" lon="8.9552548"><ele>294.0</ele><time>2026-04-09T13:32:47.999Z</time></trkpt><trkpt lat="44.6431305" lon="8.9551539"><ele>294.0</ele><time>2026-04-09T13:32:49.142Z</time></trkpt><trkpt lat="44.6430294" lon="8.9550411"><ele>294.0</ele><time>2026-04-09T13:32:50.129Z</time></trkpt><trkpt lat="44.6429401" lon="8.9549284"><ele>294.0</ele><time>2026-04-09T13:32:51.14Z</time></trkpt><trkpt lat="44.6427837" lon="8.9546913"><ele>293.75</ele><time>2026-04-09T13:32:52.999Z</time></trkpt><trkpt lat="44.6427002" lon="8.9545794"><ele>293.5</ele><time>2026-04-09T13:32:54.155Z</time></trkpt><trkpt lat="44.6426079" lon="8.9544676"><ele>293.25</ele><time>2026-04-09T13:32:55.151Z</time></trkpt><trkpt lat="44.6425131" lon="8.9543586"><ele>293.0</ele><time>2026-04-09T13:32:56.11Z</time></trkpt><trkpt lat="44.6423359" lon="8.9541231"><ele>292.25</ele><time>2026-04-09T13:32:58Z</time></trkpt><trkpt lat="44.6422453" lon="8.9539836"><ele>291.5</ele><time>2026-04-09T13:32:59.101Z</time></trkpt><trkpt lat="44.6421577" lon="8.953849"><ele>290.75</ele><time>2026-04-09T13:33:00.149Z</time></trkpt><trkpt lat="44.6420537" lon="8.953717"><ele>290.0</ele><time>2026-04-09T13:33:01.122Z</time></trkpt><trkpt lat="44.6418345" lon="8.9534653"><ele>297.6666666666667</ele><time>2026-04-09T13:33:03Z</time></trkpt><trkpt lat="44.6416946" lon="8.9533668"><ele>305.3333333333333</ele><time>2026-04-09T13:33:04.145Z</time></trkpt><trkpt lat="44.6415461" lon="8.9532894"><ele>313.0</ele><time>2026-04-09T13:33:05.132Z</time></trkpt><trkpt lat="44.6414003" lon="8.9532281"><ele>313.0</ele><time>2026-04-09T13:33:06.13Z</time></trkpt><trkpt lat="44.6411372" lon="8.9531194"><ele>313.0</ele><time>2026-04-09T13:33:07.999Z</time></trkpt><trkpt lat="44.6409743" lon="8.953037"><ele>313.0</ele><time>2026-04-09T13:33:09.101Z</time></trkpt><trkpt lat="44.6408352" lon="8.9529767"><ele>307.3333333333333</ele><time>2026-04-09T13:33:10.148Z</time></trkpt><trkpt lat="44.6407031" lon="8.9529037"><ele>301.6666666666667</ele><time>2026-04-09T13:33:11.128Z</time></trkpt><trkpt lat="44.6404331" lon="8.9527792"><ele>296.0</ele><time>2026-04-09T13:33:12.999Z</time></trkpt><trkpt lat="44.6402974" lon="8.9527231"><ele>295.0</ele><time>2026-04-09T13:33:13.999Z</time></trkpt><trkpt lat="44.6401601" lon="8.9526797"><ele>294.0</ele><time>2026-04-09T13:33:15Z</time></trkpt><trkpt lat="44.6400227" lon="8.9526334"><ele>293.0</ele><time>2026-04-09T13:33:16.118Z</time></trkpt><trkpt lat="44.6397474" lon="8.9525474"><ele>296.33333333333337</ele><time>2026-04-09T13:33:17.999Z</time></trkpt><trkpt lat="44.6396145" lon="8.9524875"><ele>299.6666666666667</ele><time>2026-04-09T13:33:19.124Z</time></trkpt><trkpt lat="44.6394669" lon="8.9524337"><ele>303.0</ele><time>2026-04-09T13:33:20.167Z</time></trkpt><trkpt lat="44.6392871" lon="8.9523597"><ele>303.0</ele><time>2026-04-09T13:33:21.165Z</time></trkpt><trkpt lat="44.6389627" lon="8.9522205"><ele>303.0</ele><time>2026-04-09T13:33:23Z</time></trkpt><trkpt lat="44.6387959" lon="8.9521414"><ele>301.6666666666667</ele><time>2026-04-09T13:33:24.125Z</time></trkpt><trkpt lat="44.6386251" lon="8.9520626"><ele>300.33333333333337</ele><time>2026-04-09T13:33:25.15Z</time></trkpt><trkpt lat="44.638452" lon="8.9520035"><ele>299.0</ele><time>2026-04-09T13:33:26.145Z</time></trkpt><trkpt lat="44.6380953" lon="8.9518541"><ele>299.0</ele><time>2026-04-09T13:33:28Z</time></trkpt><trkpt lat="44.6379151" lon="8.9517778"><ele>299.0</ele><time>2026-04-09T13:33:29.16Z</time></trkpt><trkpt lat="44.6377403" lon="8.9516903"><ele>299.0</ele><time>2026-04-09T13:33:30.153Z</time></trkpt><trkpt lat="44.6375657" lon="8.9515668"><ele>300.33333333333337</ele><time>2026-04-09T13:33:31.15Z</time></trkpt><trkpt lat="44.6374018" lon="8.9514437"><ele>301.6666666666667</ele><time>2026-04-09T13:33:31.999Z</time></trkpt><trkpt lat="44.6372308" lon="8.9512963"><ele>303.0</ele><time>2026-04-09T13:33:32.999Z</time></trkpt><trkpt lat="44.6370576" lon="8.9511505"><ele>301.6666666666667</ele><time>2026-04-09T13:33:34.167Z</time></trkpt><trkpt lat="44.6368804" lon="8.9510007"><ele>300.33333333333337</ele><time>2026-04-09T13:33:35.128Z</time></trkpt><trkpt lat="44.6367125" lon="8.9508433"><ele>299.0</ele><time>2026-04-09T13:33:36.106Z</time></trkpt><trkpt lat="44.6363626" lon="8.9505282"><ele>299.0</ele><time>2026-04-09T13:33:38Z</time></trkpt><trkpt lat="44.6361823" lon="8.9503707"><ele>299.0</ele><time>2026-04-09T13:33:39.156Z</time></trkpt><trkpt lat="44.6358346" lon="8.9500626"><ele>304.5</ele><time>2026-04-09T13:33:41.134Z</time></trkpt><trkpt lat="44.6355302" lon="8.9497941"><ele>310.0</ele><time>2026-04-09T13:33:43Z</time></trkpt><trkpt lat="44.6353886" lon="8.9496688"><ele>308.66666666666663</ele><time>2026-04-09T13:33:43.999Z</time></trkpt><trkpt lat="44.6352562" lon="8.9495548"><ele>307.3333333333333</ele><time>2026-04-09T13:33:44.999Z</time></trkpt><trkpt lat="44.6351455" lon="8.9494376"><ele>306.0</ele><time>2026-04-09T13:33:46.138Z</time></trkpt><trkpt lat="44.6349901" lon="8.9491432"><ele>306.0</ele><time>2026-04-09T13:33:47.999Z</time></trkpt><trkpt lat="44.6349516" lon="8.9489668"><ele>306.0</ele><time>2026-04-09T13:33:49Z</time></trkpt><trkpt lat="44.6349477" lon="8.9487759"><ele>306.0</ele><time>2026-04-09T13:33:50Z</time></trkpt><trkpt lat="44.6349586" lon="8.9485725"><ele>306.0</ele><time>2026-04-09T13:33:51.132Z</time></trkpt><trkpt lat="44.6349664" lon="8.9481277"><ele>309.6666666666667</ele><time>2026-04-09T13:33:53Z</time></trkpt><trkpt lat="44.6349541" lon="8.9478844"><ele>313.33333333333337</ele><time>2026-04-09T13:33:54.138Z</time></trkpt><trkpt lat="44.6349316" lon="8.9476394"><ele>317.0</ele><time>2026-04-09T13:33:55.146Z</time></trkpt><trkpt lat="44.6348986" lon="8.9473892"><ele>321.5</ele><time>2026-04-09T13:33:56.142Z</time></trkpt><trkpt lat="44.6348214" lon="8.9469105"><ele>326.0</ele><time>2026-04-09T13:33:58Z</time></trkpt><trkpt lat="44.6347603" lon="8.9466909"><ele>329.33333333333337</ele><time>2026-04-09T13:33:59.153Z</time></trkpt><trkpt lat="44.6346822" lon="8.9464636"><ele>332.6666666666667</ele><time>2026-04-09T13:34:00.151Z</time></trkpt><trkpt lat="44.6345855" lon="8.9462557"><ele>336.0</ele><time>2026-04-09T13:34:01.159Z</time></trkpt><trkpt lat="44.6343557" lon="8.9458936"><ele>328.0</ele><time>2026-04-09T13:34:03Z</time></trkpt><trkpt lat="44.6342184" lon="8.9457286"><ele>320.0</ele><time>2026-04-09T13:34:04.145Z</time></trkpt><trkpt lat="44.6340857" lon="8.9455416"><ele>312.0</ele><time>2026-04-09T13:34:05.131Z</time></trkpt><trkpt lat="44.6338344" lon="8.9451392"><ele>310.0</ele><time>2026-04-09T13:34:07Z</time></trkpt><trkpt lat="44.6337143" lon="8.9449319"><ele>308.0</ele><time>2026-04-09T13:34:07.999Z</time></trkpt><trkpt lat="44.6335865" lon="8.9447253"><ele>306.0</ele><time>2026-04-09T13:34:09.155Z</time></trkpt><trkpt lat="44.6334623" lon="8.944516"><ele>306.0</ele><time>2026-04-09T13:34:10.152Z</time></trkpt><trkpt lat="44.6333368" lon="8.9442939"><ele>306.0</ele><time>2026-04-09T13:34:11.159Z</time></trkpt><trkpt lat="44.6332116" lon="8.944075"><ele>306.0</ele><time>2026-04-09T13:34:11.999Z</time></trkpt><trkpt lat="44.6330884" lon="8.9438534"><ele>307.0</ele><time>2026-04-09T13:34:13Z</time></trkpt><trkpt lat="44.6329625" lon="8.9436326"><ele>308.0</ele><time>2026-04-09T13:34:14.147Z</time></trkpt><trkpt lat="44.6328405" lon="8.9434112"><ele>309.0</ele><time>2026-04-09T13:34:15.162Z</time></trkpt><trkpt lat="44.6326062" lon="8.9430042"><ele>309.0</ele><time>2026-04-09T13:34:16.999Z</time></trkpt><trkpt lat="44.6324998" lon="8.9428147"><ele>309.0</ele><time>2026-04-09T13:34:18Z</time></trkpt><trkpt lat="44.632402" lon="8.9426338"><ele>309.0</ele><time>2026-04-09T13:34:19.117Z</time></trkpt><trkpt lat="44.6322984" lon="8.9424773"><ele>307.0</ele><time>2026-04-09T13:34:20.167Z</time></trkpt><trkpt lat="44.632174" lon="8.9423411"><ele>305.0</ele><time>2026-04-09T13:34:21.157Z</time></trkpt><trkpt lat="44.6318822" lon="8.942129"><ele>305.0</ele><time>2026-04-09T13:34:22.999Z</time></trkpt><trkpt lat="44.6317292" lon="8.94201"><ele>305.0</ele><time>2026-04-09T13:34:24.135Z</time></trkpt><trkpt lat="44.6315898" lon="8.9419014"><ele>305.0</ele><time>2026-04-09T13:34:25.166Z</time></trkpt><trkpt lat="44.6314452" lon="8.9417819"><ele>305.5</ele><time>2026-04-09T13:34:26.177Z</time></trkpt><trkpt lat="44.6311579" lon="8.9415353"><ele>306.0</ele><time>2026-04-09T13:34:28Z</time></trkpt><trkpt lat="44.6310196" lon="8.9414089"><ele>306.0</ele><time>2026-04-09T13:34:29.135Z</time></trkpt><trkpt lat="44.6308785" lon="8.9413015"><ele>306.0</ele><time>2026-04-09T13:34:30.121Z</time></trkpt><trkpt lat="44.6307356" lon="8.9412221"><ele>306.0</ele><time>2026-04-09T13:34:31.134Z</time></trkpt><trkpt lat="44.6304612" lon="8.9411161"><ele>306.0</ele><time>2026-04-09T13:34:33.157Z</time></trkpt><trkpt lat="44.6303374" lon="8.9410811"><ele>306.0</ele><time>2026-04-09T13:34:34.154Z</time></trkpt><trkpt lat="44.6302136" lon="8.9410612"><ele>306.0</ele><time>2026-04-09T13:34:35.157Z</time></trkpt><trkpt lat="44.6300916" lon="8.9410892"><ele>306.0</ele><time>2026-04-09T13:34:36.129Z</time></trkpt><trkpt lat="44.6298464" lon="8.9412288"><ele>304.5</ele><time>2026-04-09T13:34:37.999Z</time></trkpt><trkpt lat="44.6297115" lon="8.9413155"><ele>303.0</ele><time>2026-04-09T13:34:39.139Z</time></trkpt><trkpt lat="44.6294326" lon="8.9415086"><ele>303.0</ele><time>2026-04-09T13:34:41.107Z</time></trkpt><trkpt lat="44.6291352" lon="8.9417101"><ele>303.0</ele><time>2026-04-09T13:34:42.999Z</time></trkpt><trkpt lat="44.6289771" lon="8.9418168"><ele>303.0</ele><time>2026-04-09T13:34:44.137Z</time></trkpt><trkpt lat="44.6288227" lon="8.9419274"><ele>303.0</ele><time>2026-04-09T13:34:45.104Z</time></trkpt><trkpt lat="44.6286605" lon="8.9420389"><ele>303.0</ele><time>2026-04-09T13:34:46.14Z</time></trkpt><trkpt lat="44.6283232" lon="8.9422683"><ele>302.6666666666667</ele><time>2026-04-09T13:34:47.999Z</time></trkpt><trkpt lat="44.6281638" lon="8.9423903"><ele>302.33333333333337</ele><time>2026-04-09T13:34:49Z</time></trkpt><trkpt lat="44.6279936" lon="8.9425379"><ele>302.0</ele><time>2026-04-09T13:34:50.125Z</time></trkpt><trkpt lat="44.6278492" lon="8.9427072"><ele>306.0</ele><time>2026-04-09T13:34:51.137Z</time></trkpt><trkpt lat="44.6275978" lon="8.9430986"><ele>310.0</ele><time>2026-04-09T13:34:52.999Z</time></trkpt><trkpt lat="44.6274794" lon="8.9433005"><ele>307.0</ele><time>2026-04-09T13:34:54.117Z</time></trkpt><trkpt lat="44.6273575" lon="8.9435028"><ele>304.0</ele><time>2026-04-09T13:34:55.136Z</time></trkpt><trkpt lat="44.6270833" lon="8.9438935"><ele>306.3333333333333</ele><time>2026-04-09T13:34:57Z</time></trkpt><trkpt lat="44.626952" lon="8.9440975"><ele>308.6666666666667</ele><time>2026-04-09T13:34:58.128Z</time></trkpt><trkpt lat="44.6268142" lon="8.9443069"><ele>311.0</ele><time>2026-04-09T13:34:59.143Z</time></trkpt><trkpt lat="44.6266795" lon="8.9445172"><ele>311.0</ele><time>2026-04-09T13:35:00.156Z</time></trkpt><trkpt lat="44.6265437" lon="8.9447267"><ele>311.0</ele><time>2026-04-09T13:35:01.142Z</time></trkpt><trkpt lat="44.6262778" lon="8.9451579"><ele>315.0</ele><time>2026-04-09T13:35:02.999Z</time></trkpt><trkpt lat="44.6261407" lon="8.945365"><ele>319.0</ele><time>2026-04-09T13:35:04.159Z</time></trkpt><trkpt lat="44.6260126" lon="8.9455627"><ele>323.0</ele><time>2026-04-09T13:35:05.161Z</time></trkpt><trkpt lat="44.6258968" lon="8.945757"><ele>317.5</ele><time>2026-04-09T13:35:06.152Z</time></trkpt><trkpt lat="44.6256861" lon="8.9461345"><ele>312.0</ele><time>2026-04-09T13:35:08Z</time></trkpt><trkpt lat="44.6255955" lon="8.9463204"><ele>312.0</ele><time>2026-04-09T13:35:09.139Z</time></trkpt><trkpt lat="44.625514" lon="8.9465007"><ele>312.0</ele><time>2026-04-09T13:35:10.161Z</time></trkpt><trkpt lat="44.6254391" lon="8.9466742"><ele>312.0</ele><time>2026-04-09T13:35:11.128Z</time></trkpt><trkpt lat="44.6252872" lon="8.9470044"><ele>312.75</ele><time>2026-04-09T13:35:12.999Z</time></trkpt><trkpt lat="44.6252113" lon="8.9471706"><ele>313.5</ele><time>2026-04-09T13:35:14.13Z</time></trkpt><trkpt lat="44.6251344" lon="8.9473317"><ele>314.25</ele><time>2026-04-09T13:35:15.176Z</time></trkpt><trkpt lat="44.6250535" lon="8.947498"><ele>315.0</ele><time>2026-04-09T13:35:16.134Z</time></trkpt><trkpt lat="44.6248867" lon="8.9478122"><ele>315.0</ele><time>2026-04-09T13:35:17.999Z</time></trkpt><trkpt lat="44.6247911" lon="8.9479767"><ele>315.0</ele><time>2026-04-09T13:35:19.125Z</time></trkpt><trkpt lat="44.6246902" lon="8.9481599"><ele>315.0</ele><time>2026-04-09T13:35:20.149Z</time></trkpt><trkpt lat="44.6245786" lon="8.948356"><ele>321.0</ele><time>2026-04-09T13:35:21.172Z</time></trkpt><trkpt lat="44.6243313" lon="8.9487457"><ele>327.0</ele><time>2026-04-09T13:35:23Z</time></trkpt><trkpt lat="44.6242052" lon="8.9489508"><ele>327.0</ele><time>2026-04-09T13:35:24.136Z</time></trkpt><trkpt lat="44.624083" lon="8.9491473"><ele>327.0</ele><time>2026-04-09T13:35:25.165Z</time></trkpt><trkpt lat="44.6239597" lon="8.9493249"><ele>327.0</ele><time>2026-04-09T13:35:26.132Z</time></trkpt><trkpt lat="44.623706" lon="8.9496641"><ele>326.0</ele><time>2026-04-09T13:35:28Z</time></trkpt><trkpt lat="44.6235749" lon="8.949818"><ele>325.0</ele><time>2026-04-09T13:35:29Z</time></trkpt><trkpt lat="44.6234466" lon="8.9499645"><ele>324.0</ele><time>2026-04-09T13:35:29.999Z</time></trkpt><trkpt lat="44.6233224" lon="8.9501006"><ele>319.6666666666667</ele><time>2026-04-09T13:35:30.999Z</time></trkpt><trkpt lat="44.6231987" lon="8.9502414"><ele>315.33333333333337</ele><time>2026-04-09T13:35:32Z</time></trkpt><trkpt lat="44.6230745" lon="8.9503584"><ele>311.0</ele><time>2026-04-09T13:35:32.999Z</time></trkpt><trkpt lat="44.6229436" lon="8.9504749"><ele>311.0</ele><time>2026-04-09T13:35:33.999Z</time></trkpt><trkpt lat="44.6228328" lon="8.9505145"><ele>311.0</ele><time>2026-04-09T13:35:34.999Z</time></trkpt><trkpt lat="44.6226825" lon="8.9505811"><ele>311.0</ele><time>2026-04-09T13:35:35.999Z</time></trkpt><trkpt lat="44.6225408" lon="8.9505912"><ele>311.0</ele><time>2026-04-09T13:35:37Z</time></trkpt><trkpt lat="44.6224165" lon="8.9505469"><ele>312.5</ele><time>2026-04-09T13:35:38Z</time></trkpt><trkpt lat="44.6223041" lon="8.9504573"><ele>314.0</ele><time>2026-04-09T13:35:38.999Z</time></trkpt><trkpt lat="44.6221797" lon="8.9503423"><ele>315.5</ele><time>2026-04-09T13:35:39.999Z</time></trkpt><trkpt lat="44.6220778" lon="8.9501905"><ele>317.0</ele><time>2026-04-09T13:35:41Z</time></trkpt><trkpt lat="44.6219877" lon="8.9500101"><ele>317.33333333333337</ele><time>2026-04-09T13:35:42Z</time></trkpt><trkpt lat="44.6219356" lon="8.9497782"><ele>317.6666666666667</ele><time>2026-04-09T13:35:42.999Z</time></trkpt><trkpt lat="44.6218814" lon="8.9495455"><ele>318.0</ele><time>2026-04-09T13:35:44Z</time></trkpt><trkpt lat="44.6218347" lon="8.9492995"><ele>319.3333333333333</ele><time>2026-04-09T13:35:45Z</time></trkpt><trkpt lat="44.6217951" lon="8.9490622"><ele>320.66666666666663</ele><time>2026-04-09T13:35:45.999Z</time></trkpt><trkpt lat="44.6217411" lon="8.9488171"><ele>322.0</ele><time>2026-04-09T13:35:46.999Z</time></trkpt><trkpt lat="44.6216907" lon="8.948576"><ele>326.0</ele><time>2026-04-09T13:35:47.999Z</time></trkpt><trkpt lat="44.621624" lon="8.9483347"><ele>330.0</ele><time>2026-04-09T13:35:49Z</time></trkpt><trkpt lat="44.6215554" lon="8.9480849"><ele>334.0</ele><time>2026-04-09T13:35:49.999Z</time></trkpt><trkpt lat="44.621483" lon="8.9478459"><ele>334.0</ele><time>2026-04-09T13:35:50.999Z</time></trkpt><trkpt lat="44.6213877" lon="8.9476016"><ele>334.0</ele><time>2026-04-09T13:35:51.999Z</time></trkpt><trkpt lat="44.6212826" lon="8.9473634"><ele>334.0</ele><time>2026-04-09T13:35:53Z</time></trkpt><trkpt lat="44.6211805" lon="8.9471429"><ele>333.0</ele><time>2026-04-09T13:35:54Z</time></trkpt><trkpt lat="44.6210671" lon="8.9469216"><ele>332.0</ele><time>2026-04-09T13:35:54.999Z</time></trkpt><trkpt lat="44.6209441" lon="8.9466935"><ele>331.0</ele><time>2026-04-09T13:35:55.999Z</time></trkpt><trkpt lat="44.6208324" lon="8.9464732"><ele>331.0</ele><time>2026-04-09T13:35:56.999Z</time></trkpt><trkpt lat="44.6207036" lon="8.946268"><ele>331.0</ele><time>2026-04-09T13:35:57.999Z</time></trkpt><trkpt lat="44.6205773" lon="8.9460867"><ele>331.0</ele><time>2026-04-09T13:35:58.999Z</time></trkpt><trkpt lat="44.6204477" lon="8.9459159"><ele>327.0</ele><time>2026-04-09T13:36:00Z</time></trkpt><trkpt lat="44.6203147" lon="8.9457682"><ele>323.0</ele><time>2026-04-09T13:36:01Z</time></trkpt><trkpt lat="44.6201686" lon="8.9456339"><ele>319.0</ele><time>2026-04-09T13:36:01.999Z</time></trkpt><trkpt lat="44.6200153" lon="8.945534"><ele>319.0</ele><time>2026-04-09T13:36:02.999Z</time></trkpt><trkpt lat="44.619853" lon="8.9454601"><ele>319.0</ele><time>2026-04-09T13:36:03.999Z</time></trkpt><trkpt lat="44.6196924" lon="8.9453966"><ele>319.0</ele><time>2026-04-09T13:36:04.999Z</time></trkpt><trkpt lat="44.6195266" lon="8.9453392"><ele>317.3333333333333</ele><time>2026-04-09T13:36:05.999Z</time></trkpt><trkpt lat="44.619359" lon="8.9452766"><ele>315.6666666666667</ele><time>2026-04-09T13:36:06.999Z</time></trkpt><trkpt lat="44.6191949" lon="8.945211"><ele>314.0</ele><time>2026-04-09T13:36:07.999Z</time></trkpt><trkpt lat="44.6190356" lon="8.9451452"><ele>314.0</ele><time>2026-04-09T13:36:08.999Z</time></trkpt><trkpt lat="44.6188808" lon="8.945092"><ele>314.0</ele><time>2026-04-09T13:36:09.999Z</time></trkpt><trkpt lat="44.6187319" lon="8.945027"><ele>314.0</ele><time>2026-04-09T13:36:11Z</time></trkpt><trkpt lat="44.61859" lon="8.9449544"><ele>316.6666666666667</ele><time>2026-04-09T13:36:12Z</time></trkpt><trkpt lat="44.6184606" lon="8.9448654"><ele>319.3333333333333</ele><time>2026-04-09T13:36:12.999Z</time></trkpt><trkpt lat="44.6183273" lon="8.9447561"><ele>322.0</ele><time>2026-04-09T13:36:14Z</time></trkpt><trkpt lat="44.6181939" lon="8.9446552"><ele>322.0</ele><time>2026-04-09T13:36:14.999Z</time></trkpt><trkpt lat="44.6180546" lon="8.9445392"><ele>322.0</ele><time>2026-04-09T13:36:15.999Z</time></trkpt><trkpt lat="44.6179258" lon="8.9444176"><ele>322.0</ele><time>2026-04-09T13:36:17Z</time></trkpt><trkpt lat="44.6178023" lon="8.9442979"><ele>323.75</ele><time>2026-04-09T13:36:18Z</time></trkpt><trkpt lat="44.6176737" lon="8.9442046"><ele>325.5</ele><time>2026-04-09T13:36:18.999Z</time></trkpt><trkpt lat="44.6175407" lon="8.9441324"><ele>327.25</ele><time>2026-04-09T13:36:20.115Z</time></trkpt><trkpt lat="44.6174068" lon="8.9440934"><ele>329.0</ele><time>2026-04-09T13:36:21.114Z</time></trkpt><trkpt lat="44.6171495" lon="8.944113"><ele>329.0</ele><time>2026-04-09T13:36:22.999Z</time></trkpt><trkpt lat="44.6170173" lon="8.9441377"><ele>329.0</ele><time>2026-04-09T13:36:24.148Z</time></trkpt><trkpt lat="44.6168992" lon="8.9441729"><ele>329.0</ele><time>2026-04-09T13:36:25.11Z</time></trkpt><trkpt lat="44.6167902" lon="8.9442059"><ele>329.0</ele><time>2026-04-09T13:36:26.122Z</time></trkpt><trkpt lat="44.616579" lon="8.9442543"><ele>328.1666666666667</ele><time>2026-04-09T13:36:27.999Z</time></trkpt><trkpt lat="44.616489" lon="8.9442711"><ele>327.33333333333337</ele><time>2026-04-09T13:36:29.105Z</time></trkpt><trkpt lat="44.6164083" lon="8.9443038"><ele>326.5</ele><time>2026-04-09T13:36:30.145Z</time></trkpt><trkpt lat="44.616347" lon="8.9443313"><ele>325.6666666666667</ele><time>2026-04-09T13:36:31.132Z</time></trkpt><trkpt lat="44.6162386" lon="8.9444032"><ele>324.8333333333333</ele><time>2026-04-09T13:36:33Z</time></trkpt><trkpt lat="44.6161764" lon="8.9444715"><ele>324.0</ele><time>2026-04-09T13:36:35.142Z</time></trkpt><trkpt lat="44.6161216" lon="8.9445325"><ele>324.0</ele><time>2026-04-09T13:36:47.999Z</time></trkpt><trkpt lat="44.6160468" lon="8.9446648"><ele>324.0</ele><time>2026-04-09T13:36:57.999Z</time></trkpt><trkpt lat="44.6160026" lon="8.9447433"><ele>324.0</ele><time>2026-04-09T13:36:59Z</time></trkpt><trkpt lat="44.6159612" lon="8.9448295"><ele>324.0</ele><time>2026-04-09T13:37:00Z</time></trkpt><trkpt lat="44.6159068" lon="8.9449493"><ele>324.0</ele><time>2026-04-09T13:37:01Z</time></trkpt><trkpt lat="44.6158572" lon="8.9450761"><ele>322.6666666666667</ele><time>2026-04-09T13:37:02Z</time></trkpt><trkpt lat="44.6158011" lon="8.9452151"><ele>321.33333333333337</ele><time>2026-04-09T13:37:02.999Z</time></trkpt><trkpt lat="44.6157518" lon="8.9453546"><ele>320.0</ele><time>2026-04-09T13:37:04.174Z</time></trkpt><trkpt lat="44.615636" lon="8.9456505"><ele>320.0</ele><time>2026-04-09T13:37:05.999Z</time></trkpt><trkpt lat="44.6155758" lon="8.9457996"><ele>320.0</ele><time>2026-04-09T13:37:06.999Z</time></trkpt><trkpt lat="44.6155219" lon="8.9459396"><ele>320.0</ele><time>2026-04-09T13:37:07.999Z</time></trkpt><trkpt lat="44.6154543" lon="8.9460779"><ele>320.0</ele><time>2026-04-09T13:37:08.999Z</time></trkpt><trkpt lat="44.6154018" lon="8.9462194"><ele>319.6666666666667</ele><time>2026-04-09T13:37:10.145Z</time></trkpt><trkpt lat="44.6153474" lon="8.9463633"><ele>319.3333333333333</ele><time>2026-04-09T13:37:11.165Z</time></trkpt><trkpt lat="44.6152348" lon="8.9466358"><ele>319.0</ele><time>2026-04-09T13:37:12.999Z</time></trkpt><trkpt lat="44.6151794" lon="8.9467742"><ele>320.75</ele><time>2026-04-09T13:37:14Z</time></trkpt><trkpt lat="44.6151214" lon="8.9469117"><ele>322.5</ele><time>2026-04-09T13:37:14.999Z</time></trkpt><trkpt lat="44.6150604" lon="8.9470502"><ele>324.25</ele><time>2026-04-09T13:37:15.999Z</time></trkpt><trkpt lat="44.6149991" lon="8.9471832"><ele>326.0</ele><time>2026-04-09T13:37:16.999Z</time></trkpt><trkpt lat="44.6149413" lon="8.9473266"><ele>326.0</ele><time>2026-04-09T13:37:18Z</time></trkpt><trkpt lat="44.6148858" lon="8.9474733"><ele>326.0</ele><time>2026-04-09T13:37:18.999Z</time></trkpt><trkpt lat="44.6148252" lon="8.9476115"><ele>326.0</ele><time>2026-04-09T13:37:20Z</time></trkpt><trkpt lat="44.6147649" lon="8.9477499"><ele>326.0</ele><time>2026-04-09T13:37:21.108Z</time></trkpt><trkpt lat="44.6146487" lon="8.9480332"><ele>325.0</ele><time>2026-04-09T13:37:22.999Z</time></trkpt><trkpt lat="44.6145906" lon="8.9481815"><ele>324.0</ele><time>2026-04-09T13:37:24.107Z</time></trkpt><trkpt lat="44.6145336" lon="8.9483194"><ele>323.0</ele><time>2026-04-09T13:37:25.109Z</time></trkpt><trkpt lat="44.6144142" lon="8.9486264"><ele>323.0</ele><time>2026-04-09T13:37:26.999Z</time></trkpt><trkpt lat="44.6143389" lon="8.9487319"><ele>323.0</ele><time>2026-04-09T13:37:27.999Z</time></trkpt><trkpt lat="44.6142397" lon="8.9488129"><ele>323.0</ele><time>2026-04-09T13:37:29.101Z</time></trkpt><trkpt lat="44.6141458" lon="8.9488849"><ele>323.0</ele><time>2026-04-09T13:37:30.129Z</time></trkpt><trkpt lat="44.6140512" lon="8.9488443"><ele>323.0</ele><time>2026-04-09T13:37:31.128Z</time></trkpt><trkpt lat="44.6138126" lon="8.9488897"><ele>323.0</ele><time>2026-04-09T13:37:32.999Z</time></trkpt><trkpt lat="44.6137029" lon="8.948943"><ele>323.0</ele><time>2026-04-09T13:37:34.158Z</time></trkpt><trkpt lat="44.6135827" lon="8.9490103"><ele>323.0</ele><time>2026-04-09T13:37:35.117Z</time></trkpt><trkpt lat="44.6134652" lon="8.9490606"><ele>323.0</ele><time>2026-04-09T13:37:36.152Z</time></trkpt><trkpt lat="44.6132492" lon="8.9492666"><ele>323.5</ele><time>2026-04-09T13:37:37.999Z</time></trkpt><trkpt lat="44.61313" lon="8.9493727"><ele>324.0</ele><time>2026-04-09T13:37:39.111Z</time></trkpt><trkpt lat="44.6130074" lon="8.9494613"><ele>324.5</ele><time>2026-04-09T13:37:40.135Z</time></trkpt><trkpt lat="44.6128804" lon="8.9495479"><ele>325.0</ele><time>2026-04-09T13:37:41.146Z</time></trkpt><trkpt lat="44.6126565" lon="8.9497071"><ele>326.0</ele><time>2026-04-09T13:37:43Z</time></trkpt><trkpt lat="44.6125459" lon="8.9497886"><ele>327.0</ele><time>2026-04-09T13:37:44.152Z</time></trkpt><trkpt lat="44.6124315" lon="8.949872"><ele>328.0</ele><time>2026-04-09T13:37:45.155Z</time></trkpt><trkpt lat="44.612333" lon="8.9499603"><ele>329.0</ele><time>2026-04-09T13:37:46.122Z</time></trkpt><trkpt lat="44.6121848" lon="8.9502112"><ele>329.0</ele><time>2026-04-09T13:37:48Z</time></trkpt><trkpt lat="44.6121566" lon="8.9503674"><ele>329.0</ele><time>2026-04-09T13:37:49Z</time></trkpt><trkpt lat="44.6121507" lon="8.9505185"><ele>329.0</ele><time>2026-04-09T13:37:50.133Z</time></trkpt><trkpt lat="44.6121936" lon="8.9508286"><ele>329.0</ele><time>2026-04-09T13:37:51.999Z</time></trkpt><trkpt lat="44.6122146" lon="8.9509936"><ele>330.0</ele><time>2026-04-09T13:37:53.128Z</time></trkpt><trkpt lat="44.6122423" lon="8.9511561"><ele>331.0</ele><time>2026-04-09T13:37:54.146Z</time></trkpt><trkpt lat="44.6122706" lon="8.9513197"><ele>332.0</ele><time>2026-04-09T13:37:55.169Z</time></trkpt><trkpt lat="44.6122925" lon="8.9514889"><ele>333.0</ele><time>2026-04-09T13:37:56.16Z</time></trkpt><trkpt lat="44.6123382" lon="8.9518147"><ele>333.0</ele><time>2026-04-09T13:37:57.999Z</time></trkpt><trkpt lat="44.6123647" lon="8.9519726"><ele>333.0</ele><time>2026-04-09T13:37:59.126Z</time></trkpt><trkpt lat="44.6123899" lon="8.9521178"><ele>333.0</ele><time>2026-04-09T13:38:00.153Z</time></trkpt><trkpt lat="44.6124134" lon="8.9522529"><ele>333.0</ele><time>2026-04-09T13:38:01.167Z</time></trkpt><trkpt lat="44.6124586" lon="8.9524854"><ele>332.2</ele><time>2026-04-09T13:38:02.999Z</time></trkpt><trkpt lat="44.6124737" lon="8.9525987"><ele>331.4</ele><time>2026-04-09T13:38:04.143Z</time></trkpt><trkpt lat="44.6124767" lon="8.9527086"><ele>330.59999999999997</ele><time>2026-04-09T13:38:05.161Z</time></trkpt><trkpt lat="44.6124705" lon="8.9528199"><ele>329.79999999999995</ele><time>2026-04-09T13:38:06.156Z</time></trkpt><trkpt lat="44.6124361" lon="8.9530114"><ele>329.0</ele><time>2026-04-09T13:38:07.999Z</time></trkpt><trkpt lat="44.6123724" lon="8.9531288"><ele>329.0</ele><time>2026-04-09T13:38:10.165Z</time></trkpt><trkpt lat="44.6122634" lon="8.9532461"><ele>329.0</ele><time>2026-04-09T13:38:12.999Z</time></trkpt><trkpt lat="44.6121764" lon="8.9533201"><ele>329.0</ele><time>2026-04-09T13:38:15Z</time></trkpt><trkpt lat="44.6120698" lon="8.9533924"><ele>329.0</ele><time>2026-04-09T13:38:17Z</time></trkpt><trkpt lat="44.6120044" lon="8.9534314"><ele>329.0</ele><time>2026-04-09T13:38:18Z</time></trkpt><trkpt lat="44.611911" lon="8.9534942"><ele>329.5</ele><time>2026-04-09T13:38:18.999Z</time></trkpt><trkpt lat="44.6118217" lon="8.9535407"><ele>330.0</ele><time>2026-04-09T13:38:20.129Z</time></trkpt><trkpt lat="44.6117389" lon="8.953589"><ele>330.5</ele><time>2026-04-09T13:38:21.14Z</time></trkpt><trkpt lat="44.6115666" lon="8.9537086"><ele>331.0</ele><time>2026-04-09T13:38:22.999Z</time></trkpt><trkpt lat="44.6114703" lon="8.9537751"><ele>331.0</ele><time>2026-04-09T13:38:24.114Z</time></trkpt><trkpt lat="44.6112706" lon="8.953896"><ele>331.0</ele><time>2026-04-09T13:38:26.109Z</time></trkpt><trkpt lat="44.6110777" lon="8.9540257"><ele>331.0</ele><time>2026-04-09T13:38:28Z</time></trkpt><trkpt lat="44.6109856" lon="8.954082"><ele>331.66666666666663</ele><time>2026-04-09T13:38:29.118Z</time></trkpt><trkpt lat="44.6108894" lon="8.9541544"><ele>332.3333333333333</ele><time>2026-04-09T13:38:30.128Z</time></trkpt><trkpt lat="44.610789" lon="8.9542332"><ele>333.0</ele><time>2026-04-09T13:38:31.141Z</time></trkpt><trkpt lat="44.6105759" lon="8.9543559"><ele>333.0</ele><time>2026-04-09T13:38:33Z</time></trkpt><trkpt lat="44.6104652" lon="8.9544046"><ele>333.0</ele><time>2026-04-09T13:38:34Z</time></trkpt><trkpt lat="44.610346" lon="8.9544551"><ele>333.0</ele><time>2026-04-09T13:38:34.999Z</time></trkpt><trkpt lat="44.6102351" lon="8.9544921"><ele>333.0</ele><time>2026-04-09T13:38:36.116Z</time></trkpt><trkpt lat="44.6100019" lon="8.9545708"><ele>333.6666666666667</ele><time>2026-04-09T13:38:37.999Z</time></trkpt><trkpt lat="44.6098855" lon="8.9546139"><ele>334.33333333333337</ele><time>2026-04-09T13:38:39.14Z</time></trkpt><trkpt lat="44.6097707" lon="8.9546603"><ele>335.0</ele><time>2026-04-09T13:38:40.131Z</time></trkpt><trkpt lat="44.6095495" lon="8.9547372"><ele>335.0</ele><time>2026-04-09T13:38:41.999Z</time></trkpt><trkpt lat="44.6094446" lon="8.9547826"><ele>335.0</ele><time>2026-04-09T13:38:43Z</time></trkpt><trkpt lat="44.6093317" lon="8.9548231"><ele>335.0</ele><time>2026-04-09T13:38:44.16Z</time></trkpt><trkpt lat="44.6092165" lon="8.9548633"><ele>335.0</ele><time>2026-04-09T13:38:45.153Z</time></trkpt><trkpt lat="44.6090047" lon="8.9549335"><ele>335.0</ele><time>2026-04-09T13:38:46.999Z</time></trkpt><trkpt lat="44.608895" lon="8.9549786"><ele>335.0</ele><time>2026-04-09T13:38:48.152Z</time></trkpt><trkpt lat="44.6087899" lon="8.9550204"><ele>335.0</ele><time>2026-04-09T13:38:49.104Z</time></trkpt><trkpt lat="44.6086847" lon="8.9550685"><ele>335.0</ele><time>2026-04-09T13:38:50.124Z</time></trkpt><trkpt lat="44.6085745" lon="8.9551044"><ele>335.0</ele><time>2026-04-09T13:38:51.136Z</time></trkpt><trkpt lat="44.6083547" lon="8.9551611"><ele>334.75</ele><time>2026-04-09T13:38:52.999Z</time></trkpt><trkpt lat="44.6082361" lon="8.9551639"><ele>334.5</ele><time>2026-04-09T13:38:54.135Z</time></trkpt><trkpt lat="44.6081296" lon="8.955167"><ele>334.25</ele><time>2026-04-09T13:38:55.155Z</time></trkpt><trkpt lat="44.6080144" lon="8.9551509"><ele>334.0</ele><time>2026-04-09T13:38:56.121Z</time></trkpt><trkpt lat="44.6077938" lon="8.9550957"><ele>333.75</ele><time>2026-04-09T13:38:57.999Z</time></trkpt><trkpt lat="44.6076903" lon="8.9550545"><ele>333.5</ele><time>2026-04-09T13:38:59.138Z</time></trkpt><trkpt lat="44.6075868" lon="8.9549883"><ele>333.25</ele><time>2026-04-09T13:39:00.172Z</time></trkpt><trkpt lat="44.607488" lon="8.9548956"><ele>333.0</ele><time>2026-04-09T13:39:01.148Z</time></trkpt><trkpt lat="44.6073043" lon="8.9546252"><ele>333.0</ele><time>2026-04-09T13:39:02.999Z</time></trkpt><trkpt lat="44.6072156" lon="8.9544466"><ele>333.0</ele><time>2026-04-09T13:39:04.158Z</time></trkpt><trkpt lat="44.6071428" lon="8.9542647"><ele>333.0</ele><time>2026-04-09T13:39:05.177Z</time></trkpt><trkpt lat="44.6070723" lon="8.9540793"><ele>330.5</ele><time>2026-04-09T13:39:06.169Z</time></trkpt><trkpt lat="44.6069171" lon="8.9536927"><ele>328.0</ele><time>2026-04-09T13:39:08Z</time></trkpt><trkpt lat="44.6068368" lon="8.9534835"><ele>331.3333333333333</ele><time>2026-04-09T13:39:09.122Z</time></trkpt><trkpt lat="44.6067652" lon="8.9532733"><ele>334.6666666666667</ele><time>2026-04-09T13:39:10.103Z</time></trkpt><trkpt lat="44.6067028" lon="8.9530454"><ele>338.0</ele><time>2026-04-09T13:39:11.132Z</time></trkpt><trkpt lat="44.6065493" lon="8.9525821"><ele>348.0</ele><time>2026-04-09T13:39:12.999Z</time></trkpt><trkpt lat="44.6064553" lon="8.9523482"><ele>358.0</ele><time>2026-04-09T13:39:13.999Z</time></trkpt><trkpt lat="44.6062533" lon="8.9519115"><ele>346.0</ele><time>2026-04-09T13:39:16.111Z</time></trkpt><trkpt lat="44.6060519" lon="8.95149"><ele>334.0</ele><time>2026-04-09T13:39:18Z</time></trkpt><trkpt lat="44.6059547" lon="8.9512824"><ele>334.0</ele><time>2026-04-09T13:39:19.11Z</time></trkpt><trkpt lat="44.6057557" lon="8.9508935"><ele>334.0</ele><time>2026-04-09T13:39:20.999Z</time></trkpt><trkpt lat="44.6056531" lon="8.9507229"><ele>331.66666666666663</ele><time>2026-04-09T13:39:21.999Z</time></trkpt><trkpt lat="44.605549" lon="8.9505671"><ele>329.3333333333333</ele><time>2026-04-09T13:39:22.999Z</time></trkpt><trkpt lat="44.6054501" lon="8.9504295"><ele>327.0</ele><time>2026-04-09T13:39:24.149Z</time></trkpt><trkpt lat="44.6052665" lon="8.9501526"><ele>332.0</ele><time>2026-04-09T13:39:26.134Z</time></trkpt><trkpt lat="44.6050949" lon="8.9499106"><ele>337.0</ele><time>2026-04-09T13:39:27.999Z</time></trkpt><trkpt lat="44.605013" lon="8.9497835"><ele>342.0</ele><time>2026-04-09T13:39:28.999Z</time></trkpt><trkpt lat="44.6049376" lon="8.9496679"><ele>342.0</ele><time>2026-04-09T13:39:30.155Z</time></trkpt><trkpt lat="44.6048527" lon="8.9495438"><ele>342.0</ele><time>2026-04-09T13:39:31.113Z</time></trkpt><trkpt lat="44.6046892" lon="8.9493456"><ele>342.0</ele><time>2026-04-09T13:39:32.999Z</time></trkpt><trkpt lat="44.6046065" lon="8.9492444"><ele>342.0</ele><time>2026-04-09T13:39:34.158Z</time></trkpt><trkpt lat="44.6045198" lon="8.9491509"><ele>340.0</ele><time>2026-04-09T13:39:35.147Z</time></trkpt><trkpt lat="44.6044301" lon="8.9490581"><ele>338.0</ele><time>2026-04-09T13:39:36.157Z</time></trkpt><trkpt lat="44.604239" lon="8.9489144"><ele>336.0</ele><time>2026-04-09T13:39:38Z</time></trkpt><trkpt lat="44.6041488" lon="8.9488524"><ele>334.0</ele><time>2026-04-09T13:39:39Z</time></trkpt><trkpt lat="44.6040478" lon="8.9488012"><ele>334.0</ele><time>2026-04-09T13:39:40.154Z</time></trkpt><trkpt lat="44.603945" lon="8.9487639"><ele>334.0</ele><time>2026-04-09T13:39:41.135Z</time></trkpt><trkpt lat="44.603715" lon="8.9486881"><ele>334.0</ele><time>2026-04-09T13:39:42.999Z</time></trkpt><trkpt lat="44.6036069" lon="8.9486749"><ele>333.25</ele><time>2026-04-09T13:39:44.159Z</time></trkpt><trkpt lat="44.6034977" lon="8.9486656"><ele>332.5</ele><time>2026-04-09T13:39:45.155Z</time></trkpt><trkpt lat="44.6033872" lon="8.9486657"><ele>331.75</ele><time>2026-04-09T13:39:46.143Z</time></trkpt><trkpt lat="44.6031809" lon="8.9486982"><ele>331.0</ele><time>2026-04-09T13:39:47.999Z</time></trkpt><trkpt lat="44.6030738" lon="8.9487254"><ele>331.0</ele><time>2026-04-09T13:39:49Z</time></trkpt><trkpt lat="44.6029671" lon="8.9487617"><ele>331.0</ele><time>2026-04-09T13:39:50.168Z</time></trkpt><trkpt lat="44.6028679" lon="8.9488052"><ele>331.0</ele><time>2026-04-09T13:39:51.165Z</time></trkpt><trkpt lat="44.6026592" lon="8.9489197"><ele>331.0</ele><time>2026-04-09T13:39:52.999Z</time></trkpt><trkpt lat="44.6025707" lon="8.9489851"><ele>330.6</ele><time>2026-04-09T13:39:54Z</time></trkpt><trkpt lat="44.6024842" lon="8.9490561"><ele>330.20000000000005</ele><time>2026-04-09T13:39:54.999Z</time></trkpt><trkpt lat="44.602389" lon="8.9491414"><ele>329.79999999999995</ele><time>2026-04-09T13:39:55.999Z</time></trkpt><trkpt lat="44.6022966" lon="8.9492383"><ele>329.4</ele><time>2026-04-09T13:39:57Z</time></trkpt><trkpt lat="44.6022035" lon="8.9493449"><ele>329.0</ele><time>2026-04-09T13:39:58Z</time></trkpt><trkpt lat="44.602112" lon="8.9494492"><ele>330.75</ele><time>2026-04-09T13:39:59.103Z</time></trkpt><trkpt lat="44.6019397" lon="8.9496602"><ele>332.5</ele><time>2026-04-09T13:40:01Z</time></trkpt><trkpt lat="44.6018571" lon="8.9497617"><ele>334.25</ele><time>2026-04-09T13:40:01.999Z</time></trkpt><trkpt lat="44.6017789" lon="8.9498569"><ele>336.0</ele><time>2026-04-09T13:40:03.169Z</time></trkpt><trkpt lat="44.6016967" lon="8.9499508"><ele>336.0</ele><time>2026-04-09T13:40:04.161Z</time></trkpt><trkpt lat="44.6016143" lon="8.9500468"><ele>336.0</ele><time>2026-04-09T13:40:05.136Z</time></trkpt><trkpt lat="44.6015333" lon="8.9501432"><ele>336.0</ele><time>2026-04-09T13:40:06.176Z</time></trkpt><trkpt lat="44.6013739" lon="8.9503338"><ele>336.0</ele><time>2026-04-09T13:40:07.999Z</time></trkpt><trkpt lat="44.6013037" lon="8.9504136"><ele>337.0</ele><time>2026-04-09T13:40:09.109Z</time></trkpt><trkpt lat="44.6011637" lon="8.9505666"><ele>338.0</ele><time>2026-04-09T13:40:10.999Z</time></trkpt><trkpt lat="44.6010962" lon="8.9506465"><ele>339.0</ele><time>2026-04-09T13:40:11.999Z</time></trkpt><trkpt lat="44.6010272" lon="8.9507317"><ele>340.0</ele><time>2026-04-09T13:40:13Z</time></trkpt><trkpt lat="44.6009565" lon="8.9508164"><ele>339.75</ele><time>2026-04-09T13:40:14.161Z</time></trkpt><trkpt lat="44.6008873" lon="8.9509019"><ele>339.5</ele><time>2026-04-09T13:40:15.158Z</time></trkpt><trkpt lat="44.6008058" lon="8.9509891"><ele>339.25</ele><time>2026-04-09T13:40:16.104Z</time></trkpt><trkpt lat="44.6006512" lon="8.951166"><ele>339.0</ele><time>2026-04-09T13:40:17.999Z</time></trkpt><trkpt lat="44.6005706" lon="8.9512552"><ele>339.0</ele><time>2026-04-09T13:40:19.13Z</time></trkpt><trkpt lat="44.6004099" lon="8.9514342"><ele>339.0</ele><time>2026-04-09T13:40:21.152Z</time></trkpt><trkpt lat="44.6002421" lon="8.9516137"><ele>339.0</ele><time>2026-04-09T13:40:22.999Z</time></trkpt><trkpt lat="44.6001567" lon="8.9517044"><ele>339.25</ele><time>2026-04-09T13:40:24.13Z</time></trkpt><trkpt lat="44.6000717" lon="8.9517987"><ele>339.5</ele><time>2026-04-09T13:40:25.101Z</time></trkpt><trkpt lat="44.599902" lon="8.951991"><ele>339.75</ele><time>2026-04-09T13:40:27Z</time></trkpt><trkpt lat="44.5998186" lon="8.9520969"><ele>340.0</ele><time>2026-04-09T13:40:28Z</time></trkpt><trkpt lat="44.5997289" lon="8.952203"><ele>340.0</ele><time>2026-04-09T13:40:28.999Z</time></trkpt><trkpt lat="44.5996387" lon="8.9522905"><ele>340.0</ele><time>2026-04-09T13:40:29.999Z</time></trkpt><trkpt lat="44.599546" lon="8.9523714"><ele>340.0</ele><time>2026-04-09T13:40:31.15Z</time></trkpt><trkpt lat="44.5993263" lon="8.9525382"><ele>340.0</ele><time>2026-04-09T13:40:33.112Z</time></trkpt><trkpt lat="44.5992085" lon="8.952618"><ele>340.0</ele><time>2026-04-09T13:40:34.124Z</time></trkpt><trkpt lat="44.5990739" lon="8.9527177"><ele>340.0</ele><time>2026-04-09T13:40:35.164Z</time></trkpt><trkpt lat="44.5989378" lon="8.9527914"><ele>340.0</ele><time>2026-04-09T13:40:36.163Z</time></trkpt><trkpt lat="44.5986744" lon="8.9529329"><ele>340.0</ele><time>2026-04-09T13:40:38Z</time></trkpt><trkpt lat="44.5985386" lon="8.9530144"><ele>340.0</ele><time>2026-04-09T13:40:39Z</time></trkpt><trkpt lat="44.5984208" lon="8.9530922"><ele>340.0</ele><time>2026-04-09T13:40:40.118Z</time></trkpt><trkpt lat="44.5982906" lon="8.9531711"><ele>340.0</ele><time>2026-04-09T13:40:41.151Z</time></trkpt><trkpt lat="44.5980239" lon="8.9533381"><ele>340.0</ele><time>2026-04-09T13:40:43Z</time></trkpt><trkpt lat="44.5978907" lon="8.9533997"><ele>340.0</ele><time>2026-04-09T13:40:44.119Z</time></trkpt><trkpt lat="44.5977518" lon="8.9534625"><ele>340.0</ele><time>2026-04-09T13:40:45.16Z</time></trkpt><trkpt lat="44.5976164" lon="8.9534963"><ele>340.0</ele><time>2026-04-09T13:40:46.153Z</time></trkpt><trkpt lat="44.5973336" lon="8.9535194"><ele>339.25</ele><time>2026-04-09T13:40:48Z</time></trkpt><trkpt lat="44.597203" lon="8.9535071"><ele>338.5</ele><time>2026-04-09T13:40:49Z</time></trkpt><trkpt lat="44.5970463" lon="8.9535034"><ele>337.75</ele><time>2026-04-09T13:40:50.143Z</time></trkpt><trkpt lat="44.5968969" lon="8.9534894"><ele>337.0</ele><time>2026-04-09T13:40:51.167Z</time></trkpt><trkpt lat="44.5966113" lon="8.953466"><ele>337.0</ele><time>2026-04-09T13:40:52.999Z</time></trkpt><trkpt lat="44.5964632" lon="8.9534567"><ele>337.0</ele><time>2026-04-09T13:40:54.129Z</time></trkpt><trkpt lat="44.5963182" lon="8.9534417"><ele>337.0</ele><time>2026-04-09T13:40:55.165Z</time></trkpt><trkpt lat="44.5961819" lon="8.9534239"><ele>337.0</ele><time>2026-04-09T13:40:56.123Z</time></trkpt><trkpt lat="44.5959448" lon="8.9533842"><ele>337.75</ele><time>2026-04-09T13:40:57.999Z</time></trkpt><trkpt lat="44.5958091" lon="8.9533754"><ele>338.5</ele><time>2026-04-09T13:40:59Z</time></trkpt><trkpt lat="44.5956953" lon="8.9533351"><ele>339.25</ele><time>2026-04-09T13:41:00.174Z</time></trkpt><trkpt lat="44.5955885" lon="8.9532709"><ele>340.0</ele><time>2026-04-09T13:41:01Z</time></trkpt><trkpt lat="44.5954915" lon="8.9531947"><ele>340.75</ele><time>2026-04-09T13:41:02Z</time></trkpt><trkpt lat="44.5954205" lon="8.9530846"><ele>341.5</ele><time>2026-04-09T13:41:02.999Z</time></trkpt><trkpt lat="44.5953808" lon="8.9529588"><ele>342.25</ele><time>2026-04-09T13:41:04.167Z</time></trkpt><trkpt lat="44.5953815" lon="8.9527866"><ele>343.0</ele><time>2026-04-09T13:41:05.13Z</time></trkpt><trkpt lat="44.5953841" lon="8.9524049"><ele>348.3333333333333</ele><time>2026-04-09T13:41:06.999Z</time></trkpt><trkpt lat="44.595395" lon="8.95219"><ele>353.6666666666667</ele><time>2026-04-09T13:41:08Z</time></trkpt><trkpt lat="44.595405" lon="8.9519749"><ele>359.0</ele><time>2026-04-09T13:41:09.163Z</time></trkpt><trkpt lat="44.5954124" lon="8.9517536"><ele>364.0</ele><time>2026-04-09T13:41:10.135Z</time></trkpt><trkpt lat="44.595424" lon="8.9515324"><ele>369.0</ele><time>2026-04-09T13:41:11.134Z</time></trkpt><trkpt lat="44.5954461" lon="8.9510627"><ele>368.3333333333333</ele><time>2026-04-09T13:41:13Z</time></trkpt><trkpt lat="44.5954572" lon="8.9508341"><ele>367.66666666666663</ele><time>2026-04-09T13:41:14.153Z</time></trkpt><trkpt lat="44.5954668" lon="8.9506057"><ele>367.0</ele><time>2026-04-09T13:41:15.15Z</time></trkpt><trkpt lat="44.5954739" lon="8.9503775"><ele>365.5</ele><time>2026-04-09T13:41:16.144Z</time></trkpt><trkpt lat="44.5954942" lon="8.9499277"><ele>364.0</ele><time>2026-04-09T13:41:17.999Z</time></trkpt><trkpt lat="44.5955144" lon="8.9497078"><ele>364.0</ele><time>2026-04-09T13:41:19Z</time></trkpt><trkpt lat="44.5955225" lon="8.9494817"><ele>364.0</ele><time>2026-04-09T13:41:20.104Z</time></trkpt><trkpt lat="44.5955354" lon="8.9492539"><ele>364.0</ele><time>2026-04-09T13:41:21.138Z</time></trkpt><trkpt lat="44.59556" lon="8.9487981"><ele>362.0</ele><time>2026-04-09T13:41:22.999Z</time></trkpt><trkpt lat="44.595564" lon="8.9485755"><ele>360.0</ele><time>2026-04-09T13:41:24.116Z</time></trkpt><trkpt lat="44.5955596" lon="8.948355"><ele>358.0</ele><time>2026-04-09T13:41:25.16Z</time></trkpt><trkpt lat="44.595529" lon="8.9481283"><ele>358.0</ele><time>2026-04-09T13:41:26.155Z</time></trkpt><trkpt lat="44.5954375" lon="8.9476763"><ele>358.0</ele><time>2026-04-09T13:41:27.999Z</time></trkpt><trkpt lat="44.5954062" lon="8.9474449"><ele>360.0</ele><time>2026-04-09T13:41:29.107Z</time></trkpt><trkpt lat="44.5953909" lon="8.9472128"><ele>362.0</ele><time>2026-04-09T13:41:30.132Z</time></trkpt><trkpt lat="44.5953944" lon="8.9469705"><ele>364.0</ele><time>2026-04-09T13:41:31.148Z</time></trkpt><trkpt lat="44.5954503" lon="8.9464921"><ele>364.0</ele><time>2026-04-09T13:41:33Z</time></trkpt><trkpt lat="44.5955004" lon="8.9462561"><ele>364.0</ele><time>2026-04-09T13:41:34.139Z</time></trkpt><trkpt lat="44.5955573" lon="8.9460248"><ele>364.0</ele><time>2026-04-09T13:41:35.153Z</time></trkpt><trkpt lat="44.5957033" lon="8.9455464"><ele>364.0</ele><time>2026-04-09T13:41:36.999Z</time></trkpt><trkpt lat="44.5958003" lon="8.9453218"><ele>364.0</ele><time>2026-04-09T13:41:38.168Z</time></trkpt><trkpt lat="44.5960254" lon="8.9449289"><ele>355.5</ele><time>2026-04-09T13:41:40.144Z</time></trkpt><trkpt lat="44.5961581" lon="8.9447487"><ele>347.0</ele><time>2026-04-09T13:41:41.153Z</time></trkpt><trkpt lat="44.596432" lon="8.9444074"><ele>355.0</ele><time>2026-04-09T13:41:43Z</time></trkpt><trkpt lat="44.5965558" lon="8.944175"><ele>363.0</ele><time>2026-04-09T13:41:44.124Z</time></trkpt><trkpt lat="44.596659" lon="8.9439568"><ele>371.0</ele><time>2026-04-09T13:41:45.119Z</time></trkpt><trkpt lat="44.5967176" lon="8.9437328"><ele>365.5</ele><time>2026-04-09T13:41:46.139Z</time></trkpt><trkpt lat="44.5967432" lon="8.943245"><ele>360.0</ele><time>2026-04-09T13:41:48Z</time></trkpt><trkpt lat="44.5967341" lon="8.9430106"><ele>360.0</ele><time>2026-04-09T13:41:48.999Z</time></trkpt><trkpt lat="44.5967178" lon="8.942774"><ele>360.0</ele><time>2026-04-09T13:41:49.999Z</time></trkpt><trkpt lat="44.5967163" lon="8.9425521"><ele>360.0</ele><time>2026-04-09T13:41:51Z</time></trkpt><trkpt lat="44.5967206" lon="8.9423171"><ele>358.3333333333333</ele><time>2026-04-09T13:41:52Z</time></trkpt><trkpt lat="44.5967335" lon="8.9420997"><ele>356.66666666666663</ele><time>2026-04-09T13:41:52.999Z</time></trkpt><trkpt lat="44.5967374" lon="8.9418855"><ele>355.0</ele><time>2026-04-09T13:41:54.162Z</time></trkpt><trkpt lat="44.5967228" lon="8.9416688"><ele>355.0</ele><time>2026-04-09T13:41:55.157Z</time></trkpt><trkpt lat="44.5966849" lon="8.9414602"><ele>355.0</ele><time>2026-04-09T13:41:56.154Z</time></trkpt><trkpt lat="44.5965303" lon="8.9411017"><ele>355.0</ele><time>2026-04-09T13:41:58Z</time></trkpt><trkpt lat="44.5964187" lon="8.9409454"><ele>355.0</ele><time>2026-04-09T13:41:59.156Z</time></trkpt><trkpt lat="44.5961648" lon="8.9406801"><ele>351.5</ele><time>2026-04-09T13:42:01.134Z</time></trkpt><trkpt lat="44.5958912" lon="8.9404656"><ele>348.0</ele><time>2026-04-09T13:42:02.999Z</time></trkpt><trkpt lat="44.5957366" lon="8.9403632"><ele>348.0</ele><time>2026-04-09T13:42:04.176Z</time></trkpt><trkpt lat="44.5954211" lon="8.9401993"><ele>348.0</ele><time>2026-04-09T13:42:06.168Z</time></trkpt><trkpt lat="44.5952642" lon="8.9401203"><ele>348.3333333333333</ele><time>2026-04-09T13:42:07Z</time></trkpt><trkpt lat="44.5951077" lon="8.940037"><ele>348.66666666666663</ele><time>2026-04-09T13:42:07.999Z</time></trkpt><trkpt lat="44.5949572" lon="8.9399592"><ele>349.0</ele><time>2026-04-09T13:42:09Z</time></trkpt><trkpt lat="44.5948118" lon="8.9398911"><ele>349.0</ele><time>2026-04-09T13:42:09.999Z</time></trkpt><trkpt lat="44.5946723" lon="8.9398179"><ele>349.0</ele><time>2026-04-09T13:42:11Z</time></trkpt><trkpt lat="44.5945408" lon="8.9397463"><ele>349.0</ele><time>2026-04-09T13:42:11.999Z</time></trkpt><trkpt lat="44.5944147" lon="8.939681"><ele>349.0</ele><time>2026-04-09T13:42:13Z</time></trkpt><trkpt lat="44.5942983" lon="8.9396126"><ele>348.5</ele><time>2026-04-09T13:42:13.999Z</time></trkpt><trkpt lat="44.5941851" lon="8.9395469"><ele>348.0</ele><time>2026-04-09T13:42:15Z</time></trkpt><trkpt lat="44.5940725" lon="8.9394871"><ele>347.5</ele><time>2026-04-09T13:42:16Z</time></trkpt><trkpt lat="44.5939655" lon="8.9394328"><ele>347.0</ele><time>2026-04-09T13:42:17Z</time></trkpt><trkpt lat="44.5938595" lon="8.9393699"><ele>347.0</ele><time>2026-04-09T13:42:18.137Z</time></trkpt><trkpt lat="44.5937579" lon="8.9393121"><ele>347.0</ele><time>2026-04-09T13:42:19.161Z</time></trkpt><trkpt lat="44.5936721" lon="8.9392639"><ele>347.0</ele><time>2026-04-09T13:42:20.134Z</time></trkpt><trkpt lat="44.5935809" lon="8.9392084"><ele>347.0</ele><time>2026-04-09T13:42:21.13Z</time></trkpt><trkpt lat="44.5934137" lon="8.9391164"><ele>347.6</ele><time>2026-04-09T13:42:23Z</time></trkpt><trkpt lat="44.5933429" lon="8.9390678"><ele>348.20000000000005</ele><time>2026-04-09T13:42:24.101Z</time></trkpt><trkpt lat="44.5932711" lon="8.9390262"><ele>348.8</ele><time>2026-04-09T13:42:25.128Z</time></trkpt><trkpt lat="44.5932077" lon="8.9389883"><ele>349.4</ele><time>2026-04-09T13:42:26.143Z</time></trkpt><trkpt lat="44.5930845" lon="8.9389165"><ele>350.0</ele><time>2026-04-09T13:42:28Z</time></trkpt><trkpt lat="44.5929841" lon="8.9388638"><ele>350.0</ele><time>2026-04-09T13:42:30.116Z</time></trkpt><trkpt lat="44.5928743" lon="8.9388143"><ele>350.0</ele><time>2026-04-09T13:42:32.999Z</time></trkpt><trkpt lat="44.5927799" lon="8.938762"><ele>350.0</ele><time>2026-04-09T13:42:35Z</time></trkpt><trkpt lat="44.5927073" lon="8.9387228"><ele>350.0</ele><time>2026-04-09T13:42:36Z</time></trkpt><trkpt lat="44.5926264" lon="8.9386821"><ele>350.0</ele><time>2026-04-09T13:42:36.999Z</time></trkpt><trkpt lat="44.5925525" lon="8.9386401"><ele>349.0</ele><time>2026-04-09T13:42:37.999Z</time></trkpt><trkpt lat="44.5924723" lon="8.9385987"><ele>348.0</ele><time>2026-04-09T13:42:39.161Z</time></trkpt><trkpt lat="44.5923103" lon="8.9385148"><ele>347.0</ele><time>2026-04-09T13:42:40.999Z</time></trkpt><trkpt lat="44.5922176" lon="8.9384613"><ele>346.0</ele><time>2026-04-09T13:42:41.999Z</time></trkpt><trkpt lat="44.5921194" lon="8.9384125"><ele>347.4</ele><time>2026-04-09T13:42:42.999Z</time></trkpt><trkpt lat="44.5920155" lon="8.938357"><ele>348.8</ele><time>2026-04-09T13:42:43.999Z</time></trkpt><trkpt lat="44.5919142" lon="8.9382999"><ele>350.2</ele><time>2026-04-09T13:42:44.999Z</time></trkpt><trkpt lat="44.5918144" lon="8.938233"><ele>351.59999999999997</ele><time>2026-04-09T13:42:45.999Z</time></trkpt><trkpt lat="44.5917174" lon="8.9381665"><ele>353.0</ele><time>2026-04-09T13:42:46.999Z</time></trkpt><trkpt lat="44.5916152" lon="8.9380969"><ele>353.0</ele><time>2026-04-09T13:42:48Z</time></trkpt><trkpt lat="44.5915115" lon="8.9380345"><ele>353.0</ele><time>2026-04-09T13:42:48.999Z</time></trkpt><trkpt lat="44.5914128" lon="8.9379646"><ele>353.0</ele><time>2026-04-09T13:42:50Z</time></trkpt><trkpt lat="44.5913073" lon="8.9379085"><ele>353.0</ele><time>2026-04-09T13:42:50.999Z</time></trkpt><trkpt lat="44.5912135" lon="8.9378539"><ele>353.0</ele><time>2026-04-09T13:42:52Z</time></trkpt><trkpt lat="44.591115" lon="8.9377945"><ele>352.75</ele><time>2026-04-09T13:42:52.999Z</time></trkpt><trkpt lat="44.5910137" lon="8.9377249"><ele>352.5</ele><time>2026-04-09T13:42:54Z</time></trkpt><trkpt lat="44.5909071" lon="8.9376665"><ele>352.25</ele><time>2026-04-09T13:42:54.999Z</time></trkpt><trkpt lat="44.59081" lon="8.9376083"><ele>352.0</ele><time>2026-04-09T13:42:55.999Z</time></trkpt><trkpt lat="44.5907019" lon="8.9375454"><ele>352.75</ele><time>2026-04-09T13:42:57Z</time></trkpt><trkpt lat="44.5905911" lon="8.9374862"><ele>353.5</ele><time>2026-04-09T13:42:57.999Z</time></trkpt><trkpt lat="44.5904807" lon="8.9374341"><ele>354.25</ele><time>2026-04-09T13:42:59Z</time></trkpt><trkpt lat="44.5903643" lon="8.9373767"><ele>355.0</ele><time>2026-04-09T13:42:59.999Z</time></trkpt><trkpt lat="44.5902406" lon="8.9373422"><ele>355.0</ele><time>2026-04-09T13:43:01Z</time></trkpt><trkpt lat="44.5901246" lon="8.9373105"><ele>355.0</ele><time>2026-04-09T13:43:01.999Z</time></trkpt><trkpt lat="44.5900052" lon="8.9372988"><ele>355.0</ele><time>2026-04-09T13:43:02.999Z</time></trkpt><trkpt lat="44.5898951" lon="8.9372947"><ele>355.0</ele><time>2026-04-09T13:43:03.999Z</time></trkpt><trkpt lat="44.5897842" lon="8.9373062"><ele>355.0</ele><time>2026-04-09T13:43:04.999Z</time></trkpt><trkpt lat="44.5896777" lon="8.9373212"><ele>355.0</ele><time>2026-04-09T13:43:06Z</time></trkpt><trkpt lat="44.5895648" lon="8.9373452"><ele>355.0</ele><time>2026-04-09T13:43:06.999Z</time></trkpt><trkpt lat="44.5894501" lon="8.9373698"><ele>355.0</ele><time>2026-04-09T13:43:08Z</time></trkpt><trkpt lat="44.5893314" lon="8.9373977"><ele>354.75</ele><time>2026-04-09T13:43:08.999Z</time></trkpt><trkpt lat="44.5892157" lon="8.9374211"><ele>354.5</ele><time>2026-04-09T13:43:10Z</time></trkpt><trkpt lat="44.5890959" lon="8.9374475"><ele>354.25</ele><time>2026-04-09T13:43:11Z</time></trkpt><trkpt lat="44.5889728" lon="8.9374811"><ele>354.0</ele><time>2026-04-09T13:43:11.999Z</time></trkpt><trkpt lat="44.5888521" lon="8.9375078"><ele>354.0</ele><time>2026-04-09T13:43:13Z</time></trkpt><trkpt lat="44.5887295" lon="8.9375252"><ele>354.0</ele><time>2026-04-09T13:43:13.999Z</time></trkpt><trkpt lat="44.5886058" lon="8.9375506"><ele>354.0</ele><time>2026-04-09T13:43:14.999Z</time></trkpt><trkpt lat="44.5884775" lon="8.9375784"><ele>354.0</ele><time>2026-04-09T13:43:16Z</time></trkpt><trkpt lat="44.5883461" lon="8.9376001"><ele>353.75</ele><time>2026-04-09T13:43:17Z</time></trkpt><trkpt lat="44.5882225" lon="8.9376264"><ele>353.5</ele><time>2026-04-09T13:43:18Z</time></trkpt><trkpt lat="44.5881021" lon="8.9376568"><ele>353.25</ele><time>2026-04-09T13:43:19Z</time></trkpt><trkpt lat="44.5879887" lon="8.9376755"><ele>353.0</ele><time>2026-04-09T13:43:19.999Z</time></trkpt><trkpt lat="44.5878766" lon="8.9377118"><ele>353.25</ele><time>2026-04-09T13:43:20.999Z</time></trkpt><trkpt lat="44.5877636" lon="8.9377472"><ele>353.5</ele><time>2026-04-09T13:43:21.999Z</time></trkpt><trkpt lat="44.5876489" lon="8.9377814"><ele>353.75</ele><time>2026-04-09T13:43:23Z</time></trkpt><trkpt lat="44.587529" lon="8.9378151"><ele>354.0</ele><time>2026-04-09T13:43:23.999Z</time></trkpt><trkpt lat="44.5874161" lon="8.9378418"><ele>354.0</ele><time>2026-04-09T13:43:25Z</time></trkpt><trkpt lat="44.5873023" lon="8.9378631"><ele>354.0</ele><time>2026-04-09T13:43:25.999Z</time></trkpt><trkpt lat="44.58719" lon="8.9378767"><ele>354.0</ele><time>2026-04-09T13:43:27Z</time></trkpt><trkpt lat="44.5870822" lon="8.9379091"><ele>354.0</ele><time>2026-04-09T13:43:28Z</time></trkpt><trkpt lat="44.5869711" lon="8.9379297"><ele>354.25</ele><time>2026-04-09T13:43:28.999Z</time></trkpt><trkpt lat="44.5868659" lon="8.9379549"><ele>354.5</ele><time>2026-04-09T13:43:29.999Z</time></trkpt><trkpt lat="44.5867624" lon="8.9379735"><ele>354.75</ele><time>2026-04-09T13:43:31.16Z</time></trkpt><trkpt lat="44.5865752" lon="8.9380142"><ele>355.0</ele><time>2026-04-09T13:43:33Z</time></trkpt><trkpt lat="44.5864911" lon="8.9380398"><ele>355.0</ele><time>2026-04-09T13:43:34Z</time></trkpt><trkpt lat="44.5864139" lon="8.9380636"><ele>355.0</ele><time>2026-04-09T13:43:35Z</time></trkpt><trkpt lat="44.5863035" lon="8.9380947"><ele>355.0</ele><time>2026-04-09T13:43:36.999Z</time></trkpt><trkpt lat="44.5862268" lon="8.9381089"><ele>355.0</ele><time>2026-04-09T13:43:38.999Z</time></trkpt><trkpt lat="44.5861405" lon="8.9381115"><ele>355.0</ele><time>2026-04-09T13:43:40.999Z</time></trkpt><trkpt lat="44.5860731" lon="8.9381088"><ele>355.0</ele><time>2026-04-09T13:43:48.999Z</time></trkpt><trkpt lat="44.5859339" lon="8.9381458"><ele>355.6</ele><time>2026-04-09T13:43:51.999Z</time></trkpt><trkpt lat="44.5857984" lon="8.9381612"><ele>356.2</ele><time>2026-04-09T13:43:54Z</time></trkpt><trkpt lat="44.5857257" lon="8.9381804"><ele>356.79999999999995</ele><time>2026-04-09T13:43:54.999Z</time></trkpt><trkpt lat="44.5856445" lon="8.9381994"><ele>357.4</ele><time>2026-04-09T13:43:55.999Z</time></trkpt><trkpt lat="44.5855489" lon="8.9382425"><ele>358.0</ele><time>2026-04-09T13:43:56.999Z</time></trkpt><trkpt lat="44.5854543" lon="8.9382535"><ele>359.3333333333333</ele><time>2026-04-09T13:43:58.143Z</time></trkpt><trkpt lat="44.5852402" lon="8.9383046"><ele>360.6666666666667</ele><time>2026-04-09T13:44:00.119Z</time></trkpt><trkpt lat="44.5851298" lon="8.9383313"><ele>362.0</ele><time>2026-04-09T13:44:01.152Z</time></trkpt><trkpt lat="44.5849125" lon="8.9383784"><ele>360.25</ele><time>2026-04-09T13:44:02.999Z</time></trkpt><trkpt lat="44.5847978" lon="8.9384081"><ele>358.5</ele><time>2026-04-09T13:44:04.117Z</time></trkpt><trkpt lat="44.5846859" lon="8.9384357"><ele>356.75</ele><time>2026-04-09T13:44:05.115Z</time></trkpt><trkpt lat="44.5845633" lon="8.9384599"><ele>355.0</ele><time>2026-04-09T13:44:06.146Z</time></trkpt><trkpt lat="44.5843213" lon="8.9385182"><ele>355.0</ele><time>2026-04-09T13:44:08Z</time></trkpt><trkpt lat="44.584195" lon="8.938553"><ele>355.0</ele><time>2026-04-09T13:44:09.154Z</time></trkpt><trkpt lat="44.58405" lon="8.9385839"><ele>355.0</ele><time>2026-04-09T13:44:10.145Z</time></trkpt><trkpt lat="44.5839033" lon="8.9386176"><ele>355.0</ele><time>2026-04-09T13:44:11.152Z</time></trkpt><trkpt lat="44.583605" lon="8.9386842"><ele>355.3333333333333</ele><time>2026-04-09T13:44:13Z</time></trkpt><trkpt lat="44.58346" lon="8.9387121"><ele>355.6666666666667</ele><time>2026-04-09T13:44:14.153Z</time></trkpt><trkpt lat="44.5831628" lon="8.9387759"><ele>356.0</ele><time>2026-04-09T13:44:16.14Z</time></trkpt><trkpt lat="44.582845" lon="8.9388485"><ele>356.6666666666667</ele><time>2026-04-09T13:44:17.999Z</time></trkpt><trkpt lat="44.5826835" lon="8.9388782"><ele>357.3333333333333</ele><time>2026-04-09T13:44:19.119Z</time></trkpt><trkpt lat="44.5825155" lon="8.938903"><ele>358.0</ele><time>2026-04-09T13:44:20.151Z</time></trkpt><trkpt lat="44.582341" lon="8.9389273"><ele>358.0</ele><time>2026-04-09T13:44:21.14Z</time></trkpt><trkpt lat="44.5820053" lon="8.9389662"><ele>358.0</ele><time>2026-04-09T13:44:22.999Z</time></trkpt><trkpt lat="44.5818353" lon="8.9389815"><ele>358.0</ele><time>2026-04-09T13:44:23.999Z</time></trkpt><trkpt lat="44.5816655" lon="8.9389807"><ele>358.0</ele><time>2026-04-09T13:44:25.141Z</time></trkpt><trkpt lat="44.5814954" lon="8.938969"><ele>358.0</ele><time>2026-04-09T13:44:26.162Z</time></trkpt><trkpt lat="44.5811621" lon="8.938951"><ele>359.5</ele><time>2026-04-09T13:44:27.999Z</time></trkpt><trkpt lat="44.5810044" lon="8.9389613"><ele>361.0</ele><time>2026-04-09T13:44:29.128Z</time></trkpt><trkpt lat="44.5806934" lon="8.9390508"><ele>361.0</ele><time>2026-04-09T13:44:30.999Z</time></trkpt><trkpt lat="44.5805412" lon="8.939118"><ele>361.0</ele><time>2026-04-09T13:44:31.999Z</time></trkpt><trkpt lat="44.5803954" lon="8.9392037"><ele>361.0</ele><time>2026-04-09T13:44:33Z</time></trkpt><trkpt lat="44.5802548" lon="8.9392943"><ele>359.3333333333333</ele><time>2026-04-09T13:44:34.128Z</time></trkpt><trkpt lat="44.580111" lon="8.939393"><ele>357.6666666666667</ele><time>2026-04-09T13:44:35.109Z</time></trkpt><trkpt lat="44.5799653" lon="8.9394923"><ele>356.0</ele><time>2026-04-09T13:44:36.156Z</time></trkpt><trkpt lat="44.5796738" lon="8.9396987"><ele>356.0</ele><time>2026-04-09T13:44:37.999Z</time></trkpt><trkpt lat="44.5795326" lon="8.9398025"><ele>356.0</ele><time>2026-04-09T13:44:39.18Z</time></trkpt><trkpt lat="44.5793931" lon="8.9399028"><ele>356.0</ele><time>2026-04-09T13:44:40.131Z</time></trkpt><trkpt lat="44.5791069" lon="8.9401055"><ele>355.0</ele><time>2026-04-09T13:44:41.999Z</time></trkpt><trkpt lat="44.5789628" lon="8.9402082"><ele>354.0</ele><time>2026-04-09T13:44:42.999Z</time></trkpt><trkpt lat="44.5788177" lon="8.9403139"><ele>353.0</ele><time>2026-04-09T13:44:44.177Z</time></trkpt><trkpt lat="44.578674" lon="8.9404169"><ele>356.5</ele><time>2026-04-09T13:44:45.103Z</time></trkpt><trkpt lat="44.5785296" lon="8.9405175"><ele>360.0</ele><time>2026-04-09T13:44:46.106Z</time></trkpt><trkpt lat="44.5782359" lon="8.94072"><ele>360.0</ele><time>2026-04-09T13:44:48Z</time></trkpt><trkpt lat="44.5780999" lon="8.9408211"><ele>360.0</ele><time>2026-04-09T13:44:49.106Z</time></trkpt><trkpt lat="44.5779668" lon="8.9409137"><ele>360.0</ele><time>2026-04-09T13:44:50.124Z</time></trkpt><trkpt lat="44.5778411" lon="8.9410002"><ele>360.0</ele><time>2026-04-09T13:44:51.106Z</time></trkpt><trkpt lat="44.5775987" lon="8.9411621"><ele>359.5</ele><time>2026-04-09T13:44:53Z</time></trkpt><trkpt lat="44.5774824" lon="8.941243"><ele>359.0</ele><time>2026-04-09T13:44:54.102Z</time></trkpt><trkpt lat="44.5773686" lon="8.941327"><ele>358.5</ele><time>2026-04-09T13:44:55.13Z</time></trkpt><trkpt lat="44.5772548" lon="8.9414078"><ele>358.0</ele><time>2026-04-09T13:44:56.152Z</time></trkpt><trkpt lat="44.5770385" lon="8.9415709"><ele>358.66666666666663</ele><time>2026-04-09T13:44:57.999Z</time></trkpt><trkpt lat="44.5769325" lon="8.9416712"><ele>359.3333333333333</ele><time>2026-04-09T13:44:59.131Z</time></trkpt><trkpt lat="44.5768398" lon="8.9417774"><ele>360.0</ele><time>2026-04-09T13:45:00.127Z</time></trkpt><trkpt lat="44.5766586" lon="8.9420313"><ele>360.0</ele><time>2026-04-09T13:45:01.999Z</time></trkpt><trkpt lat="44.5765778" lon="8.9421666"><ele>360.0</ele><time>2026-04-09T13:45:02.999Z</time></trkpt><trkpt lat="44.5764973" lon="8.9422977"><ele>360.0</ele><time>2026-04-09T13:45:03.999Z</time></trkpt><trkpt lat="44.5764171" lon="8.9424255"><ele>360.0</ele><time>2026-04-09T13:45:04.999Z</time></trkpt><trkpt lat="44.5763327" lon="8.942544"><ele>360.75</ele><time>2026-04-09T13:45:06.12Z</time></trkpt><trkpt lat="44.5761504" lon="8.9427283"><ele>361.5</ele><time>2026-04-09T13:45:07.999Z</time></trkpt><trkpt lat="44.5760565" lon="8.9428065"><ele>362.25</ele><time>2026-04-09T13:45:09.121Z</time></trkpt><trkpt lat="44.5759532" lon="8.9428761"><ele>363.0</ele><time>2026-04-09T13:45:10.139Z</time></trkpt><trkpt lat="44.5758459" lon="8.9429382"><ele>363.0</ele><time>2026-04-09T13:45:11.15Z</time></trkpt><trkpt lat="44.5757471" lon="8.9429846"><ele>363.0</ele><time>2026-04-09T13:45:11.999Z</time></trkpt><trkpt lat="44.5756454" lon="8.9430299"><ele>363.0</ele><time>2026-04-09T13:45:13Z</time></trkpt><trkpt lat="44.5755458" lon="8.9430837"><ele>363.0</ele><time>2026-04-09T13:45:14.141Z</time></trkpt><trkpt lat="44.5754539" lon="8.9431336"><ele>363.0</ele><time>2026-04-09T13:45:15.16Z</time></trkpt><trkpt lat="44.5753532" lon="8.9431895"><ele>363.5</ele><time>2026-04-09T13:45:16.161Z</time></trkpt><trkpt lat="44.5751729" lon="8.9432729"><ele>364.0</ele><time>2026-04-09T13:45:18Z</time></trkpt><trkpt lat="44.575075" lon="8.9433278"><ele>364.5</ele><time>2026-04-09T13:45:18.999Z</time></trkpt><trkpt lat="44.5749725" lon="8.9433904"><ele>365.0</ele><time>2026-04-09T13:45:19.999Z</time></trkpt><trkpt lat="44.5748763" lon="8.9434423"><ele>365.2</ele><time>2026-04-09T13:45:21Z</time></trkpt><trkpt lat="44.5747758" lon="8.943487"><ele>365.4</ele><time>2026-04-09T13:45:22Z</time></trkpt><trkpt lat="44.5746748" lon="8.9435385"><ele>365.6</ele><time>2026-04-09T13:45:23Z</time></trkpt><trkpt lat="44.5745756" lon="8.9435914"><ele>365.8</ele><time>2026-04-09T13:45:24.158Z</time></trkpt><trkpt lat="44.5744746" lon="8.9436399"><ele>366.0</ele><time>2026-04-09T13:45:25.142Z</time></trkpt><trkpt lat="44.5743692" lon="8.9436924"><ele>366.0</ele><time>2026-04-09T13:45:26.143Z</time></trkpt><trkpt lat="44.5741636" lon="8.9438001"><ele>366.0</ele><time>2026-04-09T13:45:28Z</time></trkpt><trkpt lat="44.5740529" lon="8.9438481"><ele>366.0</ele><time>2026-04-09T13:45:29.154Z</time></trkpt><trkpt lat="44.5739583" lon="8.9439031"><ele>366.0</ele><time>2026-04-09T13:45:30.132Z</time></trkpt><trkpt lat="44.5738604" lon="8.9439554"><ele>366.0</ele><time>2026-04-09T13:45:31.14Z</time></trkpt><trkpt lat="44.5737477" lon="8.9440045"><ele>366.0</ele><time>2026-04-09T13:45:32Z</time></trkpt><trkpt lat="44.573651" lon="8.9440567"><ele>366.0</ele><time>2026-04-09T13:45:33Z</time></trkpt><trkpt lat="44.5735555" lon="8.9440946"><ele>366.0</ele><time>2026-04-09T13:45:34.158Z</time></trkpt><trkpt lat="44.5733969" lon="8.9441856"><ele>364.6</ele><time>2026-04-09T13:45:36.14Z</time></trkpt><trkpt lat="44.5732721" lon="8.944246"><ele>363.20000000000005</ele><time>2026-04-09T13:45:38Z</time></trkpt><trkpt lat="44.5732069" lon="8.944278"><ele>361.79999999999995</ele><time>2026-04-09T13:45:38.999Z</time></trkpt><trkpt lat="44.5731385" lon="8.9443177"><ele>360.4</ele><time>2026-04-09T13:45:40Z</time></trkpt><trkpt lat="44.573062" lon="8.9443541"><ele>359.0</ele><time>2026-04-09T13:45:41.112Z</time></trkpt><trkpt lat="44.572908" lon="8.9444199"><ele>359.75</ele><time>2026-04-09T13:45:42.999Z</time></trkpt><trkpt lat="44.5728281" lon="8.9444572"><ele>360.5</ele><time>2026-04-09T13:45:44.16Z</time></trkpt><trkpt lat="44.5727486" lon="8.9445068"><ele>361.25</ele><time>2026-04-09T13:45:45.127Z</time></trkpt><trkpt lat="44.5726689" lon="8.9445519"><ele>362.0</ele><time>2026-04-09T13:45:46.123Z</time></trkpt><trkpt lat="44.5724861" lon="8.9446482"><ele>362.0</ele><time>2026-04-09T13:45:48Z</time></trkpt><trkpt lat="44.5723901" lon="8.9446972"><ele>362.0</ele><time>2026-04-09T13:45:49.129Z</time></trkpt><trkpt lat="44.5722951" lon="8.9447495"><ele>362.0</ele><time>2026-04-09T13:45:50.113Z</time></trkpt><trkpt lat="44.5722003" lon="8.9447979"><ele>362.0</ele><time>2026-04-09T13:45:51.14Z</time></trkpt><trkpt lat="44.5720223" lon="8.9448922"><ele>363.0</ele><time>2026-04-09T13:45:53Z</time></trkpt><trkpt lat="44.571926" lon="8.9449461"><ele>364.0</ele><time>2026-04-09T13:45:54.15Z</time></trkpt><trkpt lat="44.5718234" lon="8.9449968"><ele>365.0</ele><time>2026-04-09T13:45:55.128Z</time></trkpt><trkpt lat="44.5717193" lon="8.9450495"><ele>366.0</ele><time>2026-04-09T13:45:56.156Z</time></trkpt><trkpt lat="44.5715102" lon="8.945153"><ele>366.8333333333333</ele><time>2026-04-09T13:45:57.999Z</time></trkpt><trkpt lat="44.5714108" lon="8.945206"><ele>367.6666666666667</ele><time>2026-04-09T13:45:59.152Z</time></trkpt><trkpt lat="44.5713421" lon="8.9452409"><ele>368.5</ele><time>2026-04-09T13:46:00.147Z</time></trkpt><trkpt lat="44.5712724" lon="8.945274"><ele>369.33333333333337</ele><time>2026-04-09T13:46:01.119Z</time></trkpt><trkpt lat="44.571208" lon="8.9453204"><ele>370.1666666666667</ele><time>2026-04-09T13:46:01.999Z</time></trkpt><trkpt lat="44.5711258" lon="8.9453755"><ele>371.0</ele><time>2026-04-09T13:46:04.15Z</time></trkpt><trkpt lat="44.5710406" lon="8.9454278"><ele>371.4</ele><time>2026-04-09T13:46:06.154Z</time></trkpt><trkpt lat="44.5709262" lon="8.9454894"><ele>371.8</ele><time>2026-04-09T13:46:08Z</time></trkpt><trkpt lat="44.5708255" lon="8.9455313"><ele>372.2</ele><time>2026-04-09T13:46:10.135Z</time></trkpt><trkpt lat="44.5707135" lon="8.9455916"><ele>372.59999999999997</ele><time>2026-04-09T13:46:12.999Z</time></trkpt><trkpt lat="44.5706469" lon="8.9456242"><ele>373.0</ele><time>2026-04-09T13:46:16Z</time></trkpt><trkpt lat="44.5705803" lon="8.9456368"><ele>373.0</ele><time>2026-04-09T13:46:19.999Z</time></trkpt><trkpt lat="44.5705087" lon="8.9456832"><ele>373.0</ele><time>2026-04-09T13:46:23Z</time></trkpt><trkpt lat="44.5703952" lon="8.9457682"><ele>373.0</ele><time>2026-04-09T13:46:24.999Z</time></trkpt><trkpt lat="44.5703076" lon="8.9457919"><ele>373.0</ele><time>2026-04-09T13:46:25.999Z</time></trkpt><trkpt lat="44.5702251" lon="8.9458318"><ele>373.0</ele><time>2026-04-09T13:46:27Z</time></trkpt><trkpt lat="44.5701512" lon="8.9458723"><ele>372.2</ele><time>2026-04-09T13:46:28Z</time></trkpt><trkpt lat="44.5700639" lon="8.945907"><ele>371.4</ele><time>2026-04-09T13:46:28.999Z</time></trkpt><trkpt lat="44.5699617" lon="8.9459081"><ele>370.59999999999997</ele><time>2026-04-09T13:46:30Z</time></trkpt><trkpt lat="44.5698526" lon="8.9459706"><ele>369.79999999999995</ele><time>2026-04-09T13:46:30.999Z</time></trkpt><trkpt lat="44.5697538" lon="8.9460316"><ele>369.0</ele><time>2026-04-09T13:46:31.999Z</time></trkpt><trkpt lat="44.5696497" lon="8.9460615"><ele>369.0</ele><time>2026-04-09T13:46:33Z</time></trkpt><trkpt lat="44.5695564" lon="8.9460737"><ele>369.0</ele><time>2026-04-09T13:46:33.999Z</time></trkpt><trkpt lat="44.5694568" lon="8.9460835"><ele>369.0</ele><time>2026-04-09T13:46:35Z</time></trkpt><trkpt lat="44.5693519" lon="8.9460813"><ele>369.0</ele><time>2026-04-09T13:46:35.999Z</time></trkpt><trkpt lat="44.5692513" lon="8.946087"><ele>369.0</ele><time>2026-04-09T13:46:36.999Z</time></trkpt><trkpt lat="44.5691375" lon="8.946096"><ele>368.79999999999995</ele><time>2026-04-09T13:46:37.999Z</time></trkpt><trkpt lat="44.5690287" lon="8.9461087"><ele>368.59999999999997</ele><time>2026-04-09T13:46:39Z</time></trkpt><trkpt lat="44.5689281" lon="8.9461179"><ele>368.4</ele><time>2026-04-09T13:46:39.999Z</time></trkpt><trkpt lat="44.568825" lon="8.9461242"><ele>368.2</ele><time>2026-04-09T13:46:40.999Z</time></trkpt><trkpt lat="44.5687052" lon="8.9461332"><ele>368.0</ele><time>2026-04-09T13:46:41.999Z</time></trkpt><trkpt lat="44.5685992" lon="8.9461125"><ele>370.0</ele><time>2026-04-09T13:46:42.999Z</time></trkpt><trkpt lat="44.5684829" lon="8.9461158"><ele>372.0</ele><time>2026-04-09T13:46:43.999Z</time></trkpt><trkpt lat="44.5683734" lon="8.9460946"><ele>374.0</ele><time>2026-04-09T13:46:45.112Z</time></trkpt><trkpt lat="44.5681633" lon="8.9459887"><ele>374.0</ele><time>2026-04-09T13:46:47Z</time></trkpt><trkpt lat="44.5680531" lon="8.9459205"><ele>374.0</ele><time>2026-04-09T13:46:48Z</time></trkpt><trkpt lat="44.5679373" lon="8.9458298"><ele>374.0</ele><time>2026-04-09T13:46:48.999Z</time></trkpt><trkpt lat="44.567824" lon="8.9457507"><ele>374.0</ele><time>2026-04-09T13:46:49.999Z</time></trkpt><trkpt lat="44.5677093" lon="8.9456731"><ele>374.75</ele><time>2026-04-09T13:46:50.999Z</time></trkpt><trkpt lat="44.5676086" lon="8.9455971"><ele>375.5</ele><time>2026-04-09T13:46:52Z</time></trkpt><trkpt lat="44.5674979" lon="8.9455257"><ele>376.25</ele><time>2026-04-09T13:46:53Z</time></trkpt><trkpt lat="44.5673978" lon="8.9454557"><ele>377.0</ele><time>2026-04-09T13:46:54Z</time></trkpt><trkpt lat="44.5672921" lon="8.9453785"><ele>377.0</ele><time>2026-04-09T13:46:54.999Z</time></trkpt><trkpt lat="44.5671899" lon="8.9452954"><ele>377.0</ele><time>2026-04-09T13:46:55.999Z</time></trkpt><trkpt lat="44.5670888" lon="8.945227"><ele>377.0</ele><time>2026-04-09T13:46:57Z</time></trkpt><trkpt lat="44.5669843" lon="8.9451556"><ele>377.0</ele><time>2026-04-09T13:46:57.999Z</time></trkpt><trkpt lat="44.5668672" lon="8.9450946"><ele>378.25</ele><time>2026-04-09T13:46:58.999Z</time></trkpt><trkpt lat="44.5667598" lon="8.9450149"><ele>379.5</ele><time>2026-04-09T13:46:59.999Z</time></trkpt><trkpt lat="44.5666502" lon="8.9449304"><ele>380.75</ele><time>2026-04-09T13:47:01Z</time></trkpt><trkpt lat="44.566537" lon="8.9448505"><ele>382.0</ele><time>2026-04-09T13:47:02Z</time></trkpt><trkpt lat="44.5664195" lon="8.9447652"><ele>382.0</ele><time>2026-04-09T13:47:03Z</time></trkpt><trkpt lat="44.5663013" lon="8.9446753"><ele>382.0</ele><time>2026-04-09T13:47:03.999Z</time></trkpt><trkpt lat="44.5661807" lon="8.9445904"><ele>382.0</ele><time>2026-04-09T13:47:05Z</time></trkpt><trkpt lat="44.5660648" lon="8.9445094"><ele>382.0</ele><time>2026-04-09T13:47:05.999Z</time></trkpt><trkpt lat="44.565951" lon="8.9444153"><ele>381.75</ele><time>2026-04-09T13:47:07Z</time></trkpt><trkpt lat="44.5658285" lon="8.9443333"><ele>381.5</ele><time>2026-04-09T13:47:08Z</time></trkpt><trkpt lat="44.5657127" lon="8.9442509"><ele>381.25</ele><time>2026-04-09T13:47:08.999Z</time></trkpt><trkpt lat="44.5655975" lon="8.9441581"><ele>381.0</ele><time>2026-04-09T13:47:09.999Z</time></trkpt><trkpt lat="44.5654826" lon="8.9440807"><ele>381.3333333333333</ele><time>2026-04-09T13:47:11.146Z</time></trkpt><trkpt lat="44.5652447" lon="8.9439103"><ele>381.66666666666663</ele><time>2026-04-09T13:47:12.999Z</time></trkpt><trkpt lat="44.5651204" lon="8.9438321"><ele>382.0</ele><time>2026-04-09T13:47:14.17Z</time></trkpt><trkpt lat="44.5650017" lon="8.943744"><ele>382.0</ele><time>2026-04-09T13:47:15.128Z</time></trkpt><trkpt lat="44.5648974" lon="8.9436602"><ele>382.0</ele><time>2026-04-09T13:47:16.123Z</time></trkpt><trkpt lat="44.564694" lon="8.943485"><ele>382.0</ele><time>2026-04-09T13:47:17.999Z</time></trkpt><trkpt lat="44.5645885" lon="8.9433785"><ele>383.0</ele><time>2026-04-09T13:47:18.999Z</time></trkpt><trkpt lat="44.5644925" lon="8.943259"><ele>384.0</ele><time>2026-04-09T13:47:20Z</time></trkpt><trkpt lat="44.5643953" lon="8.9431454"><ele>385.0</ele><time>2026-04-09T13:47:20.999Z</time></trkpt><trkpt lat="44.5642905" lon="8.9430183"><ele>386.0</ele><time>2026-04-09T13:47:21.999Z</time></trkpt><trkpt lat="44.5641778" lon="8.9428979"><ele>386.0</ele><time>2026-04-09T13:47:23Z</time></trkpt><trkpt lat="44.5640564" lon="8.9427612"><ele>386.0</ele><time>2026-04-09T13:47:24Z</time></trkpt><trkpt lat="44.563938" lon="8.9426255"><ele>386.0</ele><time>2026-04-09T13:47:25Z</time></trkpt><trkpt lat="44.5638153" lon="8.9424834"><ele>391.66666666666663</ele><time>2026-04-09T13:47:25.999Z</time></trkpt><trkpt lat="44.5636901" lon="8.9423343"><ele>397.33333333333337</ele><time>2026-04-09T13:47:27Z</time></trkpt><trkpt lat="44.5635607" lon="8.9421839"><ele>403.0</ele><time>2026-04-09T13:47:27.999Z</time></trkpt><trkpt lat="44.5634311" lon="8.9420247"><ele>403.0</ele><time>2026-04-09T13:47:28.999Z</time></trkpt><trkpt lat="44.5632917" lon="8.9418686"><ele>403.0</ele><time>2026-04-09T13:47:29.999Z</time></trkpt><trkpt lat="44.5631516" lon="8.9417107"><ele>403.0</ele><time>2026-04-09T13:47:31Z</time></trkpt><trkpt lat="44.5630103" lon="8.941544"><ele>402.0</ele><time>2026-04-09T13:47:32Z</time></trkpt><trkpt lat="44.5628732" lon="8.9413819"><ele>401.0</ele><time>2026-04-09T13:47:33Z</time></trkpt><trkpt lat="44.5627365" lon="8.9412201"><ele>400.0</ele><time>2026-04-09T13:47:33.999Z</time></trkpt><trkpt lat="44.562605" lon="8.9410654"><ele>400.6666666666667</ele><time>2026-04-09T13:47:35Z</time></trkpt><trkpt lat="44.5624686" lon="8.9409061"><ele>401.33333333333337</ele><time>2026-04-09T13:47:36Z</time></trkpt><trkpt lat="44.5623222" lon="8.9407719"><ele>402.0</ele><time>2026-04-09T13:47:36.999Z</time></trkpt><trkpt lat="44.5621691" lon="8.9406595"><ele>407.0</ele><time>2026-04-09T13:47:38Z</time></trkpt><trkpt lat="44.5620111" lon="8.9405589"><ele>412.0</ele><time>2026-04-09T13:47:38.999Z</time></trkpt><trkpt lat="44.5618382" lon="8.9404907"><ele>417.0</ele><time>2026-04-09T13:47:40Z</time></trkpt><trkpt lat="44.5616645" lon="8.9404585"><ele>417.0</ele><time>2026-04-09T13:47:41Z</time></trkpt><trkpt lat="44.5614909" lon="8.9404438"><ele>417.0</ele><time>2026-04-09T13:47:41.999Z</time></trkpt><trkpt lat="44.5613217" lon="8.9404313"><ele>417.0</ele><time>2026-04-09T13:47:42.999Z</time></trkpt><trkpt lat="44.5611377" lon="8.9404137"><ele>421.0</ele><time>2026-04-09T13:47:44Z</time></trkpt><trkpt lat="44.5609544" lon="8.9404129"><ele>425.0</ele><time>2026-04-09T13:47:45.1Z</time></trkpt><trkpt lat="44.5607701" lon="8.9403959"><ele>429.0</ele><time>2026-04-09T13:47:46.134Z</time></trkpt><trkpt lat="44.5604017" lon="8.9403807"><ele>432.33333333333337</ele><time>2026-04-09T13:47:47.999Z</time></trkpt><trkpt lat="44.5602247" lon="8.940364"><ele>435.6666666666667</ele><time>2026-04-09T13:47:48.999Z</time></trkpt><trkpt lat="44.5600447" lon="8.9403511"><ele>439.0</ele><time>2026-04-09T13:47:50.137Z</time></trkpt><trkpt lat="44.5598689" lon="8.9403415"><ele>442.5</ele><time>2026-04-09T13:47:51.106Z</time></trkpt><trkpt lat="44.5595333" lon="8.9403324"><ele>446.0</ele><time>2026-04-09T13:47:52.999Z</time></trkpt><trkpt lat="44.5593748" lon="8.9403301"><ele>446.0</ele><time>2026-04-09T13:47:54.126Z</time></trkpt><trkpt lat="44.5592141" lon="8.9403087"><ele>446.0</ele><time>2026-04-09T13:47:55.152Z</time></trkpt><trkpt lat="44.5590621" lon="8.9402631"><ele>446.0</ele><time>2026-04-09T13:47:56.128Z</time></trkpt><trkpt lat="44.5587788" lon="8.9401217"><ele>442.5</ele><time>2026-04-09T13:47:57.999Z</time></trkpt><trkpt lat="44.5586345" lon="8.9400493"><ele>439.0</ele><time>2026-04-09T13:47:58.999Z</time></trkpt><trkpt lat="44.5584917" lon="8.9399984"><ele>435.5</ele><time>2026-04-09T13:48:00.114Z</time></trkpt><trkpt lat="44.5583492" lon="8.9399651"><ele>432.0</ele><time>2026-04-09T13:48:01.133Z</time></trkpt><trkpt lat="44.558057" lon="8.9399612"><ele>432.0</ele><time>2026-04-09T13:48:02.999Z</time></trkpt><trkpt lat="44.5579193" lon="8.9399887"><ele>432.0</ele><time>2026-04-09T13:48:04.115Z</time></trkpt><trkpt lat="44.5577791" lon="8.9400253"><ele>432.0</ele><time>2026-04-09T13:48:05.119Z</time></trkpt><trkpt lat="44.5574877" lon="8.9401123"><ele>439.25</ele><time>2026-04-09T13:48:07Z</time></trkpt><trkpt lat="44.5573422" lon="8.9401523"><ele>446.5</ele><time>2026-04-09T13:48:07.999Z</time></trkpt><trkpt lat="44.5572032" lon="8.9401874"><ele>453.75</ele><time>2026-04-09T13:48:09Z</time></trkpt><trkpt lat="44.5570749" lon="8.9402152"><ele>461.0</ele><time>2026-04-09T13:48:10Z</time></trkpt><trkpt lat="44.5569548" lon="8.9402404"><ele>462.0</ele><time>2026-04-09T13:48:10.999Z</time></trkpt><trkpt lat="44.5568433" lon="8.9402353"><ele>463.0</ele><time>2026-04-09T13:48:12Z</time></trkpt><trkpt lat="44.556742" lon="8.9401723"><ele>464.0</ele><time>2026-04-09T13:48:13.164Z</time></trkpt><trkpt lat="44.5566484" lon="8.9400956"><ele>465.0</ele><time>2026-04-09T13:48:14.141Z</time></trkpt><trkpt lat="44.5565674" lon="8.9399835"><ele>466.0</ele><time>2026-04-09T13:48:15.157Z</time></trkpt><trkpt lat="44.5563686" lon="8.9397744"><ele>467.25</ele><time>2026-04-09T13:48:17Z</time></trkpt><trkpt lat="44.5562589" lon="8.9396775"><ele>468.5</ele><time>2026-04-09T13:48:17.999Z</time></trkpt><trkpt lat="44.5561527" lon="8.9395633"><ele>469.75</ele><time>2026-04-09T13:48:19.101Z</time></trkpt><trkpt lat="44.5560627" lon="8.9394313"><ele>471.0</ele><time>2026-04-09T13:48:20.128Z</time></trkpt><trkpt lat="44.5558506" lon="8.9391832"><ele>466.25</ele><time>2026-04-09T13:48:22Z</time></trkpt><trkpt lat="44.555732" lon="8.9390815"><ele>461.5</ele><time>2026-04-09T13:48:23Z</time></trkpt><trkpt lat="44.5556137" lon="8.9389839"><ele>456.75</ele><time>2026-04-09T13:48:24.114Z</time></trkpt><trkpt lat="44.5554929" lon="8.9388814"><ele>452.0</ele><time>2026-04-09T13:48:25.121Z</time></trkpt><trkpt lat="44.5553723" lon="8.9387623"><ele>460.66666666666663</ele><time>2026-04-09T13:48:26.158Z</time></trkpt><trkpt lat="44.5551101" lon="8.9385689"><ele>469.33333333333337</ele><time>2026-04-09T13:48:28Z</time></trkpt><trkpt lat="44.5549695" lon="8.9385045"><ele>478.0</ele><time>2026-04-09T13:48:28.999Z</time></trkpt><trkpt lat="44.5548298" lon="8.9384443"><ele>478.0</ele><time>2026-04-09T13:48:30.159Z</time></trkpt><trkpt lat="44.5546833" lon="8.9384015"><ele>478.0</ele><time>2026-04-09T13:48:31.159Z</time></trkpt><trkpt lat="44.5543907" lon="8.9382957"><ele>474.33333333333337</ele><time>2026-04-09T13:48:32.999Z</time></trkpt><trkpt lat="44.5542416" lon="8.9382458"><ele>470.66666666666663</ele><time>2026-04-09T13:48:34.165Z</time></trkpt><trkpt lat="44.5540961" lon="8.9381811"><ele>467.0</ele><time>2026-04-09T13:48:35.138Z</time></trkpt><trkpt lat="44.5539558" lon="8.9380886"><ele>473.0</ele><time>2026-04-09T13:48:36.104Z</time></trkpt><trkpt lat="44.5536995" lon="8.9378662"><ele>479.0</ele><time>2026-04-09T13:48:38.178Z</time></trkpt><trkpt lat="44.5535816" lon="8.9377545"><ele>485.0</ele><time>2026-04-09T13:48:39.106Z</time></trkpt><trkpt lat="44.5534667" lon="8.9376466"><ele>480.66666666666663</ele><time>2026-04-09T13:48:40.136Z</time></trkpt><trkpt lat="44.5533577" lon="8.93754"><ele>476.33333333333337</ele><time>2026-04-09T13:48:41.142Z</time></trkpt><trkpt lat="44.553132" lon="8.93737"><ele>472.0</ele><time>2026-04-09T13:48:42.999Z</time></trkpt><trkpt lat="44.5530192" lon="8.9373102"><ele>472.0</ele><time>2026-04-09T13:48:43.999Z</time></trkpt><trkpt lat="44.5529077" lon="8.9372484"><ele>472.0</ele><time>2026-04-09T13:48:45Z</time></trkpt><trkpt lat="44.5527947" lon="8.937193"><ele>472.0</ele><time>2026-04-09T13:48:46.107Z</time></trkpt><trkpt lat="44.5525754" lon="8.9370986"><ele>474.33333333333337</ele><time>2026-04-09T13:48:47.999Z</time></trkpt><trkpt lat="44.5524616" lon="8.9370462"><ele>476.66666666666663</ele><time>2026-04-09T13:48:48.999Z</time></trkpt><trkpt lat="44.5522473" lon="8.9369269"><ele>479.0</ele><time>2026-04-09T13:48:51.131Z</time></trkpt><trkpt lat="44.5520211" lon="8.9367914"><ele>476.75</ele><time>2026-04-09T13:48:52.999Z</time></trkpt><trkpt lat="44.5519163" lon="8.9367374"><ele>474.5</ele><time>2026-04-09T13:48:54.137Z</time></trkpt><trkpt lat="44.5518054" lon="8.9366804"><ele>472.25</ele><time>2026-04-09T13:48:55.117Z</time></trkpt><trkpt lat="44.5516194" lon="8.9365329"><ele>470.0</ele><time>2026-04-09T13:48:56.999Z</time></trkpt><trkpt lat="44.5515411" lon="8.9364352"><ele>470.0</ele><time>2026-04-09T13:48:57.999Z</time></trkpt><trkpt lat="44.5514514" lon="8.9363396"><ele>470.0</ele><time>2026-04-09T13:48:59.107Z</time></trkpt><trkpt lat="44.5513595" lon="8.9362294"><ele>470.0</ele><time>2026-04-09T13:49:00.114Z</time></trkpt><trkpt lat="44.5512704" lon="8.9361059"><ele>470.0</ele><time>2026-04-09T13:49:01.137Z</time></trkpt><trkpt lat="44.5510746" lon="8.9358406"><ele>468.5</ele><time>2026-04-09T13:49:03Z</time></trkpt><trkpt lat="44.5509724" lon="8.9357223"><ele>467.0</ele><time>2026-04-09T13:49:04.119Z</time></trkpt><trkpt lat="44.5508823" lon="8.9355807"><ele>465.5</ele><time>2026-04-09T13:49:05.121Z</time></trkpt><trkpt lat="44.5507972" lon="8.9354627"><ele>464.0</ele><time>2026-04-09T13:49:06.16Z</time></trkpt><trkpt lat="44.5506008" lon="8.9352752"><ele>464.0</ele><time>2026-04-09T13:49:07.999Z</time></trkpt><trkpt lat="44.5504904" lon="8.9352273"><ele>464.0</ele><time>2026-04-09T13:49:08.999Z</time></trkpt><trkpt lat="44.5503709" lon="8.9351933"><ele>464.0</ele><time>2026-04-09T13:49:10.143Z</time></trkpt><trkpt lat="44.5502381" lon="8.9351322"><ele>464.0</ele><time>2026-04-09T13:49:11.118Z</time></trkpt><trkpt lat="44.55" lon="8.9349529"><ele>461.0</ele><time>2026-04-09T13:49:13Z</time></trkpt><trkpt lat="44.5499053" lon="8.9348144"><ele>458.0</ele><time>2026-04-09T13:49:14.117Z</time></trkpt><trkpt lat="44.549825" lon="8.9346893"><ele>455.0</ele><time>2026-04-09T13:49:15.179Z</time></trkpt><trkpt lat="44.5497395" lon="8.9343679"><ele>454.0</ele><time>2026-04-09T13:49:17Z</time></trkpt><trkpt lat="44.5496883" lon="8.9342186"><ele>453.0</ele><time>2026-04-09T13:49:18.168Z</time></trkpt><trkpt lat="44.5496171" lon="8.9340911"><ele>452.0</ele><time>2026-04-09T13:49:19.115Z</time></trkpt><trkpt lat="44.549537" lon="8.933985"><ele>451.0</ele><time>2026-04-09T13:49:20.167Z</time></trkpt><trkpt lat="44.5494547" lon="8.9339492"><ele>450.0</ele><time>2026-04-09T13:49:21.149Z</time></trkpt><trkpt lat="44.5492213" lon="8.9340132"><ele>450.0</ele><time>2026-04-09T13:49:22.999Z</time></trkpt><trkpt lat="44.5490906" lon="8.9340715"><ele>450.0</ele><time>2026-04-09T13:49:24.17Z</time></trkpt><trkpt lat="44.5489632" lon="8.9341325"><ele>450.0</ele><time>2026-04-09T13:49:25.172Z</time></trkpt><trkpt lat="44.5488363" lon="8.9341858"><ele>450.0</ele><time>2026-04-09T13:49:26.155Z</time></trkpt><trkpt lat="44.5485912" lon="8.934212"><ele>448.25</ele><time>2026-04-09T13:49:27.999Z</time></trkpt><trkpt lat="44.5484769" lon="8.9341664"><ele>446.5</ele><time>2026-04-09T13:49:28.999Z</time></trkpt><trkpt lat="44.5483744" lon="8.9340457"><ele>444.75</ele><time>2026-04-09T13:49:30.145Z</time></trkpt><trkpt lat="44.5483034" lon="8.9339094"><ele>443.0</ele><time>2026-04-09T13:49:31.155Z</time></trkpt><trkpt lat="44.5482252" lon="8.9335694"><ele>443.0</ele><time>2026-04-09T13:49:33Z</time></trkpt><trkpt lat="44.5482469" lon="8.9333944"><ele>443.0</ele><time>2026-04-09T13:49:34.118Z</time></trkpt><trkpt lat="44.5482769" lon="8.9332409"><ele>443.0</ele><time>2026-04-09T13:49:35.116Z</time></trkpt><trkpt lat="44.5483386" lon="8.9331008"><ele>443.0</ele><time>2026-04-09T13:49:36.151Z</time></trkpt><trkpt lat="44.5485067" lon="8.9328665"><ele>443.75</ele><time>2026-04-09T13:49:37.999Z</time></trkpt><trkpt lat="44.5486044" lon="8.9327515"><ele>444.5</ele><time>2026-04-09T13:49:39Z</time></trkpt><trkpt lat="44.5486935" lon="8.9326562"><ele>445.25</ele><time>2026-04-09T13:49:40.106Z</time></trkpt><trkpt lat="44.5487841" lon="8.9325653"><ele>446.0</ele><time>2026-04-09T13:49:41.102Z</time></trkpt><trkpt lat="44.5489496" lon="8.9323689"><ele>446.0</ele><time>2026-04-09T13:49:42.999Z</time></trkpt><trkpt lat="44.5490099" lon="8.9322342"><ele>446.0</ele><time>2026-04-09T13:49:44.115Z</time></trkpt><trkpt lat="44.5490408" lon="8.9320847"><ele>446.0</ele><time>2026-04-09T13:49:45.116Z</time></trkpt><trkpt lat="44.5490372" lon="8.9319303"><ele>446.0</ele><time>2026-04-09T13:49:46.144Z</time></trkpt><trkpt lat="44.5489342" lon="8.931691"><ele>446.0</ele><time>2026-04-09T13:49:48Z</time></trkpt><trkpt lat="44.5488653" lon="8.9315669"><ele>446.0</ele><time>2026-04-09T13:49:48.999Z</time></trkpt><trkpt lat="44.5488017" lon="8.9314541"><ele>446.0</ele><time>2026-04-09T13:49:50Z</time></trkpt><trkpt lat="44.5487716" lon="8.9313394"><ele>446.0</ele><time>2026-04-09T13:49:51Z</time></trkpt><trkpt lat="44.5487669" lon="8.9312226"><ele>446.0</ele><time>2026-04-09T13:49:51.999Z</time></trkpt><trkpt lat="44.5487859" lon="8.9311195"><ele>446.0</ele><time>2026-04-09T13:49:53Z</time></trkpt><trkpt lat="44.5488569" lon="8.9310574"><ele>446.0</ele><time>2026-04-09T13:49:54.121Z</time></trkpt><trkpt lat="44.5490336" lon="8.9309856"><ele>446.0</ele><time>2026-04-09T13:49:56.129Z</time></trkpt><trkpt lat="44.5491827" lon="8.9308597"><ele>446.0</ele><time>2026-04-09T13:49:57.999Z</time></trkpt><trkpt lat="44.549224" lon="8.9307383"><ele>444.0</ele><time>2026-04-09T13:49:59.12Z</time></trkpt><trkpt lat="44.5492444" lon="8.9306001"><ele>442.0</ele><time>2026-04-09T13:50:00.144Z</time></trkpt><trkpt lat="44.549242" lon="8.9304556"><ele>440.0</ele><time>2026-04-09T13:50:01.118Z</time></trkpt><trkpt lat="44.5492419" lon="8.9301469"><ele>438.0</ele><time>2026-04-09T13:50:02.999Z</time></trkpt><trkpt lat="44.5492568" lon="8.9299987"><ele>434.0</ele><time>2026-04-09T13:50:04.155Z</time></trkpt><trkpt lat="44.5492794" lon="8.9298469"><ele>430.0</ele><time>2026-04-09T13:50:05.136Z</time></trkpt><trkpt lat="44.5493195" lon="8.9297003"><ele>426.0</ele><time>2026-04-09T13:50:06.13Z</time></trkpt><trkpt lat="44.5494519" lon="8.929442"><ele>422.0</ele><time>2026-04-09T13:50:08Z</time></trkpt><trkpt lat="44.5495293" lon="8.9293506"><ele>426.25</ele><time>2026-04-09T13:50:09.151Z</time></trkpt><trkpt lat="44.5496089" lon="8.929259"><ele>430.5</ele><time>2026-04-09T13:50:10.118Z</time></trkpt><trkpt lat="44.5496864" lon="8.9291616"><ele>434.75</ele><time>2026-04-09T13:50:11.131Z</time></trkpt><trkpt lat="44.5497943" lon="8.9289004"><ele>439.0</ele><time>2026-04-09T13:50:12.999Z</time></trkpt><trkpt lat="44.5498101" lon="8.9287352"><ele>439.0</ele><time>2026-04-09T13:50:14.161Z</time></trkpt><trkpt lat="44.5498072" lon="8.9285728"><ele>439.0</ele><time>2026-04-09T13:50:15.139Z</time></trkpt><trkpt lat="44.5497967" lon="8.9283985"><ele>439.0</ele><time>2026-04-09T13:50:16.167Z</time></trkpt><trkpt lat="44.5497733" lon="8.9280587"><ele>436.5</ele><time>2026-04-09T13:50:17.999Z</time></trkpt><trkpt lat="44.5497695" lon="8.9278995"><ele>434.0</ele><time>2026-04-09T13:50:19.145Z</time></trkpt><trkpt lat="44.5497613" lon="8.9277346"><ele>431.5</ele><time>2026-04-09T13:50:20.15Z</time></trkpt><trkpt lat="44.5497402" lon="8.9275754"><ele>429.0</ele><time>2026-04-09T13:50:21.14Z</time></trkpt><trkpt lat="44.5496507" lon="8.9272762"><ele>429.0</ele><time>2026-04-09T13:50:22.999Z</time></trkpt><trkpt lat="44.5495752" lon="8.9271355"><ele>429.0</ele><time>2026-04-09T13:50:23.999Z</time></trkpt><trkpt lat="44.5494872" lon="8.9270087"><ele>429.0</ele><time>2026-04-09T13:50:25Z</time></trkpt><trkpt lat="44.5494021" lon="8.9268815"><ele>429.0</ele><time>2026-04-09T13:50:25.999Z</time></trkpt><trkpt lat="44.5493236" lon="8.9267787"><ele>423.75</ele><time>2026-04-09T13:50:26.999Z</time></trkpt><trkpt lat="44.5492483" lon="8.9266711"><ele>418.5</ele><time>2026-04-09T13:50:27.999Z</time></trkpt><trkpt lat="44.5491734" lon="8.9265611"><ele>413.25</ele><time>2026-04-09T13:50:29.109Z</time></trkpt><trkpt lat="44.5490342" lon="8.9263495"><ele>408.0</ele><time>2026-04-09T13:50:31Z</time></trkpt><trkpt lat="44.5489665" lon="8.926236"><ele>408.0</ele><time>2026-04-09T13:50:32Z</time></trkpt><trkpt lat="44.548893" lon="8.9261427"><ele>408.0</ele><time>2026-04-09T13:50:33.153Z</time></trkpt><trkpt lat="44.5488276" lon="8.9260783"><ele>408.0</ele><time>2026-04-09T13:50:34.164Z</time></trkpt><trkpt lat="44.5487557" lon="8.9260132"><ele>408.0</ele><time>2026-04-09T13:50:35.153Z</time></trkpt><trkpt lat="44.5486736" lon="8.9259902"><ele>408.0</ele><time>2026-04-09T13:50:36.157Z</time></trkpt><trkpt lat="44.5485492" lon="8.926068"><ele>403.59999999999997</ele><time>2026-04-09T13:50:38Z</time></trkpt><trkpt lat="44.5485112" lon="8.9261424"><ele>399.2</ele><time>2026-04-09T13:50:39.165Z</time></trkpt><trkpt lat="44.5484943" lon="8.9262356"><ele>394.8</ele><time>2026-04-09T13:50:40.108Z</time></trkpt><trkpt lat="44.5485176" lon="8.926335"><ele>390.4</ele><time>2026-04-09T13:50:41.139Z</time></trkpt><trkpt lat="44.5486277" lon="8.9265328"><ele>386.0</ele><time>2026-04-09T13:50:42.999Z</time></trkpt><trkpt lat="44.5486994" lon="8.926629"><ele>391.66666666666663</ele><time>2026-04-09T13:50:44.105Z</time></trkpt><trkpt lat="44.548832" lon="8.9268414"><ele>397.33333333333337</ele><time>2026-04-09T13:50:46.107Z</time></trkpt><trkpt lat="44.5488976" lon="8.9271558"><ele>403.0</ele><time>2026-04-09T13:50:47.999Z</time></trkpt><trkpt lat="44.5488959" lon="8.927324"><ele>403.0</ele><time>2026-04-09T13:50:49.147Z</time></trkpt><trkpt lat="44.5488768" lon="8.9274857"><ele>403.0</ele><time>2026-04-09T13:50:50.137Z</time></trkpt><trkpt lat="44.5488653" lon="8.9276452"><ele>403.0</ele><time>2026-04-09T13:50:51.151Z</time></trkpt><trkpt lat="44.5488031" lon="8.9279396"><ele>402.75</ele><time>2026-04-09T13:50:53Z</time></trkpt><trkpt lat="44.5487516" lon="8.9280583"><ele>402.5</ele><time>2026-04-09T13:50:54.113Z</time></trkpt><trkpt lat="44.5486954" lon="8.9281842"><ele>402.25</ele><time>2026-04-09T13:50:55.149Z</time></trkpt><trkpt lat="44.5486463" lon="8.928314"><ele>402.0</ele><time>2026-04-09T13:50:56.138Z</time></trkpt><trkpt lat="44.5486329" lon="8.9285711"><ele>402.0</ele><time>2026-04-09T13:50:57.999Z</time></trkpt><trkpt lat="44.5486678" lon="8.9287021"><ele>402.0</ele><time>2026-04-09T13:50:59.139Z</time></trkpt><trkpt lat="44.5487145" lon="8.9288232"><ele>402.0</ele><time>2026-04-09T13:51:00.138Z</time></trkpt><trkpt lat="44.5487602" lon="8.9289424"><ele>402.0</ele><time>2026-04-09T13:51:01.137Z</time></trkpt><trkpt lat="44.5488081" lon="8.9292045"><ele>397.25</ele><time>2026-04-09T13:51:03.108Z</time></trkpt><trkpt lat="44.5487584" lon="8.929339"><ele>392.5</ele><time>2026-04-09T13:51:04.159Z</time></trkpt><trkpt lat="44.5486973" lon="8.9294815"><ele>387.75</ele><time>2026-04-09T13:51:05.122Z</time></trkpt><trkpt lat="44.5486101" lon="8.9296186"><ele>383.0</ele><time>2026-04-09T13:51:06.134Z</time></trkpt><trkpt lat="44.5484351" lon="8.9299076"><ele>383.0</ele><time>2026-04-09T13:51:08Z</time></trkpt><trkpt lat="44.5483161" lon="8.9300547"><ele>383.0</ele><time>2026-04-09T13:51:09.152Z</time></trkpt><trkpt lat="44.5481776" lon="8.9301918"><ele>383.0</ele><time>2026-04-09T13:51:10.136Z</time></trkpt><trkpt lat="44.5480185" lon="8.9303032"><ele>381.0</ele><time>2026-04-09T13:51:11.157Z</time></trkpt><trkpt lat="44.5478677" lon="8.9303954"><ele>379.0</ele><time>2026-04-09T13:51:11.999Z</time></trkpt><trkpt lat="44.5477245" lon="8.930507"><ele>377.0</ele><time>2026-04-09T13:51:13Z</time></trkpt><trkpt lat="44.5476246" lon="8.9306441"><ele>377.0</ele><time>2026-04-09T13:51:14.163Z</time></trkpt><trkpt lat="44.5475185" lon="8.9308125"><ele>377.0</ele><time>2026-04-09T13:51:15.151Z</time></trkpt><trkpt lat="44.5474357" lon="8.9309885"><ele>377.0</ele><time>2026-04-09T13:51:16.128Z</time></trkpt><trkpt lat="44.5472988" lon="8.9313096"><ele>375.5</ele><time>2026-04-09T13:51:18Z</time></trkpt><trkpt lat="44.5472102" lon="8.9314627"><ele>374.0</ele><time>2026-04-09T13:51:19.165Z</time></trkpt><trkpt lat="44.5471158" lon="8.9315793"><ele>372.5</ele><time>2026-04-09T13:51:20.143Z</time></trkpt><trkpt lat="44.5469966" lon="8.9316597"><ele>371.0</ele><time>2026-04-09T13:51:21.157Z</time></trkpt><trkpt lat="44.54674" lon="8.9316969"><ele>369.0</ele><time>2026-04-09T13:51:23Z</time></trkpt><trkpt lat="44.5466028" lon="8.9317334"><ele>367.0</ele><time>2026-04-09T13:51:24.156Z</time></trkpt><trkpt lat="44.5464695" lon="8.9318128"><ele>365.0</ele><time>2026-04-09T13:51:25.163Z</time></trkpt><trkpt lat="44.5463538" lon="8.9319144"><ele>363.0</ele><time>2026-04-09T13:51:26.146Z</time></trkpt><trkpt lat="44.5461303" lon="8.9321802"><ele>363.0</ele><time>2026-04-09T13:51:28Z</time></trkpt><trkpt lat="44.5460149" lon="8.9323022"><ele>363.0</ele><time>2026-04-09T13:51:29.15Z</time></trkpt><trkpt lat="44.5458343" lon="8.9325806"><ele>363.0</ele><time>2026-04-09T13:51:30.999Z</time></trkpt><trkpt lat="44.5457756" lon="8.9327419"><ele>363.0</ele><time>2026-04-09T13:51:31.999Z</time></trkpt><trkpt lat="44.5457583" lon="8.9329095"><ele>363.0</ele><time>2026-04-09T13:51:32.999Z</time></trkpt><trkpt lat="44.5457639" lon="8.9330791"><ele>363.0</ele><time>2026-04-09T13:51:34.108Z</time></trkpt><trkpt lat="44.5457986" lon="8.9332553"><ele>363.0</ele><time>2026-04-09T13:51:35.166Z</time></trkpt><trkpt lat="44.5458562" lon="8.9334455"><ele>361.5</ele><time>2026-04-09T13:51:36.104Z</time></trkpt><trkpt lat="44.5459855" lon="8.9338634"><ele>360.0</ele><time>2026-04-09T13:51:38Z</time></trkpt><trkpt lat="44.5460531" lon="8.9340876"><ele>360.6666666666667</ele><time>2026-04-09T13:51:39.127Z</time></trkpt><trkpt lat="44.5461166" lon="8.9342979"><ele>361.33333333333337</ele><time>2026-04-09T13:51:40.139Z</time></trkpt><trkpt lat="44.5461655" lon="8.9344887"><ele>362.0</ele><time>2026-04-09T13:51:41.14Z</time></trkpt><trkpt lat="44.5461453" lon="8.9348623"><ele>362.0</ele><time>2026-04-09T13:51:43Z</time></trkpt><trkpt lat="44.5460819" lon="8.9350283"><ele>362.0</ele><time>2026-04-09T13:51:44.112Z</time></trkpt><trkpt lat="44.5459897" lon="8.9351793"><ele>362.0</ele><time>2026-04-09T13:51:45.165Z</time></trkpt><trkpt lat="44.5458791" lon="8.9352997"><ele>362.0</ele><time>2026-04-09T13:51:46.109Z</time></trkpt><trkpt lat="44.5456113" lon="8.9355502"><ele>362.33333333333337</ele><time>2026-04-09T13:51:47.999Z</time></trkpt><trkpt lat="44.5454773" lon="8.9357067"><ele>362.6666666666667</ele><time>2026-04-09T13:51:49.115Z</time></trkpt><trkpt lat="44.5453456" lon="8.9358762"><ele>363.0</ele><time>2026-04-09T13:51:50.122Z</time></trkpt><trkpt lat="44.5452174" lon="8.936036"><ele>355.5</ele><time>2026-04-09T13:51:51.141Z</time></trkpt><trkpt lat="44.5449924" lon="8.9363538"><ele>348.0</ele><time>2026-04-09T13:51:52.999Z</time></trkpt><trkpt lat="44.5448862" lon="8.9365148"><ele>348.0</ele><time>2026-04-09T13:51:54.154Z</time></trkpt><trkpt lat="44.5447804" lon="8.9366792"><ele>348.0</ele><time>2026-04-09T13:51:55.145Z</time></trkpt><trkpt lat="44.544678" lon="8.936835"><ele>348.0</ele><time>2026-04-09T13:51:56.157Z</time></trkpt><trkpt lat="44.5444799" lon="8.937082"><ele>344.75</ele><time>2026-04-09T13:51:58Z</time></trkpt><trkpt lat="44.5443773" lon="8.9371646"><ele>341.5</ele><time>2026-04-09T13:51:59.103Z</time></trkpt><trkpt lat="44.5442726" lon="8.9372209"><ele>338.25</ele><time>2026-04-09T13:52:00.12Z</time></trkpt><trkpt lat="44.5441906" lon="8.9371801"><ele>335.0</ele><time>2026-04-09T13:52:01.12Z</time></trkpt><trkpt lat="44.5440252" lon="8.9370255"><ele>335.0</ele><time>2026-04-09T13:52:02.999Z</time></trkpt><trkpt lat="44.5439488" lon="8.9368949"><ele>335.0</ele><time>2026-04-09T13:52:04.149Z</time></trkpt><trkpt lat="44.5438377" lon="8.9366996"><ele>335.0</ele><time>2026-04-09T13:52:05.122Z</time></trkpt><trkpt lat="44.5436553" lon="8.9363522"><ele>336.0</ele><time>2026-04-09T13:52:06.999Z</time></trkpt><trkpt lat="44.5435402" lon="8.9362076"><ele>337.0</ele><time>2026-04-09T13:52:08.12Z</time></trkpt><trkpt lat="44.5434217" lon="8.9360416"><ele>338.0</ele><time>2026-04-09T13:52:09.125Z</time></trkpt><trkpt lat="44.543307" lon="8.9358793"><ele>338.0</ele><time>2026-04-09T13:52:10.115Z</time></trkpt><trkpt lat="44.5431848" lon="8.9357112"><ele>338.0</ele><time>2026-04-09T13:52:11.127Z</time></trkpt><trkpt lat="44.5429466" lon="8.9353964"><ele>330.33333333333337</ele><time>2026-04-09T13:52:13Z</time></trkpt><trkpt lat="44.5428176" lon="8.9352706"><ele>322.6666666666667</ele><time>2026-04-09T13:52:14Z</time></trkpt><trkpt lat="44.5426862" lon="8.935179"><ele>315.0</ele><time>2026-04-09T13:52:15.153Z</time></trkpt><trkpt lat="44.5425387" lon="8.9351418"><ele>314.0</ele><time>2026-04-09T13:52:16.163Z</time></trkpt><trkpt lat="44.5422644" lon="8.9349849"><ele>313.0</ele><time>2026-04-09T13:52:18.148Z</time></trkpt><trkpt lat="44.5420355" lon="8.934726"><ele>313.0</ele><time>2026-04-09T13:52:20.162Z</time></trkpt><trkpt lat="44.5419427" lon="8.9345888"><ele>313.0</ele><time>2026-04-09T13:52:21.133Z</time></trkpt><trkpt lat="44.5418454" lon="8.9342768"><ele>313.0</ele><time>2026-04-09T13:52:23Z</time></trkpt><trkpt lat="44.5418551" lon="8.9341076"><ele>312.66666666666663</ele><time>2026-04-09T13:52:24.131Z</time></trkpt><trkpt lat="44.5418809" lon="8.9339215"><ele>312.3333333333333</ele><time>2026-04-09T13:52:25.149Z</time></trkpt><trkpt lat="44.5419161" lon="8.9337105"><ele>312.0</ele><time>2026-04-09T13:52:26.131Z</time></trkpt><trkpt lat="44.5420061" lon="8.9332878"><ele>317.0</ele><time>2026-04-09T13:52:28Z</time></trkpt><trkpt lat="44.5420818" lon="8.9330945"><ele>322.0</ele><time>2026-04-09T13:52:29Z</time></trkpt><trkpt lat="44.5421806" lon="8.9329148"><ele>327.0</ele><time>2026-04-09T13:52:30.169Z</time></trkpt><trkpt lat="44.5422894" lon="8.9327671"><ele>320.0</ele><time>2026-04-09T13:52:31.103Z</time></trkpt><trkpt lat="44.5425146" lon="8.9324928"><ele>313.0</ele><time>2026-04-09T13:52:33Z</time></trkpt><trkpt lat="44.5426255" lon="8.9323788"><ele>306.0</ele><time>2026-04-09T13:52:34.113Z</time></trkpt><trkpt lat="44.5427421" lon="8.9323002"><ele>307.0</ele><time>2026-04-09T13:52:35.109Z</time></trkpt><trkpt lat="44.5429946" lon="8.9323367"><ele>308.0</ele><time>2026-04-09T13:52:36.999Z</time></trkpt><trkpt lat="44.5431183" lon="8.9324008"><ele>309.0</ele><time>2026-04-09T13:52:38Z</time></trkpt><trkpt lat="44.5432399" lon="8.9324531"><ele>309.0</ele><time>2026-04-09T13:52:39.119Z</time></trkpt><trkpt lat="44.5434711" lon="8.9324274"><ele>309.0</ele><time>2026-04-09T13:52:40.999Z</time></trkpt><trkpt lat="44.5435496" lon="8.9323532"><ele>309.0</ele><time>2026-04-09T13:52:41.999Z</time></trkpt><trkpt lat="44.5436085" lon="8.9322456"><ele>309.0</ele><time>2026-04-09T13:52:43Z</time></trkpt><trkpt lat="44.5436332" lon="8.9320984"><ele>309.0</ele><time>2026-04-09T13:52:44.146Z</time></trkpt><trkpt lat="44.5436335" lon="8.9319439"><ele>309.0</ele><time>2026-04-09T13:52:45.15Z</time></trkpt><trkpt lat="44.5436248" lon="8.931791"><ele>309.0</ele><time>2026-04-09T13:52:46.147Z</time></trkpt><trkpt lat="44.5436696" lon="8.9315396"><ele>309.0</ele><time>2026-04-09T13:52:48Z</time></trkpt><trkpt lat="44.5437409" lon="8.9314608"><ele>309.0</ele><time>2026-04-09T13:52:49Z</time></trkpt><trkpt lat="44.543809" lon="8.9314247"><ele>309.0</ele><time>2026-04-09T13:52:50.151Z</time></trkpt><trkpt lat="44.543906" lon="8.9314684"><ele>309.0</ele><time>2026-04-09T13:52:51.134Z</time></trkpt><trkpt lat="44.5440964" lon="8.9314735"><ele>309.0</ele><time>2026-04-09T13:52:53.12Z</time></trkpt><trkpt lat="44.5441631" lon="8.9314282"><ele>309.0</ele><time>2026-04-09T13:52:54.123Z</time></trkpt><trkpt lat="44.5441789" lon="8.9312533"><ele>309.0</ele><time>2026-04-09T13:52:55.154Z</time></trkpt><trkpt lat="44.5441897" lon="8.9311078"><ele>309.0</ele><time>2026-04-09T13:52:56.153Z</time></trkpt><trkpt lat="44.54413" lon="8.9307649"><ele>309.0</ele><time>2026-04-09T13:52:57.999Z</time></trkpt><trkpt lat="44.5440869" lon="8.9305701"><ele>304.0</ele><time>2026-04-09T13:52:59.129Z</time></trkpt><trkpt lat="44.5440415" lon="8.9303738"><ele>299.0</ele><time>2026-04-09T13:53:00.151Z</time></trkpt><trkpt lat="44.5440017" lon="8.9301766"><ele>294.0</ele><time>2026-04-09T13:53:01.123Z</time></trkpt><trkpt lat="44.5439812" lon="8.9298109"><ele>292.5</ele><time>2026-04-09T13:53:02.999Z</time></trkpt><trkpt lat="44.5439861" lon="8.9296343"><ele>291.0</ele><time>2026-04-09T13:53:04.114Z</time></trkpt><trkpt lat="44.5440163" lon="8.9294897"><ele>289.5</ele><time>2026-04-09T13:53:05.146Z</time></trkpt><trkpt lat="44.5440675" lon="8.9293628"><ele>288.0</ele><time>2026-04-09T13:53:06.134Z</time></trkpt><trkpt lat="44.5442645" lon="8.9292087"><ele>283.3333333333333</ele><time>2026-04-09T13:53:07.999Z</time></trkpt><trkpt lat="44.5443762" lon="8.9292126"><ele>278.66666666666663</ele><time>2026-04-09T13:53:09.132Z</time></trkpt><trkpt lat="44.5446104" lon="8.92925"><ele>274.0</ele><time>2026-04-09T13:53:10.999Z</time></trkpt><trkpt lat="44.5447157" lon="8.9292292"><ele>275.5</ele><time>2026-04-09T13:53:11.999Z</time></trkpt><trkpt lat="44.5447682" lon="8.9291471"><ele>277.0</ele><time>2026-04-09T13:53:13Z</time></trkpt><trkpt lat="44.544809" lon="8.9290457"><ele>278.5</ele><time>2026-04-09T13:53:14Z</time></trkpt><trkpt lat="44.544829" lon="8.9289233"><ele>280.0</ele><time>2026-04-09T13:53:14.999Z</time></trkpt><trkpt lat="44.5447905" lon="8.9288098"><ele>281.5</ele><time>2026-04-09T13:53:16Z</time></trkpt><trkpt lat="44.5447255" lon="8.9287139"><ele>283.0</ele><time>2026-04-09T13:53:17Z</time></trkpt><trkpt lat="44.5446408" lon="8.9286224"><ele>280.0</ele><time>2026-04-09T13:53:18Z</time></trkpt><trkpt lat="44.5445396" lon="8.9285448"><ele>277.0</ele><time>2026-04-09T13:53:19.106Z</time></trkpt><trkpt lat="44.5443574" lon="8.9283292"><ele>274.0</ele><time>2026-04-09T13:53:21Z</time></trkpt><trkpt lat="44.5442811" lon="8.9281992"><ele>272.0</ele><time>2026-04-09T13:53:22Z</time></trkpt><trkpt lat="44.5442104" lon="8.92807"><ele>270.0</ele><time>2026-04-09T13:53:23.166Z</time></trkpt><trkpt lat="44.5441454" lon="8.9280117"><ele>268.0</ele><time>2026-04-09T13:53:24.106Z</time></trkpt><trkpt lat="44.5440501" lon="8.9279934"><ele>266.0</ele><time>2026-04-09T13:53:25.12Z</time></trkpt><trkpt lat="44.5439438" lon="8.9280237"><ele>264.0</ele><time>2026-04-09T13:53:26.162Z</time></trkpt><trkpt lat="44.5437181" lon="8.9281781"><ele>263.75</ele><time>2026-04-09T13:53:28Z</time></trkpt><trkpt lat="44.5435914" lon="8.928261"><ele>263.5</ele><time>2026-04-09T13:53:29.137Z</time></trkpt><trkpt lat="44.5434696" lon="8.9283499"><ele>263.25</ele><time>2026-04-09T13:53:30.151Z</time></trkpt><trkpt lat="44.5433612" lon="8.9284491"><ele>263.0</ele><time>2026-04-09T13:53:31.126Z</time></trkpt><trkpt lat="44.5431996" lon="8.9286901"><ele>262.2</ele><time>2026-04-09T13:53:32.999Z</time></trkpt><trkpt lat="44.543181" lon="8.9288196"><ele>261.4</ele><time>2026-04-09T13:53:34.157Z</time></trkpt><trkpt lat="44.5431542" lon="8.9289482"><ele>260.59999999999997</ele><time>2026-04-09T13:53:35.183Z</time></trkpt><trkpt lat="44.5430989" lon="8.9290456"><ele>259.8</ele><time>2026-04-09T13:53:36.131Z</time></trkpt><trkpt lat="44.542975" lon="8.9291563"><ele>259.0</ele><time>2026-04-09T13:53:37.999Z</time></trkpt><trkpt lat="44.5429106" lon="8.9291474"><ele>256.66666666666663</ele><time>2026-04-09T13:53:39.13Z</time></trkpt><trkpt lat="44.5428012" lon="8.9291733"><ele>254.33333333333331</ele><time>2026-04-09T13:53:40.114Z</time></trkpt><trkpt lat="44.5426314" lon="8.9291608"><ele>252.0</ele><time>2026-04-09T13:53:41.136Z</time></trkpt><trkpt lat="44.5423642" lon="8.9291842"><ele>251.5</ele><time>2026-04-09T13:53:43.13Z</time></trkpt><trkpt lat="44.5422367" lon="8.9292371"><ele>251.0</ele><time>2026-04-09T13:53:44.124Z</time></trkpt><trkpt lat="44.54211" lon="8.9292958"><ele>250.5</ele><time>2026-04-09T13:53:45.157Z</time></trkpt><trkpt lat="44.5419962" lon="8.9293663"><ele>250.0</ele><time>2026-04-09T13:53:46.138Z</time></trkpt><trkpt lat="44.5418513" lon="8.9295935"><ele>249.75</ele><time>2026-04-09T13:53:47.999Z</time></trkpt><trkpt lat="44.541823" lon="8.9297362"><ele>249.5</ele><time>2026-04-09T13:53:49.148Z</time></trkpt><trkpt lat="44.5418069" lon="8.9298809"><ele>249.25</ele><time>2026-04-09T13:53:50.112Z</time></trkpt><trkpt lat="44.5417972" lon="8.9300267"><ele>249.0</ele><time>2026-04-09T13:53:51.136Z</time></trkpt><trkpt lat="44.5417801" lon="8.9302806"><ele>249.0</ele><time>2026-04-09T13:53:52.999Z</time></trkpt><trkpt lat="44.5417526" lon="8.9303894"><ele>248.99999999999997</ele><time>2026-04-09T13:53:54.15Z</time></trkpt><trkpt lat="44.5417065" lon="8.9304895"><ele>248.99999999999997</ele><time>2026-04-09T13:53:55.128Z</time></trkpt><trkpt lat="44.5416426" lon="8.9305717"><ele>249.0</ele><time>2026-04-09T13:53:56.128Z</time></trkpt><trkpt lat="44.5414786" lon="8.9306795"><ele>249.0</ele><time>2026-04-09T13:53:58Z</time></trkpt><trkpt lat="44.5413893" lon="8.9307334"><ele>249.0</ele><time>2026-04-09T13:53:59.128Z</time></trkpt><trkpt lat="44.5413103" lon="8.9307838"><ele>249.0</ele><time>2026-04-09T13:54:00.108Z</time></trkpt><trkpt lat="44.5412251" lon="8.9308367"><ele>249.0</ele><time>2026-04-09T13:54:01.129Z</time></trkpt><trkpt lat="44.5410607" lon="8.9309196"><ele>249.0</ele><time>2026-04-09T13:54:03Z</time></trkpt><trkpt lat="44.5409677" lon="8.9309803"><ele>248.0</ele><time>2026-04-09T13:54:04.154Z</time></trkpt><trkpt lat="44.5408619" lon="8.9310477"><ele>247.0</ele><time>2026-04-09T13:54:05.127Z</time></trkpt><trkpt lat="44.5407297" lon="8.9310844"><ele>246.0</ele><time>2026-04-09T13:54:06.126Z</time></trkpt><trkpt lat="44.5404001" lon="8.931215"><ele>242.0</ele><time>2026-04-09T13:54:08Z</time></trkpt><trkpt lat="44.5402514" lon="8.9312637"><ele>238.0</ele><time>2026-04-09T13:54:09Z</time></trkpt><trkpt lat="44.5401093" lon="8.9313087"><ele>234.0</ele><time>2026-04-09T13:54:10.136Z</time></trkpt><trkpt lat="44.5399784" lon="8.931367"><ele>230.0</ele><time>2026-04-09T13:54:11.136Z</time></trkpt><trkpt lat="44.5397495" lon="8.9314989"><ele>230.0</ele><time>2026-04-09T13:54:12.999Z</time></trkpt><trkpt lat="44.5396393" lon="8.9315181"><ele>230.0</ele><time>2026-04-09T13:54:14.162Z</time></trkpt><trkpt lat="44.5395411" lon="8.9315006"><ele>230.0</ele><time>2026-04-09T13:54:15.132Z</time></trkpt><trkpt lat="44.5393481" lon="8.9313672"><ele>230.0</ele><time>2026-04-09T13:54:17Z</time></trkpt><trkpt lat="44.5392597" lon="8.9311822"><ele>230.5</ele><time>2026-04-09T13:54:18Z</time></trkpt><trkpt lat="44.5391777" lon="8.9310232"><ele>231.0</ele><time>2026-04-09T13:54:19.104Z</time></trkpt><trkpt lat="44.5390951" lon="8.9308616"><ele>231.5</ele><time>2026-04-09T13:54:20.129Z</time></trkpt><trkpt lat="44.5390097" lon="8.9306896"><ele>232.0</ele><time>2026-04-09T13:54:21.125Z</time></trkpt><trkpt lat="44.5388415" lon="8.9303337"><ele>232.0</ele><time>2026-04-09T13:54:22.999Z</time></trkpt><trkpt lat="44.5387538" lon="8.9301496"><ele>232.0</ele><time>2026-04-09T13:54:24.134Z</time></trkpt><trkpt lat="44.538679" lon="8.9299433"><ele>232.0</ele><time>2026-04-09T13:54:25.149Z</time></trkpt><trkpt lat="44.5386072" lon="8.9297284"><ele>232.0</ele><time>2026-04-09T13:54:26.153Z</time></trkpt><trkpt lat="44.53848" lon="8.9292758"><ele>232.0</ele><time>2026-04-09T13:54:27.999Z</time></trkpt><trkpt lat="44.5384236" lon="8.9290328"><ele>232.0</ele><time>2026-04-09T13:54:29.167Z</time></trkpt><trkpt lat="44.538368" lon="8.928788"><ele>232.0</ele><time>2026-04-09T13:54:30.169Z</time></trkpt><trkpt lat="44.5383207" lon="8.9285659"><ele>232.0</ele><time>2026-04-09T13:54:31.127Z</time></trkpt><trkpt lat="44.5382185" lon="8.928112"><ele>230.66666666666666</ele><time>2026-04-09T13:54:33Z</time></trkpt><trkpt lat="44.5381715" lon="8.9278987"><ele>229.33333333333331</ele><time>2026-04-09T13:54:34.107Z</time></trkpt><trkpt lat="44.5381226" lon="8.92768"><ele>228.0</ele><time>2026-04-09T13:54:35.134Z</time></trkpt><trkpt lat="44.5380734" lon="8.9274799"><ele>227.33333333333331</ele><time>2026-04-09T13:54:36.139Z</time></trkpt><trkpt lat="44.5380116" lon="8.9271172"><ele>226.66666666666666</ele><time>2026-04-09T13:54:38Z</time></trkpt><trkpt lat="44.538023" lon="8.9269412"><ele>226.0</ele><time>2026-04-09T13:54:39.114Z</time></trkpt><trkpt lat="44.5380378" lon="8.9267641"><ele>226.0</ele><time>2026-04-09T13:54:40.154Z</time></trkpt><trkpt lat="44.5380251" lon="8.9265779"><ele>226.0</ele><time>2026-04-09T13:54:41.122Z</time></trkpt><trkpt lat="44.5379101" lon="8.9262116"><ele>226.0</ele><time>2026-04-09T13:54:43Z</time></trkpt><trkpt lat="44.5378463" lon="8.9260244"><ele>223.5</ele><time>2026-04-09T13:54:44.136Z</time></trkpt><trkpt lat="44.5378068" lon="8.9258432"><ele>221.0</ele><time>2026-04-09T13:54:45.139Z</time></trkpt><trkpt lat="44.5377926" lon="8.9257251"><ele>218.5</ele><time>2026-04-09T13:54:46.149Z</time></trkpt><trkpt lat="44.5378" lon="8.9254185"><ele>216.0</ele><time>2026-04-09T13:54:47.999Z</time></trkpt><trkpt lat="44.5377616" lon="8.9252478"><ele>216.0</ele><time>2026-04-09T13:54:48.999Z</time></trkpt><trkpt lat="44.5376971" lon="8.9250785"><ele>216.0</ele><time>2026-04-09T13:54:49.999Z</time></trkpt><trkpt lat="44.5376193" lon="8.924915"><ele>216.0</ele><time>2026-04-09T13:54:51.152Z</time></trkpt><trkpt lat="44.5374588" lon="8.924624"><ele>216.0</ele><time>2026-04-09T13:54:52.999Z</time></trkpt><trkpt lat="44.5373648" lon="8.9245364"><ele>216.0</ele><time>2026-04-09T13:54:54.164Z</time></trkpt><trkpt lat="44.537257" lon="8.9244932"><ele>216.0</ele><time>2026-04-09T13:54:55.121Z</time></trkpt><trkpt lat="44.5370375" lon="8.9244715"><ele>216.0</ele><time>2026-04-09T13:54:57Z</time></trkpt><trkpt lat="44.5368705" lon="8.92454"><ele>214.25</ele><time>2026-04-09T13:54:57.999Z</time></trkpt><trkpt lat="44.5367467" lon="8.9245903"><ele>212.5</ele><time>2026-04-09T13:54:59.152Z</time></trkpt><trkpt lat="44.5366279" lon="8.924606"><ele>210.75</ele><time>2026-04-09T13:55:00.15Z</time></trkpt><trkpt lat="44.5364892" lon="8.9245908"><ele>209.0</ele><time>2026-04-09T13:55:00.999Z</time></trkpt><trkpt lat="44.5363818" lon="8.9245411"><ele>209.0</ele><time>2026-04-09T13:55:01.999Z</time></trkpt><trkpt lat="44.5363019" lon="8.9244433"><ele>209.0</ele><time>2026-04-09T13:55:03Z</time></trkpt><trkpt lat="44.536208" lon="8.9242661"><ele>209.0</ele><time>2026-04-09T13:55:04.119Z</time></trkpt><trkpt lat="44.5360403" lon="8.9239848"><ele>208.33333333333334</ele><time>2026-04-09T13:55:06.162Z</time></trkpt><trkpt lat="44.5358589" lon="8.9237933"><ele>207.66666666666669</ele><time>2026-04-09T13:55:07.999Z</time></trkpt><trkpt lat="44.5357571" lon="8.9237472"><ele>207.0</ele><time>2026-04-09T13:55:09.126Z</time></trkpt><trkpt lat="44.5356383" lon="8.9237466"><ele>207.0</ele><time>2026-04-09T13:55:10.168Z</time></trkpt><trkpt lat="44.5355249" lon="8.9237726"><ele>207.0</ele><time>2026-04-09T13:55:11.129Z</time></trkpt><trkpt lat="44.5352948" lon="8.9237846"><ele>207.0</ele><time>2026-04-09T13:55:12.999Z</time></trkpt><trkpt lat="44.5351807" lon="8.9237422"><ele>206.33333333333331</ele><time>2026-04-09T13:55:14.128Z</time></trkpt><trkpt lat="44.5350604" lon="8.9236576"><ele>205.66666666666666</ele><time>2026-04-09T13:55:15.126Z</time></trkpt><trkpt lat="44.5349125" lon="8.9235639"><ele>205.0</ele><time>2026-04-09T13:55:16.122Z</time></trkpt><trkpt lat="44.5346057" lon="8.9233283"><ele>204.33333333333331</ele><time>2026-04-09T13:55:18Z</time></trkpt><trkpt lat="44.5344426" lon="8.9232176"><ele>203.66666666666669</ele><time>2026-04-09T13:55:19.165Z</time></trkpt><trkpt lat="44.5342812" lon="8.9231372"><ele>203.0</ele><time>2026-04-09T13:55:20.167Z</time></trkpt><trkpt lat="44.5341285" lon="8.9230543"><ele>203.0</ele><time>2026-04-09T13:55:21.135Z</time></trkpt><trkpt lat="44.5338311" lon="8.9228134"><ele>203.0</ele><time>2026-04-09T13:55:22.999Z</time></trkpt><trkpt lat="44.5336943" lon="8.9226543"><ele>202.0</ele><time>2026-04-09T13:55:24.122Z</time></trkpt><trkpt lat="44.5335669" lon="8.9224834"><ele>201.0</ele><time>2026-04-09T13:55:25.144Z</time></trkpt><trkpt lat="44.5333025" lon="8.9221167"><ele>201.0</ele><time>2026-04-09T13:55:27Z</time></trkpt><trkpt lat="44.5331652" lon="8.9219197"><ele>201.0</ele><time>2026-04-09T13:55:27.999Z</time></trkpt><trkpt lat="44.5330249" lon="8.921739"><ele>201.0</ele><time>2026-04-09T13:55:29.135Z</time></trkpt><trkpt lat="44.5327478" lon="8.9213798"><ele>199.0</ele><time>2026-04-09T13:55:30.999Z</time></trkpt><trkpt lat="44.5326061" lon="8.9212112"><ele>197.0</ele><time>2026-04-09T13:55:31.999Z</time></trkpt><trkpt lat="44.5324744" lon="8.9210686"><ele>195.0</ele><time>2026-04-09T13:55:33Z</time></trkpt><trkpt lat="44.532334" lon="8.920933"><ele>195.0</ele><time>2026-04-09T13:55:34.12Z</time></trkpt><trkpt lat="44.5320635" lon="8.920695"><ele>195.0</ele><time>2026-04-09T13:55:36.131Z</time></trkpt><trkpt lat="44.5318761" lon="8.9204433"><ele>195.0</ele><time>2026-04-09T13:55:38Z</time></trkpt><trkpt lat="44.5318313" lon="8.9202812"><ele>195.0</ele><time>2026-04-09T13:55:39.113Z</time></trkpt><trkpt lat="44.5317974" lon="8.9199576"><ele>195.0</ele><time>2026-04-09T13:55:41.149Z</time></trkpt><trkpt lat="44.5317826" lon="8.9195814"><ele>194.0</ele><time>2026-04-09T13:55:42.999Z</time></trkpt><trkpt lat="44.5317482" lon="8.9194297"><ele>193.0</ele><time>2026-04-09T13:55:44.152Z</time></trkpt><trkpt lat="44.5315441" lon="8.9191782"><ele>192.0</ele><time>2026-04-09T13:55:46.105Z</time></trkpt><trkpt lat="44.5313549" lon="8.9189731"><ele>192.0</ele><time>2026-04-09T13:55:47.999Z</time></trkpt><trkpt lat="44.5312933" lon="8.9188339"><ele>192.0</ele><time>2026-04-09T13:55:48.999Z</time></trkpt><trkpt lat="44.5312484" lon="8.9186854"><ele>192.0</ele><time>2026-04-09T13:55:50.139Z</time></trkpt><trkpt lat="44.5312133" lon="8.9185348"><ele>192.0</ele><time>2026-04-09T13:55:51.161Z</time></trkpt><trkpt lat="44.5311668" lon="8.9182158"><ele>188.5</ele><time>2026-04-09T13:55:53Z</time></trkpt><trkpt lat="44.5311206" lon="8.9180574"><ele>185.0</ele><time>2026-04-09T13:55:54.121Z</time></trkpt><trkpt lat="44.5310536" lon="8.9179075"><ele>181.5</ele><time>2026-04-09T13:55:55.142Z</time></trkpt><trkpt lat="44.5309746" lon="8.9177813"><ele>178.0</ele><time>2026-04-09T13:55:56.127Z</time></trkpt><trkpt lat="44.5307702" lon="8.91757"><ele>178.0</ele><time>2026-04-09T13:55:57.999Z</time></trkpt><trkpt lat="44.5306566" lon="8.9174663"><ele>178.0</ele><time>2026-04-09T13:55:59.153Z</time></trkpt><trkpt lat="44.5305415" lon="8.9173548"><ele>178.0</ele><time>2026-04-09T13:56:00.143Z</time></trkpt><trkpt lat="44.5304337" lon="8.9172427"><ele>178.0</ele><time>2026-04-09T13:56:01.155Z</time></trkpt><trkpt lat="44.5302281" lon="8.9170493"><ele>178.0</ele><time>2026-04-09T13:56:03Z</time></trkpt><trkpt lat="44.5301306" lon="8.9169562"><ele>178.0</ele><time>2026-04-09T13:56:03.999Z</time></trkpt><trkpt lat="44.5300331" lon="8.9168492"><ele>178.0</ele><time>2026-04-09T13:56:05Z</time></trkpt><trkpt lat="44.5299379" lon="8.9167243"><ele>178.0</ele><time>2026-04-09T13:56:06Z</time></trkpt><trkpt lat="44.5298505" lon="8.916589"><ele>178.5</ele><time>2026-04-09T13:56:06.999Z</time></trkpt><trkpt lat="44.5297758" lon="8.9164637"><ele>179.0</ele><time>2026-04-09T13:56:07.999Z</time></trkpt><trkpt lat="44.5296919" lon="8.9163328"><ele>179.5</ele><time>2026-04-09T13:56:08.999Z</time></trkpt><trkpt lat="44.5296175" lon="8.916211"><ele>180.0</ele><time>2026-04-09T13:56:09.999Z</time></trkpt><trkpt lat="44.5295476" lon="8.9160871"><ele>176.33333333333334</ele><time>2026-04-09T13:56:11.121Z</time></trkpt><trkpt lat="44.5294111" lon="8.9158135"><ele>172.66666666666669</ele><time>2026-04-09T13:56:13Z</time></trkpt><trkpt lat="44.5293478" lon="8.9156939"><ele>169.0</ele><time>2026-04-09T13:56:14.127Z</time></trkpt><trkpt lat="44.5292755" lon="8.9155848"><ele>169.0</ele><time>2026-04-09T13:56:15.124Z</time></trkpt><trkpt lat="44.5291953" lon="8.9154968"><ele>169.0</ele><time>2026-04-09T13:56:16.133Z</time></trkpt><trkpt lat="44.5290036" lon="8.9154284"><ele>169.0</ele><time>2026-04-09T13:56:17.999Z</time></trkpt><trkpt lat="44.5289123" lon="8.915438"><ele>169.0</ele><time>2026-04-09T13:56:19Z</time></trkpt><trkpt lat="44.5287231" lon="8.9154986"><ele>168.5</ele><time>2026-04-09T13:56:21.124Z</time></trkpt><trkpt lat="44.5285231" lon="8.9156198"><ele>168.0</ele><time>2026-04-09T13:56:23Z</time></trkpt><trkpt lat="44.5284226" lon="8.9156636"><ele>167.5</ele><time>2026-04-09T13:56:24.158Z</time></trkpt><trkpt lat="44.5283221" lon="8.9156937"><ele>167.0</ele><time>2026-04-09T13:56:25.121Z</time></trkpt><trkpt lat="44.5282051" lon="8.915688"><ele>167.0</ele><time>2026-04-09T13:56:26.123Z</time></trkpt><trkpt lat="44.5279706" lon="8.9156179"><ele>167.0</ele><time>2026-04-09T13:56:28Z</time></trkpt><trkpt lat="44.5278593" lon="8.9155446"><ele>167.0</ele><time>2026-04-09T13:56:28.999Z</time></trkpt><trkpt lat="44.5277614" lon="8.9154447"><ele>166.66666666666666</ele><time>2026-04-09T13:56:30.134Z</time></trkpt><trkpt lat="44.527664" lon="8.9153362"><ele>166.33333333333334</ele><time>2026-04-09T13:56:31.136Z</time></trkpt><trkpt lat="44.5274715" lon="8.9150709"><ele>166.0</ele><time>2026-04-09T13:56:33Z</time></trkpt><trkpt lat="44.5273814" lon="8.9149331"><ele>166.0</ele><time>2026-04-09T13:56:34.118Z</time></trkpt><trkpt lat="44.5272832" lon="8.9147989"><ele>166.0</ele><time>2026-04-09T13:56:35.114Z</time></trkpt><trkpt lat="44.5271943" lon="8.9146826"><ele>166.0</ele><time>2026-04-09T13:56:36.145Z</time></trkpt><trkpt lat="44.5270197" lon="8.9144415"><ele>165.5</ele><time>2026-04-09T13:56:38Z</time></trkpt><trkpt lat="44.526926" lon="8.914312"><ele>165.0</ele><time>2026-04-09T13:56:38.999Z</time></trkpt><trkpt lat="44.5268276" lon="8.9141833"><ele>164.5</ele><time>2026-04-09T13:56:39.999Z</time></trkpt><trkpt lat="44.5267353" lon="8.9140641"><ele>164.0</ele><time>2026-04-09T13:56:41Z</time></trkpt><trkpt lat="44.5266394" lon="8.9139521"><ele>164.0</ele><time>2026-04-09T13:56:41.999Z</time></trkpt><trkpt lat="44.5265404" lon="8.9138582"><ele>164.0</ele><time>2026-04-09T13:56:42.999Z</time></trkpt><trkpt lat="44.5264333" lon="8.9138053"><ele>164.0</ele><time>2026-04-09T13:56:44.11Z</time></trkpt><trkpt lat="44.5263268" lon="8.9137686"><ele>164.0</ele><time>2026-04-09T13:56:45.116Z</time></trkpt><trkpt lat="44.5262177" lon="8.9137499"><ele>163.33333333333331</ele><time>2026-04-09T13:56:46.14Z</time></trkpt><trkpt lat="44.5259757" lon="8.9136811"><ele>162.66666666666666</ele><time>2026-04-09T13:56:48Z</time></trkpt><trkpt lat="44.525855" lon="8.9136383"><ele>162.0</ele><time>2026-04-09T13:56:49Z</time></trkpt><trkpt lat="44.5257301" lon="8.9136099"><ele>162.0</ele><time>2026-04-09T13:56:50.123Z</time></trkpt><trkpt lat="44.5256131" lon="8.9135897"><ele>162.0</ele><time>2026-04-09T13:56:51.157Z</time></trkpt><trkpt lat="44.5253559" lon="8.9136387"><ele>162.0</ele><time>2026-04-09T13:56:52.999Z</time></trkpt><trkpt lat="44.5252163" lon="8.9136902"><ele>161.33333333333334</ele><time>2026-04-09T13:56:54.123Z</time></trkpt><trkpt lat="44.5250967" lon="8.9137516"><ele>160.66666666666669</ele><time>2026-04-09T13:56:55.123Z</time></trkpt><trkpt lat="44.5249809" lon="8.9138031"><ele>160.0</ele><time>2026-04-09T13:56:56.117Z</time></trkpt><trkpt lat="44.5247543" lon="8.9139098"><ele>160.0</ele><time>2026-04-09T13:56:58Z</time></trkpt><trkpt lat="44.5246536" lon="8.9139193"><ele>160.0</ele><time>2026-04-09T13:56:59.112Z</time></trkpt><trkpt lat="44.5245466" lon="8.9138943"><ele>160.0</ele><time>2026-04-09T13:57:00.141Z</time></trkpt><trkpt lat="44.5244448" lon="8.9138435"><ele>160.0</ele><time>2026-04-09T13:57:01.135Z</time></trkpt><trkpt lat="44.5242227" lon="8.9137116"><ele>160.5</ele><time>2026-04-09T13:57:02.999Z</time></trkpt><trkpt lat="44.5241024" lon="8.9136635"><ele>161.0</ele><time>2026-04-09T13:57:04.126Z</time></trkpt><trkpt lat="44.5239782" lon="8.9136246"><ele>161.5</ele><time>2026-04-09T13:57:05.118Z</time></trkpt><trkpt lat="44.523857" lon="8.9135729"><ele>162.0</ele><time>2026-04-09T13:57:06.144Z</time></trkpt><trkpt lat="44.5235941" lon="8.9135063"><ele>159.66666666666666</ele><time>2026-04-09T13:57:08Z</time></trkpt><trkpt lat="44.5234679" lon="8.9134732"><ele>157.33333333333331</ele><time>2026-04-09T13:57:08.999Z</time></trkpt><trkpt lat="44.5233381" lon="8.9134415"><ele>155.0</ele><time>2026-04-09T13:57:10.155Z</time></trkpt><trkpt lat="44.5230732" lon="8.9133539"><ele>155.0</ele><time>2026-04-09T13:57:12Z</time></trkpt><trkpt lat="44.522955" lon="8.9133112"><ele>155.0</ele><time>2026-04-09T13:57:12.999Z</time></trkpt><trkpt lat="44.5228267" lon="8.9132837"><ele>155.0</ele><time>2026-04-09T13:57:14.148Z</time></trkpt><trkpt lat="44.522693" lon="8.9132799"><ele>155.0</ele><time>2026-04-09T13:57:15.171Z</time></trkpt><trkpt lat="44.5225662" lon="8.9133045"><ele>154.33333333333331</ele><time>2026-04-09T13:57:16.127Z</time></trkpt><trkpt lat="44.5223214" lon="8.9134532"><ele>153.66666666666666</ele><time>2026-04-09T13:57:18Z</time></trkpt><trkpt lat="44.5222215" lon="8.9135885"><ele>153.0</ele><time>2026-04-09T13:57:19.13Z</time></trkpt><trkpt lat="44.5221383" lon="8.9137299"><ele>153.66666666666666</ele><time>2026-04-09T13:57:20.177Z</time></trkpt><trkpt lat="44.5220646" lon="8.9138784"><ele>154.33333333333331</ele><time>2026-04-09T13:57:21.173Z</time></trkpt><trkpt lat="44.5219488" lon="8.9142066"><ele>155.0</ele><time>2026-04-09T13:57:23Z</time></trkpt><trkpt lat="44.5218982" lon="8.9143858"><ele>155.0</ele><time>2026-04-09T13:57:24.163Z</time></trkpt><trkpt lat="44.5218389" lon="8.9145543"><ele>155.0</ele><time>2026-04-09T13:57:25.116Z</time></trkpt><trkpt lat="44.5217775" lon="8.9146995"><ele>155.0</ele><time>2026-04-09T13:57:26.159Z</time></trkpt><trkpt lat="44.5215901" lon="8.9149641"><ele>156.0</ele><time>2026-04-09T13:57:27.999Z</time></trkpt><trkpt lat="44.5214818" lon="8.9150841"><ele>157.0</ele><time>2026-04-09T13:57:29Z</time></trkpt><trkpt lat="44.521359" lon="8.9152393"><ele>158.0</ele><time>2026-04-09T13:57:29.999Z</time></trkpt><trkpt lat="44.5212252" lon="8.9154053"><ele>158.0</ele><time>2026-04-09T13:57:30.999Z</time></trkpt><trkpt lat="44.5210735" lon="8.9155695"><ele>158.0</ele><time>2026-04-09T13:57:31.999Z</time></trkpt><trkpt lat="44.5209212" lon="8.9157271"><ele>158.0</ele><time>2026-04-09T13:57:32.999Z</time></trkpt><trkpt lat="44.5207737" lon="8.9158756"><ele>156.66666666666666</ele><time>2026-04-09T13:57:33.999Z</time></trkpt><trkpt lat="44.5206484" lon="8.9160335"><ele>155.33333333333334</ele><time>2026-04-09T13:57:35Z</time></trkpt><trkpt lat="44.5205403" lon="8.9161998"><ele>154.0</ele><time>2026-04-09T13:57:35.999Z</time></trkpt><trkpt lat="44.5204456" lon="8.9163774"><ele>154.0</ele><time>2026-04-09T13:57:37Z</time></trkpt><trkpt lat="44.5203733" lon="8.9165628"><ele>154.0</ele><time>2026-04-09T13:57:38Z</time></trkpt><trkpt lat="44.5203025" lon="8.9167393"><ele>154.0</ele><time>2026-04-09T13:57:38.999Z</time></trkpt><trkpt lat="44.5202384" lon="8.9169066"><ele>154.0</ele><time>2026-04-09T13:57:39.999Z</time></trkpt><trkpt lat="44.5201813" lon="8.9170678"><ele>154.0</ele><time>2026-04-09T13:57:41Z</time></trkpt><trkpt lat="44.5201234" lon="8.9172292"><ele>154.0</ele><time>2026-04-09T13:57:41.999Z</time></trkpt><trkpt lat="44.5200704" lon="8.9173542"><ele>154.0</ele><time>2026-04-09T13:57:43Z</time></trkpt><trkpt lat="44.5200194" lon="8.9174743"><ele>154.0</ele><time>2026-04-09T13:57:43.999Z</time></trkpt><trkpt lat="44.5199555" lon="8.9175824"><ele>154.0</ele><time>2026-04-09T13:57:44.999Z</time></trkpt><trkpt lat="44.5198791" lon="8.9176649"><ele>152.4</ele><time>2026-04-09T13:57:45.999Z</time></trkpt><trkpt lat="44.5197936" lon="8.9177248"><ele>150.8</ele><time>2026-04-09T13:57:46.999Z</time></trkpt><trkpt lat="44.5197033" lon="8.9177887"><ele>149.2</ele><time>2026-04-09T13:57:47.999Z</time></trkpt><trkpt lat="44.5196133" lon="8.9178114"><ele>147.6</ele><time>2026-04-09T13:57:48.999Z</time></trkpt><trkpt lat="44.5195154" lon="8.9178171"><ele>146.0</ele><time>2026-04-09T13:57:50Z</time></trkpt><trkpt lat="44.5194144" lon="8.9177825"><ele>145.8</ele><time>2026-04-09T13:57:51Z</time></trkpt><trkpt lat="44.5193216" lon="8.9177142"><ele>145.6</ele><time>2026-04-09T13:57:51.999Z</time></trkpt><trkpt lat="44.519237" lon="8.9175904"><ele>145.4</ele><time>2026-04-09T13:57:53Z</time></trkpt><trkpt lat="44.5191619" lon="8.917477"><ele>145.2</ele><time>2026-04-09T13:57:54Z</time></trkpt><trkpt lat="44.5190856" lon="8.9173623"><ele>145.0</ele><time>2026-04-09T13:57:54.999Z</time></trkpt><trkpt lat="44.519015" lon="8.9172476"><ele>145.0</ele><time>2026-04-09T13:57:55.999Z</time></trkpt><trkpt lat="44.5189443" lon="8.9171204"><ele>145.0</ele><time>2026-04-09T13:57:57Z</time></trkpt><trkpt lat="44.5188916" lon="8.916983"><ele>145.0</ele><time>2026-04-09T13:57:57.999Z</time></trkpt><trkpt lat="44.518858" lon="8.9168306"><ele>145.0</ele><time>2026-04-09T13:57:58.999Z</time></trkpt><trkpt lat="44.5188363" lon="8.9166787"><ele>147.6</ele><time>2026-04-09T13:57:59.999Z</time></trkpt><trkpt lat="44.5188243" lon="8.9165313"><ele>150.2</ele><time>2026-04-09T13:58:00.999Z</time></trkpt><trkpt lat="44.5188178" lon="8.9163792"><ele>152.8</ele><time>2026-04-09T13:58:01.999Z</time></trkpt><trkpt lat="44.5188278" lon="8.9162208"><ele>155.4</ele><time>2026-04-09T13:58:02.999Z</time></trkpt><trkpt lat="44.5188469" lon="8.9160615"><ele>158.0</ele><time>2026-04-09T13:58:03.999Z</time></trkpt><trkpt lat="44.51886" lon="8.9158968"><ele>159.75</ele><time>2026-04-09T13:58:05Z</time></trkpt><trkpt lat="44.5188643" lon="8.9157382"><ele>161.5</ele><time>2026-04-09T13:58:05.999Z</time></trkpt><trkpt lat="44.5188508" lon="8.9155658"><ele>163.25</ele><time>2026-04-09T13:58:07Z</time></trkpt><trkpt lat="44.5188309" lon="8.9153988"><ele>165.0</ele><time>2026-04-09T13:58:07.999Z</time></trkpt><trkpt lat="44.5187963" lon="8.9152442"><ele>165.0</ele><time>2026-04-09T13:58:09Z</time></trkpt><trkpt lat="44.5187667" lon="8.9150937"><ele>165.0</ele><time>2026-04-09T13:58:09.999Z</time></trkpt><trkpt lat="44.5187263" lon="8.9149321"><ele>165.0</ele><time>2026-04-09T13:58:11Z</time></trkpt><trkpt lat="44.5186845" lon="8.9147676"><ele>165.0</ele><time>2026-04-09T13:58:12Z</time></trkpt><trkpt lat="44.5186485" lon="8.9146145"><ele>160.8</ele><time>2026-04-09T13:58:13Z</time></trkpt><trkpt lat="44.5186209" lon="8.9144823"><ele>156.6</ele><time>2026-04-09T13:58:13.999Z</time></trkpt><trkpt lat="44.5185904" lon="8.9143409"><ele>152.4</ele><time>2026-04-09T13:58:15Z</time></trkpt><trkpt lat="44.5185547" lon="8.9141902"><ele>148.2</ele><time>2026-04-09T13:58:16Z</time></trkpt><trkpt lat="44.5185054" lon="8.9140559"><ele>144.0</ele><time>2026-04-09T13:58:16.999Z</time></trkpt><trkpt lat="44.5184408" lon="8.913902"><ele>142.8</ele><time>2026-04-09T13:58:17.999Z</time></trkpt><trkpt lat="44.5183665" lon="8.9137919"><ele>141.60000000000002</ele><time>2026-04-09T13:58:19Z</time></trkpt><trkpt lat="44.518278" lon="8.9136986"><ele>140.4</ele><time>2026-04-09T13:58:20Z</time></trkpt><trkpt lat="44.5181963" lon="8.9135997"><ele>139.20000000000002</ele><time>2026-04-09T13:58:20.999Z</time></trkpt><trkpt lat="44.5181081" lon="8.9135194"><ele>138.0</ele><time>2026-04-09T13:58:21.999Z</time></trkpt><trkpt lat="44.5180392" lon="8.9134264"><ele>137.5</ele><time>2026-04-09T13:58:22.999Z</time></trkpt><trkpt lat="44.5179732" lon="8.9133351"><ele>137.0</ele><time>2026-04-09T13:58:24Z</time></trkpt><trkpt lat="44.5179164" lon="8.913244"><ele>136.5</ele><time>2026-04-09T13:58:25Z</time></trkpt><trkpt lat="44.5178661" lon="8.9131428"><ele>136.0</ele><time>2026-04-09T13:58:25.999Z</time></trkpt><trkpt lat="44.5178202" lon="8.913048"><ele>135.5</ele><time>2026-04-09T13:58:27Z</time></trkpt><trkpt lat="44.5177653" lon="8.9129535"><ele>135.0</ele><time>2026-04-09T13:58:27.999Z</time></trkpt><trkpt lat="44.517702" lon="8.9128665"><ele>135.0</ele><time>2026-04-09T13:58:28.999Z</time></trkpt><trkpt lat="44.5176301" lon="8.9127948"><ele>135.0</ele><time>2026-04-09T13:58:30Z</time></trkpt><trkpt lat="44.5175493" lon="8.9127321"><ele>135.0</ele><time>2026-04-09T13:58:30.999Z</time></trkpt><trkpt lat="44.5174712" lon="8.912708"><ele>135.0</ele><time>2026-04-09T13:58:32Z</time></trkpt><trkpt lat="44.5174" lon="8.9126754"><ele>135.0</ele><time>2026-04-09T13:58:33Z</time></trkpt><trkpt lat="44.5173169" lon="8.9126376"><ele>135.0</ele><time>2026-04-09T13:58:33.999Z</time></trkpt><trkpt lat="44.5172297" lon="8.9125986"><ele>135.6</ele><time>2026-04-09T13:58:35Z</time></trkpt><trkpt lat="44.5171401" lon="8.9125667"><ele>136.2</ele><time>2026-04-09T13:58:35.999Z</time></trkpt><trkpt lat="44.5170483" lon="8.9125543"><ele>136.8</ele><time>2026-04-09T13:58:36.999Z</time></trkpt><trkpt lat="44.5169442" lon="8.9125676"><ele>137.4</ele><time>2026-04-09T13:58:37.999Z</time></trkpt><trkpt lat="44.5168453" lon="8.9126029"><ele>138.0</ele><time>2026-04-09T13:58:38.999Z</time></trkpt><trkpt lat="44.5167258" lon="8.912693"><ele>138.0</ele><time>2026-04-09T13:58:40Z</time></trkpt><trkpt lat="44.5166083" lon="8.9127972"><ele>138.0</ele><time>2026-04-09T13:58:40.999Z</time></trkpt><trkpt lat="44.5165013" lon="8.9129423"><ele>138.0</ele><time>2026-04-09T13:58:41.999Z</time></trkpt><trkpt lat="44.5163909" lon="8.913086"><ele>138.0</ele><time>2026-04-09T13:58:42.999Z</time></trkpt><trkpt lat="44.5162776" lon="8.9132126"><ele>138.0</ele><time>2026-04-09T13:58:44Z</time></trkpt><trkpt lat="44.5161423" lon="8.9133238"><ele>138.0</ele><time>2026-04-09T13:58:45Z</time></trkpt><trkpt lat="44.5159961" lon="8.9134268"><ele>138.0</ele><time>2026-04-09T13:58:46Z</time></trkpt><trkpt lat="44.5158543" lon="8.9135162"><ele>135.66666666666666</ele><time>2026-04-09T13:58:47Z</time></trkpt><trkpt lat="44.5157105" lon="8.9135919"><ele>133.33333333333331</ele><time>2026-04-09T13:58:47.999Z</time></trkpt><trkpt lat="44.5155652" lon="8.9136795"><ele>131.0</ele><time>2026-04-09T13:58:48.999Z</time></trkpt><trkpt lat="44.5154385" lon="8.9137565"><ele>130.0</ele><time>2026-04-09T13:58:49.999Z</time></trkpt><trkpt lat="44.5153017" lon="8.9138301"><ele>129.0</ele><time>2026-04-09T13:58:51Z</time></trkpt><trkpt lat="44.5151773" lon="8.913898"><ele>128.0</ele><time>2026-04-09T13:58:51.999Z</time></trkpt><trkpt lat="44.515049" lon="8.9139719"><ele>127.0</ele><time>2026-04-09T13:58:52.999Z</time></trkpt><trkpt lat="44.5149147" lon="8.914051"><ele>127.0</ele><time>2026-04-09T13:58:54Z</time></trkpt><trkpt lat="44.5147773" lon="8.9141323"><ele>127.0</ele><time>2026-04-09T13:58:55Z</time></trkpt><trkpt lat="44.5146551" lon="8.9142106"><ele>127.0</ele><time>2026-04-09T13:58:56Z</time></trkpt><trkpt lat="44.5145204" lon="8.9143063"><ele>127.0</ele><time>2026-04-09T13:58:57Z</time></trkpt><trkpt lat="44.5143892" lon="8.914365"><ele>127.25</ele><time>2026-04-09T13:58:58Z</time></trkpt><trkpt lat="44.5142623" lon="8.9144102"><ele>127.5</ele><time>2026-04-09T13:58:59Z</time></trkpt><trkpt lat="44.5141402" lon="8.914419"><ele>127.75</ele><time>2026-04-09T13:58:59.999Z</time></trkpt><trkpt lat="44.5140114" lon="8.9144382"><ele>128.0</ele><time>2026-04-09T13:59:00.999Z</time></trkpt><trkpt lat="44.5138802" lon="8.9144588"><ele>128.0</ele><time>2026-04-09T13:59:02Z</time></trkpt><trkpt lat="44.5137587" lon="8.9144728"><ele>128.0</ele><time>2026-04-09T13:59:03Z</time></trkpt><trkpt lat="44.5136547" lon="8.9144577"><ele>128.0</ele><time>2026-04-09T13:59:04Z</time></trkpt><trkpt lat="44.5135379" lon="8.9144553"><ele>128.0</ele><time>2026-04-09T13:59:04.999Z</time></trkpt><trkpt lat="44.513423" lon="8.9144473"><ele>128.0</ele><time>2026-04-09T13:59:05.999Z</time></trkpt><trkpt lat="44.5133189" lon="8.9144359"><ele>128.0</ele><time>2026-04-09T13:59:06.999Z</time></trkpt><trkpt lat="44.5131974" lon="8.9143809"><ele>128.0</ele><time>2026-04-09T13:59:08Z</time></trkpt><trkpt lat="44.5130957" lon="8.9142858"><ele>128.0</ele><time>2026-04-09T13:59:09Z</time></trkpt><trkpt lat="44.5129838" lon="8.9141711"><ele>126.0</ele><time>2026-04-09T13:59:09.999Z</time></trkpt><trkpt lat="44.5128478" lon="8.9140427"><ele>124.0</ele><time>2026-04-09T13:59:10.999Z</time></trkpt><trkpt lat="44.5126969" lon="8.9139134"><ele>122.0</ele><time>2026-04-09T13:59:12Z</time></trkpt><trkpt lat="44.5125331" lon="8.9137788"><ele>122.0</ele><time>2026-04-09T13:59:12.999Z</time></trkpt><trkpt lat="44.5123317" lon="8.9136099"><ele>122.0</ele><time>2026-04-09T13:59:13.999Z</time></trkpt><trkpt lat="44.5121672" lon="8.9134282"><ele>122.0</ele><time>2026-04-09T13:59:15Z</time></trkpt><trkpt lat="44.5120015" lon="8.9132489"><ele>123.0</ele><time>2026-04-09T13:59:16Z</time></trkpt><trkpt lat="44.5118317" lon="8.9130941"><ele>124.0</ele><time>2026-04-09T13:59:17Z</time></trkpt><trkpt lat="44.5116777" lon="8.912938"><ele>125.0</ele><time>2026-04-09T13:59:18Z</time></trkpt><trkpt lat="44.5115268" lon="8.9127998"><ele>125.0</ele><time>2026-04-09T13:59:19Z</time></trkpt><trkpt lat="44.5113823" lon="8.9126674"><ele>125.0</ele><time>2026-04-09T13:59:20Z</time></trkpt><trkpt lat="44.5112316" lon="8.9125317"><ele>125.0</ele><time>2026-04-09T13:59:20.999Z</time></trkpt><trkpt lat="44.511081" lon="8.9124282"><ele>124.33333333333333</ele><time>2026-04-09T13:59:21.999Z</time></trkpt><trkpt lat="44.5109188" lon="8.9123492"><ele>123.66666666666666</ele><time>2026-04-09T13:59:23Z</time></trkpt><trkpt lat="44.5107568" lon="8.9122995"><ele>123.0</ele><time>2026-04-09T13:59:23.999Z</time></trkpt><trkpt lat="44.5105823" lon="8.9122485"><ele>123.0</ele><time>2026-04-09T13:59:24.999Z</time></trkpt><trkpt lat="44.5104196" lon="8.9122192"><ele>123.0</ele><time>2026-04-09T13:59:26Z</time></trkpt><trkpt lat="44.510266" lon="8.9122079"><ele>123.0</ele><time>2026-04-09T13:59:27Z</time></trkpt><trkpt lat="44.5101253" lon="8.9122142"><ele>123.0</ele><time>2026-04-09T13:59:28Z</time></trkpt><trkpt lat="44.5099912" lon="8.912251"><ele>123.0</ele><time>2026-04-09T13:59:29Z</time></trkpt><trkpt lat="44.5098714" lon="8.9123042"><ele>123.0</ele><time>2026-04-09T13:59:29.999Z</time></trkpt><trkpt lat="44.509732" lon="8.9123651"><ele>123.0</ele><time>2026-04-09T13:59:30.999Z</time></trkpt><trkpt lat="44.509594" lon="8.9124275"><ele>122.33333333333334</ele><time>2026-04-09T13:59:31.999Z</time></trkpt><trkpt lat="44.5094376" lon="8.9125128"><ele>121.66666666666667</ele><time>2026-04-09T13:59:32.999Z</time></trkpt><trkpt lat="44.5092841" lon="8.91258"><ele>121.0</ele><time>2026-04-09T13:59:33.999Z</time></trkpt><trkpt lat="44.5091568" lon="8.9126422"><ele>120.25</ele><time>2026-04-09T13:59:35Z</time></trkpt><trkpt lat="44.5090371" lon="8.9127102"><ele>119.5</ele><time>2026-04-09T13:59:36Z</time></trkpt><trkpt lat="44.5089098" lon="8.912762"><ele>118.75</ele><time>2026-04-09T13:59:36.999Z</time></trkpt><trkpt lat="44.5087746" lon="8.9127955"><ele>118.0</ele><time>2026-04-09T13:59:37.999Z</time></trkpt><trkpt lat="44.5086527" lon="8.9127745"><ele>118.0</ele><time>2026-04-09T13:59:38.999Z</time></trkpt><trkpt lat="44.5085456" lon="8.9127187"><ele>118.0</ele><time>2026-04-09T13:59:40Z</time></trkpt><trkpt lat="44.508478" lon="8.9126013"><ele>118.0</ele><time>2026-04-09T13:59:41Z</time></trkpt><trkpt lat="44.5084128" lon="8.9124604"><ele>118.0</ele><time>2026-04-09T13:59:42Z</time></trkpt><trkpt lat="44.5083648" lon="8.9122934"><ele>117.75</ele><time>2026-04-09T13:59:42.999Z</time></trkpt><trkpt lat="44.5083013" lon="8.9120917"><ele>117.5</ele><time>2026-04-09T13:59:44Z</time></trkpt><trkpt lat="44.5082501" lon="8.9119107"><ele>117.25</ele><time>2026-04-09T13:59:45Z</time></trkpt><trkpt lat="44.5081936" lon="8.9117422"><ele>117.0</ele><time>2026-04-09T13:59:46Z</time></trkpt><trkpt lat="44.5081361" lon="8.9115639"><ele>117.0</ele><time>2026-04-09T13:59:46.999Z</time></trkpt><trkpt lat="44.5080788" lon="8.9113846"><ele>117.0</ele><time>2026-04-09T13:59:47.999Z</time></trkpt><trkpt lat="44.5080219" lon="8.9112149"><ele>117.0</ele><time>2026-04-09T13:59:49Z</time></trkpt><trkpt lat="44.5079872" lon="8.9110579"><ele>117.0</ele><time>2026-04-09T13:59:50Z</time></trkpt><trkpt lat="44.5079421" lon="8.9108902"><ele>115.5</ele><time>2026-04-09T13:59:51Z</time></trkpt><trkpt lat="44.5078936" lon="8.9107277"><ele>114.0</ele><time>2026-04-09T13:59:51.999Z</time></trkpt><trkpt lat="44.5078465" lon="8.9105738"><ele>112.5</ele><time>2026-04-09T13:59:53Z</time></trkpt><trkpt lat="44.5078024" lon="8.910417"><ele>111.0</ele><time>2026-04-09T13:59:53.999Z</time></trkpt><trkpt lat="44.5077599" lon="8.9102613"><ele>111.0</ele><time>2026-04-09T13:59:54.999Z</time></trkpt><trkpt lat="44.5077157" lon="8.9101131"><ele>111.0</ele><time>2026-04-09T13:59:56Z</time></trkpt><trkpt lat="44.5076741" lon="8.9099834"><ele>111.0</ele><time>2026-04-09T13:59:56.999Z</time></trkpt><trkpt lat="44.5076204" lon="8.9098599"><ele>111.0</ele><time>2026-04-09T13:59:58Z</time></trkpt><trkpt lat="44.5075597" lon="8.9097281"><ele>111.0</ele><time>2026-04-09T13:59:59Z</time></trkpt><trkpt lat="44.5074871" lon="8.9096113"><ele>111.0</ele><time>2026-04-09T13:59:59.999Z</time></trkpt><trkpt lat="44.5073959" lon="8.9095134"><ele>111.0</ele><time>2026-04-09T14:00:01Z</time></trkpt><trkpt lat="44.5073018" lon="8.9094152"><ele>111.0</ele><time>2026-04-09T14:00:02Z</time></trkpt><trkpt lat="44.5072026" lon="8.9093236"><ele>111.0</ele><time>2026-04-09T14:00:02.999Z</time></trkpt><trkpt lat="44.507101" lon="8.9092656"><ele>111.5</ele><time>2026-04-09T14:00:04Z</time></trkpt><trkpt lat="44.5069971" lon="8.9092099"><ele>112.0</ele><time>2026-04-09T14:00:04.999Z</time></trkpt><trkpt lat="44.5068887" lon="8.9091576"><ele>112.5</ele><time>2026-04-09T14:00:06Z</time></trkpt><trkpt lat="44.5067751" lon="8.909102"><ele>113.0</ele><time>2026-04-09T14:00:06.999Z</time></trkpt><trkpt lat="44.5066605" lon="8.9090404"><ele>113.0</ele><time>2026-04-09T14:00:08Z</time></trkpt><trkpt lat="44.5065508" lon="8.9090025"><ele>113.00000000000001</ele><time>2026-04-09T14:00:09Z</time></trkpt><trkpt lat="44.5064335" lon="8.9089542"><ele>113.00000000000001</ele><time>2026-04-09T14:00:10Z</time></trkpt><trkpt lat="44.506324" lon="8.9089178"><ele>113.0</ele><time>2026-04-09T14:00:10.999Z</time></trkpt><trkpt lat="44.5062254" lon="8.908884"><ele>113.0</ele><time>2026-04-09T14:00:12Z</time></trkpt><trkpt lat="44.5061142" lon="8.9088352"><ele>112.0</ele><time>2026-04-09T14:00:13Z</time></trkpt><trkpt lat="44.5060166" lon="8.9087758"><ele>111.00000000000001</ele><time>2026-04-09T14:00:13.999Z</time></trkpt><trkpt lat="44.5059222" lon="8.9087115"><ele>110.00000000000001</ele><time>2026-04-09T14:00:15Z</time></trkpt><trkpt lat="44.5058159" lon="8.9086243"><ele>109.0</ele><time>2026-04-09T14:00:16Z</time></trkpt><trkpt lat="44.5057223" lon="8.908536"><ele>108.0</ele><time>2026-04-09T14:00:16.999Z</time></trkpt><trkpt lat="44.5056207" lon="8.9084472"><ele>107.66666666666666</ele><time>2026-04-09T14:00:17.999Z</time></trkpt><trkpt lat="44.5055161" lon="8.9083557"><ele>107.33333333333333</ele><time>2026-04-09T14:00:18.999Z</time></trkpt><trkpt lat="44.5054163" lon="8.9082658"><ele>107.0</ele><time>2026-04-09T14:00:20Z</time></trkpt><trkpt lat="44.5052028" lon="8.9080796"><ele>107.0</ele><time>2026-04-09T14:00:21.999Z</time></trkpt><trkpt lat="44.505101" lon="8.9079677"><ele>107.0</ele><time>2026-04-09T14:00:22.999Z</time></trkpt><trkpt lat="44.504997" lon="8.907875"><ele>107.0</ele><time>2026-04-09T14:00:24.107Z</time></trkpt><trkpt lat="44.5047862" lon="8.907675"><ele>107.5</ele><time>2026-04-09T14:00:26.115Z</time></trkpt><trkpt lat="44.5045897" lon="8.9075026"><ele>108.0</ele><time>2026-04-09T14:00:27.999Z</time></trkpt><trkpt lat="44.5045009" lon="8.9074155"><ele>108.5</ele><time>2026-04-09T14:00:29Z</time></trkpt><trkpt lat="44.5044105" lon="8.9073398"><ele>109.0</ele><time>2026-04-09T14:00:30Z</time></trkpt><trkpt lat="44.5043394" lon="8.9072786"><ele>107.0</ele><time>2026-04-09T14:00:31.115Z</time></trkpt><trkpt lat="44.5041807" lon="8.907138"><ele>105.0</ele><time>2026-04-09T14:00:32.999Z</time></trkpt><trkpt lat="44.5041075" lon="8.9070439"><ele>103.0</ele><time>2026-04-09T14:00:34.131Z</time></trkpt><trkpt lat="44.5039724" lon="8.9068184"><ele>102.75</ele><time>2026-04-09T14:00:35.999Z</time></trkpt><trkpt lat="44.5038916" lon="8.9066955"><ele>102.5</ele><time>2026-04-09T14:00:36.999Z</time></trkpt><trkpt lat="44.503806" lon="8.9065792"><ele>102.25</ele><time>2026-04-09T14:00:37.999Z</time></trkpt><trkpt lat="44.5037312" lon="8.906451"><ele>102.0</ele><time>2026-04-09T14:00:39Z</time></trkpt><trkpt lat="44.5036649" lon="8.9063359"><ele>102.0</ele><time>2026-04-09T14:00:39.999Z</time></trkpt><trkpt lat="44.5035846" lon="8.9062426"><ele>102.0</ele><time>2026-04-09T14:00:40.999Z</time></trkpt><trkpt lat="44.5035004" lon="8.9061457"><ele>102.0</ele><time>2026-04-09T14:00:42Z</time></trkpt><trkpt lat="44.5034074" lon="8.9060781"><ele>102.0</ele><time>2026-04-09T14:00:43Z</time></trkpt><trkpt lat="44.5033165" lon="8.9060337"><ele>102.0</ele><time>2026-04-09T14:00:43.999Z</time></trkpt><trkpt lat="44.5032122" lon="8.9059915"><ele>102.0</ele><time>2026-04-09T14:00:45.114Z</time></trkpt><trkpt lat="44.5030255" lon="8.9059523"><ele>102.0</ele><time>2026-04-09T14:00:46.999Z</time></trkpt><trkpt lat="44.5029216" lon="8.9059547"><ele>102.0</ele><time>2026-04-09T14:00:48Z</time></trkpt><trkpt lat="44.5028298" lon="8.9059834"><ele>102.0</ele><time>2026-04-09T14:00:48.999Z</time></trkpt><trkpt lat="44.5027386" lon="8.9060302"><ele>101.8</ele><time>2026-04-09T14:00:49.999Z</time></trkpt><trkpt lat="44.5026401" lon="8.9060882"><ele>101.6</ele><time>2026-04-09T14:00:51Z</time></trkpt><trkpt lat="44.5025551" lon="8.9061351"><ele>101.39999999999999</ele><time>2026-04-09T14:00:52Z</time></trkpt><trkpt lat="44.5024498" lon="8.9061405"><ele>101.19999999999999</ele><time>2026-04-09T14:00:52.999Z</time></trkpt><trkpt lat="44.5023496" lon="8.9061207"><ele>101.0</ele><time>2026-04-09T14:00:54Z</time></trkpt><trkpt lat="44.5022504" lon="8.9060531"><ele>101.0</ele><time>2026-04-09T14:00:54.999Z</time></trkpt><trkpt lat="44.5021473" lon="8.9059896"><ele>101.0</ele><time>2026-04-09T14:00:56Z</time></trkpt><trkpt lat="44.502039" lon="8.9059153"><ele>101.0</ele><time>2026-04-09T14:00:56.999Z</time></trkpt><trkpt lat="44.5019482" lon="8.9058375"><ele>101.0</ele><time>2026-04-09T14:00:57.999Z</time></trkpt><trkpt lat="44.5018472" lon="8.9057596"><ele>100.6</ele><time>2026-04-09T14:00:59Z</time></trkpt><trkpt lat="44.5017506" lon="8.9056807"><ele>100.19999999999999</ele><time>2026-04-09T14:01:00Z</time></trkpt><trkpt lat="44.5016669" lon="8.9056"><ele>99.80000000000001</ele><time>2026-04-09T14:01:01Z</time></trkpt><trkpt lat="44.5015924" lon="8.9055147"><ele>99.4</ele><time>2026-04-09T14:01:01.999Z</time></trkpt><trkpt lat="44.501515" lon="8.9054245"><ele>99.0</ele><time>2026-04-09T14:01:03Z</time></trkpt><trkpt lat="44.5014535" lon="8.9053176"><ele>99.0</ele><time>2026-04-09T14:01:03.999Z</time></trkpt><trkpt lat="44.501435" lon="8.9052211"><ele>99.0</ele><time>2026-04-09T14:01:05.152Z</time></trkpt><trkpt lat="44.5014053" lon="8.9051393"><ele>99.0</ele><time>2026-04-09T14:01:06.123Z</time></trkpt><trkpt lat="44.5013416" lon="8.9049926"><ele>99.0</ele><time>2026-04-09T14:01:07.999Z</time></trkpt><trkpt lat="44.5013143" lon="8.9049119"><ele>99.0</ele><time>2026-04-09T14:01:09.999Z</time></trkpt><trkpt lat="44.5012664" lon="8.9048081"><ele>99.0</ele><time>2026-04-09T14:02:18Z</time></trkpt><trkpt lat="44.5011873" lon="8.9046367"><ele>99.16666666666667</ele><time>2026-04-09T14:02:29Z</time></trkpt><trkpt lat="44.5011522" lon="8.9045542"><ele>99.33333333333334</ele><time>2026-04-09T14:02:29.999Z</time></trkpt><trkpt lat="44.5010848" lon="8.9044258"><ele>99.5</ele><time>2026-04-09T14:02:30.999Z</time></trkpt><trkpt lat="44.501031" lon="8.9043245"><ele>99.66666666666667</ele><time>2026-04-09T14:02:32Z</time></trkpt><trkpt lat="44.5009857" lon="8.9042283"><ele>99.83333333333334</ele><time>2026-04-09T14:02:33Z</time></trkpt><trkpt lat="44.5009383" lon="8.9041214"><ele>100.0</ele><time>2026-04-09T14:02:34Z</time></trkpt><trkpt lat="44.500898" lon="8.9040239"><ele>100.33333333333334</ele><time>2026-04-09T14:02:34.999Z</time></trkpt><trkpt lat="44.5008542" lon="8.9039178"><ele>100.66666666666667</ele><time>2026-04-09T14:02:36Z</time></trkpt><trkpt lat="44.5008071" lon="8.9038093"><ele>101.0</ele><time>2026-04-09T14:02:36.999Z</time></trkpt><trkpt lat="44.5007631" lon="8.9037092"><ele>101.33333333333334</ele><time>2026-04-09T14:02:37.999Z</time></trkpt><trkpt lat="44.500708" lon="8.9036183"><ele>101.66666666666667</ele><time>2026-04-09T14:02:39Z</time></trkpt><trkpt lat="44.5006466" lon="8.903537"><ele>102.0</ele><time>2026-04-09T14:02:40Z</time></trkpt><trkpt lat="44.5005754" lon="8.9034557"><ele>101.57142857142857</ele><time>2026-04-09T14:02:40.999Z</time></trkpt><trkpt lat="44.5005134" lon="8.9034046"><ele>101.14285714285714</ele><time>2026-04-09T14:02:41.999Z</time></trkpt><trkpt lat="44.5004428" lon="8.9033691"><ele>100.71428571428572</ele><time>2026-04-09T14:02:42.999Z</time></trkpt><trkpt lat="44.5003622" lon="8.9033296"><ele>100.28571428571428</ele><time>2026-04-09T14:02:43.999Z</time></trkpt><trkpt lat="44.5002973" lon="8.9033033"><ele>99.85714285714285</ele><time>2026-04-09T14:02:44.999Z</time></trkpt><trkpt lat="44.500233" lon="8.9032766"><ele>99.42857142857143</ele><time>2026-04-09T14:02:46Z</time></trkpt><trkpt lat="44.5001663" lon="8.9032451"><ele>99.0</ele><time>2026-04-09T14:02:46.999Z</time></trkpt><trkpt lat="44.5001058" lon="8.9032153"><ele>99.0</ele><time>2026-04-09T14:02:47.999Z</time></trkpt><trkpt lat="44.5000177" lon="8.9031837"><ele>99.0</ele><time>2026-04-09T14:02:50Z</time></trkpt><trkpt lat="44.4999369" lon="8.9031655"><ele>99.0</ele><time>2026-04-09T14:02:54.999Z</time></trkpt><trkpt lat="44.4998415" lon="8.903145"><ele>99.0</ele><time>2026-04-09T14:02:58Z</time></trkpt><trkpt lat="44.499768" lon="8.9031326"><ele>99.0</ele><time>2026-04-09T14:02:59.999Z</time></trkpt><trkpt lat="44.4996892" lon="8.9031491"><ele>99.0</ele><time>2026-04-09T14:03:02Z</time></trkpt><trkpt lat="44.4996024" lon="8.9031757"><ele>98.5</ele><time>2026-04-09T14:03:04Z</time></trkpt><trkpt lat="44.4995093" lon="8.9032057"><ele>98.0</ele><time>2026-04-09T14:03:05.999Z</time></trkpt><trkpt lat="44.4994119" lon="8.9032308"><ele>97.5</ele><time>2026-04-09T14:03:07.999Z</time></trkpt><trkpt lat="44.4993369" lon="8.9032497"><ele>97.0</ele><time>2026-04-09T14:03:10.999Z</time></trkpt><trkpt lat="44.4992653" lon="8.903245"><ele>96.5</ele><time>2026-04-09T14:03:14.999Z</time></trkpt><trkpt lat="44.4992506" lon="8.9031225"><ele>96.0</ele><time>2026-04-09T14:03:19.999Z</time></trkpt><trkpt lat="44.4992879" lon="8.9030228"><ele>96.0</ele><time>2026-04-09T14:03:21.999Z</time></trkpt><trkpt lat="44.4993163" lon="8.9029287"><ele>96.0</ele><time>2026-04-09T14:03:24.999Z</time></trkpt><trkpt lat="44.4993091" lon="8.9028146"><ele>96.0</ele><time>2026-04-09T14:03:34Z</time></trkpt><trkpt lat="44.4993161" lon="8.9027093"><ele>96.0</ele><time>2026-04-09T14:03:36Z</time></trkpt><trkpt lat="44.4992983" lon="8.9026068"><ele>96.0</ele><time>2026-04-09T14:03:40.999Z</time></trkpt><trkpt lat="44.4992655" lon="8.9024963"><ele>96.0</ele><time>2026-04-09T14:03:45Z</time></trkpt><trkpt lat="44.4992364" lon="8.9023983"><ele>96.4</ele><time>2026-04-09T14:03:46.999Z</time></trkpt><trkpt lat="44.4992039" lon="8.9022934"><ele>96.8</ele><time>2026-04-09T14:03:49Z</time></trkpt><trkpt lat="44.4991586" lon="8.9021693"><ele>97.2</ele><time>2026-04-09T14:03:50.999Z</time></trkpt><trkpt lat="44.4991223" lon="8.9020097"><ele>97.60000000000001</ele><time>2026-04-09T14:03:52.999Z</time></trkpt><trkpt lat="44.4991003" lon="8.9019263"><ele>98.0</ele><time>2026-04-09T14:03:54Z</time></trkpt><trkpt lat="44.4990601" lon="8.9017709"><ele>96.80000000000001</ele><time>2026-04-09T14:03:55.999Z</time></trkpt><trkpt lat="44.4990329" lon="8.9016597"><ele>95.6</ele><time>2026-04-09T14:03:57.999Z</time></trkpt><trkpt lat="44.4990039" lon="8.9015586"><ele>94.4</ele><time>2026-04-09T14:04:00Z</time></trkpt><trkpt lat="44.4989852" lon="8.9014605"><ele>93.19999999999999</ele><time>2026-04-09T14:04:02Z</time></trkpt><trkpt lat="44.4989762" lon="8.9012946"><ele>92.0</ele><time>2026-04-09T14:04:07.999Z</time></trkpt><trkpt lat="44.4990571" lon="8.9011988"><ele>92.0</ele><time>2026-04-09T14:04:09.999Z</time></trkpt><trkpt lat="44.4991244" lon="8.9011594"><ele>92.0</ele><time>2026-04-09T14:04:10.999Z</time></trkpt><trkpt lat="44.4992084" lon="8.9011269"><ele>92.0</ele><time>2026-04-09T14:04:12Z</time></trkpt><trkpt lat="44.4992959" lon="8.9010799"><ele>92.0</ele><time>2026-04-09T14:04:12.999Z</time></trkpt><trkpt lat="44.4993807" lon="8.9010336"><ele>92.0</ele><time>2026-04-09T14:04:13.999Z</time></trkpt><trkpt lat="44.4994477" lon="8.900995"><ele>92.0</ele><time>2026-04-09T14:04:14.999Z</time></trkpt><trkpt lat="44.4995242" lon="8.9009511"><ele>92.16666666666667</ele><time>2026-04-09T14:04:16Z</time></trkpt><trkpt lat="44.4995884" lon="8.900907"><ele>92.33333333333334</ele><time>2026-04-09T14:04:17Z</time></trkpt><trkpt lat="44.4996836" lon="8.9008646"><ele>92.5</ele><time>2026-04-09T14:04:18Z</time></trkpt><trkpt lat="44.4997507" lon="8.9008242"><ele>92.66666666666667</ele><time>2026-04-09T14:04:19Z</time></trkpt><trkpt lat="44.4998244" lon="8.9007838"><ele>92.83333333333333</ele><time>2026-04-09T14:04:20Z</time></trkpt><trkpt lat="44.499905" lon="8.9007504"><ele>93.0</ele><time>2026-04-09T14:04:20.999Z</time></trkpt><trkpt lat="44.4999828" lon="8.90071"><ele>93.0</ele><time>2026-04-09T14:04:22Z</time></trkpt><trkpt lat="44.5000708" lon="8.9006705"><ele>93.0</ele><time>2026-04-09T14:04:22.999Z</time></trkpt><trkpt lat="44.5001437" lon="8.9006379"><ele>93.0</ele><time>2026-04-09T14:04:24Z</time></trkpt><trkpt lat="44.500223" lon="8.9006026"><ele>93.0</ele><time>2026-04-09T14:04:24.999Z</time></trkpt><trkpt lat="44.5002977" lon="8.9005673"><ele>93.0</ele><time>2026-04-09T14:04:26Z</time></trkpt><trkpt lat="44.5003735" lon="8.900534"><ele>93.0</ele><time>2026-04-09T14:04:27Z</time></trkpt><trkpt lat="44.5004469" lon="8.9004821"><ele>94.60000000000001</ele><time>2026-04-09T14:04:27.999Z</time></trkpt><trkpt lat="44.500541" lon="8.9004336"><ele>96.2</ele><time>2026-04-09T14:04:29Z</time></trkpt><trkpt lat="44.5006241" lon="8.9003763"><ele>97.8</ele><time>2026-04-09T14:04:30Z</time></trkpt><trkpt lat="44.500721" lon="8.9003166"><ele>99.4</ele><time>2026-04-09T14:04:31Z</time></trkpt><trkpt lat="44.5008139" lon="8.9002548"><ele>101.0</ele><time>2026-04-09T14:04:31.999Z</time></trkpt><trkpt lat="44.5008952" lon="8.9001935"><ele>101.0</ele><time>2026-04-09T14:04:33Z</time></trkpt><trkpt lat="44.5009801" lon="8.9001246"><ele>101.0</ele><time>2026-04-09T14:04:34Z</time></trkpt><trkpt lat="44.5010614" lon="8.9000433"><ele>101.0</ele><time>2026-04-09T14:04:34.999Z</time></trkpt><trkpt lat="44.5011401" lon="8.8999538"><ele>101.0</ele><time>2026-04-09T14:04:35.999Z</time></trkpt><trkpt lat="44.5012113" lon="8.8998585"><ele>101.0</ele><time>2026-04-09T14:04:37Z</time></trkpt><trkpt lat="44.501285" lon="8.8997636"><ele>100.8</ele><time>2026-04-09T14:04:38Z</time></trkpt><trkpt lat="44.5013622" lon="8.899663"><ele>100.6</ele><time>2026-04-09T14:04:38.999Z</time></trkpt><trkpt lat="44.501444" lon="8.8995624"><ele>100.4</ele><time>2026-04-09T14:04:39.999Z</time></trkpt><trkpt lat="44.501513" lon="8.8994551"><ele>100.2</ele><time>2026-04-09T14:04:40.999Z</time></trkpt><trkpt lat="44.5015766" lon="8.8993514"><ele>100.0</ele><time>2026-04-09T14:04:41.999Z</time></trkpt><trkpt lat="44.5016426" lon="8.8992534"><ele>100.00000000000001</ele><time>2026-04-09T14:04:42.999Z</time></trkpt><trkpt lat="44.5017046" lon="8.8991717"><ele>100.0</ele><time>2026-04-09T14:04:44Z</time></trkpt><trkpt lat="44.501759" lon="8.8991044"><ele>100.0</ele><time>2026-04-09T14:04:44.999Z</time></trkpt><trkpt lat="44.5018006" lon="8.8990346"><ele>100.0</ele><time>2026-04-09T14:04:46Z</time></trkpt><trkpt lat="44.5018552" lon="8.8989344"><ele>100.00000000000001</ele><time>2026-04-09T14:04:47.999Z</time></trkpt><trkpt lat="44.5018504" lon="8.8988161"><ele>100.0</ele><time>2026-04-09T14:04:51.999Z</time></trkpt><trkpt lat="44.5017447" lon="8.8989245"><ele>100.0</ele><time>2026-04-09T14:04:55.999Z</time></trkpt><trkpt lat="44.5016924" lon="8.898986"><ele>100.0</ele><time>2026-04-09T14:04:57Z</time></trkpt><trkpt lat="44.5015913" lon="8.8991024"><ele>100.0</ele><time>2026-04-09T14:04:58.999Z</time></trkpt><trkpt lat="44.5014806" lon="8.8992262"><ele>100.0</ele><time>2026-04-09T14:05:01Z</time></trkpt><trkpt lat="44.5014244" lon="8.8992844"><ele>100.0</ele><time>2026-04-09T14:05:01.999Z</time></trkpt><trkpt lat="44.5013609" lon="8.8993388"><ele>100.00000000000001</ele><time>2026-04-09T14:05:02.999Z</time></trkpt><trkpt lat="44.5012808" lon="8.899396"><ele>100.0</ele><time>2026-04-09T14:05:04Z</time></trkpt><trkpt lat="44.501208" lon="8.8994301"><ele>100.0</ele><time>2026-04-09T14:05:04.999Z</time></trkpt><trkpt lat="44.5011474" lon="8.8994551"><ele>100.0</ele><time>2026-04-09T14:05:05.999Z</time></trkpt><trkpt lat="44.5010771" lon="8.8994636"><ele>100.00000000000001</ele><time>2026-04-09T14:05:08Z</time></trkpt><trkpt lat="44.5010557" lon="8.8993576"><ele>100.0</ele><time>2026-04-09T14:05:10Z</time></trkpt><trkpt lat="44.5010274" lon="8.8992381"><ele>101.00000000000001</ele><time>2026-04-09T14:05:12Z</time></trkpt><trkpt lat="44.5010119" lon="8.8991243"><ele>102.0</ele><time>2026-04-09T14:05:14Z</time></trkpt><trkpt lat="44.5010716" lon="8.8990439"><ele>103.0</ele><time>2026-04-09T14:05:17Z</time></trkpt><trkpt lat="44.5011484" lon="8.8990496"><ele>104.0</ele><time>2026-04-09T14:05:21Z</time></trkpt><trkpt lat="44.5012017" lon="8.8991145"><ele>105.00000000000001</ele><time>2026-04-09T14:05:24.999Z</time></trkpt><trkpt lat="44.5012459" lon="8.8991789"><ele>106.0</ele><time>2026-04-09T14:05:29.999Z</time></trkpt><trkpt lat="44.5012088" lon="8.8990703"><ele>106.0</ele><time>2026-04-09T14:05:34.999Z</time></trkpt><trkpt lat="44.501139" lon="8.8991275"><ele>106.0</ele><time>2026-04-09T14:05:46Z</time></trkpt></trkseg></trk></gpx>